<?xml version="1.0" encoding="UTF-8" standalone="no" ?>
<gpx xmlns="http://www.topografix.com/GPX/1/1" xmlns:xsi="http://www.w3.org/2001/XMLSchema-instance" xsi:schemaLocation="http://www.topografix.com/GPX/1/1 http://www.topografix.com/GPX/1/1/gpx.xsd" version="1.1" creator="VisuGPX - https://www.visugpx.com">
  <metadata>
    <name>2011-01-09 Chezine - Procé</name>
    <desc><![CDATA[Le longe de la Chezine départ vers l\'Hopitau puis demi toue vers parc de procès cause inondation.]]></desc>
  </metadata>
  <trk>
    <name><![CDATA[2011-01-09-01]]></name>
    <trkseg>
      <trkpt lat="47.23811" lon="-1.61445">
        <ele>24</ele>
        <time>2011-01-09T07:30:29Z</time>
      </trkpt>
      <trkpt lat="47.23808" lon="-1.61458">
        <ele>24</ele>
        <time>2011-01-09T07:30:39Z</time>
      </trkpt>
      <trkpt lat="47.23809" lon="-1.6146">
        <ele>24</ele>
        <time>2011-01-09T07:30:40Z</time>
      </trkpt>
      <trkpt lat="47.23807" lon="-1.61471">
        <ele>24</ele>
        <time>2011-01-09T07:30:48Z</time>
      </trkpt>
      <trkpt lat="47.23806" lon="-1.61472">
        <ele>24</ele>
        <time>2011-01-09T07:30:49Z</time>
      </trkpt>
      <trkpt lat="47.23805" lon="-1.61473">
        <ele>24</ele>
        <time>2011-01-09T07:30:50Z</time>
      </trkpt>
      <trkpt lat="47.23803" lon="-1.61475">
        <ele>24</ele>
        <time>2011-01-09T07:30:51Z</time>
      </trkpt>
      <trkpt lat="47.23802" lon="-1.61476">
        <ele>24</ele>
        <time>2011-01-09T07:30:52Z</time>
      </trkpt>
      <trkpt lat="47.23802" lon="-1.61478">
        <ele>24</ele>
        <time>2011-01-09T07:30:53Z</time>
      </trkpt>
      <trkpt lat="47.23801" lon="-1.6148">
        <ele>24</ele>
        <time>2011-01-09T07:30:56Z</time>
      </trkpt>
      <trkpt lat="47.23801" lon="-1.61482">
        <ele>24</ele>
        <time>2011-01-09T07:30:57Z</time>
      </trkpt>
      <trkpt lat="47.23801" lon="-1.61482">
        <ele>24</ele>
        <time>2011-01-09T07:30:58Z</time>
      </trkpt>
      <trkpt lat="47.23802" lon="-1.61482">
        <ele>24</ele>
        <time>2011-01-09T07:30:59Z</time>
      </trkpt>
      <trkpt lat="47.23803" lon="-1.61483">
        <ele>24</ele>
        <time>2011-01-09T07:31:00Z</time>
      </trkpt>
      <trkpt lat="47.23804" lon="-1.61483">
        <ele>24</ele>
        <time>2011-01-09T07:31:01Z</time>
      </trkpt>
      <trkpt lat="47.23805" lon="-1.61483">
        <ele>24</ele>
        <time>2011-01-09T07:31:02Z</time>
      </trkpt>
      <trkpt lat="47.23804" lon="-1.61484">
        <ele>24</ele>
        <time>2011-01-09T07:31:03Z</time>
      </trkpt>
      <trkpt lat="47.23804" lon="-1.61484">
        <ele>24</ele>
        <time>2011-01-09T07:31:04Z</time>
      </trkpt>
      <trkpt lat="47.23803" lon="-1.61484">
        <ele>24</ele>
        <time>2011-01-09T07:31:05Z</time>
      </trkpt>
      <trkpt lat="47.23803" lon="-1.61484">
        <ele>24</ele>
        <time>2011-01-09T07:31:06Z</time>
      </trkpt>
      <trkpt lat="47.23803" lon="-1.61484">
        <ele>24</ele>
        <time>2011-01-09T07:31:07Z</time>
      </trkpt>
      <trkpt lat="47.23802" lon="-1.61484">
        <ele>24</ele>
        <time>2011-01-09T07:31:08Z</time>
      </trkpt>
      <trkpt lat="47.23803" lon="-1.61484">
        <ele>24</ele>
        <time>2011-01-09T07:31:09Z</time>
      </trkpt>
      <trkpt lat="47.23803" lon="-1.61484">
        <ele>24</ele>
        <time>2011-01-09T07:31:10Z</time>
      </trkpt>
      <trkpt lat="47.23802" lon="-1.61484">
        <ele>24</ele>
        <time>2011-01-09T07:31:11Z</time>
      </trkpt>
      <trkpt lat="47.23802" lon="-1.61485">
        <ele>24</ele>
        <time>2011-01-09T07:31:12Z</time>
      </trkpt>
      <trkpt lat="47.23802" lon="-1.61486">
        <ele>24</ele>
        <time>2011-01-09T07:31:13Z</time>
      </trkpt>
      <trkpt lat="47.23801" lon="-1.61486">
        <ele>23</ele>
        <time>2011-01-09T07:31:14Z</time>
      </trkpt>
      <trkpt lat="47.238" lon="-1.6151">
        <ele>24</ele>
        <time>2011-01-09T07:31:39Z</time>
      </trkpt>
      <trkpt lat="47.23799" lon="-1.61511">
        <ele>24</ele>
        <time>2011-01-09T07:31:40Z</time>
      </trkpt>
      <trkpt lat="47.23799" lon="-1.61512">
        <ele>24</ele>
        <time>2011-01-09T07:31:41Z</time>
      </trkpt>
      <trkpt lat="47.23799" lon="-1.61513">
        <ele>24</ele>
        <time>2011-01-09T07:31:42Z</time>
      </trkpt>
      <trkpt lat="47.23799" lon="-1.61514">
        <ele>24</ele>
        <time>2011-01-09T07:31:43Z</time>
      </trkpt>
      <trkpt lat="47.23798" lon="-1.61514">
        <ele>24</ele>
        <time>2011-01-09T07:31:44Z</time>
      </trkpt>
      <trkpt lat="47.23798" lon="-1.61514">
        <ele>24</ele>
        <time>2011-01-09T07:31:45Z</time>
      </trkpt>
      <trkpt lat="47.23797" lon="-1.61514">
        <ele>24</ele>
        <time>2011-01-09T07:31:46Z</time>
      </trkpt>
      <trkpt lat="47.23797" lon="-1.61513">
        <ele>24</ele>
        <time>2011-01-09T07:31:47Z</time>
      </trkpt>
      <trkpt lat="47.23797" lon="-1.61513">
        <ele>24</ele>
        <time>2011-01-09T07:31:48Z</time>
      </trkpt>
      <trkpt lat="47.23797" lon="-1.61512">
        <ele>24</ele>
        <time>2011-01-09T07:31:49Z</time>
      </trkpt>
      <trkpt lat="47.23796" lon="-1.61513">
        <ele>24</ele>
        <time>2011-01-09T07:31:50Z</time>
      </trkpt>
      <trkpt lat="47.23795" lon="-1.61514">
        <ele>24</ele>
        <time>2011-01-09T07:31:51Z</time>
      </trkpt>
      <trkpt lat="47.23795" lon="-1.61516">
        <ele>24</ele>
        <time>2011-01-09T07:31:52Z</time>
      </trkpt>
      <trkpt lat="47.23794" lon="-1.61516">
        <ele>24</ele>
        <time>2011-01-09T07:31:53Z</time>
      </trkpt>
      <trkpt lat="47.23793" lon="-1.61517">
        <ele>24</ele>
        <time>2011-01-09T07:31:54Z</time>
      </trkpt>
      <trkpt lat="47.23793" lon="-1.61519">
        <ele>24</ele>
        <time>2011-01-09T07:31:55Z</time>
      </trkpt>
      <trkpt lat="47.23792" lon="-1.6152">
        <ele>24</ele>
        <time>2011-01-09T07:31:56Z</time>
      </trkpt>
      <trkpt lat="47.2379" lon="-1.61524">
        <ele>24</ele>
        <time>2011-01-09T07:31:59Z</time>
      </trkpt>
      <trkpt lat="47.23789" lon="-1.61528">
        <ele>24</ele>
        <time>2011-01-09T07:32:01Z</time>
      </trkpt>
      <trkpt lat="47.23787" lon="-1.61529">
        <ele>24</ele>
        <time>2011-01-09T07:32:02Z</time>
      </trkpt>
      <trkpt lat="47.23787" lon="-1.61529">
        <ele>24</ele>
        <time>2011-01-09T07:32:03Z</time>
      </trkpt>
      <trkpt lat="47.23786" lon="-1.6153">
        <ele>24</ele>
        <time>2011-01-09T07:32:04Z</time>
      </trkpt>
      <trkpt lat="47.23786" lon="-1.61531">
        <ele>24</ele>
        <time>2011-01-09T07:32:05Z</time>
      </trkpt>
      <trkpt lat="47.23785" lon="-1.61532">
        <ele>24</ele>
        <time>2011-01-09T07:32:06Z</time>
      </trkpt>
      <trkpt lat="47.23785" lon="-1.61535">
        <ele>24</ele>
        <time>2011-01-09T07:32:07Z</time>
      </trkpt>
      <trkpt lat="47.23785" lon="-1.61537">
        <ele>24</ele>
        <time>2011-01-09T07:32:08Z</time>
      </trkpt>
      <trkpt lat="47.23785" lon="-1.61539">
        <ele>24</ele>
        <time>2011-01-09T07:32:09Z</time>
      </trkpt>
      <trkpt lat="47.23784" lon="-1.61542">
        <ele>24</ele>
        <time>2011-01-09T07:32:10Z</time>
      </trkpt>
      <trkpt lat="47.23784" lon="-1.61544">
        <ele>24</ele>
        <time>2011-01-09T07:32:11Z</time>
      </trkpt>
      <trkpt lat="47.23776" lon="-1.61565">
        <ele>23</ele>
        <time>2011-01-09T07:32:23Z</time>
      </trkpt>
      <trkpt lat="47.23776" lon="-1.61566">
        <ele>23</ele>
        <time>2011-01-09T07:32:24Z</time>
      </trkpt>
      <trkpt lat="47.23777" lon="-1.61568">
        <ele>23</ele>
        <time>2011-01-09T07:32:25Z</time>
      </trkpt>
      <trkpt lat="47.23778" lon="-1.6157">
        <ele>23</ele>
        <time>2011-01-09T07:32:26Z</time>
      </trkpt>
      <trkpt lat="47.23778" lon="-1.61571">
        <ele>23</ele>
        <time>2011-01-09T07:32:27Z</time>
      </trkpt>
      <trkpt lat="47.23777" lon="-1.61573">
        <ele>23</ele>
        <time>2011-01-09T07:32:28Z</time>
      </trkpt>
      <trkpt lat="47.23776" lon="-1.61575">
        <ele>23</ele>
        <time>2011-01-09T07:32:29Z</time>
      </trkpt>
      <trkpt lat="47.23776" lon="-1.61576">
        <ele>23</ele>
        <time>2011-01-09T07:32:30Z</time>
      </trkpt>
      <trkpt lat="47.23774" lon="-1.61579">
        <ele>23</ele>
        <time>2011-01-09T07:32:31Z</time>
      </trkpt>
      <trkpt lat="47.23774" lon="-1.6158">
        <ele>23</ele>
        <time>2011-01-09T07:32:32Z</time>
      </trkpt>
      <trkpt lat="47.23768" lon="-1.61586">
        <ele>24</ele>
        <time>2011-01-09T07:32:37Z</time>
      </trkpt>
      <trkpt lat="47.23767" lon="-1.61589">
        <ele>24</ele>
        <time>2011-01-09T07:32:38Z</time>
      </trkpt>
      <trkpt lat="47.23766" lon="-1.6159">
        <ele>24</ele>
        <time>2011-01-09T07:32:39Z</time>
      </trkpt>
      <trkpt lat="47.23764" lon="-1.61617">
        <ele>25</ele>
        <time>2011-01-09T07:32:56Z</time>
      </trkpt>
      <trkpt lat="47.23764" lon="-1.61619">
        <ele>25</ele>
        <time>2011-01-09T07:32:57Z</time>
      </trkpt>
      <trkpt lat="47.23763" lon="-1.61621">
        <ele>25</ele>
        <time>2011-01-09T07:32:58Z</time>
      </trkpt>
      <trkpt lat="47.23751" lon="-1.61683">
        <ele>28</ele>
        <time>2011-01-09T07:33:36Z</time>
      </trkpt>
      <trkpt lat="47.23751" lon="-1.61685">
        <ele>28</ele>
        <time>2011-01-09T07:33:37Z</time>
      </trkpt>
      <trkpt lat="47.23751" lon="-1.61687">
        <ele>28</ele>
        <time>2011-01-09T07:33:38Z</time>
      </trkpt>
      <trkpt lat="47.23751" lon="-1.61689">
        <ele>28</ele>
        <time>2011-01-09T07:33:39Z</time>
      </trkpt>
      <trkpt lat="47.2375" lon="-1.61692">
        <ele>28</ele>
        <time>2011-01-09T07:33:40Z</time>
      </trkpt>
      <trkpt lat="47.2375" lon="-1.61694">
        <ele>29</ele>
        <time>2011-01-09T07:33:41Z</time>
      </trkpt>
      <trkpt lat="47.23749" lon="-1.61696">
        <ele>29</ele>
        <time>2011-01-09T07:33:42Z</time>
      </trkpt>
      <trkpt lat="47.23749" lon="-1.61698">
        <ele>29</ele>
        <time>2011-01-09T07:33:43Z</time>
      </trkpt>
      <trkpt lat="47.23749" lon="-1.617">
        <ele>29</ele>
        <time>2011-01-09T07:33:44Z</time>
      </trkpt>
      <trkpt lat="47.2375" lon="-1.61702">
        <ele>29</ele>
        <time>2011-01-09T07:33:45Z</time>
      </trkpt>
      <trkpt lat="47.2375" lon="-1.61704">
        <ele>29</ele>
        <time>2011-01-09T07:33:46Z</time>
      </trkpt>
      <trkpt lat="47.23748" lon="-1.61706">
        <ele>29</ele>
        <time>2011-01-09T07:33:47Z</time>
      </trkpt>
      <trkpt lat="47.23747" lon="-1.61708">
        <ele>29</ele>
        <time>2011-01-09T07:33:48Z</time>
      </trkpt>
      <trkpt lat="47.23747" lon="-1.61709">
        <ele>29</ele>
        <time>2011-01-09T07:33:49Z</time>
      </trkpt>
      <trkpt lat="47.23747" lon="-1.61711">
        <ele>29</ele>
        <time>2011-01-09T07:33:50Z</time>
      </trkpt>
      <trkpt lat="47.23746" lon="-1.61713">
        <ele>29</ele>
        <time>2011-01-09T07:33:51Z</time>
      </trkpt>
      <trkpt lat="47.23747" lon="-1.61714">
        <ele>29</ele>
        <time>2011-01-09T07:33:52Z</time>
      </trkpt>
      <trkpt lat="47.23747" lon="-1.61716">
        <ele>29</ele>
        <time>2011-01-09T07:33:53Z</time>
      </trkpt>
      <trkpt lat="47.23747" lon="-1.61718">
        <ele>29</ele>
        <time>2011-01-09T07:33:54Z</time>
      </trkpt>
      <trkpt lat="47.23748" lon="-1.61719">
        <ele>29</ele>
        <time>2011-01-09T07:33:55Z</time>
      </trkpt>
      <trkpt lat="47.23758" lon="-1.61779">
        <ele>30</ele>
        <time>2011-01-09T07:34:29Z</time>
      </trkpt>
      <trkpt lat="47.23757" lon="-1.61781">
        <ele>30</ele>
        <time>2011-01-09T07:34:30Z</time>
      </trkpt>
      <trkpt lat="47.23783" lon="-1.6185">
        <ele>30</ele>
        <time>2011-01-09T07:35:18Z</time>
      </trkpt>
      <trkpt lat="47.23821" lon="-1.61911">
        <ele>29</ele>
        <time>2011-01-09T07:36:01Z</time>
      </trkpt>
      <trkpt lat="47.23821" lon="-1.61912">
        <ele>29</ele>
        <time>2011-01-09T07:36:02Z</time>
      </trkpt>
      <trkpt lat="47.23822" lon="-1.61914">
        <ele>29</ele>
        <time>2011-01-09T07:36:03Z</time>
      </trkpt>
      <trkpt lat="47.23823" lon="-1.61915">
        <ele>29</ele>
        <time>2011-01-09T07:36:04Z</time>
      </trkpt>
      <trkpt lat="47.23881" lon="-1.61961">
        <ele>27</ele>
        <time>2011-01-09T07:37:00Z</time>
      </trkpt>
      <trkpt lat="47.23882" lon="-1.61961">
        <ele>27</ele>
        <time>2011-01-09T07:37:01Z</time>
      </trkpt>
      <trkpt lat="47.23882" lon="-1.61962">
        <ele>27</ele>
        <time>2011-01-09T07:37:02Z</time>
      </trkpt>
      <trkpt lat="47.23882" lon="-1.61962">
        <ele>27</ele>
        <time>2011-01-09T07:37:03Z</time>
      </trkpt>
      <trkpt lat="47.23883" lon="-1.61962">
        <ele>27</ele>
        <time>2011-01-09T07:37:04Z</time>
      </trkpt>
      <trkpt lat="47.23884" lon="-1.61963">
        <ele>27</ele>
        <time>2011-01-09T07:37:05Z</time>
      </trkpt>
      <trkpt lat="47.23885" lon="-1.61963">
        <ele>27</ele>
        <time>2011-01-09T07:37:06Z</time>
      </trkpt>
      <trkpt lat="47.23887" lon="-1.61963">
        <ele>27</ele>
        <time>2011-01-09T07:37:07Z</time>
      </trkpt>
      <trkpt lat="47.23888" lon="-1.61963">
        <ele>27</ele>
        <time>2011-01-09T07:37:08Z</time>
      </trkpt>
      <trkpt lat="47.2389" lon="-1.61963">
        <ele>27</ele>
        <time>2011-01-09T07:37:09Z</time>
      </trkpt>
      <trkpt lat="47.23891" lon="-1.61963">
        <ele>27</ele>
        <time>2011-01-09T07:37:10Z</time>
      </trkpt>
      <trkpt lat="47.23891" lon="-1.61964">
        <ele>27</ele>
        <time>2011-01-09T07:37:11Z</time>
      </trkpt>
      <trkpt lat="47.23892" lon="-1.61964">
        <ele>27</ele>
        <time>2011-01-09T07:37:12Z</time>
      </trkpt>
      <trkpt lat="47.23893" lon="-1.61964">
        <ele>27</ele>
        <time>2011-01-09T07:37:13Z</time>
      </trkpt>
      <trkpt lat="47.23894" lon="-1.61965">
        <ele>27</ele>
        <time>2011-01-09T07:37:14Z</time>
      </trkpt>
      <trkpt lat="47.23895" lon="-1.61965">
        <ele>27</ele>
        <time>2011-01-09T07:37:15Z</time>
      </trkpt>
      <trkpt lat="47.23897" lon="-1.61965">
        <ele>27</ele>
        <time>2011-01-09T07:37:16Z</time>
      </trkpt>
      <trkpt lat="47.23898" lon="-1.61965">
        <ele>27</ele>
        <time>2011-01-09T07:37:17Z</time>
      </trkpt>
      <trkpt lat="47.239" lon="-1.61965">
        <ele>27</ele>
        <time>2011-01-09T07:37:18Z</time>
      </trkpt>
      <trkpt lat="47.239" lon="-1.61965">
        <ele>27</ele>
        <time>2011-01-09T07:37:19Z</time>
      </trkpt>
      <trkpt lat="47.23901" lon="-1.61965">
        <ele>27</ele>
        <time>2011-01-09T07:37:20Z</time>
      </trkpt>
      <trkpt lat="47.23902" lon="-1.61965">
        <ele>27</ele>
        <time>2011-01-09T07:37:21Z</time>
      </trkpt>
      <trkpt lat="47.23903" lon="-1.61964">
        <ele>27</ele>
        <time>2011-01-09T07:37:22Z</time>
      </trkpt>
      <trkpt lat="47.23905" lon="-1.61964">
        <ele>27</ele>
        <time>2011-01-09T07:37:23Z</time>
      </trkpt>
      <trkpt lat="47.23906" lon="-1.61963">
        <ele>27</ele>
        <time>2011-01-09T07:37:24Z</time>
      </trkpt>
      <trkpt lat="47.23908" lon="-1.61963">
        <ele>27</ele>
        <time>2011-01-09T07:37:25Z</time>
      </trkpt>
      <trkpt lat="47.23909" lon="-1.61963">
        <ele>27</ele>
        <time>2011-01-09T07:37:26Z</time>
      </trkpt>
      <trkpt lat="47.23909" lon="-1.61963">
        <ele>27</ele>
        <time>2011-01-09T07:37:27Z</time>
      </trkpt>
      <trkpt lat="47.2391" lon="-1.61963">
        <ele>27</ele>
        <time>2011-01-09T07:37:28Z</time>
      </trkpt>
      <trkpt lat="47.23911" lon="-1.61963">
        <ele>27</ele>
        <time>2011-01-09T07:37:29Z</time>
      </trkpt>
      <trkpt lat="47.23913" lon="-1.61962">
        <ele>27</ele>
        <time>2011-01-09T07:37:30Z</time>
      </trkpt>
      <trkpt lat="47.23932" lon="-1.61971">
        <ele>28</ele>
        <time>2011-01-09T07:37:55Z</time>
      </trkpt>
      <trkpt lat="47.23933" lon="-1.61971">
        <ele>28</ele>
        <time>2011-01-09T07:37:56Z</time>
      </trkpt>
      <trkpt lat="47.23934" lon="-1.61971">
        <ele>28</ele>
        <time>2011-01-09T07:37:57Z</time>
      </trkpt>
      <trkpt lat="47.23934" lon="-1.61972">
        <ele>28</ele>
        <time>2011-01-09T07:37:58Z</time>
      </trkpt>
      <trkpt lat="47.23935" lon="-1.61973">
        <ele>28</ele>
        <time>2011-01-09T07:37:59Z</time>
      </trkpt>
      <trkpt lat="47.23936" lon="-1.61973">
        <ele>28</ele>
        <time>2011-01-09T07:38:00Z</time>
      </trkpt>
      <trkpt lat="47.23937" lon="-1.61972">
        <ele>28</ele>
        <time>2011-01-09T07:38:01Z</time>
      </trkpt>
      <trkpt lat="47.23939" lon="-1.61972">
        <ele>28</ele>
        <time>2011-01-09T07:38:02Z</time>
      </trkpt>
      <trkpt lat="47.23941" lon="-1.61972">
        <ele>28</ele>
        <time>2011-01-09T07:38:03Z</time>
      </trkpt>
      <trkpt lat="47.23942" lon="-1.61972">
        <ele>29</ele>
        <time>2011-01-09T07:38:04Z</time>
      </trkpt>
      <trkpt lat="47.23941" lon="-1.61973">
        <ele>28</ele>
        <time>2011-01-09T07:38:05Z</time>
      </trkpt>
      <trkpt lat="47.23942" lon="-1.61973">
        <ele>28</ele>
        <time>2011-01-09T07:38:06Z</time>
      </trkpt>
      <trkpt lat="47.23943" lon="-1.61974">
        <ele>28</ele>
        <time>2011-01-09T07:38:07Z</time>
      </trkpt>
      <trkpt lat="47.23943" lon="-1.61975">
        <ele>28</ele>
        <time>2011-01-09T07:38:08Z</time>
      </trkpt>
      <trkpt lat="47.23945" lon="-1.61976">
        <ele>29</ele>
        <time>2011-01-09T07:38:09Z</time>
      </trkpt>
      <trkpt lat="47.23952" lon="-1.6198">
        <ele>29</ele>
        <time>2011-01-09T07:38:19Z</time>
      </trkpt>
      <trkpt lat="47.23953" lon="-1.61981">
        <ele>29</ele>
        <time>2011-01-09T07:38:20Z</time>
      </trkpt>
      <trkpt lat="47.23954" lon="-1.61982">
        <ele>29</ele>
        <time>2011-01-09T07:38:21Z</time>
      </trkpt>
      <trkpt lat="47.23954" lon="-1.61984">
        <ele>29</ele>
        <time>2011-01-09T07:38:22Z</time>
      </trkpt>
      <trkpt lat="47.23956" lon="-1.61984">
        <ele>29</ele>
        <time>2011-01-09T07:38:23Z</time>
      </trkpt>
      <trkpt lat="47.23969" lon="-1.6199">
        <ele>30</ele>
        <time>2011-01-09T07:38:34Z</time>
      </trkpt>
      <trkpt lat="47.2397" lon="-1.61991">
        <ele>30</ele>
        <time>2011-01-09T07:38:35Z</time>
      </trkpt>
      <trkpt lat="47.23971" lon="-1.61992">
        <ele>30</ele>
        <time>2011-01-09T07:38:36Z</time>
      </trkpt>
      <trkpt lat="47.23972" lon="-1.61992">
        <ele>30</ele>
        <time>2011-01-09T07:38:37Z</time>
      </trkpt>
      <trkpt lat="47.23972" lon="-1.61994">
        <ele>30</ele>
        <time>2011-01-09T07:38:38Z</time>
      </trkpt>
      <trkpt lat="47.23973" lon="-1.61994">
        <ele>30</ele>
        <time>2011-01-09T07:38:39Z</time>
      </trkpt>
      <trkpt lat="47.23974" lon="-1.61995">
        <ele>30</ele>
        <time>2011-01-09T07:38:40Z</time>
      </trkpt>
      <trkpt lat="47.23974" lon="-1.61996">
        <ele>30</ele>
        <time>2011-01-09T07:38:41Z</time>
      </trkpt>
      <trkpt lat="47.23975" lon="-1.61997">
        <ele>30</ele>
        <time>2011-01-09T07:38:42Z</time>
      </trkpt>
      <trkpt lat="47.23976" lon="-1.61998">
        <ele>30</ele>
        <time>2011-01-09T07:38:43Z</time>
      </trkpt>
      <trkpt lat="47.23977" lon="-1.61998">
        <ele>30</ele>
        <time>2011-01-09T07:38:44Z</time>
      </trkpt>
      <trkpt lat="47.23978" lon="-1.61999">
        <ele>30</ele>
        <time>2011-01-09T07:38:45Z</time>
      </trkpt>
      <trkpt lat="47.23979" lon="-1.62">
        <ele>30</ele>
        <time>2011-01-09T07:38:46Z</time>
      </trkpt>
      <trkpt lat="47.23979" lon="-1.62001">
        <ele>28</ele>
        <time>2011-01-09T07:38:47Z</time>
      </trkpt>
      <trkpt lat="47.23979" lon="-1.62002">
        <ele>28</ele>
        <time>2011-01-09T07:38:48Z</time>
      </trkpt>
      <trkpt lat="47.23979" lon="-1.62004">
        <ele>28</ele>
        <time>2011-01-09T07:38:49Z</time>
      </trkpt>
      <trkpt lat="47.23979" lon="-1.62005">
        <ele>28</ele>
        <time>2011-01-09T07:38:50Z</time>
      </trkpt>
      <trkpt lat="47.23979" lon="-1.62006">
        <ele>28</ele>
        <time>2011-01-09T07:38:51Z</time>
      </trkpt>
      <trkpt lat="47.23979" lon="-1.62007">
        <ele>28</ele>
        <time>2011-01-09T07:38:52Z</time>
      </trkpt>
      <trkpt lat="47.2398" lon="-1.62008">
        <ele>28</ele>
        <time>2011-01-09T07:38:53Z</time>
      </trkpt>
      <trkpt lat="47.23981" lon="-1.62008">
        <ele>28</ele>
        <time>2011-01-09T07:38:54Z</time>
      </trkpt>
      <trkpt lat="47.23982" lon="-1.62009">
        <ele>28</ele>
        <time>2011-01-09T07:38:55Z</time>
      </trkpt>
      <trkpt lat="47.23982" lon="-1.62009">
        <ele>28</ele>
        <time>2011-01-09T07:38:56Z</time>
      </trkpt>
      <trkpt lat="47.23982" lon="-1.62012">
        <ele>28</ele>
        <time>2011-01-09T07:38:57Z</time>
      </trkpt>
      <trkpt lat="47.23983" lon="-1.62013">
        <ele>28</ele>
        <time>2011-01-09T07:38:58Z</time>
      </trkpt>
      <trkpt lat="47.23983" lon="-1.62015">
        <ele>28</ele>
        <time>2011-01-09T07:38:59Z</time>
      </trkpt>
      <trkpt lat="47.23983" lon="-1.62017">
        <ele>28</ele>
        <time>2011-01-09T07:39:00Z</time>
      </trkpt>
      <trkpt lat="47.23983" lon="-1.62017">
        <ele>28</ele>
        <time>2011-01-09T07:39:01Z</time>
      </trkpt>
      <trkpt lat="47.23984" lon="-1.62018">
        <ele>28</ele>
        <time>2011-01-09T07:39:02Z</time>
      </trkpt>
      <trkpt lat="47.23984" lon="-1.62019">
        <ele>28</ele>
        <time>2011-01-09T07:39:03Z</time>
      </trkpt>
      <trkpt lat="47.23985" lon="-1.6202">
        <ele>28</ele>
        <time>2011-01-09T07:39:04Z</time>
      </trkpt>
      <trkpt lat="47.23986" lon="-1.6202">
        <ele>28</ele>
        <time>2011-01-09T07:39:05Z</time>
      </trkpt>
      <trkpt lat="47.23987" lon="-1.62022">
        <ele>28</ele>
        <time>2011-01-09T07:39:06Z</time>
      </trkpt>
      <trkpt lat="47.23988" lon="-1.62022">
        <ele>28</ele>
        <time>2011-01-09T07:39:07Z</time>
      </trkpt>
      <trkpt lat="47.23989" lon="-1.62023">
        <ele>28</ele>
        <time>2011-01-09T07:39:08Z</time>
      </trkpt>
      <trkpt lat="47.2399" lon="-1.62024">
        <ele>28</ele>
        <time>2011-01-09T07:39:09Z</time>
      </trkpt>
      <trkpt lat="47.2399" lon="-1.62025">
        <ele>28</ele>
        <time>2011-01-09T07:39:10Z</time>
      </trkpt>
      <trkpt lat="47.23991" lon="-1.62025">
        <ele>28</ele>
        <time>2011-01-09T07:39:11Z</time>
      </trkpt>
      <trkpt lat="47.23992" lon="-1.62026">
        <ele>28</ele>
        <time>2011-01-09T07:39:12Z</time>
      </trkpt>
      <trkpt lat="47.23993" lon="-1.62026">
        <ele>28</ele>
        <time>2011-01-09T07:39:13Z</time>
      </trkpt>
      <trkpt lat="47.23993" lon="-1.62033">
        <ele>27</ele>
        <time>2011-01-09T07:39:19Z</time>
      </trkpt>
      <trkpt lat="47.23994" lon="-1.62032">
        <ele>27</ele>
        <time>2011-01-09T07:39:20Z</time>
      </trkpt>
      <trkpt lat="47.23994" lon="-1.62034">
        <ele>27</ele>
        <time>2011-01-09T07:39:21Z</time>
      </trkpt>
      <trkpt lat="47.23995" lon="-1.62034">
        <ele>27</ele>
        <time>2011-01-09T07:39:22Z</time>
      </trkpt>
      <trkpt lat="47.23995" lon="-1.62035">
        <ele>27</ele>
        <time>2011-01-09T07:39:23Z</time>
      </trkpt>
      <trkpt lat="47.23996" lon="-1.62037">
        <ele>27</ele>
        <time>2011-01-09T07:39:24Z</time>
      </trkpt>
      <trkpt lat="47.23996" lon="-1.62037">
        <ele>27</ele>
        <time>2011-01-09T07:39:25Z</time>
      </trkpt>
      <trkpt lat="47.23996" lon="-1.62037">
        <ele>27</ele>
        <time>2011-01-09T07:39:26Z</time>
      </trkpt>
      <trkpt lat="47.23996" lon="-1.62037">
        <ele>27</ele>
        <time>2011-01-09T07:39:27Z</time>
      </trkpt>
      <trkpt lat="47.23996" lon="-1.62038">
        <ele>27</ele>
        <time>2011-01-09T07:39:28Z</time>
      </trkpt>
      <trkpt lat="47.23996" lon="-1.62038">
        <ele>27</ele>
        <time>2011-01-09T07:39:29Z</time>
      </trkpt>
      <trkpt lat="47.23996" lon="-1.62039">
        <ele>27</ele>
        <time>2011-01-09T07:39:30Z</time>
      </trkpt>
      <trkpt lat="47.23996" lon="-1.6204">
        <ele>27</ele>
        <time>2011-01-09T07:39:31Z</time>
      </trkpt>
      <trkpt lat="47.23996" lon="-1.62041">
        <ele>27</ele>
        <time>2011-01-09T07:39:32Z</time>
      </trkpt>
      <trkpt lat="47.23996" lon="-1.62042">
        <ele>27</ele>
        <time>2011-01-09T07:39:33Z</time>
      </trkpt>
      <trkpt lat="47.23996" lon="-1.62042">
        <ele>27</ele>
        <time>2011-01-09T07:39:34Z</time>
      </trkpt>
      <trkpt lat="47.23996" lon="-1.62042">
        <ele>27</ele>
        <time>2011-01-09T07:39:35Z</time>
      </trkpt>
      <trkpt lat="47.23994" lon="-1.62043">
        <ele>27</ele>
        <time>2011-01-09T07:39:36Z</time>
      </trkpt>
      <trkpt lat="47.23994" lon="-1.62044">
        <ele>27</ele>
        <time>2011-01-09T07:39:37Z</time>
      </trkpt>
      <trkpt lat="47.23993" lon="-1.62045">
        <ele>27</ele>
        <time>2011-01-09T07:39:38Z</time>
      </trkpt>
      <trkpt lat="47.23992" lon="-1.62046">
        <ele>27</ele>
        <time>2011-01-09T07:39:39Z</time>
      </trkpt>
      <trkpt lat="47.23992" lon="-1.62046">
        <ele>27</ele>
        <time>2011-01-09T07:39:40Z</time>
      </trkpt>
      <trkpt lat="47.23992" lon="-1.62046">
        <ele>27</ele>
        <time>2011-01-09T07:39:41Z</time>
      </trkpt>
      <trkpt lat="47.23991" lon="-1.62046">
        <ele>27</ele>
        <time>2011-01-09T07:39:42Z</time>
      </trkpt>
      <trkpt lat="47.23991" lon="-1.62045">
        <ele>27</ele>
        <time>2011-01-09T07:39:43Z</time>
      </trkpt>
      <trkpt lat="47.2399" lon="-1.62046">
        <ele>27</ele>
        <time>2011-01-09T07:39:44Z</time>
      </trkpt>
      <trkpt lat="47.2399" lon="-1.62047">
        <ele>27</ele>
        <time>2011-01-09T07:39:45Z</time>
      </trkpt>
      <trkpt lat="47.23992" lon="-1.62045">
        <ele>27</ele>
        <time>2011-01-09T07:39:46Z</time>
      </trkpt>
      <trkpt lat="47.23992" lon="-1.62045">
        <ele>27</ele>
        <time>2011-01-09T07:39:47Z</time>
      </trkpt>
      <trkpt lat="47.23992" lon="-1.62045">
        <ele>27</ele>
        <time>2011-01-09T07:39:48Z</time>
      </trkpt>
      <trkpt lat="47.23993" lon="-1.62045">
        <ele>27</ele>
        <time>2011-01-09T07:39:49Z</time>
      </trkpt>
      <trkpt lat="47.23992" lon="-1.62046">
        <ele>27</ele>
        <time>2011-01-09T07:39:50Z</time>
      </trkpt>
      <trkpt lat="47.23992" lon="-1.62047">
        <ele>27</ele>
        <time>2011-01-09T07:39:51Z</time>
      </trkpt>
      <trkpt lat="47.24006" lon="-1.62051">
        <ele>31</ele>
        <time>2011-01-09T07:40:14Z</time>
      </trkpt>
      <trkpt lat="47.24008" lon="-1.62051">
        <ele>32</ele>
        <time>2011-01-09T07:40:15Z</time>
      </trkpt>
      <trkpt lat="47.24008" lon="-1.6205">
        <ele>32</ele>
        <time>2011-01-09T07:40:16Z</time>
      </trkpt>
      <trkpt lat="47.24006" lon="-1.62051">
        <ele>31</ele>
        <time>2011-01-09T07:40:17Z</time>
      </trkpt>
      <trkpt lat="47.24006" lon="-1.6205">
        <ele>31</ele>
        <time>2011-01-09T07:40:18Z</time>
      </trkpt>
      <trkpt lat="47.24006" lon="-1.62049">
        <ele>32</ele>
        <time>2011-01-09T07:40:19Z</time>
      </trkpt>
      <trkpt lat="47.24007" lon="-1.62048">
        <ele>32</ele>
        <time>2011-01-09T07:40:20Z</time>
      </trkpt>
      <trkpt lat="47.24005" lon="-1.62048">
        <ele>32</ele>
        <time>2011-01-09T07:40:24Z</time>
      </trkpt>
      <trkpt lat="47.24005" lon="-1.62048">
        <ele>32</ele>
        <time>2011-01-09T07:40:25Z</time>
      </trkpt>
      <trkpt lat="47.24004" lon="-1.62048">
        <ele>32</ele>
        <time>2011-01-09T07:40:26Z</time>
      </trkpt>
      <trkpt lat="47.24005" lon="-1.62048">
        <ele>32</ele>
        <time>2011-01-09T07:40:29Z</time>
      </trkpt>
      <trkpt lat="47.24003" lon="-1.62048">
        <ele>32</ele>
        <time>2011-01-09T07:40:30Z</time>
      </trkpt>
      <trkpt lat="47.23988" lon="-1.62064">
        <ele>26</ele>
        <time>2011-01-09T07:40:58Z</time>
      </trkpt>
      <trkpt lat="47.23989" lon="-1.62064">
        <ele>26</ele>
        <time>2011-01-09T07:40:59Z</time>
      </trkpt>
      <trkpt lat="47.23989" lon="-1.62064">
        <ele>26</ele>
        <time>2011-01-09T07:41:00Z</time>
      </trkpt>
      <trkpt lat="47.2399" lon="-1.62064">
        <ele>26</ele>
        <time>2011-01-09T07:41:01Z</time>
      </trkpt>
      <trkpt lat="47.23991" lon="-1.62064">
        <ele>26</ele>
        <time>2011-01-09T07:41:02Z</time>
      </trkpt>
      <trkpt lat="47.23992" lon="-1.62064">
        <ele>26</ele>
        <time>2011-01-09T07:41:03Z</time>
      </trkpt>
      <trkpt lat="47.23992" lon="-1.62064">
        <ele>26</ele>
        <time>2011-01-09T07:41:04Z</time>
      </trkpt>
      <trkpt lat="47.23992" lon="-1.62063">
        <ele>26</ele>
        <time>2011-01-09T07:41:05Z</time>
      </trkpt>
      <trkpt lat="47.23993" lon="-1.62063">
        <ele>26</ele>
        <time>2011-01-09T07:41:06Z</time>
      </trkpt>
      <trkpt lat="47.23993" lon="-1.62063">
        <ele>26</ele>
        <time>2011-01-09T07:41:07Z</time>
      </trkpt>
      <trkpt lat="47.23994" lon="-1.62063">
        <ele>26</ele>
        <time>2011-01-09T07:41:08Z</time>
      </trkpt>
      <trkpt lat="47.23994" lon="-1.62062">
        <ele>26</ele>
        <time>2011-01-09T07:41:09Z</time>
      </trkpt>
      <trkpt lat="47.23995" lon="-1.62061">
        <ele>26</ele>
        <time>2011-01-09T07:41:10Z</time>
      </trkpt>
      <trkpt lat="47.23995" lon="-1.62061">
        <ele>26</ele>
        <time>2011-01-09T07:41:11Z</time>
      </trkpt>
      <trkpt lat="47.23996" lon="-1.62061">
        <ele>26</ele>
        <time>2011-01-09T07:41:12Z</time>
      </trkpt>
      <trkpt lat="47.23996" lon="-1.62061">
        <ele>26</ele>
        <time>2011-01-09T07:41:13Z</time>
      </trkpt>
      <trkpt lat="47.23996" lon="-1.62061">
        <ele>26</ele>
        <time>2011-01-09T07:41:14Z</time>
      </trkpt>
      <trkpt lat="47.23997" lon="-1.6206">
        <ele>26</ele>
        <time>2011-01-09T07:41:15Z</time>
      </trkpt>
      <trkpt lat="47.23997" lon="-1.62061">
        <ele>26</ele>
        <time>2011-01-09T07:41:16Z</time>
      </trkpt>
      <trkpt lat="47.23998" lon="-1.62061">
        <ele>27</ele>
        <time>2011-01-09T07:41:17Z</time>
      </trkpt>
      <trkpt lat="47.23998" lon="-1.62061">
        <ele>27</ele>
        <time>2011-01-09T07:41:18Z</time>
      </trkpt>
      <trkpt lat="47.23999" lon="-1.62062">
        <ele>27</ele>
        <time>2011-01-09T07:41:19Z</time>
      </trkpt>
      <trkpt lat="47.24" lon="-1.62061">
        <ele>27</ele>
        <time>2011-01-09T07:41:20Z</time>
      </trkpt>
      <trkpt lat="47.24" lon="-1.62061">
        <ele>31</ele>
        <time>2011-01-09T07:41:21Z</time>
      </trkpt>
      <trkpt lat="47.24" lon="-1.62061">
        <ele>31</ele>
        <time>2011-01-09T07:41:22Z</time>
      </trkpt>
      <trkpt lat="47.24001" lon="-1.62061">
        <ele>31</ele>
        <time>2011-01-09T07:41:23Z</time>
      </trkpt>
      <trkpt lat="47.24001" lon="-1.62062">
        <ele>30</ele>
        <time>2011-01-09T07:41:24Z</time>
      </trkpt>
      <trkpt lat="47.24001" lon="-1.62062">
        <ele>30</ele>
        <time>2011-01-09T07:41:25Z</time>
      </trkpt>
      <trkpt lat="47.24002" lon="-1.62063">
        <ele>30</ele>
        <time>2011-01-09T07:41:26Z</time>
      </trkpt>
      <trkpt lat="47.24002" lon="-1.62063">
        <ele>30</ele>
        <time>2011-01-09T07:41:27Z</time>
      </trkpt>
      <trkpt lat="47.24003" lon="-1.62063">
        <ele>30</ele>
        <time>2011-01-09T07:41:28Z</time>
      </trkpt>
      <trkpt lat="47.24003" lon="-1.62064">
        <ele>30</ele>
        <time>2011-01-09T07:41:29Z</time>
      </trkpt>
      <trkpt lat="47.24004" lon="-1.62062">
        <ele>31</ele>
        <time>2011-01-09T07:41:30Z</time>
      </trkpt>
      <trkpt lat="47.24004" lon="-1.62061">
        <ele>31</ele>
        <time>2011-01-09T07:41:31Z</time>
      </trkpt>
      <trkpt lat="47.24008" lon="-1.62069">
        <ele>30</ele>
        <time>2011-01-09T07:42:22Z</time>
      </trkpt>
      <trkpt lat="47.24008" lon="-1.62069">
        <ele>30</ele>
        <time>2011-01-09T07:42:23Z</time>
      </trkpt>
      <trkpt lat="47.24009" lon="-1.6207">
        <ele>30</ele>
        <time>2011-01-09T07:42:24Z</time>
      </trkpt>
      <trkpt lat="47.2401" lon="-1.6207">
        <ele>30</ele>
        <time>2011-01-09T07:42:25Z</time>
      </trkpt>
      <trkpt lat="47.2401" lon="-1.6207">
        <ele>30</ele>
        <time>2011-01-09T07:42:26Z</time>
      </trkpt>
      <trkpt lat="47.2401" lon="-1.6207">
        <ele>30</ele>
        <time>2011-01-09T07:42:27Z</time>
      </trkpt>
      <trkpt lat="47.24009" lon="-1.62072">
        <ele>30</ele>
        <time>2011-01-09T07:42:28Z</time>
      </trkpt>
      <trkpt lat="47.24009" lon="-1.62073">
        <ele>30</ele>
        <time>2011-01-09T07:42:29Z</time>
      </trkpt>
      <trkpt lat="47.24009" lon="-1.62073">
        <ele>30</ele>
        <time>2011-01-09T07:42:30Z</time>
      </trkpt>
      <trkpt lat="47.24009" lon="-1.62073">
        <ele>30</ele>
        <time>2011-01-09T07:42:31Z</time>
      </trkpt>
      <trkpt lat="47.24009" lon="-1.62073">
        <ele>30</ele>
        <time>2011-01-09T07:42:32Z</time>
      </trkpt>
      <trkpt lat="47.24009" lon="-1.62073">
        <ele>30</ele>
        <time>2011-01-09T07:42:33Z</time>
      </trkpt>
      <trkpt lat="47.24009" lon="-1.62073">
        <ele>30</ele>
        <time>2011-01-09T07:42:34Z</time>
      </trkpt>
      <trkpt lat="47.24008" lon="-1.62073">
        <ele>30</ele>
        <time>2011-01-09T07:42:35Z</time>
      </trkpt>
      <trkpt lat="47.24007" lon="-1.62073">
        <ele>29</ele>
        <time>2011-01-09T07:42:36Z</time>
      </trkpt>
      <trkpt lat="47.24011" lon="-1.62086">
        <ele>28</ele>
        <time>2011-01-09T07:43:06Z</time>
      </trkpt>
      <trkpt lat="47.24009" lon="-1.62086">
        <ele>28</ele>
        <time>2011-01-09T07:43:07Z</time>
      </trkpt>
      <trkpt lat="47.24008" lon="-1.62087">
        <ele>28</ele>
        <time>2011-01-09T07:43:08Z</time>
      </trkpt>
      <trkpt lat="47.24006" lon="-1.62089">
        <ele>28</ele>
        <time>2011-01-09T07:43:09Z</time>
      </trkpt>
      <trkpt lat="47.24004" lon="-1.62089">
        <ele>28</ele>
        <time>2011-01-09T07:43:10Z</time>
      </trkpt>
      <trkpt lat="47.24003" lon="-1.62091">
        <ele>28</ele>
        <time>2011-01-09T07:43:11Z</time>
      </trkpt>
      <trkpt lat="47.24001" lon="-1.62093">
        <ele>28</ele>
        <time>2011-01-09T07:43:12Z</time>
      </trkpt>
      <trkpt lat="47.24001" lon="-1.62095">
        <ele>28</ele>
        <time>2011-01-09T07:43:13Z</time>
      </trkpt>
      <trkpt lat="47.24001" lon="-1.62096">
        <ele>28</ele>
        <time>2011-01-09T07:43:14Z</time>
      </trkpt>
      <trkpt lat="47.24" lon="-1.62095">
        <ele>28</ele>
        <time>2011-01-09T07:43:15Z</time>
      </trkpt>
      <trkpt lat="47.24" lon="-1.62094">
        <ele>28</ele>
        <time>2011-01-09T07:43:16Z</time>
      </trkpt>
      <trkpt lat="47.24001" lon="-1.62092">
        <ele>28</ele>
        <time>2011-01-09T07:43:17Z</time>
      </trkpt>
      <trkpt lat="47.24003" lon="-1.6209">
        <ele>28</ele>
        <time>2011-01-09T07:43:18Z</time>
      </trkpt>
      <trkpt lat="47.24006" lon="-1.62089">
        <ele>28</ele>
        <time>2011-01-09T07:43:19Z</time>
      </trkpt>
      <trkpt lat="47.24008" lon="-1.62089">
        <ele>28</ele>
        <time>2011-01-09T07:43:20Z</time>
      </trkpt>
      <trkpt lat="47.24008" lon="-1.6209">
        <ele>28</ele>
        <time>2011-01-09T07:43:21Z</time>
      </trkpt>
      <trkpt lat="47.24009" lon="-1.62091">
        <ele>28</ele>
        <time>2011-01-09T07:43:22Z</time>
      </trkpt>
      <trkpt lat="47.24009" lon="-1.62092">
        <ele>28</ele>
        <time>2011-01-09T07:43:23Z</time>
      </trkpt>
      <trkpt lat="47.24009" lon="-1.62093">
        <ele>28</ele>
        <time>2011-01-09T07:43:24Z</time>
      </trkpt>
      <trkpt lat="47.2401" lon="-1.62094">
        <ele>28</ele>
        <time>2011-01-09T07:43:25Z</time>
      </trkpt>
      <trkpt lat="47.2401" lon="-1.62095">
        <ele>28</ele>
        <time>2011-01-09T07:43:26Z</time>
      </trkpt>
      <trkpt lat="47.2401" lon="-1.62097">
        <ele>28</ele>
        <time>2011-01-09T07:43:27Z</time>
      </trkpt>
      <trkpt lat="47.2401" lon="-1.62099">
        <ele>28</ele>
        <time>2011-01-09T07:43:28Z</time>
      </trkpt>
      <trkpt lat="47.2401" lon="-1.62101">
        <ele>28</ele>
        <time>2011-01-09T07:43:29Z</time>
      </trkpt>
      <trkpt lat="47.2401" lon="-1.62102">
        <ele>28</ele>
        <time>2011-01-09T07:43:30Z</time>
      </trkpt>
      <trkpt lat="47.24009" lon="-1.62105">
        <ele>28</ele>
        <time>2011-01-09T07:43:31Z</time>
      </trkpt>
      <trkpt lat="47.24008" lon="-1.62107">
        <ele>28</ele>
        <time>2011-01-09T07:43:32Z</time>
      </trkpt>
      <trkpt lat="47.24008" lon="-1.62108">
        <ele>28</ele>
        <time>2011-01-09T07:43:33Z</time>
      </trkpt>
      <trkpt lat="47.24007" lon="-1.6211">
        <ele>28</ele>
        <time>2011-01-09T07:43:34Z</time>
      </trkpt>
      <trkpt lat="47.24007" lon="-1.6211">
        <ele>28</ele>
        <time>2011-01-09T07:43:35Z</time>
      </trkpt>
      <trkpt lat="47.24006" lon="-1.62111">
        <ele>28</ele>
        <time>2011-01-09T07:43:36Z</time>
      </trkpt>
      <trkpt lat="47.24005" lon="-1.62111">
        <ele>28</ele>
        <time>2011-01-09T07:43:37Z</time>
      </trkpt>
      <trkpt lat="47.24004" lon="-1.62112">
        <ele>28</ele>
        <time>2011-01-09T07:43:38Z</time>
      </trkpt>
      <trkpt lat="47.24003" lon="-1.62113">
        <ele>28</ele>
        <time>2011-01-09T07:43:39Z</time>
      </trkpt>
      <trkpt lat="47.24001" lon="-1.62115">
        <ele>28</ele>
        <time>2011-01-09T07:43:40Z</time>
      </trkpt>
      <trkpt lat="47.24" lon="-1.62116">
        <ele>24</ele>
        <time>2011-01-09T07:43:41Z</time>
      </trkpt>
      <trkpt lat="47.23999" lon="-1.62115">
        <ele>24</ele>
        <time>2011-01-09T07:43:42Z</time>
      </trkpt>
      <trkpt lat="47.23998" lon="-1.62116">
        <ele>24</ele>
        <time>2011-01-09T07:43:43Z</time>
      </trkpt>
      <trkpt lat="47.23998" lon="-1.62115">
        <ele>24</ele>
        <time>2011-01-09T07:43:44Z</time>
      </trkpt>
      <trkpt lat="47.23996" lon="-1.62116">
        <ele>24</ele>
        <time>2011-01-09T07:43:45Z</time>
      </trkpt>
      <trkpt lat="47.23995" lon="-1.62117">
        <ele>24</ele>
        <time>2011-01-09T07:43:46Z</time>
      </trkpt>
      <trkpt lat="47.23994" lon="-1.62118">
        <ele>24</ele>
        <time>2011-01-09T07:43:47Z</time>
      </trkpt>
      <trkpt lat="47.23993" lon="-1.62119">
        <ele>24</ele>
        <time>2011-01-09T07:43:48Z</time>
      </trkpt>
      <trkpt lat="47.23991" lon="-1.62121">
        <ele>24</ele>
        <time>2011-01-09T07:43:49Z</time>
      </trkpt>
      <trkpt lat="47.2399" lon="-1.62122">
        <ele>24</ele>
        <time>2011-01-09T07:43:50Z</time>
      </trkpt>
      <trkpt lat="47.23991" lon="-1.62122">
        <ele>24</ele>
        <time>2011-01-09T07:43:51Z</time>
      </trkpt>
      <trkpt lat="47.23992" lon="-1.6212">
        <ele>24</ele>
        <time>2011-01-09T07:43:52Z</time>
      </trkpt>
      <trkpt lat="47.23993" lon="-1.6212">
        <ele>24</ele>
        <time>2011-01-09T07:43:53Z</time>
      </trkpt>
      <trkpt lat="47.23995" lon="-1.6212">
        <ele>24</ele>
        <time>2011-01-09T07:43:54Z</time>
      </trkpt>
      <trkpt lat="47.23997" lon="-1.62119">
        <ele>24</ele>
        <time>2011-01-09T07:43:55Z</time>
      </trkpt>
      <trkpt lat="47.23998" lon="-1.62117">
        <ele>24</ele>
        <time>2011-01-09T07:43:56Z</time>
      </trkpt>
      <trkpt lat="47.23999" lon="-1.62115">
        <ele>24</ele>
        <time>2011-01-09T07:43:57Z</time>
      </trkpt>
      <trkpt lat="47.23999" lon="-1.62115">
        <ele>24</ele>
        <time>2011-01-09T07:43:58Z</time>
      </trkpt>
      <trkpt lat="47.24" lon="-1.62115">
        <ele>24</ele>
        <time>2011-01-09T07:43:59Z</time>
      </trkpt>
      <trkpt lat="47.24002" lon="-1.62113">
        <ele>28</ele>
        <time>2011-01-09T07:44:00Z</time>
      </trkpt>
      <trkpt lat="47.24003" lon="-1.62112">
        <ele>28</ele>
        <time>2011-01-09T07:44:01Z</time>
      </trkpt>
      <trkpt lat="47.24003" lon="-1.6211">
        <ele>28</ele>
        <time>2011-01-09T07:44:02Z</time>
      </trkpt>
      <trkpt lat="47.24003" lon="-1.62108">
        <ele>28</ele>
        <time>2011-01-09T07:44:03Z</time>
      </trkpt>
      <trkpt lat="47.24005" lon="-1.62105">
        <ele>28</ele>
        <time>2011-01-09T07:44:04Z</time>
      </trkpt>
      <trkpt lat="47.24006" lon="-1.62104">
        <ele>28</ele>
        <time>2011-01-09T07:44:05Z</time>
      </trkpt>
      <trkpt lat="47.24008" lon="-1.62101">
        <ele>28</ele>
        <time>2011-01-09T07:44:06Z</time>
      </trkpt>
      <trkpt lat="47.24009" lon="-1.62099">
        <ele>28</ele>
        <time>2011-01-09T07:44:07Z</time>
      </trkpt>
      <trkpt lat="47.24011" lon="-1.62097">
        <ele>28</ele>
        <time>2011-01-09T07:44:08Z</time>
      </trkpt>
      <trkpt lat="47.24012" lon="-1.62095">
        <ele>28</ele>
        <time>2011-01-09T07:44:09Z</time>
      </trkpt>
      <trkpt lat="47.24013" lon="-1.62093">
        <ele>28</ele>
        <time>2011-01-09T07:44:10Z</time>
      </trkpt>
      <trkpt lat="47.24013" lon="-1.62091">
        <ele>28</ele>
        <time>2011-01-09T07:44:11Z</time>
      </trkpt>
      <trkpt lat="47.24013" lon="-1.62091">
        <ele>28</ele>
        <time>2011-01-09T07:44:12Z</time>
      </trkpt>
      <trkpt lat="47.24014" lon="-1.6209">
        <ele>28</ele>
        <time>2011-01-09T07:44:13Z</time>
      </trkpt>
      <trkpt lat="47.24014" lon="-1.62089">
        <ele>28</ele>
        <time>2011-01-09T07:44:14Z</time>
      </trkpt>
      <trkpt lat="47.24015" lon="-1.62087">
        <ele>28</ele>
        <time>2011-01-09T07:44:15Z</time>
      </trkpt>
      <trkpt lat="47.24015" lon="-1.62087">
        <ele>28</ele>
        <time>2011-01-09T07:44:16Z</time>
      </trkpt>
      <trkpt lat="47.24015" lon="-1.62086">
        <ele>28</ele>
        <time>2011-01-09T07:44:17Z</time>
      </trkpt>
      <trkpt lat="47.24015" lon="-1.62084">
        <ele>28</ele>
        <time>2011-01-09T07:44:18Z</time>
      </trkpt>
      <trkpt lat="47.24015" lon="-1.62083">
        <ele>28</ele>
        <time>2011-01-09T07:44:19Z</time>
      </trkpt>
      <trkpt lat="47.24014" lon="-1.62083">
        <ele>30</ele>
        <time>2011-01-09T07:44:20Z</time>
      </trkpt>
      <trkpt lat="47.24014" lon="-1.62082">
        <ele>30</ele>
        <time>2011-01-09T07:44:21Z</time>
      </trkpt>
      <trkpt lat="47.24014" lon="-1.62081">
        <ele>30</ele>
        <time>2011-01-09T07:44:22Z</time>
      </trkpt>
      <trkpt lat="47.24015" lon="-1.62078">
        <ele>30</ele>
        <time>2011-01-09T07:44:23Z</time>
      </trkpt>
      <trkpt lat="47.24016" lon="-1.62077">
        <ele>30</ele>
        <time>2011-01-09T07:44:24Z</time>
      </trkpt>
      <trkpt lat="47.24018" lon="-1.62077">
        <ele>30</ele>
        <time>2011-01-09T07:44:25Z</time>
      </trkpt>
      <trkpt lat="47.2402" lon="-1.62075">
        <ele>31</ele>
        <time>2011-01-09T07:44:26Z</time>
      </trkpt>
      <trkpt lat="47.24019" lon="-1.62074">
        <ele>31</ele>
        <time>2011-01-09T07:44:27Z</time>
      </trkpt>
      <trkpt lat="47.24019" lon="-1.62073">
        <ele>31</ele>
        <time>2011-01-09T07:44:28Z</time>
      </trkpt>
      <trkpt lat="47.24019" lon="-1.62071">
        <ele>31</ele>
        <time>2011-01-09T07:44:29Z</time>
      </trkpt>
      <trkpt lat="47.2402" lon="-1.62071">
        <ele>31</ele>
        <time>2011-01-09T07:44:30Z</time>
      </trkpt>
      <trkpt lat="47.24021" lon="-1.6207">
        <ele>31</ele>
        <time>2011-01-09T07:44:31Z</time>
      </trkpt>
      <trkpt lat="47.24022" lon="-1.62069">
        <ele>31</ele>
        <time>2011-01-09T07:44:32Z</time>
      </trkpt>
      <trkpt lat="47.24022" lon="-1.62069">
        <ele>31</ele>
        <time>2011-01-09T07:44:33Z</time>
      </trkpt>
      <trkpt lat="47.24022" lon="-1.62068">
        <ele>31</ele>
        <time>2011-01-09T07:44:34Z</time>
      </trkpt>
      <trkpt lat="47.24022" lon="-1.62067">
        <ele>31</ele>
        <time>2011-01-09T07:44:35Z</time>
      </trkpt>
      <trkpt lat="47.24021" lon="-1.62066">
        <ele>31</ele>
        <time>2011-01-09T07:44:36Z</time>
      </trkpt>
      <trkpt lat="47.24023" lon="-1.62067">
        <ele>31</ele>
        <time>2011-01-09T07:44:37Z</time>
      </trkpt>
      <trkpt lat="47.24025" lon="-1.62067">
        <ele>31</ele>
        <time>2011-01-09T07:44:38Z</time>
      </trkpt>
      <trkpt lat="47.24025" lon="-1.62067">
        <ele>32</ele>
        <time>2011-01-09T07:44:39Z</time>
      </trkpt>
      <trkpt lat="47.24027" lon="-1.62066">
        <ele>32</ele>
        <time>2011-01-09T07:44:40Z</time>
      </trkpt>
      <trkpt lat="47.24027" lon="-1.62065">
        <ele>32</ele>
        <time>2011-01-09T07:44:41Z</time>
      </trkpt>
      <trkpt lat="47.24027" lon="-1.62065">
        <ele>32</ele>
        <time>2011-01-09T07:44:42Z</time>
      </trkpt>
      <trkpt lat="47.24028" lon="-1.62066">
        <ele>32</ele>
        <time>2011-01-09T07:44:43Z</time>
      </trkpt>
      <trkpt lat="47.24029" lon="-1.62066">
        <ele>32</ele>
        <time>2011-01-09T07:44:44Z</time>
      </trkpt>
      <trkpt lat="47.24029" lon="-1.62067">
        <ele>32</ele>
        <time>2011-01-09T07:44:45Z</time>
      </trkpt>
      <trkpt lat="47.2403" lon="-1.62067">
        <ele>32</ele>
        <time>2011-01-09T07:44:46Z</time>
      </trkpt>
      <trkpt lat="47.2403" lon="-1.62068">
        <ele>32</ele>
        <time>2011-01-09T07:44:47Z</time>
      </trkpt>
      <trkpt lat="47.24029" lon="-1.62068">
        <ele>32</ele>
        <time>2011-01-09T07:44:48Z</time>
      </trkpt>
      <trkpt lat="47.24029" lon="-1.62069">
        <ele>32</ele>
        <time>2011-01-09T07:44:49Z</time>
      </trkpt>
      <trkpt lat="47.24029" lon="-1.62069">
        <ele>32</ele>
        <time>2011-01-09T07:44:50Z</time>
      </trkpt>
      <trkpt lat="47.24028" lon="-1.62069">
        <ele>32</ele>
        <time>2011-01-09T07:44:51Z</time>
      </trkpt>
      <trkpt lat="47.24027" lon="-1.62069">
        <ele>32</ele>
        <time>2011-01-09T07:44:52Z</time>
      </trkpt>
      <trkpt lat="47.24026" lon="-1.62069">
        <ele>31</ele>
        <time>2011-01-09T07:44:53Z</time>
      </trkpt>
      <trkpt lat="47.24026" lon="-1.62068">
        <ele>32</ele>
        <time>2011-01-09T07:44:54Z</time>
      </trkpt>
      <trkpt lat="47.24024" lon="-1.62067">
        <ele>31</ele>
        <time>2011-01-09T07:44:55Z</time>
      </trkpt>
      <trkpt lat="47.24023" lon="-1.62066">
        <ele>31</ele>
        <time>2011-01-09T07:44:56Z</time>
      </trkpt>
      <trkpt lat="47.24014" lon="-1.62063">
        <ele>31</ele>
        <time>2011-01-09T07:45:17Z</time>
      </trkpt>
      <trkpt lat="47.24014" lon="-1.62066">
        <ele>31</ele>
        <time>2011-01-09T07:45:18Z</time>
      </trkpt>
      <trkpt lat="47.24016" lon="-1.62065">
        <ele>31</ele>
        <time>2011-01-09T07:45:19Z</time>
      </trkpt>
      <trkpt lat="47.24016" lon="-1.62065">
        <ele>31</ele>
        <time>2011-01-09T07:45:20Z</time>
      </trkpt>
      <trkpt lat="47.24017" lon="-1.62065">
        <ele>31</ele>
        <time>2011-01-09T07:45:21Z</time>
      </trkpt>
      <trkpt lat="47.24018" lon="-1.62065">
        <ele>31</ele>
        <time>2011-01-09T07:45:22Z</time>
      </trkpt>
      <trkpt lat="47.24019" lon="-1.62066">
        <ele>31</ele>
        <time>2011-01-09T07:45:23Z</time>
      </trkpt>
      <trkpt lat="47.24019" lon="-1.62066">
        <ele>31</ele>
        <time>2011-01-09T07:45:24Z</time>
      </trkpt>
      <trkpt lat="47.2402" lon="-1.62066">
        <ele>31</ele>
        <time>2011-01-09T07:45:25Z</time>
      </trkpt>
      <trkpt lat="47.2402" lon="-1.62068">
        <ele>31</ele>
        <time>2011-01-09T07:45:26Z</time>
      </trkpt>
      <trkpt lat="47.24019" lon="-1.62069">
        <ele>31</ele>
        <time>2011-01-09T07:45:27Z</time>
      </trkpt>
      <trkpt lat="47.24018" lon="-1.62069">
        <ele>31</ele>
        <time>2011-01-09T07:45:28Z</time>
      </trkpt>
      <trkpt lat="47.24019" lon="-1.62068">
        <ele>31</ele>
        <time>2011-01-09T07:45:29Z</time>
      </trkpt>
      <trkpt lat="47.24019" lon="-1.62066">
        <ele>31</ele>
        <time>2011-01-09T07:45:30Z</time>
      </trkpt>
      <trkpt lat="47.2402" lon="-1.62065">
        <ele>31</ele>
        <time>2011-01-09T07:45:31Z</time>
      </trkpt>
      <trkpt lat="47.24019" lon="-1.62064">
        <ele>31</ele>
        <time>2011-01-09T07:45:32Z</time>
      </trkpt>
      <trkpt lat="47.24021" lon="-1.62062">
        <ele>31</ele>
        <time>2011-01-09T07:45:33Z</time>
      </trkpt>
      <trkpt lat="47.24022" lon="-1.6206">
        <ele>32</ele>
        <time>2011-01-09T07:45:34Z</time>
      </trkpt>
      <trkpt lat="47.24023" lon="-1.62059">
        <ele>32</ele>
        <time>2011-01-09T07:45:35Z</time>
      </trkpt>
      <trkpt lat="47.24024" lon="-1.62058">
        <ele>32</ele>
        <time>2011-01-09T07:45:36Z</time>
      </trkpt>
      <trkpt lat="47.24023" lon="-1.62058">
        <ele>32</ele>
        <time>2011-01-09T07:45:37Z</time>
      </trkpt>
      <trkpt lat="47.24023" lon="-1.62057">
        <ele>32</ele>
        <time>2011-01-09T07:45:38Z</time>
      </trkpt>
      <trkpt lat="47.24022" lon="-1.62056">
        <ele>32</ele>
        <time>2011-01-09T07:45:39Z</time>
      </trkpt>
      <trkpt lat="47.24022" lon="-1.62056">
        <ele>32</ele>
        <time>2011-01-09T07:45:40Z</time>
      </trkpt>
      <trkpt lat="47.24021" lon="-1.62056">
        <ele>32</ele>
        <time>2011-01-09T07:45:41Z</time>
      </trkpt>
      <trkpt lat="47.24019" lon="-1.62056">
        <ele>32</ele>
        <time>2011-01-09T07:45:42Z</time>
      </trkpt>
      <trkpt lat="47.24018" lon="-1.62055">
        <ele>32</ele>
        <time>2011-01-09T07:45:43Z</time>
      </trkpt>
      <trkpt lat="47.24018" lon="-1.62054">
        <ele>32</ele>
        <time>2011-01-09T07:45:44Z</time>
      </trkpt>
      <trkpt lat="47.24017" lon="-1.62053">
        <ele>32</ele>
        <time>2011-01-09T07:45:45Z</time>
      </trkpt>
      <trkpt lat="47.24016" lon="-1.62053">
        <ele>32</ele>
        <time>2011-01-09T07:45:46Z</time>
      </trkpt>
      <trkpt lat="47.24015" lon="-1.62053">
        <ele>32</ele>
        <time>2011-01-09T07:45:47Z</time>
      </trkpt>
      <trkpt lat="47.24015" lon="-1.62052">
        <ele>32</ele>
        <time>2011-01-09T07:45:48Z</time>
      </trkpt>
      <trkpt lat="47.24015" lon="-1.62051">
        <ele>32</ele>
        <time>2011-01-09T07:45:49Z</time>
      </trkpt>
      <trkpt lat="47.24014" lon="-1.6205">
        <ele>32</ele>
        <time>2011-01-09T07:45:50Z</time>
      </trkpt>
      <trkpt lat="47.24014" lon="-1.6205">
        <ele>32</ele>
        <time>2011-01-09T07:45:51Z</time>
      </trkpt>
      <trkpt lat="47.24015" lon="-1.62049">
        <ele>32</ele>
        <time>2011-01-09T07:45:52Z</time>
      </trkpt>
      <trkpt lat="47.24015" lon="-1.62048">
        <ele>32</ele>
        <time>2011-01-09T07:45:53Z</time>
      </trkpt>
      <trkpt lat="47.24016" lon="-1.62047">
        <ele>32</ele>
        <time>2011-01-09T07:45:54Z</time>
      </trkpt>
      <trkpt lat="47.24016" lon="-1.62047">
        <ele>32</ele>
        <time>2011-01-09T07:45:55Z</time>
      </trkpt>
      <trkpt lat="47.24016" lon="-1.62047">
        <ele>32</ele>
        <time>2011-01-09T07:45:56Z</time>
      </trkpt>
      <trkpt lat="47.24017" lon="-1.62047">
        <ele>32</ele>
        <time>2011-01-09T07:45:57Z</time>
      </trkpt>
      <trkpt lat="47.24016" lon="-1.62048">
        <ele>32</ele>
        <time>2011-01-09T07:45:58Z</time>
      </trkpt>
      <trkpt lat="47.24015" lon="-1.62049">
        <ele>32</ele>
        <time>2011-01-09T07:45:59Z</time>
      </trkpt>
      <trkpt lat="47.24012" lon="-1.6205">
        <ele>32</ele>
        <time>2011-01-09T07:46:00Z</time>
      </trkpt>
      <trkpt lat="47.24" lon="-1.62029">
        <ele>32</ele>
        <time>2011-01-09T07:47:01Z</time>
      </trkpt>
      <trkpt lat="47.24001" lon="-1.62027">
        <ele>32</ele>
        <time>2011-01-09T07:47:02Z</time>
      </trkpt>
      <trkpt lat="47.24002" lon="-1.62026">
        <ele>32</ele>
        <time>2011-01-09T07:47:03Z</time>
      </trkpt>
      <trkpt lat="47.24002" lon="-1.62027">
        <ele>32</ele>
        <time>2011-01-09T07:47:04Z</time>
      </trkpt>
      <trkpt lat="47.24002" lon="-1.62027">
        <ele>32</ele>
        <time>2011-01-09T07:47:05Z</time>
      </trkpt>
      <trkpt lat="47.24002" lon="-1.62026">
        <ele>32</ele>
        <time>2011-01-09T07:47:06Z</time>
      </trkpt>
      <trkpt lat="47.24002" lon="-1.62025">
        <ele>32</ele>
        <time>2011-01-09T07:47:07Z</time>
      </trkpt>
      <trkpt lat="47.24002" lon="-1.62023">
        <ele>32</ele>
        <time>2011-01-09T07:47:08Z</time>
      </trkpt>
      <trkpt lat="47.24002" lon="-1.62021">
        <ele>32</ele>
        <time>2011-01-09T07:47:09Z</time>
      </trkpt>
      <trkpt lat="47.24002" lon="-1.62021">
        <ele>32</ele>
        <time>2011-01-09T07:47:10Z</time>
      </trkpt>
      <trkpt lat="47.24002" lon="-1.6202">
        <ele>32</ele>
        <time>2011-01-09T07:47:11Z</time>
      </trkpt>
      <trkpt lat="47.24002" lon="-1.6202">
        <ele>32</ele>
        <time>2011-01-09T07:47:12Z</time>
      </trkpt>
      <trkpt lat="47.24001" lon="-1.62019">
        <ele>32</ele>
        <time>2011-01-09T07:47:13Z</time>
      </trkpt>
      <trkpt lat="47.24001" lon="-1.62018">
        <ele>32</ele>
        <time>2011-01-09T07:47:14Z</time>
      </trkpt>
      <trkpt lat="47.24001" lon="-1.62016">
        <ele>32</ele>
        <time>2011-01-09T07:47:15Z</time>
      </trkpt>
      <trkpt lat="47.24001" lon="-1.62015">
        <ele>32</ele>
        <time>2011-01-09T07:47:16Z</time>
      </trkpt>
      <trkpt lat="47.24" lon="-1.62014">
        <ele>32</ele>
        <time>2011-01-09T07:47:17Z</time>
      </trkpt>
      <trkpt lat="47.24" lon="-1.62013">
        <ele>29</ele>
        <time>2011-01-09T07:47:18Z</time>
      </trkpt>
      <trkpt lat="47.23999" lon="-1.62013">
        <ele>29</ele>
        <time>2011-01-09T07:47:19Z</time>
      </trkpt>
      <trkpt lat="47.23999" lon="-1.62012">
        <ele>30</ele>
        <time>2011-01-09T07:47:20Z</time>
      </trkpt>
      <trkpt lat="47.23998" lon="-1.62012">
        <ele>30</ele>
        <time>2011-01-09T07:47:21Z</time>
      </trkpt>
      <trkpt lat="47.23998" lon="-1.62011">
        <ele>30</ele>
        <time>2011-01-09T07:47:22Z</time>
      </trkpt>
      <trkpt lat="47.23997" lon="-1.6201">
        <ele>30</ele>
        <time>2011-01-09T07:47:23Z</time>
      </trkpt>
      <trkpt lat="47.23997" lon="-1.62009">
        <ele>30</ele>
        <time>2011-01-09T07:47:24Z</time>
      </trkpt>
      <trkpt lat="47.23995" lon="-1.62009">
        <ele>30</ele>
        <time>2011-01-09T07:47:25Z</time>
      </trkpt>
      <trkpt lat="47.23995" lon="-1.62008">
        <ele>30</ele>
        <time>2011-01-09T07:47:26Z</time>
      </trkpt>
      <trkpt lat="47.23995" lon="-1.62007">
        <ele>30</ele>
        <time>2011-01-09T07:47:27Z</time>
      </trkpt>
      <trkpt lat="47.23994" lon="-1.62005">
        <ele>30</ele>
        <time>2011-01-09T07:47:28Z</time>
      </trkpt>
      <trkpt lat="47.23994" lon="-1.62004">
        <ele>30</ele>
        <time>2011-01-09T07:47:29Z</time>
      </trkpt>
      <trkpt lat="47.23993" lon="-1.62003">
        <ele>30</ele>
        <time>2011-01-09T07:47:30Z</time>
      </trkpt>
      <trkpt lat="47.23993" lon="-1.62002">
        <ele>30</ele>
        <time>2011-01-09T07:47:31Z</time>
      </trkpt>
      <trkpt lat="47.23991" lon="-1.62001">
        <ele>30</ele>
        <time>2011-01-09T07:47:32Z</time>
      </trkpt>
      <trkpt lat="47.23989" lon="-1.62002">
        <ele>30</ele>
        <time>2011-01-09T07:47:33Z</time>
      </trkpt>
      <trkpt lat="47.23987" lon="-1.62002">
        <ele>29</ele>
        <time>2011-01-09T07:47:34Z</time>
      </trkpt>
      <trkpt lat="47.23986" lon="-1.62002">
        <ele>29</ele>
        <time>2011-01-09T07:47:35Z</time>
      </trkpt>
      <trkpt lat="47.23984" lon="-1.62001">
        <ele>29</ele>
        <time>2011-01-09T07:47:36Z</time>
      </trkpt>
      <trkpt lat="47.23983" lon="-1.62">
        <ele>31</ele>
        <time>2011-01-09T07:47:37Z</time>
      </trkpt>
      <trkpt lat="47.23982" lon="-1.61998">
        <ele>31</ele>
        <time>2011-01-09T07:47:38Z</time>
      </trkpt>
      <trkpt lat="47.23981" lon="-1.61997">
        <ele>31</ele>
        <time>2011-01-09T07:47:39Z</time>
      </trkpt>
      <trkpt lat="47.23923" lon="-1.61958">
        <ele>29</ele>
        <time>2011-01-09T07:48:44Z</time>
      </trkpt>
      <trkpt lat="47.23922" lon="-1.61958">
        <ele>29</ele>
        <time>2011-01-09T07:48:45Z</time>
      </trkpt>
      <trkpt lat="47.23922" lon="-1.61958">
        <ele>29</ele>
        <time>2011-01-09T07:48:46Z</time>
      </trkpt>
      <trkpt lat="47.2392" lon="-1.61959">
        <ele>29</ele>
        <time>2011-01-09T07:48:47Z</time>
      </trkpt>
      <trkpt lat="47.23909" lon="-1.6196">
        <ele>27</ele>
        <time>2011-01-09T07:48:55Z</time>
      </trkpt>
      <trkpt lat="47.23902" lon="-1.6196">
        <ele>27</ele>
        <time>2011-01-09T07:49:00Z</time>
      </trkpt>
      <trkpt lat="47.23898" lon="-1.61957">
        <ele>27</ele>
        <time>2011-01-09T07:49:04Z</time>
      </trkpt>
      <trkpt lat="47.23897" lon="-1.61957">
        <ele>27</ele>
        <time>2011-01-09T07:49:05Z</time>
      </trkpt>
      <trkpt lat="47.23883" lon="-1.61951">
        <ele>27</ele>
        <time>2011-01-09T07:49:19Z</time>
      </trkpt>
      <trkpt lat="47.23881" lon="-1.61952">
        <ele>27</ele>
        <time>2011-01-09T07:49:20Z</time>
      </trkpt>
      <trkpt lat="47.23876" lon="-1.61949">
        <ele>27</ele>
        <time>2011-01-09T07:49:25Z</time>
      </trkpt>
      <trkpt lat="47.23874" lon="-1.61949">
        <ele>27</ele>
        <time>2011-01-09T07:49:26Z</time>
      </trkpt>
      <trkpt lat="47.23868" lon="-1.61946">
        <ele>27</ele>
        <time>2011-01-09T07:49:31Z</time>
      </trkpt>
      <trkpt lat="47.23867" lon="-1.61945">
        <ele>27</ele>
        <time>2011-01-09T07:49:32Z</time>
      </trkpt>
      <trkpt lat="47.23866" lon="-1.61945">
        <ele>27</ele>
        <time>2011-01-09T07:49:33Z</time>
      </trkpt>
      <trkpt lat="47.23865" lon="-1.61944">
        <ele>27</ele>
        <time>2011-01-09T07:49:34Z</time>
      </trkpt>
      <trkpt lat="47.23864" lon="-1.61943">
        <ele>27</ele>
        <time>2011-01-09T07:49:35Z</time>
      </trkpt>
      <trkpt lat="47.23863" lon="-1.61943">
        <ele>27</ele>
        <time>2011-01-09T07:49:36Z</time>
      </trkpt>
      <trkpt lat="47.23863" lon="-1.61942">
        <ele>27</ele>
        <time>2011-01-09T07:49:37Z</time>
      </trkpt>
      <trkpt lat="47.23862" lon="-1.61941">
        <ele>27</ele>
        <time>2011-01-09T07:49:38Z</time>
      </trkpt>
      <trkpt lat="47.23862" lon="-1.61941">
        <ele>27</ele>
        <time>2011-01-09T07:49:39Z</time>
      </trkpt>
      <trkpt lat="47.23854" lon="-1.61926">
        <ele>28</ele>
        <time>2011-01-09T07:50:00Z</time>
      </trkpt>
      <trkpt lat="47.23854" lon="-1.61933">
        <ele>28</ele>
        <time>2011-01-09T07:50:01Z</time>
      </trkpt>
      <trkpt lat="47.23854" lon="-1.61929">
        <ele>28</ele>
        <time>2011-01-09T07:50:02Z</time>
      </trkpt>
      <trkpt lat="47.23855" lon="-1.61922">
        <ele>28</ele>
        <time>2011-01-09T07:50:05Z</time>
      </trkpt>
      <trkpt lat="47.23856" lon="-1.61925">
        <ele>28</ele>
        <time>2011-01-09T07:50:06Z</time>
      </trkpt>
      <trkpt lat="47.23856" lon="-1.61927">
        <ele>28</ele>
        <time>2011-01-09T07:50:07Z</time>
      </trkpt>
      <trkpt lat="47.23833" lon="-1.61908">
        <ele>29</ele>
        <time>2011-01-09T07:51:29Z</time>
      </trkpt>
      <trkpt lat="47.23831" lon="-1.61906">
        <ele>29</ele>
        <time>2011-01-09T07:51:30Z</time>
      </trkpt>
      <trkpt lat="47.23774" lon="-1.616">
        <ele>25</ele>
        <time>2011-01-09T07:55:16Z</time>
      </trkpt>
      <trkpt lat="47.23774" lon="-1.61598">
        <ele>25</ele>
        <time>2011-01-09T07:55:17Z</time>
      </trkpt>
      <trkpt lat="47.23775" lon="-1.61596">
        <ele>25</ele>
        <time>2011-01-09T07:55:18Z</time>
      </trkpt>
      <trkpt lat="47.23775" lon="-1.61595">
        <ele>25</ele>
        <time>2011-01-09T07:55:19Z</time>
      </trkpt>
      <trkpt lat="47.23774" lon="-1.61593">
        <ele>25</ele>
        <time>2011-01-09T07:55:20Z</time>
      </trkpt>
      <trkpt lat="47.23774" lon="-1.61592">
        <ele>25</ele>
        <time>2011-01-09T07:55:21Z</time>
      </trkpt>
      <trkpt lat="47.23775" lon="-1.6159">
        <ele>25</ele>
        <time>2011-01-09T07:55:22Z</time>
      </trkpt>
      <trkpt lat="47.23775" lon="-1.61589">
        <ele>25</ele>
        <time>2011-01-09T07:55:23Z</time>
      </trkpt>
      <trkpt lat="47.23775" lon="-1.61586">
        <ele>25</ele>
        <time>2011-01-09T07:55:24Z</time>
      </trkpt>
      <trkpt lat="47.23775" lon="-1.61584">
        <ele>25</ele>
        <time>2011-01-09T07:55:25Z</time>
      </trkpt>
      <trkpt lat="47.23775" lon="-1.61583">
        <ele>23</ele>
        <time>2011-01-09T07:55:26Z</time>
      </trkpt>
      <trkpt lat="47.23774" lon="-1.61581">
        <ele>23</ele>
        <time>2011-01-09T07:55:27Z</time>
      </trkpt>
      <trkpt lat="47.23774" lon="-1.6158">
        <ele>23</ele>
        <time>2011-01-09T07:55:28Z</time>
      </trkpt>
      <trkpt lat="47.23776" lon="-1.61574">
        <ele>23</ele>
        <time>2011-01-09T07:55:33Z</time>
      </trkpt>
      <trkpt lat="47.23775" lon="-1.61572">
        <ele>23</ele>
        <time>2011-01-09T07:55:34Z</time>
      </trkpt>
      <trkpt lat="47.23776" lon="-1.6157">
        <ele>23</ele>
        <time>2011-01-09T07:55:35Z</time>
      </trkpt>
      <trkpt lat="47.23778" lon="-1.61569">
        <ele>23</ele>
        <time>2011-01-09T07:55:36Z</time>
      </trkpt>
      <trkpt lat="47.23779" lon="-1.61567">
        <ele>24</ele>
        <time>2011-01-09T07:55:37Z</time>
      </trkpt>
      <trkpt lat="47.2378" lon="-1.61566">
        <ele>24</ele>
        <time>2011-01-09T07:55:38Z</time>
      </trkpt>
      <trkpt lat="47.23781" lon="-1.61565">
        <ele>24</ele>
        <time>2011-01-09T07:55:39Z</time>
      </trkpt>
      <trkpt lat="47.23782" lon="-1.61564">
        <ele>24</ele>
        <time>2011-01-09T07:55:40Z</time>
      </trkpt>
      <trkpt lat="47.23783" lon="-1.61562">
        <ele>24</ele>
        <time>2011-01-09T07:55:41Z</time>
      </trkpt>
      <trkpt lat="47.23784" lon="-1.61559">
        <ele>24</ele>
        <time>2011-01-09T07:55:42Z</time>
      </trkpt>
      <trkpt lat="47.23785" lon="-1.61549">
        <ele>24</ele>
        <time>2011-01-09T07:55:49Z</time>
      </trkpt>
      <trkpt lat="47.23785" lon="-1.61548">
        <ele>24</ele>
        <time>2011-01-09T07:55:50Z</time>
      </trkpt>
      <trkpt lat="47.23786" lon="-1.61546">
        <ele>24</ele>
        <time>2011-01-09T07:55:51Z</time>
      </trkpt>
      <trkpt lat="47.23787" lon="-1.61545">
        <ele>24</ele>
        <time>2011-01-09T07:55:52Z</time>
      </trkpt>
      <trkpt lat="47.23788" lon="-1.61544">
        <ele>24</ele>
        <time>2011-01-09T07:55:53Z</time>
      </trkpt>
      <trkpt lat="47.23789" lon="-1.61528">
        <ele>24</ele>
        <time>2011-01-09T07:56:08Z</time>
      </trkpt>
      <trkpt lat="47.23789" lon="-1.61527">
        <ele>24</ele>
        <time>2011-01-09T07:56:09Z</time>
      </trkpt>
      <trkpt lat="47.23789" lon="-1.61526">
        <ele>24</ele>
        <time>2011-01-09T07:56:10Z</time>
      </trkpt>
      <trkpt lat="47.23788" lon="-1.61525">
        <ele>24</ele>
        <time>2011-01-09T07:56:11Z</time>
      </trkpt>
      <trkpt lat="47.23787" lon="-1.61525">
        <ele>24</ele>
        <time>2011-01-09T07:56:12Z</time>
      </trkpt>
      <trkpt lat="47.23786" lon="-1.61525">
        <ele>24</ele>
        <time>2011-01-09T07:56:13Z</time>
      </trkpt>
      <trkpt lat="47.23786" lon="-1.61524">
        <ele>23</ele>
        <time>2011-01-09T07:56:14Z</time>
      </trkpt>
      <trkpt lat="47.23786" lon="-1.61524">
        <ele>23</ele>
        <time>2011-01-09T07:56:15Z</time>
      </trkpt>
      <trkpt lat="47.23785" lon="-1.61524">
        <ele>23</ele>
        <time>2011-01-09T07:56:16Z</time>
      </trkpt>
      <trkpt lat="47.23784" lon="-1.61525">
        <ele>23</ele>
        <time>2011-01-09T07:56:17Z</time>
      </trkpt>
      <trkpt lat="47.23783" lon="-1.61525">
        <ele>23</ele>
        <time>2011-01-09T07:56:18Z</time>
      </trkpt>
      <trkpt lat="47.23782" lon="-1.61526">
        <ele>23</ele>
        <time>2011-01-09T07:56:19Z</time>
      </trkpt>
      <trkpt lat="47.23782" lon="-1.61526">
        <ele>23</ele>
        <time>2011-01-09T07:56:20Z</time>
      </trkpt>
      <trkpt lat="47.2378" lon="-1.61527">
        <ele>23</ele>
        <time>2011-01-09T07:56:21Z</time>
      </trkpt>
      <trkpt lat="47.23779" lon="-1.61527">
        <ele>23</ele>
        <time>2011-01-09T07:56:22Z</time>
      </trkpt>
      <trkpt lat="47.23778" lon="-1.61527">
        <ele>23</ele>
        <time>2011-01-09T07:56:23Z</time>
      </trkpt>
      <trkpt lat="47.23777" lon="-1.61528">
        <ele>23</ele>
        <time>2011-01-09T07:56:24Z</time>
      </trkpt>
      <trkpt lat="47.23768" lon="-1.61534">
        <ele>23</ele>
        <time>2011-01-09T07:56:34Z</time>
      </trkpt>
      <trkpt lat="47.23759" lon="-1.61539">
        <ele>23</ele>
        <time>2011-01-09T07:56:40Z</time>
      </trkpt>
      <trkpt lat="47.23759" lon="-1.61539">
        <ele>23</ele>
        <time>2011-01-09T07:56:41Z</time>
      </trkpt>
      <trkpt lat="47.23755" lon="-1.6154">
        <ele>23</ele>
        <time>2011-01-09T07:56:44Z</time>
      </trkpt>
      <trkpt lat="47.2375" lon="-1.61542">
        <ele>24</ele>
        <time>2011-01-09T07:56:49Z</time>
      </trkpt>
      <trkpt lat="47.23747" lon="-1.61542">
        <ele>24</ele>
        <time>2011-01-09T07:56:52Z</time>
      </trkpt>
      <trkpt lat="47.23729" lon="-1.61545">
        <ele>24</ele>
        <time>2011-01-09T07:57:10Z</time>
      </trkpt>
      <trkpt lat="47.23728" lon="-1.61544">
        <ele>24</ele>
        <time>2011-01-09T07:57:11Z</time>
      </trkpt>
      <trkpt lat="47.23727" lon="-1.61544">
        <ele>24</ele>
        <time>2011-01-09T07:57:12Z</time>
      </trkpt>
      <trkpt lat="47.23726" lon="-1.61543">
        <ele>24</ele>
        <time>2011-01-09T07:57:13Z</time>
      </trkpt>
      <trkpt lat="47.23725" lon="-1.61543">
        <ele>24</ele>
        <time>2011-01-09T07:57:14Z</time>
      </trkpt>
      <trkpt lat="47.23724" lon="-1.61543">
        <ele>24</ele>
        <time>2011-01-09T07:57:15Z</time>
      </trkpt>
      <trkpt lat="47.23724" lon="-1.61542">
        <ele>24</ele>
        <time>2011-01-09T07:57:16Z</time>
      </trkpt>
      <trkpt lat="47.23723" lon="-1.61542">
        <ele>24</ele>
        <time>2011-01-09T07:57:17Z</time>
      </trkpt>
      <trkpt lat="47.23722" lon="-1.61542">
        <ele>24</ele>
        <time>2011-01-09T07:57:18Z</time>
      </trkpt>
      <trkpt lat="47.23705" lon="-1.61538">
        <ele>25</ele>
        <time>2011-01-09T07:57:50Z</time>
      </trkpt>
      <trkpt lat="47.23704" lon="-1.61539">
        <ele>25</ele>
        <time>2011-01-09T07:57:51Z</time>
      </trkpt>
      <trkpt lat="47.23703" lon="-1.61541">
        <ele>25</ele>
        <time>2011-01-09T07:57:58Z</time>
      </trkpt>
      <trkpt lat="47.23703" lon="-1.6154">
        <ele>25</ele>
        <time>2011-01-09T07:57:59Z</time>
      </trkpt>
      <trkpt lat="47.23704" lon="-1.6154">
        <ele>25</ele>
        <time>2011-01-09T07:58:00Z</time>
      </trkpt>
      <trkpt lat="47.23704" lon="-1.6154">
        <ele>25</ele>
        <time>2011-01-09T07:58:01Z</time>
      </trkpt>
      <trkpt lat="47.23704" lon="-1.6154">
        <ele>25</ele>
        <time>2011-01-09T07:58:02Z</time>
      </trkpt>
      <trkpt lat="47.23704" lon="-1.6154">
        <ele>25</ele>
        <time>2011-01-09T07:58:03Z</time>
      </trkpt>
      <trkpt lat="47.23704" lon="-1.61539">
        <ele>25</ele>
        <time>2011-01-09T07:58:04Z</time>
      </trkpt>
      <trkpt lat="47.23704" lon="-1.61539">
        <ele>25</ele>
        <time>2011-01-09T07:58:05Z</time>
      </trkpt>
      <trkpt lat="47.23704" lon="-1.61538">
        <ele>25</ele>
        <time>2011-01-09T07:58:06Z</time>
      </trkpt>
      <trkpt lat="47.23705" lon="-1.61538">
        <ele>25</ele>
        <time>2011-01-09T07:58:07Z</time>
      </trkpt>
      <trkpt lat="47.23705" lon="-1.61538">
        <ele>25</ele>
        <time>2011-01-09T07:58:08Z</time>
      </trkpt>
      <trkpt lat="47.23704" lon="-1.61538">
        <ele>25</ele>
        <time>2011-01-09T07:58:09Z</time>
      </trkpt>
      <trkpt lat="47.23704" lon="-1.61538">
        <ele>25</ele>
        <time>2011-01-09T07:58:10Z</time>
      </trkpt>
      <trkpt lat="47.23704" lon="-1.61538">
        <ele>25</ele>
        <time>2011-01-09T07:58:11Z</time>
      </trkpt>
      <trkpt lat="47.23704" lon="-1.61538">
        <ele>25</ele>
        <time>2011-01-09T07:58:12Z</time>
      </trkpt>
      <trkpt lat="47.23703" lon="-1.61538">
        <ele>25</ele>
        <time>2011-01-09T07:58:13Z</time>
      </trkpt>
      <trkpt lat="47.23703" lon="-1.61537">
        <ele>25</ele>
        <time>2011-01-09T07:58:14Z</time>
      </trkpt>
      <trkpt lat="47.23703" lon="-1.61537">
        <ele>25</ele>
        <time>2011-01-09T07:58:15Z</time>
      </trkpt>
      <trkpt lat="47.23703" lon="-1.61537">
        <ele>25</ele>
        <time>2011-01-09T07:58:16Z</time>
      </trkpt>
      <trkpt lat="47.23703" lon="-1.61537">
        <ele>25</ele>
        <time>2011-01-09T07:58:17Z</time>
      </trkpt>
      <trkpt lat="47.23703" lon="-1.61537">
        <ele>25</ele>
        <time>2011-01-09T07:58:18Z</time>
      </trkpt>
      <trkpt lat="47.23703" lon="-1.61537">
        <ele>25</ele>
        <time>2011-01-09T07:58:19Z</time>
      </trkpt>
      <trkpt lat="47.23703" lon="-1.61537">
        <ele>25</ele>
        <time>2011-01-09T07:58:20Z</time>
      </trkpt>
      <trkpt lat="47.23702" lon="-1.61537">
        <ele>25</ele>
        <time>2011-01-09T07:58:21Z</time>
      </trkpt>
      <trkpt lat="47.23702" lon="-1.61537">
        <ele>25</ele>
        <time>2011-01-09T07:58:22Z</time>
      </trkpt>
      <trkpt lat="47.23702" lon="-1.61536">
        <ele>25</ele>
        <time>2011-01-09T07:58:23Z</time>
      </trkpt>
      <trkpt lat="47.23701" lon="-1.61536">
        <ele>25</ele>
        <time>2011-01-09T07:58:24Z</time>
      </trkpt>
      <trkpt lat="47.23701" lon="-1.61535">
        <ele>25</ele>
        <time>2011-01-09T07:58:25Z</time>
      </trkpt>
      <trkpt lat="47.23701" lon="-1.61535">
        <ele>25</ele>
        <time>2011-01-09T07:58:26Z</time>
      </trkpt>
      <trkpt lat="47.23701" lon="-1.61534">
        <ele>25</ele>
        <time>2011-01-09T07:58:27Z</time>
      </trkpt>
      <trkpt lat="47.23701" lon="-1.61533">
        <ele>25</ele>
        <time>2011-01-09T07:58:28Z</time>
      </trkpt>
      <trkpt lat="47.237" lon="-1.61533">
        <ele>25</ele>
        <time>2011-01-09T07:58:29Z</time>
      </trkpt>
      <trkpt lat="47.237" lon="-1.61532">
        <ele>25</ele>
        <time>2011-01-09T07:58:30Z</time>
      </trkpt>
      <trkpt lat="47.237" lon="-1.61532">
        <ele>25</ele>
        <time>2011-01-09T07:58:31Z</time>
      </trkpt>
      <trkpt lat="47.237" lon="-1.61532">
        <ele>25</ele>
        <time>2011-01-09T07:58:32Z</time>
      </trkpt>
      <trkpt lat="47.23699" lon="-1.61533">
        <ele>25</ele>
        <time>2011-01-09T07:58:33Z</time>
      </trkpt>
      <trkpt lat="47.23698" lon="-1.61534">
        <ele>25</ele>
        <time>2011-01-09T07:58:34Z</time>
      </trkpt>
      <trkpt lat="47.23698" lon="-1.61533">
        <ele>25</ele>
        <time>2011-01-09T07:58:35Z</time>
      </trkpt>
      <trkpt lat="47.23698" lon="-1.61532">
        <ele>25</ele>
        <time>2011-01-09T07:58:36Z</time>
      </trkpt>
      <trkpt lat="47.23699" lon="-1.61531">
        <ele>25</ele>
        <time>2011-01-09T07:58:37Z</time>
      </trkpt>
      <trkpt lat="47.23698" lon="-1.61529">
        <ele>25</ele>
        <time>2011-01-09T07:58:38Z</time>
      </trkpt>
      <trkpt lat="47.23698" lon="-1.61528">
        <ele>25</ele>
        <time>2011-01-09T07:58:39Z</time>
      </trkpt>
      <trkpt lat="47.23698" lon="-1.61527">
        <ele>25</ele>
        <time>2011-01-09T07:58:40Z</time>
      </trkpt>
      <trkpt lat="47.23698" lon="-1.61526">
        <ele>25</ele>
        <time>2011-01-09T07:58:41Z</time>
      </trkpt>
      <trkpt lat="47.23697" lon="-1.61524">
        <ele>25</ele>
        <time>2011-01-09T07:58:42Z</time>
      </trkpt>
      <trkpt lat="47.23696" lon="-1.61523">
        <ele>25</ele>
        <time>2011-01-09T07:58:43Z</time>
      </trkpt>
      <trkpt lat="47.23695" lon="-1.61523">
        <ele>25</ele>
        <time>2011-01-09T07:58:44Z</time>
      </trkpt>
      <trkpt lat="47.23693" lon="-1.61523">
        <ele>25</ele>
        <time>2011-01-09T07:58:46Z</time>
      </trkpt>
      <trkpt lat="47.23692" lon="-1.61523">
        <ele>25</ele>
        <time>2011-01-09T07:58:47Z</time>
      </trkpt>
      <trkpt lat="47.23689" lon="-1.61524">
        <ele>26</ele>
        <time>2011-01-09T07:58:50Z</time>
      </trkpt>
      <trkpt lat="47.23678" lon="-1.61527">
        <ele>26</ele>
        <time>2011-01-09T07:59:00Z</time>
      </trkpt>
      <trkpt lat="47.23676" lon="-1.61527">
        <ele>26</ele>
        <time>2011-01-09T07:59:02Z</time>
      </trkpt>
      <trkpt lat="47.23675" lon="-1.61527">
        <ele>26</ele>
        <time>2011-01-09T07:59:03Z</time>
      </trkpt>
      <trkpt lat="47.23673" lon="-1.61528">
        <ele>26</ele>
        <time>2011-01-09T07:59:05Z</time>
      </trkpt>
      <trkpt lat="47.23659" lon="-1.6153">
        <ele>29</ele>
        <time>2011-01-09T07:59:21Z</time>
      </trkpt>
      <trkpt lat="47.23657" lon="-1.6153">
        <ele>29</ele>
        <time>2011-01-09T07:59:22Z</time>
      </trkpt>
      <trkpt lat="47.23648" lon="-1.61531">
        <ele>29</ele>
        <time>2011-01-09T07:59:31Z</time>
      </trkpt>
      <trkpt lat="47.23623" lon="-1.61525">
        <ele>30</ele>
        <time>2011-01-09T07:59:51Z</time>
      </trkpt>
      <trkpt lat="47.23622" lon="-1.61525">
        <ele>30</ele>
        <time>2011-01-09T07:59:52Z</time>
      </trkpt>
      <trkpt lat="47.2362" lon="-1.61524">
        <ele>30</ele>
        <time>2011-01-09T07:59:54Z</time>
      </trkpt>
      <trkpt lat="47.23611" lon="-1.6152">
        <ele>31</ele>
        <time>2011-01-09T08:00:04Z</time>
      </trkpt>
      <trkpt lat="47.23611" lon="-1.61519">
        <ele>31</ele>
        <time>2011-01-09T08:00:05Z</time>
      </trkpt>
      <trkpt lat="47.23611" lon="-1.61518">
        <ele>31</ele>
        <time>2011-01-09T08:00:06Z</time>
      </trkpt>
      <trkpt lat="47.2361" lon="-1.61517">
        <ele>31</ele>
        <time>2011-01-09T08:00:07Z</time>
      </trkpt>
      <trkpt lat="47.23609" lon="-1.61517">
        <ele>31</ele>
        <time>2011-01-09T08:00:08Z</time>
      </trkpt>
      <trkpt lat="47.23608" lon="-1.61517">
        <ele>31</ele>
        <time>2011-01-09T08:00:09Z</time>
      </trkpt>
      <trkpt lat="47.23607" lon="-1.61517">
        <ele>31</ele>
        <time>2011-01-09T08:00:10Z</time>
      </trkpt>
      <trkpt lat="47.23606" lon="-1.61517">
        <ele>31</ele>
        <time>2011-01-09T08:00:11Z</time>
      </trkpt>
      <trkpt lat="47.23605" lon="-1.61516">
        <ele>31</ele>
        <time>2011-01-09T08:00:12Z</time>
      </trkpt>
      <trkpt lat="47.23604" lon="-1.61516">
        <ele>31</ele>
        <time>2011-01-09T08:00:13Z</time>
      </trkpt>
      <trkpt lat="47.23603" lon="-1.61516">
        <ele>31</ele>
        <time>2011-01-09T08:00:14Z</time>
      </trkpt>
      <trkpt lat="47.236" lon="-1.61515">
        <ele>31</ele>
        <time>2011-01-09T08:00:17Z</time>
      </trkpt>
      <trkpt lat="47.23541" lon="-1.61498">
        <ele>36</ele>
        <time>2011-01-09T08:01:13Z</time>
      </trkpt>
      <trkpt lat="47.23539" lon="-1.61499">
        <ele>36</ele>
        <time>2011-01-09T08:01:14Z</time>
      </trkpt>
      <trkpt lat="47.23513" lon="-1.61503">
        <ele>36</ele>
        <time>2011-01-09T08:01:35Z</time>
      </trkpt>
      <trkpt lat="47.23506" lon="-1.61505">
        <ele>36</ele>
        <time>2011-01-09T08:01:42Z</time>
      </trkpt>
      <trkpt lat="47.235" lon="-1.61507">
        <ele>36</ele>
        <time>2011-01-09T08:01:48Z</time>
      </trkpt>
      <trkpt lat="47.235" lon="-1.61507">
        <ele>37</ele>
        <time>2011-01-09T08:01:49Z</time>
      </trkpt>
      <trkpt lat="47.23498" lon="-1.61507">
        <ele>37</ele>
        <time>2011-01-09T08:01:50Z</time>
      </trkpt>
      <trkpt lat="47.23497" lon="-1.61507">
        <ele>37</ele>
        <time>2011-01-09T08:01:51Z</time>
      </trkpt>
      <trkpt lat="47.23492" lon="-1.61508">
        <ele>37</ele>
        <time>2011-01-09T08:01:55Z</time>
      </trkpt>
      <trkpt lat="47.23481" lon="-1.61511">
        <ele>36</ele>
        <time>2011-01-09T08:02:02Z</time>
      </trkpt>
      <trkpt lat="47.2348" lon="-1.61511">
        <ele>36</ele>
        <time>2011-01-09T08:02:03Z</time>
      </trkpt>
      <trkpt lat="47.23477" lon="-1.61509">
        <ele>36</ele>
        <time>2011-01-09T08:02:06Z</time>
      </trkpt>
      <trkpt lat="47.23464" lon="-1.61483">
        <ele>37</ele>
        <time>2011-01-09T08:02:28Z</time>
      </trkpt>
      <trkpt lat="47.23463" lon="-1.61481">
        <ele>37</ele>
        <time>2011-01-09T08:02:29Z</time>
      </trkpt>
      <trkpt lat="47.2346" lon="-1.61478">
        <ele>37</ele>
        <time>2011-01-09T08:02:32Z</time>
      </trkpt>
      <trkpt lat="47.2346" lon="-1.61476">
        <ele>37</ele>
        <time>2011-01-09T08:02:33Z</time>
      </trkpt>
      <trkpt lat="47.23459" lon="-1.61475">
        <ele>37</ele>
        <time>2011-01-09T08:02:34Z</time>
      </trkpt>
      <trkpt lat="47.23458" lon="-1.61474">
        <ele>37</ele>
        <time>2011-01-09T08:02:35Z</time>
      </trkpt>
      <trkpt lat="47.23455" lon="-1.61472">
        <ele>37</ele>
        <time>2011-01-09T08:02:38Z</time>
      </trkpt>
      <trkpt lat="47.23454" lon="-1.61473">
        <ele>37</ele>
        <time>2011-01-09T08:02:39Z</time>
      </trkpt>
      <trkpt lat="47.23452" lon="-1.61473">
        <ele>37</ele>
        <time>2011-01-09T08:02:40Z</time>
      </trkpt>
      <trkpt lat="47.23451" lon="-1.61473">
        <ele>37</ele>
        <time>2011-01-09T08:02:41Z</time>
      </trkpt>
      <trkpt lat="47.23438" lon="-1.61472">
        <ele>37</ele>
        <time>2011-01-09T08:02:53Z</time>
      </trkpt>
      <trkpt lat="47.23423" lon="-1.61469">
        <ele>37</ele>
        <time>2011-01-09T08:03:08Z</time>
      </trkpt>
      <trkpt lat="47.2341" lon="-1.61462">
        <ele>38</ele>
        <time>2011-01-09T08:03:22Z</time>
      </trkpt>
      <trkpt lat="47.23384" lon="-1.6143">
        <ele>38</ele>
        <time>2011-01-09T08:03:54Z</time>
      </trkpt>
      <trkpt lat="47.23384" lon="-1.6143">
        <ele>38</ele>
        <time>2011-01-09T08:03:55Z</time>
      </trkpt>
      <trkpt lat="47.23383" lon="-1.61428">
        <ele>38</ele>
        <time>2011-01-09T08:03:56Z</time>
      </trkpt>
      <trkpt lat="47.23382" lon="-1.61427">
        <ele>38</ele>
        <time>2011-01-09T08:03:57Z</time>
      </trkpt>
      <trkpt lat="47.23381" lon="-1.61426">
        <ele>38</ele>
        <time>2011-01-09T08:03:58Z</time>
      </trkpt>
      <trkpt lat="47.2338" lon="-1.61425">
        <ele>38</ele>
        <time>2011-01-09T08:03:59Z</time>
      </trkpt>
      <trkpt lat="47.2338" lon="-1.61424">
        <ele>38</ele>
        <time>2011-01-09T08:04:00Z</time>
      </trkpt>
      <trkpt lat="47.23379" lon="-1.61423">
        <ele>38</ele>
        <time>2011-01-09T08:04:01Z</time>
      </trkpt>
      <trkpt lat="47.23379" lon="-1.61422">
        <ele>38</ele>
        <time>2011-01-09T08:04:02Z</time>
      </trkpt>
      <trkpt lat="47.23379" lon="-1.61422">
        <ele>38</ele>
        <time>2011-01-09T08:04:03Z</time>
      </trkpt>
      <trkpt lat="47.23378" lon="-1.61421">
        <ele>38</ele>
        <time>2011-01-09T08:04:04Z</time>
      </trkpt>
      <trkpt lat="47.23374" lon="-1.61418">
        <ele>38</ele>
        <time>2011-01-09T08:04:08Z</time>
      </trkpt>
      <trkpt lat="47.23373" lon="-1.61417">
        <ele>38</ele>
        <time>2011-01-09T08:04:09Z</time>
      </trkpt>
      <trkpt lat="47.23371" lon="-1.61416">
        <ele>38</ele>
        <time>2011-01-09T08:04:11Z</time>
      </trkpt>
      <trkpt lat="47.2337" lon="-1.61416">
        <ele>38</ele>
        <time>2011-01-09T08:04:12Z</time>
      </trkpt>
      <trkpt lat="47.23369" lon="-1.61415">
        <ele>38</ele>
        <time>2011-01-09T08:04:13Z</time>
      </trkpt>
      <trkpt lat="47.23368" lon="-1.61414">
        <ele>38</ele>
        <time>2011-01-09T08:04:14Z</time>
      </trkpt>
      <trkpt lat="47.23368" lon="-1.61413">
        <ele>38</ele>
        <time>2011-01-09T08:04:15Z</time>
      </trkpt>
      <trkpt lat="47.23366" lon="-1.61412">
        <ele>38</ele>
        <time>2011-01-09T08:04:16Z</time>
      </trkpt>
      <trkpt lat="47.23365" lon="-1.6141">
        <ele>38</ele>
        <time>2011-01-09T08:04:17Z</time>
      </trkpt>
      <trkpt lat="47.23364" lon="-1.61409">
        <ele>38</ele>
        <time>2011-01-09T08:04:18Z</time>
      </trkpt>
      <trkpt lat="47.23361" lon="-1.61405">
        <ele>38</ele>
        <time>2011-01-09T08:04:22Z</time>
      </trkpt>
      <trkpt lat="47.2336" lon="-1.61403">
        <ele>38</ele>
        <time>2011-01-09T08:04:23Z</time>
      </trkpt>
      <trkpt lat="47.23347" lon="-1.61392">
        <ele>38</ele>
        <time>2011-01-09T08:04:35Z</time>
      </trkpt>
      <trkpt lat="47.23313" lon="-1.6136">
        <ele>38</ele>
        <time>2011-01-09T08:05:16Z</time>
      </trkpt>
      <trkpt lat="47.23311" lon="-1.61359">
        <ele>38</ele>
        <time>2011-01-09T08:05:17Z</time>
      </trkpt>
      <trkpt lat="47.23311" lon="-1.61359">
        <ele>38</ele>
        <time>2011-01-09T08:05:18Z</time>
      </trkpt>
      <trkpt lat="47.2331" lon="-1.61358">
        <ele>38</ele>
        <time>2011-01-09T08:05:19Z</time>
      </trkpt>
      <trkpt lat="47.23309" lon="-1.61357">
        <ele>38</ele>
        <time>2011-01-09T08:05:20Z</time>
      </trkpt>
      <trkpt lat="47.23308" lon="-1.61356">
        <ele>38</ele>
        <time>2011-01-09T08:05:21Z</time>
      </trkpt>
      <trkpt lat="47.23308" lon="-1.61355">
        <ele>38</ele>
        <time>2011-01-09T08:05:22Z</time>
      </trkpt>
      <trkpt lat="47.23306" lon="-1.61354">
        <ele>38</ele>
        <time>2011-01-09T08:05:23Z</time>
      </trkpt>
      <trkpt lat="47.23305" lon="-1.61353">
        <ele>38</ele>
        <time>2011-01-09T08:05:24Z</time>
      </trkpt>
      <trkpt lat="47.23296" lon="-1.61342">
        <ele>38</ele>
        <time>2011-01-09T08:05:34Z</time>
      </trkpt>
      <trkpt lat="47.23295" lon="-1.61341">
        <ele>38</ele>
        <time>2011-01-09T08:05:35Z</time>
      </trkpt>
      <trkpt lat="47.2329" lon="-1.61337">
        <ele>38</ele>
        <time>2011-01-09T08:05:40Z</time>
      </trkpt>
      <trkpt lat="47.23289" lon="-1.61337">
        <ele>38</ele>
        <time>2011-01-09T08:05:41Z</time>
      </trkpt>
      <trkpt lat="47.23288" lon="-1.61336">
        <ele>38</ele>
        <time>2011-01-09T08:05:42Z</time>
      </trkpt>
      <trkpt lat="47.23288" lon="-1.61335">
        <ele>38</ele>
        <time>2011-01-09T08:05:43Z</time>
      </trkpt>
      <trkpt lat="47.23287" lon="-1.61334">
        <ele>38</ele>
        <time>2011-01-09T08:05:44Z</time>
      </trkpt>
      <trkpt lat="47.23286" lon="-1.61333">
        <ele>38</ele>
        <time>2011-01-09T08:05:45Z</time>
      </trkpt>
      <trkpt lat="47.23284" lon="-1.61332">
        <ele>38</ele>
        <time>2011-01-09T08:05:46Z</time>
      </trkpt>
      <trkpt lat="47.23283" lon="-1.61331">
        <ele>38</ele>
        <time>2011-01-09T08:05:47Z</time>
      </trkpt>
      <trkpt lat="47.23282" lon="-1.6133">
        <ele>38</ele>
        <time>2011-01-09T08:05:48Z</time>
      </trkpt>
      <trkpt lat="47.23281" lon="-1.61329">
        <ele>38</ele>
        <time>2011-01-09T08:05:49Z</time>
      </trkpt>
      <trkpt lat="47.2328" lon="-1.61328">
        <ele>38</ele>
        <time>2011-01-09T08:05:50Z</time>
      </trkpt>
      <trkpt lat="47.23279" lon="-1.61328">
        <ele>38</ele>
        <time>2011-01-09T08:05:51Z</time>
      </trkpt>
      <trkpt lat="47.23278" lon="-1.61326">
        <ele>38</ele>
        <time>2011-01-09T08:05:52Z</time>
      </trkpt>
      <trkpt lat="47.23277" lon="-1.61326">
        <ele>38</ele>
        <time>2011-01-09T08:05:53Z</time>
      </trkpt>
      <trkpt lat="47.23257" lon="-1.61397">
        <ele>39</ele>
        <time>2011-01-09T08:06:45Z</time>
      </trkpt>
      <trkpt lat="47.23256" lon="-1.614">
        <ele>39</ele>
        <time>2011-01-09T08:06:46Z</time>
      </trkpt>
      <trkpt lat="47.23256" lon="-1.61401">
        <ele>39</ele>
        <time>2011-01-09T08:06:47Z</time>
      </trkpt>
      <trkpt lat="47.23258" lon="-1.61401">
        <ele>39</ele>
        <time>2011-01-09T08:06:48Z</time>
      </trkpt>
      <trkpt lat="47.23257" lon="-1.61403">
        <ele>39</ele>
        <time>2011-01-09T08:06:49Z</time>
      </trkpt>
      <trkpt lat="47.23256" lon="-1.61405">
        <ele>39</ele>
        <time>2011-01-09T08:06:50Z</time>
      </trkpt>
      <trkpt lat="47.23256" lon="-1.61407">
        <ele>39</ele>
        <time>2011-01-09T08:06:51Z</time>
      </trkpt>
      <trkpt lat="47.23255" lon="-1.61409">
        <ele>39</ele>
        <time>2011-01-09T08:06:52Z</time>
      </trkpt>
      <trkpt lat="47.23255" lon="-1.61415">
        <ele>40</ele>
        <time>2011-01-09T08:06:58Z</time>
      </trkpt>
      <trkpt lat="47.23254" lon="-1.61416">
        <ele>40</ele>
        <time>2011-01-09T08:06:59Z</time>
      </trkpt>
      <trkpt lat="47.23252" lon="-1.61416">
        <ele>40</ele>
        <time>2011-01-09T08:07:02Z</time>
      </trkpt>
      <trkpt lat="47.2325" lon="-1.61416">
        <ele>40</ele>
        <time>2011-01-09T08:07:03Z</time>
      </trkpt>
      <trkpt lat="47.23246" lon="-1.61416">
        <ele>40</ele>
        <time>2011-01-09T08:07:07Z</time>
      </trkpt>
      <trkpt lat="47.23246" lon="-1.61416">
        <ele>40</ele>
        <time>2011-01-09T08:07:08Z</time>
      </trkpt>
      <trkpt lat="47.23244" lon="-1.61417">
        <ele>40</ele>
        <time>2011-01-09T08:07:11Z</time>
      </trkpt>
      <trkpt lat="47.2324" lon="-1.6142">
        <ele>40</ele>
        <time>2011-01-09T08:07:16Z</time>
      </trkpt>
      <trkpt lat="47.23239" lon="-1.6142">
        <ele>40</ele>
        <time>2011-01-09T08:07:17Z</time>
      </trkpt>
      <trkpt lat="47.23238" lon="-1.61421">
        <ele>40</ele>
        <time>2011-01-09T08:07:18Z</time>
      </trkpt>
      <trkpt lat="47.23237" lon="-1.61422">
        <ele>40</ele>
        <time>2011-01-09T08:07:19Z</time>
      </trkpt>
      <trkpt lat="47.23237" lon="-1.61423">
        <ele>40</ele>
        <time>2011-01-09T08:07:20Z</time>
      </trkpt>
      <trkpt lat="47.23228" lon="-1.61427">
        <ele>40</ele>
        <time>2011-01-09T08:07:31Z</time>
      </trkpt>
      <trkpt lat="47.23224" lon="-1.61428">
        <ele>41</ele>
        <time>2011-01-09T08:07:35Z</time>
      </trkpt>
      <trkpt lat="47.23217" lon="-1.61433">
        <ele>41</ele>
        <time>2011-01-09T08:07:44Z</time>
      </trkpt>
      <trkpt lat="47.23216" lon="-1.61434">
        <ele>41</ele>
        <time>2011-01-09T08:07:45Z</time>
      </trkpt>
      <trkpt lat="47.23215" lon="-1.61434">
        <ele>41</ele>
        <time>2011-01-09T08:07:46Z</time>
      </trkpt>
      <trkpt lat="47.23214" lon="-1.61434">
        <ele>41</ele>
        <time>2011-01-09T08:07:47Z</time>
      </trkpt>
      <trkpt lat="47.23205" lon="-1.6144">
        <ele>41</ele>
        <time>2011-01-09T08:07:58Z</time>
      </trkpt>
      <trkpt lat="47.23204" lon="-1.61441">
        <ele>41</ele>
        <time>2011-01-09T08:07:59Z</time>
      </trkpt>
      <trkpt lat="47.23199" lon="-1.6145">
        <ele>41</ele>
        <time>2011-01-09T08:08:06Z</time>
      </trkpt>
      <trkpt lat="47.23199" lon="-1.61452">
        <ele>41</ele>
        <time>2011-01-09T08:08:07Z</time>
      </trkpt>
      <trkpt lat="47.23198" lon="-1.61457">
        <ele>41</ele>
        <time>2011-01-09T08:08:10Z</time>
      </trkpt>
      <trkpt lat="47.23198" lon="-1.61459">
        <ele>41</ele>
        <time>2011-01-09T08:08:11Z</time>
      </trkpt>
      <trkpt lat="47.23199" lon="-1.61467">
        <ele>41</ele>
        <time>2011-01-09T08:08:16Z</time>
      </trkpt>
      <trkpt lat="47.23199" lon="-1.61472">
        <ele>41</ele>
        <time>2011-01-09T08:08:19Z</time>
      </trkpt>
      <trkpt lat="47.232" lon="-1.61473">
        <ele>41</ele>
        <time>2011-01-09T08:08:20Z</time>
      </trkpt>
      <trkpt lat="47.232" lon="-1.61475">
        <ele>41</ele>
        <time>2011-01-09T08:08:21Z</time>
      </trkpt>
      <trkpt lat="47.23199" lon="-1.61477">
        <ele>41</ele>
        <time>2011-01-09T08:08:22Z</time>
      </trkpt>
      <trkpt lat="47.23197" lon="-1.61478">
        <ele>41</ele>
        <time>2011-01-09T08:08:23Z</time>
      </trkpt>
      <trkpt lat="47.23196" lon="-1.61479">
        <ele>41</ele>
        <time>2011-01-09T08:08:24Z</time>
      </trkpt>
      <trkpt lat="47.23195" lon="-1.6148">
        <ele>41</ele>
        <time>2011-01-09T08:08:25Z</time>
      </trkpt>
      <trkpt lat="47.23194" lon="-1.61481">
        <ele>41</ele>
        <time>2011-01-09T08:08:26Z</time>
      </trkpt>
      <trkpt lat="47.23187" lon="-1.61494">
        <ele>41</ele>
        <time>2011-01-09T08:08:36Z</time>
      </trkpt>
      <trkpt lat="47.23187" lon="-1.61496">
        <ele>41</ele>
        <time>2011-01-09T08:08:37Z</time>
      </trkpt>
      <trkpt lat="47.23187" lon="-1.61496">
        <ele>41</ele>
        <time>2011-01-09T08:08:38Z</time>
      </trkpt>
      <trkpt lat="47.23187" lon="-1.61497">
        <ele>41</ele>
        <time>2011-01-09T08:08:39Z</time>
      </trkpt>
      <trkpt lat="47.23186" lon="-1.61498">
        <ele>41</ele>
        <time>2011-01-09T08:08:40Z</time>
      </trkpt>
      <trkpt lat="47.23186" lon="-1.61499">
        <ele>41</ele>
        <time>2011-01-09T08:08:41Z</time>
      </trkpt>
      <trkpt lat="47.23186" lon="-1.615">
        <ele>41</ele>
        <time>2011-01-09T08:08:42Z</time>
      </trkpt>
      <trkpt lat="47.23185" lon="-1.615">
        <ele>41</ele>
        <time>2011-01-09T08:08:43Z</time>
      </trkpt>
      <trkpt lat="47.23185" lon="-1.61502">
        <ele>41</ele>
        <time>2011-01-09T08:08:44Z</time>
      </trkpt>
      <trkpt lat="47.23184" lon="-1.61503">
        <ele>41</ele>
        <time>2011-01-09T08:08:45Z</time>
      </trkpt>
      <trkpt lat="47.23183" lon="-1.61506">
        <ele>41</ele>
        <time>2011-01-09T08:08:48Z</time>
      </trkpt>
      <trkpt lat="47.23183" lon="-1.61507">
        <ele>41</ele>
        <time>2011-01-09T08:08:49Z</time>
      </trkpt>
      <trkpt lat="47.23182" lon="-1.61509">
        <ele>41</ele>
        <time>2011-01-09T08:08:50Z</time>
      </trkpt>
      <trkpt lat="47.23173" lon="-1.61522">
        <ele>41</ele>
        <time>2011-01-09T08:09:04Z</time>
      </trkpt>
      <trkpt lat="47.23172" lon="-1.61523">
        <ele>41</ele>
        <time>2011-01-09T08:09:05Z</time>
      </trkpt>
      <trkpt lat="47.23171" lon="-1.61524">
        <ele>41</ele>
        <time>2011-01-09T08:09:06Z</time>
      </trkpt>
      <trkpt lat="47.23167" lon="-1.61526">
        <ele>41</ele>
        <time>2011-01-09T08:09:11Z</time>
      </trkpt>
      <trkpt lat="47.23159" lon="-1.6153">
        <ele>40</ele>
        <time>2011-01-09T08:09:19Z</time>
      </trkpt>
      <trkpt lat="47.23157" lon="-1.6153">
        <ele>40</ele>
        <time>2011-01-09T08:09:20Z</time>
      </trkpt>
      <trkpt lat="47.23156" lon="-1.6153">
        <ele>40</ele>
        <time>2011-01-09T08:09:21Z</time>
      </trkpt>
      <trkpt lat="47.23156" lon="-1.6153">
        <ele>40</ele>
        <time>2011-01-09T08:09:22Z</time>
      </trkpt>
      <trkpt lat="47.23155" lon="-1.61529">
        <ele>40</ele>
        <time>2011-01-09T08:09:23Z</time>
      </trkpt>
      <trkpt lat="47.23154" lon="-1.61528">
        <ele>40</ele>
        <time>2011-01-09T08:09:24Z</time>
      </trkpt>
      <trkpt lat="47.23154" lon="-1.61528">
        <ele>40</ele>
        <time>2011-01-09T08:09:25Z</time>
      </trkpt>
      <trkpt lat="47.23153" lon="-1.61527">
        <ele>40</ele>
        <time>2011-01-09T08:09:26Z</time>
      </trkpt>
      <trkpt lat="47.23153" lon="-1.61526">
        <ele>40</ele>
        <time>2011-01-09T08:09:27Z</time>
      </trkpt>
      <trkpt lat="47.23151" lon="-1.61525">
        <ele>40</ele>
        <time>2011-01-09T08:09:29Z</time>
      </trkpt>
      <trkpt lat="47.23149" lon="-1.61524">
        <ele>40</ele>
        <time>2011-01-09T08:09:31Z</time>
      </trkpt>
      <trkpt lat="47.23146" lon="-1.61523">
        <ele>40</ele>
        <time>2011-01-09T08:09:34Z</time>
      </trkpt>
      <trkpt lat="47.23145" lon="-1.61522">
        <ele>40</ele>
        <time>2011-01-09T08:09:35Z</time>
      </trkpt>
      <trkpt lat="47.23143" lon="-1.61521">
        <ele>40</ele>
        <time>2011-01-09T08:09:39Z</time>
      </trkpt>
      <trkpt lat="47.23142" lon="-1.6152">
        <ele>40</ele>
        <time>2011-01-09T08:09:40Z</time>
      </trkpt>
      <trkpt lat="47.23141" lon="-1.6152">
        <ele>40</ele>
        <time>2011-01-09T08:09:41Z</time>
      </trkpt>
      <trkpt lat="47.23136" lon="-1.61511">
        <ele>40</ele>
        <time>2011-01-09T08:09:48Z</time>
      </trkpt>
      <trkpt lat="47.23136" lon="-1.6151">
        <ele>40</ele>
        <time>2011-01-09T08:09:49Z</time>
      </trkpt>
      <trkpt lat="47.23135" lon="-1.61509">
        <ele>40</ele>
        <time>2011-01-09T08:09:50Z</time>
      </trkpt>
      <trkpt lat="47.23128" lon="-1.61489">
        <ele>41</ele>
        <time>2011-01-09T08:10:04Z</time>
      </trkpt>
      <trkpt lat="47.23127" lon="-1.61488">
        <ele>41</ele>
        <time>2011-01-09T08:10:05Z</time>
      </trkpt>
      <trkpt lat="47.23127" lon="-1.61488">
        <ele>41</ele>
        <time>2011-01-09T08:10:06Z</time>
      </trkpt>
      <trkpt lat="47.23126" lon="-1.61488">
        <ele>41</ele>
        <time>2011-01-09T08:10:07Z</time>
      </trkpt>
      <trkpt lat="47.23116" lon="-1.61481">
        <ele>40</ele>
        <time>2011-01-09T08:10:23Z</time>
      </trkpt>
      <trkpt lat="47.23116" lon="-1.61482">
        <ele>40</ele>
        <time>2011-01-09T08:10:24Z</time>
      </trkpt>
      <trkpt lat="47.23115" lon="-1.61482">
        <ele>40</ele>
        <time>2011-01-09T08:10:25Z</time>
      </trkpt>
      <trkpt lat="47.23114" lon="-1.61482">
        <ele>40</ele>
        <time>2011-01-09T08:10:26Z</time>
      </trkpt>
      <trkpt lat="47.23113" lon="-1.61482">
        <ele>40</ele>
        <time>2011-01-09T08:10:27Z</time>
      </trkpt>
      <trkpt lat="47.23112" lon="-1.61482">
        <ele>40</ele>
        <time>2011-01-09T08:10:28Z</time>
      </trkpt>
      <trkpt lat="47.23111" lon="-1.61482">
        <ele>40</ele>
        <time>2011-01-09T08:10:29Z</time>
      </trkpt>
      <trkpt lat="47.23111" lon="-1.61483">
        <ele>40</ele>
        <time>2011-01-09T08:10:30Z</time>
      </trkpt>
      <trkpt lat="47.23108" lon="-1.61483">
        <ele>40</ele>
        <time>2011-01-09T08:10:34Z</time>
      </trkpt>
      <trkpt lat="47.23101" lon="-1.61487">
        <ele>40</ele>
        <time>2011-01-09T08:10:39Z</time>
      </trkpt>
      <trkpt lat="47.23097" lon="-1.61489">
        <ele>40</ele>
        <time>2011-01-09T08:10:42Z</time>
      </trkpt>
      <trkpt lat="47.23093" lon="-1.6149">
        <ele>40</ele>
        <time>2011-01-09T08:10:46Z</time>
      </trkpt>
      <trkpt lat="47.23086" lon="-1.61499">
        <ele>40</ele>
        <time>2011-01-09T08:11:09Z</time>
      </trkpt>
      <trkpt lat="47.23085" lon="-1.61499">
        <ele>40</ele>
        <time>2011-01-09T08:11:10Z</time>
      </trkpt>
      <trkpt lat="47.23085" lon="-1.61499">
        <ele>40</ele>
        <time>2011-01-09T08:11:11Z</time>
      </trkpt>
      <trkpt lat="47.23081" lon="-1.615">
        <ele>40</ele>
        <time>2011-01-09T08:11:16Z</time>
      </trkpt>
      <trkpt lat="47.2308" lon="-1.615">
        <ele>40</ele>
        <time>2011-01-09T08:11:17Z</time>
      </trkpt>
      <trkpt lat="47.23079" lon="-1.61501">
        <ele>40</ele>
        <time>2011-01-09T08:11:18Z</time>
      </trkpt>
      <trkpt lat="47.23078" lon="-1.61501">
        <ele>40</ele>
        <time>2011-01-09T08:11:19Z</time>
      </trkpt>
      <trkpt lat="47.23078" lon="-1.61501">
        <ele>40</ele>
        <time>2011-01-09T08:11:20Z</time>
      </trkpt>
      <trkpt lat="47.23077" lon="-1.61502">
        <ele>40</ele>
        <time>2011-01-09T08:11:21Z</time>
      </trkpt>
      <trkpt lat="47.23068" lon="-1.61473">
        <ele>40</ele>
        <time>2011-01-09T08:12:17Z</time>
      </trkpt>
      <trkpt lat="47.23068" lon="-1.61471">
        <ele>40</ele>
        <time>2011-01-09T08:12:18Z</time>
      </trkpt>
      <trkpt lat="47.23068" lon="-1.6147">
        <ele>40</ele>
        <time>2011-01-09T08:12:19Z</time>
      </trkpt>
      <trkpt lat="47.23069" lon="-1.61469">
        <ele>40</ele>
        <time>2011-01-09T08:12:20Z</time>
      </trkpt>
      <trkpt lat="47.23069" lon="-1.61416">
        <ele>40</ele>
        <time>2011-01-09T08:12:55Z</time>
      </trkpt>
      <trkpt lat="47.23069" lon="-1.61413">
        <ele>40</ele>
        <time>2011-01-09T08:12:56Z</time>
      </trkpt>
      <trkpt lat="47.2307" lon="-1.61412">
        <ele>40</ele>
        <time>2011-01-09T08:12:57Z</time>
      </trkpt>
      <trkpt lat="47.23163" lon="-1.61212">
        <ele>38</ele>
        <time>2011-01-09T08:16:10Z</time>
      </trkpt>
      <trkpt lat="47.23165" lon="-1.61212">
        <ele>38</ele>
        <time>2011-01-09T08:16:11Z</time>
      </trkpt>
      <trkpt lat="47.23167" lon="-1.61212">
        <ele>38</ele>
        <time>2011-01-09T08:16:12Z</time>
      </trkpt>
      <trkpt lat="47.23169" lon="-1.61212">
        <ele>38</ele>
        <time>2011-01-09T08:16:13Z</time>
      </trkpt>
      <trkpt lat="47.2317" lon="-1.61212">
        <ele>38</ele>
        <time>2011-01-09T08:16:14Z</time>
      </trkpt>
      <trkpt lat="47.23369" lon="-1.61195">
        <ele>38</ele>
        <time>2011-01-09T08:19:48Z</time>
      </trkpt>
      <trkpt lat="47.23371" lon="-1.61194">
        <ele>38</ele>
        <time>2011-01-09T08:19:49Z</time>
      </trkpt>
      <trkpt lat="47.23413" lon="-1.61161">
        <ele>37</ele>
        <time>2011-01-09T08:20:39Z</time>
      </trkpt>
      <trkpt lat="47.23414" lon="-1.61161">
        <ele>37</ele>
        <time>2011-01-09T08:20:40Z</time>
      </trkpt>
      <trkpt lat="47.2347" lon="-1.61124">
        <ele>34</ele>
        <time>2011-01-09T08:21:43Z</time>
      </trkpt>
      <trkpt lat="47.23471" lon="-1.61123">
        <ele>34</ele>
        <time>2011-01-09T08:21:44Z</time>
      </trkpt>
      <trkpt lat="47.23472" lon="-1.61123">
        <ele>34</ele>
        <time>2011-01-09T08:21:45Z</time>
      </trkpt>
      <trkpt lat="47.23474" lon="-1.61122">
        <ele>34</ele>
        <time>2011-01-09T08:21:46Z</time>
      </trkpt>
      <trkpt lat="47.23474" lon="-1.61121">
        <ele>34</ele>
        <time>2011-01-09T08:21:47Z</time>
      </trkpt>
      <trkpt lat="47.23475" lon="-1.6112">
        <ele>34</ele>
        <time>2011-01-09T08:21:48Z</time>
      </trkpt>
      <trkpt lat="47.23562" lon="-1.61026">
        <ele>30</ele>
        <time>2011-01-09T08:23:31Z</time>
      </trkpt>
      <trkpt lat="47.23563" lon="-1.61025">
        <ele>30</ele>
        <time>2011-01-09T08:23:32Z</time>
      </trkpt>
      <trkpt lat="47.23565" lon="-1.61023">
        <ele>29</ele>
        <time>2011-01-09T08:23:34Z</time>
      </trkpt>
      <trkpt lat="47.23566" lon="-1.61022">
        <ele>29</ele>
        <time>2011-01-09T08:23:35Z</time>
      </trkpt>
      <trkpt lat="47.23566" lon="-1.61021">
        <ele>29</ele>
        <time>2011-01-09T08:23:36Z</time>
      </trkpt>
      <trkpt lat="47.23574" lon="-1.61002">
        <ele>29</ele>
        <time>2011-01-09T08:23:51Z</time>
      </trkpt>
      <trkpt lat="47.23576" lon="-1.60877">
        <ele>30</ele>
        <time>2011-01-09T08:25:22Z</time>
      </trkpt>
      <trkpt lat="47.23575" lon="-1.60877">
        <ele>30</ele>
        <time>2011-01-09T08:25:23Z</time>
      </trkpt>
      <trkpt lat="47.23576" lon="-1.60875">
        <ele>30</ele>
        <time>2011-01-09T08:25:26Z</time>
      </trkpt>
      <trkpt lat="47.23577" lon="-1.60875">
        <ele>30</ele>
        <time>2011-01-09T08:25:27Z</time>
      </trkpt>
      <trkpt lat="47.23577" lon="-1.60874">
        <ele>30</ele>
        <time>2011-01-09T08:25:28Z</time>
      </trkpt>
      <trkpt lat="47.23577" lon="-1.60873">
        <ele>30</ele>
        <time>2011-01-09T08:25:29Z</time>
      </trkpt>
      <trkpt lat="47.23577" lon="-1.60872">
        <ele>30</ele>
        <time>2011-01-09T08:25:30Z</time>
      </trkpt>
      <trkpt lat="47.23576" lon="-1.60871">
        <ele>30</ele>
        <time>2011-01-09T08:25:31Z</time>
      </trkpt>
      <trkpt lat="47.23576" lon="-1.60869">
        <ele>30</ele>
        <time>2011-01-09T08:25:32Z</time>
      </trkpt>
      <trkpt lat="47.23575" lon="-1.60868">
        <ele>30</ele>
        <time>2011-01-09T08:25:33Z</time>
      </trkpt>
      <trkpt lat="47.23573" lon="-1.60856">
        <ele>30</ele>
        <time>2011-01-09T08:26:03Z</time>
      </trkpt>
      <trkpt lat="47.23572" lon="-1.60855">
        <ele>30</ele>
        <time>2011-01-09T08:26:04Z</time>
      </trkpt>
      <trkpt lat="47.23572" lon="-1.60853">
        <ele>30</ele>
        <time>2011-01-09T08:26:05Z</time>
      </trkpt>
      <trkpt lat="47.23572" lon="-1.60852">
        <ele>30</ele>
        <time>2011-01-09T08:26:06Z</time>
      </trkpt>
      <trkpt lat="47.23571" lon="-1.60852">
        <ele>30</ele>
        <time>2011-01-09T08:26:07Z</time>
      </trkpt>
      <trkpt lat="47.23571" lon="-1.60851">
        <ele>30</ele>
        <time>2011-01-09T08:26:08Z</time>
      </trkpt>
      <trkpt lat="47.23571" lon="-1.6085">
        <ele>30</ele>
        <time>2011-01-09T08:26:09Z</time>
      </trkpt>
      <trkpt lat="47.23571" lon="-1.60848">
        <ele>30</ele>
        <time>2011-01-09T08:26:10Z</time>
      </trkpt>
      <trkpt lat="47.23571" lon="-1.60846">
        <ele>30</ele>
        <time>2011-01-09T08:26:11Z</time>
      </trkpt>
      <trkpt lat="47.23571" lon="-1.60839">
        <ele>29</ele>
        <time>2011-01-09T08:26:15Z</time>
      </trkpt>
      <trkpt lat="47.23574" lon="-1.6082">
        <ele>28</ele>
        <time>2011-01-09T08:26:25Z</time>
      </trkpt>
      <trkpt lat="47.23574" lon="-1.60818">
        <ele>28</ele>
        <time>2011-01-09T08:26:26Z</time>
      </trkpt>
      <trkpt lat="47.23573" lon="-1.60817">
        <ele>28</ele>
        <time>2011-01-09T08:26:27Z</time>
      </trkpt>
      <trkpt lat="47.23574" lon="-1.60815">
        <ele>28</ele>
        <time>2011-01-09T08:26:28Z</time>
      </trkpt>
      <trkpt lat="47.23569" lon="-1.60769">
        <ele>26</ele>
        <time>2011-01-09T08:26:55Z</time>
      </trkpt>
      <trkpt lat="47.23568" lon="-1.60769">
        <ele>26</ele>
        <time>2011-01-09T08:26:56Z</time>
      </trkpt>
      <trkpt lat="47.23567" lon="-1.60768">
        <ele>26</ele>
        <time>2011-01-09T08:26:57Z</time>
      </trkpt>
      <trkpt lat="47.23558" lon="-1.60754">
        <ele>26</ele>
        <time>2011-01-09T08:27:09Z</time>
      </trkpt>
      <trkpt lat="47.23557" lon="-1.6075">
        <ele>24</ele>
        <time>2011-01-09T08:27:13Z</time>
      </trkpt>
      <trkpt lat="47.23554" lon="-1.60745">
        <ele>24</ele>
        <time>2011-01-09T08:27:16Z</time>
      </trkpt>
      <trkpt lat="47.23554" lon="-1.60744">
        <ele>24</ele>
        <time>2011-01-09T08:27:17Z</time>
      </trkpt>
      <trkpt lat="47.23536" lon="-1.60708">
        <ele>25</ele>
        <time>2011-01-09T08:27:47Z</time>
      </trkpt>
      <trkpt lat="47.23536" lon="-1.60707">
        <ele>25</ele>
        <time>2011-01-09T08:27:48Z</time>
      </trkpt>
      <trkpt lat="47.23523" lon="-1.6067">
        <ele>26</ele>
        <time>2011-01-09T08:28:16Z</time>
      </trkpt>
      <trkpt lat="47.23522" lon="-1.6062">
        <ele>24</ele>
        <time>2011-01-09T08:28:57Z</time>
      </trkpt>
      <trkpt lat="47.23523" lon="-1.60619">
        <ele>24</ele>
        <time>2011-01-09T08:28:58Z</time>
      </trkpt>
      <trkpt lat="47.23524" lon="-1.60618">
        <ele>24</ele>
        <time>2011-01-09T08:28:59Z</time>
      </trkpt>
      <trkpt lat="47.23527" lon="-1.60562">
        <ele>22</ele>
        <time>2011-01-09T08:30:50Z</time>
      </trkpt>
      <trkpt lat="47.23527" lon="-1.60556">
        <ele>22</ele>
        <time>2011-01-09T08:30:51Z</time>
      </trkpt>
      <trkpt lat="47.23529" lon="-1.60547">
        <ele>22</ele>
        <time>2011-01-09T08:30:52Z</time>
      </trkpt>
      <trkpt lat="47.23531" lon="-1.60546">
        <ele>22</ele>
        <time>2011-01-09T08:30:53Z</time>
      </trkpt>
      <trkpt lat="47.23529" lon="-1.60543">
        <ele>22</ele>
        <time>2011-01-09T08:30:54Z</time>
      </trkpt>
      <trkpt lat="47.23528" lon="-1.60544">
        <ele>22</ele>
        <time>2011-01-09T08:30:55Z</time>
      </trkpt>
      <trkpt lat="47.23527" lon="-1.60543">
        <ele>22</ele>
        <time>2011-01-09T08:30:56Z</time>
      </trkpt>
      <trkpt lat="47.23525" lon="-1.60542">
        <ele>22</ele>
        <time>2011-01-09T08:30:57Z</time>
      </trkpt>
      <trkpt lat="47.23523" lon="-1.60538">
        <ele>22</ele>
        <time>2011-01-09T08:30:58Z</time>
      </trkpt>
      <trkpt lat="47.23519" lon="-1.60533">
        <ele>22</ele>
        <time>2011-01-09T08:31:05Z</time>
      </trkpt>
      <trkpt lat="47.23514" lon="-1.60527">
        <ele>21</ele>
        <time>2011-01-09T08:31:11Z</time>
      </trkpt>
      <trkpt lat="47.23513" lon="-1.60526">
        <ele>21</ele>
        <time>2011-01-09T08:31:12Z</time>
      </trkpt>
      <trkpt lat="47.23512" lon="-1.60525">
        <ele>21</ele>
        <time>2011-01-09T08:31:13Z</time>
      </trkpt>
      <trkpt lat="47.23512" lon="-1.60523">
        <ele>21</ele>
        <time>2011-01-09T08:31:14Z</time>
      </trkpt>
      <trkpt lat="47.2351" lon="-1.60512">
        <ele>21</ele>
        <time>2011-01-09T08:31:25Z</time>
      </trkpt>
      <trkpt lat="47.2351" lon="-1.6051">
        <ele>21</ele>
        <time>2011-01-09T08:31:26Z</time>
      </trkpt>
      <trkpt lat="47.23509" lon="-1.60508">
        <ele>20</ele>
        <time>2011-01-09T08:31:27Z</time>
      </trkpt>
      <trkpt lat="47.23509" lon="-1.60506">
        <ele>20</ele>
        <time>2011-01-09T08:31:28Z</time>
      </trkpt>
      <trkpt lat="47.2351" lon="-1.60504">
        <ele>20</ele>
        <time>2011-01-09T08:31:29Z</time>
      </trkpt>
      <trkpt lat="47.23514" lon="-1.6049">
        <ele>21</ele>
        <time>2011-01-09T08:31:38Z</time>
      </trkpt>
      <trkpt lat="47.23515" lon="-1.60487">
        <ele>21</ele>
        <time>2011-01-09T08:31:39Z</time>
      </trkpt>
      <trkpt lat="47.23515" lon="-1.60484">
        <ele>21</ele>
        <time>2011-01-09T08:31:40Z</time>
      </trkpt>
      <trkpt lat="47.23515" lon="-1.60482">
        <ele>21</ele>
        <time>2011-01-09T08:31:41Z</time>
      </trkpt>
      <trkpt lat="47.23514" lon="-1.60481">
        <ele>21</ele>
        <time>2011-01-09T08:31:42Z</time>
      </trkpt>
      <trkpt lat="47.23515" lon="-1.60478">
        <ele>21</ele>
        <time>2011-01-09T08:31:43Z</time>
      </trkpt>
      <trkpt lat="47.23515" lon="-1.60475">
        <ele>21</ele>
        <time>2011-01-09T08:31:44Z</time>
      </trkpt>
      <trkpt lat="47.23514" lon="-1.60473">
        <ele>21</ele>
        <time>2011-01-09T08:31:45Z</time>
      </trkpt>
      <trkpt lat="47.23514" lon="-1.60471">
        <ele>21</ele>
        <time>2011-01-09T08:31:46Z</time>
      </trkpt>
      <trkpt lat="47.23513" lon="-1.60469">
        <ele>21</ele>
        <time>2011-01-09T08:31:47Z</time>
      </trkpt>
      <trkpt lat="47.23514" lon="-1.60467">
        <ele>21</ele>
        <time>2011-01-09T08:31:48Z</time>
      </trkpt>
      <trkpt lat="47.23513" lon="-1.60465">
        <ele>22</ele>
        <time>2011-01-09T08:31:49Z</time>
      </trkpt>
      <trkpt lat="47.23513" lon="-1.60461">
        <ele>22</ele>
        <time>2011-01-09T08:31:51Z</time>
      </trkpt>
      <trkpt lat="47.23513" lon="-1.60459">
        <ele>22</ele>
        <time>2011-01-09T08:31:52Z</time>
      </trkpt>
      <trkpt lat="47.23511" lon="-1.60458">
        <ele>22</ele>
        <time>2011-01-09T08:31:53Z</time>
      </trkpt>
      <trkpt lat="47.23509" lon="-1.60457">
        <ele>22</ele>
        <time>2011-01-09T08:31:54Z</time>
      </trkpt>
      <trkpt lat="47.23508" lon="-1.60455">
        <ele>22</ele>
        <time>2011-01-09T08:31:55Z</time>
      </trkpt>
      <trkpt lat="47.23508" lon="-1.60454">
        <ele>22</ele>
        <time>2011-01-09T08:31:56Z</time>
      </trkpt>
      <trkpt lat="47.23507" lon="-1.60452">
        <ele>21</ele>
        <time>2011-01-09T08:31:57Z</time>
      </trkpt>
      <trkpt lat="47.23508" lon="-1.60451">
        <ele>21</ele>
        <time>2011-01-09T08:31:58Z</time>
      </trkpt>
      <trkpt lat="47.23507" lon="-1.60448">
        <ele>21</ele>
        <time>2011-01-09T08:32:01Z</time>
      </trkpt>
      <trkpt lat="47.23507" lon="-1.60446">
        <ele>21</ele>
        <time>2011-01-09T08:32:02Z</time>
      </trkpt>
      <trkpt lat="47.23505" lon="-1.60429">
        <ele>21</ele>
        <time>2011-01-09T08:32:09Z</time>
      </trkpt>
      <trkpt lat="47.23505" lon="-1.60427">
        <ele>21</ele>
        <time>2011-01-09T08:32:10Z</time>
      </trkpt>
      <trkpt lat="47.23505" lon="-1.60425">
        <ele>21</ele>
        <time>2011-01-09T08:32:11Z</time>
      </trkpt>
      <trkpt lat="47.23502" lon="-1.60407">
        <ele>21</ele>
        <time>2011-01-09T08:32:21Z</time>
      </trkpt>
      <trkpt lat="47.23502" lon="-1.60405">
        <ele>21</ele>
        <time>2011-01-09T08:32:22Z</time>
      </trkpt>
      <trkpt lat="47.23501" lon="-1.60403">
        <ele>22</ele>
        <time>2011-01-09T08:32:23Z</time>
      </trkpt>
      <trkpt lat="47.23501" lon="-1.60401">
        <ele>22</ele>
        <time>2011-01-09T08:32:24Z</time>
      </trkpt>
      <trkpt lat="47.23495" lon="-1.60384">
        <ele>21</ele>
        <time>2011-01-09T08:32:34Z</time>
      </trkpt>
      <trkpt lat="47.23494" lon="-1.60382">
        <ele>21</ele>
        <time>2011-01-09T08:32:35Z</time>
      </trkpt>
      <trkpt lat="47.23492" lon="-1.60381">
        <ele>21</ele>
        <time>2011-01-09T08:32:36Z</time>
      </trkpt>
      <trkpt lat="47.2349" lon="-1.6038">
        <ele>21</ele>
        <time>2011-01-09T08:32:37Z</time>
      </trkpt>
      <trkpt lat="47.23489" lon="-1.60378">
        <ele>21</ele>
        <time>2011-01-09T08:32:38Z</time>
      </trkpt>
      <trkpt lat="47.23488" lon="-1.60376">
        <ele>21</ele>
        <time>2011-01-09T08:32:39Z</time>
      </trkpt>
      <trkpt lat="47.23488" lon="-1.60373">
        <ele>21</ele>
        <time>2011-01-09T08:32:40Z</time>
      </trkpt>
      <trkpt lat="47.23488" lon="-1.6037">
        <ele>21</ele>
        <time>2011-01-09T08:32:41Z</time>
      </trkpt>
      <trkpt lat="47.23487" lon="-1.60368">
        <ele>21</ele>
        <time>2011-01-09T08:32:42Z</time>
      </trkpt>
      <trkpt lat="47.23484" lon="-1.60363">
        <ele>21</ele>
        <time>2011-01-09T08:32:45Z</time>
      </trkpt>
      <trkpt lat="47.23483" lon="-1.6036">
        <ele>21</ele>
        <time>2011-01-09T08:32:46Z</time>
      </trkpt>
      <trkpt lat="47.23482" lon="-1.60358">
        <ele>21</ele>
        <time>2011-01-09T08:32:47Z</time>
      </trkpt>
      <trkpt lat="47.23481" lon="-1.60356">
        <ele>21</ele>
        <time>2011-01-09T08:32:48Z</time>
      </trkpt>
      <trkpt lat="47.2348" lon="-1.60355">
        <ele>21</ele>
        <time>2011-01-09T08:32:49Z</time>
      </trkpt>
      <trkpt lat="47.2348" lon="-1.60353">
        <ele>21</ele>
        <time>2011-01-09T08:32:50Z</time>
      </trkpt>
      <trkpt lat="47.23479" lon="-1.60351">
        <ele>21</ele>
        <time>2011-01-09T08:32:51Z</time>
      </trkpt>
      <trkpt lat="47.23478" lon="-1.60351">
        <ele>21</ele>
        <time>2011-01-09T08:32:52Z</time>
      </trkpt>
      <trkpt lat="47.23478" lon="-1.60351">
        <ele>21</ele>
        <time>2011-01-09T08:32:53Z</time>
      </trkpt>
      <trkpt lat="47.23466" lon="-1.60331">
        <ele>21</ele>
        <time>2011-01-09T08:33:06Z</time>
      </trkpt>
      <trkpt lat="47.23465" lon="-1.6033">
        <ele>21</ele>
        <time>2011-01-09T08:33:07Z</time>
      </trkpt>
      <trkpt lat="47.23465" lon="-1.6033">
        <ele>21</ele>
        <time>2011-01-09T08:33:08Z</time>
      </trkpt>
      <trkpt lat="47.23464" lon="-1.60329">
        <ele>21</ele>
        <time>2011-01-09T08:33:09Z</time>
      </trkpt>
      <trkpt lat="47.23463" lon="-1.60328">
        <ele>21</ele>
        <time>2011-01-09T08:33:10Z</time>
      </trkpt>
      <trkpt lat="47.23462" lon="-1.60326">
        <ele>21</ele>
        <time>2011-01-09T08:33:11Z</time>
      </trkpt>
      <trkpt lat="47.23461" lon="-1.60325">
        <ele>21</ele>
        <time>2011-01-09T08:33:12Z</time>
      </trkpt>
      <trkpt lat="47.2346" lon="-1.60324">
        <ele>21</ele>
        <time>2011-01-09T08:33:13Z</time>
      </trkpt>
      <trkpt lat="47.23459" lon="-1.60323">
        <ele>21</ele>
        <time>2011-01-09T08:33:14Z</time>
      </trkpt>
      <trkpt lat="47.23458" lon="-1.60323">
        <ele>21</ele>
        <time>2011-01-09T08:33:15Z</time>
      </trkpt>
      <trkpt lat="47.23457" lon="-1.60322">
        <ele>21</ele>
        <time>2011-01-09T08:33:16Z</time>
      </trkpt>
      <trkpt lat="47.23456" lon="-1.60321">
        <ele>21</ele>
        <time>2011-01-09T08:33:17Z</time>
      </trkpt>
      <trkpt lat="47.23455" lon="-1.6032">
        <ele>21</ele>
        <time>2011-01-09T08:33:18Z</time>
      </trkpt>
      <trkpt lat="47.23453" lon="-1.6032">
        <ele>21</ele>
        <time>2011-01-09T08:33:19Z</time>
      </trkpt>
      <trkpt lat="47.23452" lon="-1.60319">
        <ele>21</ele>
        <time>2011-01-09T08:33:20Z</time>
      </trkpt>
      <trkpt lat="47.23451" lon="-1.60318">
        <ele>21</ele>
        <time>2011-01-09T08:33:21Z</time>
      </trkpt>
      <trkpt lat="47.23449" lon="-1.60317">
        <ele>21</ele>
        <time>2011-01-09T08:33:22Z</time>
      </trkpt>
      <trkpt lat="47.23448" lon="-1.60315">
        <ele>21</ele>
        <time>2011-01-09T08:33:23Z</time>
      </trkpt>
      <trkpt lat="47.23447" lon="-1.60314">
        <ele>21</ele>
        <time>2011-01-09T08:33:24Z</time>
      </trkpt>
      <trkpt lat="47.23446" lon="-1.60313">
        <ele>21</ele>
        <time>2011-01-09T08:33:25Z</time>
      </trkpt>
      <trkpt lat="47.23445" lon="-1.60312">
        <ele>21</ele>
        <time>2011-01-09T08:33:26Z</time>
      </trkpt>
      <trkpt lat="47.23445" lon="-1.60311">
        <ele>21</ele>
        <time>2011-01-09T08:33:27Z</time>
      </trkpt>
      <trkpt lat="47.23444" lon="-1.6031">
        <ele>21</ele>
        <time>2011-01-09T08:33:28Z</time>
      </trkpt>
      <trkpt lat="47.23443" lon="-1.60308">
        <ele>21</ele>
        <time>2011-01-09T08:33:29Z</time>
      </trkpt>
      <trkpt lat="47.23442" lon="-1.60307">
        <ele>21</ele>
        <time>2011-01-09T08:33:30Z</time>
      </trkpt>
      <trkpt lat="47.23441" lon="-1.60306">
        <ele>21</ele>
        <time>2011-01-09T08:33:31Z</time>
      </trkpt>
      <trkpt lat="47.2344" lon="-1.60305">
        <ele>21</ele>
        <time>2011-01-09T08:33:32Z</time>
      </trkpt>
      <trkpt lat="47.23439" lon="-1.60303">
        <ele>21</ele>
        <time>2011-01-09T08:33:33Z</time>
      </trkpt>
      <trkpt lat="47.23438" lon="-1.60301">
        <ele>21</ele>
        <time>2011-01-09T08:33:34Z</time>
      </trkpt>
      <trkpt lat="47.23438" lon="-1.603">
        <ele>21</ele>
        <time>2011-01-09T08:33:35Z</time>
      </trkpt>
      <trkpt lat="47.23436" lon="-1.60298">
        <ele>21</ele>
        <time>2011-01-09T08:33:36Z</time>
      </trkpt>
      <trkpt lat="47.23435" lon="-1.60297">
        <ele>21</ele>
        <time>2011-01-09T08:33:37Z</time>
      </trkpt>
      <trkpt lat="47.23434" lon="-1.60296">
        <ele>21</ele>
        <time>2011-01-09T08:33:38Z</time>
      </trkpt>
      <trkpt lat="47.23433" lon="-1.60295">
        <ele>21</ele>
        <time>2011-01-09T08:33:39Z</time>
      </trkpt>
      <trkpt lat="47.23432" lon="-1.60295">
        <ele>21</ele>
        <time>2011-01-09T08:33:40Z</time>
      </trkpt>
      <trkpt lat="47.23431" lon="-1.60293">
        <ele>21</ele>
        <time>2011-01-09T08:33:41Z</time>
      </trkpt>
      <trkpt lat="47.23429" lon="-1.60292">
        <ele>21</ele>
        <time>2011-01-09T08:33:42Z</time>
      </trkpt>
      <trkpt lat="47.23429" lon="-1.6029">
        <ele>21</ele>
        <time>2011-01-09T08:33:43Z</time>
      </trkpt>
      <trkpt lat="47.23428" lon="-1.60288">
        <ele>21</ele>
        <time>2011-01-09T08:33:44Z</time>
      </trkpt>
      <trkpt lat="47.23428" lon="-1.60287">
        <ele>21</ele>
        <time>2011-01-09T08:33:45Z</time>
      </trkpt>
      <trkpt lat="47.23427" lon="-1.60286">
        <ele>21</ele>
        <time>2011-01-09T08:33:46Z</time>
      </trkpt>
      <trkpt lat="47.23426" lon="-1.60286">
        <ele>21</ele>
        <time>2011-01-09T08:33:47Z</time>
      </trkpt>
      <trkpt lat="47.23425" lon="-1.60286">
        <ele>21</ele>
        <time>2011-01-09T08:33:48Z</time>
      </trkpt>
      <trkpt lat="47.23424" lon="-1.60285">
        <ele>21</ele>
        <time>2011-01-09T08:33:49Z</time>
      </trkpt>
      <trkpt lat="47.23424" lon="-1.60284">
        <ele>21</ele>
        <time>2011-01-09T08:33:50Z</time>
      </trkpt>
      <trkpt lat="47.23423" lon="-1.60284">
        <ele>21</ele>
        <time>2011-01-09T08:33:51Z</time>
      </trkpt>
      <trkpt lat="47.23422" lon="-1.60283">
        <ele>21</ele>
        <time>2011-01-09T08:33:52Z</time>
      </trkpt>
      <trkpt lat="47.23421" lon="-1.60282">
        <ele>21</ele>
        <time>2011-01-09T08:33:53Z</time>
      </trkpt>
      <trkpt lat="47.2342" lon="-1.60281">
        <ele>21</ele>
        <time>2011-01-09T08:33:54Z</time>
      </trkpt>
      <trkpt lat="47.23419" lon="-1.6028">
        <ele>21</ele>
        <time>2011-01-09T08:33:55Z</time>
      </trkpt>
      <trkpt lat="47.23418" lon="-1.60279">
        <ele>21</ele>
        <time>2011-01-09T08:33:56Z</time>
      </trkpt>
      <trkpt lat="47.23417" lon="-1.60277">
        <ele>20</ele>
        <time>2011-01-09T08:33:57Z</time>
      </trkpt>
      <trkpt lat="47.23415" lon="-1.60275">
        <ele>22</ele>
        <time>2011-01-09T08:33:58Z</time>
      </trkpt>
      <trkpt lat="47.23414" lon="-1.60274">
        <ele>22</ele>
        <time>2011-01-09T08:33:59Z</time>
      </trkpt>
      <trkpt lat="47.23413" lon="-1.60273">
        <ele>22</ele>
        <time>2011-01-09T08:34:00Z</time>
      </trkpt>
      <trkpt lat="47.23405" lon="-1.6026">
        <ele>21</ele>
        <time>2011-01-09T08:34:08Z</time>
      </trkpt>
      <trkpt lat="47.23403" lon="-1.60258">
        <ele>21</ele>
        <time>2011-01-09T08:34:09Z</time>
      </trkpt>
      <trkpt lat="47.23402" lon="-1.60257">
        <ele>21</ele>
        <time>2011-01-09T08:34:10Z</time>
      </trkpt>
      <trkpt lat="47.23401" lon="-1.60256">
        <ele>21</ele>
        <time>2011-01-09T08:34:11Z</time>
      </trkpt>
      <trkpt lat="47.23365" lon="-1.6021">
        <ele>22</ele>
        <time>2011-01-09T08:34:48Z</time>
      </trkpt>
      <trkpt lat="47.23364" lon="-1.60207">
        <ele>22</ele>
        <time>2011-01-09T08:34:49Z</time>
      </trkpt>
      <trkpt lat="47.23363" lon="-1.60204">
        <ele>22</ele>
        <time>2011-01-09T08:34:50Z</time>
      </trkpt>
      <trkpt lat="47.23363" lon="-1.60201">
        <ele>21</ele>
        <time>2011-01-09T08:34:51Z</time>
      </trkpt>
      <trkpt lat="47.23362" lon="-1.602">
        <ele>21</ele>
        <time>2011-01-09T08:34:52Z</time>
      </trkpt>
      <trkpt lat="47.23356" lon="-1.60187">
        <ele>21</ele>
        <time>2011-01-09T08:35:02Z</time>
      </trkpt>
      <trkpt lat="47.23355" lon="-1.60186">
        <ele>21</ele>
        <time>2011-01-09T08:35:03Z</time>
      </trkpt>
      <trkpt lat="47.23313" lon="-1.60055">
        <ele>19</ele>
        <time>2011-01-09T08:36:38Z</time>
      </trkpt>
      <trkpt lat="47.23313" lon="-1.60051">
        <ele>19</ele>
        <time>2011-01-09T08:36:39Z</time>
      </trkpt>
      <trkpt lat="47.23313" lon="-1.60048">
        <ele>19</ele>
        <time>2011-01-09T08:36:40Z</time>
      </trkpt>
      <trkpt lat="47.23312" lon="-1.60046">
        <ele>19</ele>
        <time>2011-01-09T08:36:41Z</time>
      </trkpt>
      <trkpt lat="47.23312" lon="-1.60044">
        <ele>19</ele>
        <time>2011-01-09T08:36:42Z</time>
      </trkpt>
      <trkpt lat="47.23312" lon="-1.60043">
        <ele>19</ele>
        <time>2011-01-09T08:36:43Z</time>
      </trkpt>
      <trkpt lat="47.23312" lon="-1.60041">
        <ele>19</ele>
        <time>2011-01-09T08:36:44Z</time>
      </trkpt>
      <trkpt lat="47.23313" lon="-1.60006">
        <ele>19</ele>
        <time>2011-01-09T08:37:05Z</time>
      </trkpt>
      <trkpt lat="47.23313" lon="-1.59996">
        <ele>18</ele>
        <time>2011-01-09T08:37:09Z</time>
      </trkpt>
      <trkpt lat="47.23313" lon="-1.5999">
        <ele>18</ele>
        <time>2011-01-09T08:37:12Z</time>
      </trkpt>
      <trkpt lat="47.23312" lon="-1.59982">
        <ele>18</ele>
        <time>2011-01-09T08:37:16Z</time>
      </trkpt>
      <trkpt lat="47.2331" lon="-1.5997">
        <ele>18</ele>
        <time>2011-01-09T08:37:25Z</time>
      </trkpt>
      <trkpt lat="47.23309" lon="-1.59969">
        <ele>18</ele>
        <time>2011-01-09T08:37:26Z</time>
      </trkpt>
      <trkpt lat="47.23308" lon="-1.59967">
        <ele>18</ele>
        <time>2011-01-09T08:37:27Z</time>
      </trkpt>
      <trkpt lat="47.23291" lon="-1.59943">
        <ele>18</ele>
        <time>2011-01-09T08:37:48Z</time>
      </trkpt>
      <trkpt lat="47.2329" lon="-1.59942">
        <ele>18</ele>
        <time>2011-01-09T08:37:49Z</time>
      </trkpt>
      <trkpt lat="47.2329" lon="-1.59941">
        <ele>18</ele>
        <time>2011-01-09T08:37:50Z</time>
      </trkpt>
      <trkpt lat="47.23288" lon="-1.5994">
        <ele>18</ele>
        <time>2011-01-09T08:37:51Z</time>
      </trkpt>
      <trkpt lat="47.23287" lon="-1.5994">
        <ele>18</ele>
        <time>2011-01-09T08:37:52Z</time>
      </trkpt>
      <trkpt lat="47.23285" lon="-1.59939">
        <ele>18</ele>
        <time>2011-01-09T08:37:54Z</time>
      </trkpt>
      <trkpt lat="47.23284" lon="-1.59938">
        <ele>18</ele>
        <time>2011-01-09T08:37:55Z</time>
      </trkpt>
      <trkpt lat="47.23283" lon="-1.59938">
        <ele>18</ele>
        <time>2011-01-09T08:37:56Z</time>
      </trkpt>
      <trkpt lat="47.23282" lon="-1.59937">
        <ele>18</ele>
        <time>2011-01-09T08:37:57Z</time>
      </trkpt>
      <trkpt lat="47.23281" lon="-1.59937">
        <ele>18</ele>
        <time>2011-01-09T08:37:58Z</time>
      </trkpt>
      <trkpt lat="47.23259" lon="-1.5991">
        <ele>18</ele>
        <time>2011-01-09T08:38:20Z</time>
      </trkpt>
      <trkpt lat="47.23258" lon="-1.59908">
        <ele>18</ele>
        <time>2011-01-09T08:38:21Z</time>
      </trkpt>
      <trkpt lat="47.23257" lon="-1.59907">
        <ele>18</ele>
        <time>2011-01-09T08:38:22Z</time>
      </trkpt>
      <trkpt lat="47.23231" lon="-1.59874">
        <ele>18</ele>
        <time>2011-01-09T08:38:49Z</time>
      </trkpt>
      <trkpt lat="47.2323" lon="-1.59872">
        <ele>18</ele>
        <time>2011-01-09T08:38:50Z</time>
      </trkpt>
      <trkpt lat="47.23222" lon="-1.59859">
        <ele>18</ele>
        <time>2011-01-09T08:38:59Z</time>
      </trkpt>
      <trkpt lat="47.23216" lon="-1.5985">
        <ele>18</ele>
        <time>2011-01-09T08:39:07Z</time>
      </trkpt>
      <trkpt lat="47.23177" lon="-1.598">
        <ele>18</ele>
        <time>2011-01-09T08:39:54Z</time>
      </trkpt>
      <trkpt lat="47.23175" lon="-1.59799">
        <ele>18</ele>
        <time>2011-01-09T08:39:55Z</time>
      </trkpt>
      <trkpt lat="47.23174" lon="-1.59799">
        <ele>18</ele>
        <time>2011-01-09T08:39:56Z</time>
      </trkpt>
      <trkpt lat="47.23173" lon="-1.59799">
        <ele>18</ele>
        <time>2011-01-09T08:39:57Z</time>
      </trkpt>
      <trkpt lat="47.23164" lon="-1.598">
        <ele>15</ele>
        <time>2011-01-09T08:40:11Z</time>
      </trkpt>
      <trkpt lat="47.23163" lon="-1.59801">
        <ele>15</ele>
        <time>2011-01-09T08:40:12Z</time>
      </trkpt>
      <trkpt lat="47.23163" lon="-1.59801">
        <ele>15</ele>
        <time>2011-01-09T08:40:13Z</time>
      </trkpt>
      <trkpt lat="47.23163" lon="-1.59801">
        <ele>15</ele>
        <time>2011-01-09T08:40:14Z</time>
      </trkpt>
      <trkpt lat="47.23163" lon="-1.59801">
        <ele>15</ele>
        <time>2011-01-09T08:40:15Z</time>
      </trkpt>
      <trkpt lat="47.23163" lon="-1.59801">
        <ele>15</ele>
        <time>2011-01-09T08:40:16Z</time>
      </trkpt>
      <trkpt lat="47.23163" lon="-1.598">
        <ele>15</ele>
        <time>2011-01-09T08:40:17Z</time>
      </trkpt>
      <trkpt lat="47.23163" lon="-1.598">
        <ele>15</ele>
        <time>2011-01-09T08:40:18Z</time>
      </trkpt>
      <trkpt lat="47.23162" lon="-1.59801">
        <ele>15</ele>
        <time>2011-01-09T08:40:19Z</time>
      </trkpt>
      <trkpt lat="47.23162" lon="-1.59801">
        <ele>15</ele>
        <time>2011-01-09T08:40:20Z</time>
      </trkpt>
      <trkpt lat="47.23162" lon="-1.598">
        <ele>15</ele>
        <time>2011-01-09T08:40:21Z</time>
      </trkpt>
      <trkpt lat="47.23161" lon="-1.59801">
        <ele>15</ele>
        <time>2011-01-09T08:40:22Z</time>
      </trkpt>
      <trkpt lat="47.23161" lon="-1.59801">
        <ele>15</ele>
        <time>2011-01-09T08:40:23Z</time>
      </trkpt>
      <trkpt lat="47.23161" lon="-1.59801">
        <ele>15</ele>
        <time>2011-01-09T08:40:24Z</time>
      </trkpt>
      <trkpt lat="47.23161" lon="-1.598">
        <ele>15</ele>
        <time>2011-01-09T08:40:25Z</time>
      </trkpt>
      <trkpt lat="47.2316" lon="-1.59801">
        <ele>15</ele>
        <time>2011-01-09T08:40:26Z</time>
      </trkpt>
      <trkpt lat="47.2316" lon="-1.598">
        <ele>15</ele>
        <time>2011-01-09T08:40:27Z</time>
      </trkpt>
      <trkpt lat="47.2316" lon="-1.59801">
        <ele>15</ele>
        <time>2011-01-09T08:40:28Z</time>
      </trkpt>
      <trkpt lat="47.23159" lon="-1.59801">
        <ele>15</ele>
        <time>2011-01-09T08:40:29Z</time>
      </trkpt>
      <trkpt lat="47.23159" lon="-1.59802">
        <ele>15</ele>
        <time>2011-01-09T08:40:30Z</time>
      </trkpt>
      <trkpt lat="47.23159" lon="-1.59801">
        <ele>15</ele>
        <time>2011-01-09T08:40:31Z</time>
      </trkpt>
      <trkpt lat="47.23159" lon="-1.59802">
        <ele>15</ele>
        <time>2011-01-09T08:40:32Z</time>
      </trkpt>
      <trkpt lat="47.23159" lon="-1.59801">
        <ele>15</ele>
        <time>2011-01-09T08:40:33Z</time>
      </trkpt>
      <trkpt lat="47.23158" lon="-1.59802">
        <ele>15</ele>
        <time>2011-01-09T08:40:34Z</time>
      </trkpt>
      <trkpt lat="47.23158" lon="-1.59802">
        <ele>15</ele>
        <time>2011-01-09T08:40:35Z</time>
      </trkpt>
      <trkpt lat="47.23157" lon="-1.59803">
        <ele>15</ele>
        <time>2011-01-09T08:40:36Z</time>
      </trkpt>
      <trkpt lat="47.23157" lon="-1.59803">
        <ele>15</ele>
        <time>2011-01-09T08:40:37Z</time>
      </trkpt>
      <trkpt lat="47.23157" lon="-1.59803">
        <ele>15</ele>
        <time>2011-01-09T08:40:38Z</time>
      </trkpt>
      <trkpt lat="47.23158" lon="-1.59802">
        <ele>15</ele>
        <time>2011-01-09T08:40:39Z</time>
      </trkpt>
      <trkpt lat="47.23158" lon="-1.59802">
        <ele>15</ele>
        <time>2011-01-09T08:40:40Z</time>
      </trkpt>
      <trkpt lat="47.23159" lon="-1.59801">
        <ele>15</ele>
        <time>2011-01-09T08:40:41Z</time>
      </trkpt>
      <trkpt lat="47.23159" lon="-1.598">
        <ele>15</ele>
        <time>2011-01-09T08:40:42Z</time>
      </trkpt>
      <trkpt lat="47.23159" lon="-1.598">
        <ele>15</ele>
        <time>2011-01-09T08:40:43Z</time>
      </trkpt>
      <trkpt lat="47.2316" lon="-1.598">
        <ele>15</ele>
        <time>2011-01-09T08:40:44Z</time>
      </trkpt>
      <trkpt lat="47.2316" lon="-1.598">
        <ele>15</ele>
        <time>2011-01-09T08:40:45Z</time>
      </trkpt>
      <trkpt lat="47.2316" lon="-1.59799">
        <ele>15</ele>
        <time>2011-01-09T08:40:46Z</time>
      </trkpt>
      <trkpt lat="47.23159" lon="-1.598">
        <ele>15</ele>
        <time>2011-01-09T08:40:47Z</time>
      </trkpt>
      <trkpt lat="47.23159" lon="-1.59801">
        <ele>15</ele>
        <time>2011-01-09T08:40:48Z</time>
      </trkpt>
      <trkpt lat="47.23158" lon="-1.59801">
        <ele>15</ele>
        <time>2011-01-09T08:40:49Z</time>
      </trkpt>
      <trkpt lat="47.23157" lon="-1.59802">
        <ele>15</ele>
        <time>2011-01-09T08:40:50Z</time>
      </trkpt>
      <trkpt lat="47.23155" lon="-1.59803">
        <ele>15</ele>
        <time>2011-01-09T08:40:51Z</time>
      </trkpt>
      <trkpt lat="47.23155" lon="-1.59804">
        <ele>15</ele>
        <time>2011-01-09T08:40:52Z</time>
      </trkpt>
      <trkpt lat="47.23154" lon="-1.59804">
        <ele>15</ele>
        <time>2011-01-09T08:40:53Z</time>
      </trkpt>
      <trkpt lat="47.23154" lon="-1.59805">
        <ele>15</ele>
        <time>2011-01-09T08:40:54Z</time>
      </trkpt>
      <trkpt lat="47.23154" lon="-1.59805">
        <ele>15</ele>
        <time>2011-01-09T08:40:55Z</time>
      </trkpt>
      <trkpt lat="47.23153" lon="-1.59806">
        <ele>15</ele>
        <time>2011-01-09T08:40:56Z</time>
      </trkpt>
      <trkpt lat="47.23153" lon="-1.59805">
        <ele>15</ele>
        <time>2011-01-09T08:40:57Z</time>
      </trkpt>
      <trkpt lat="47.23152" lon="-1.59806">
        <ele>15</ele>
        <time>2011-01-09T08:40:58Z</time>
      </trkpt>
      <trkpt lat="47.23151" lon="-1.59806">
        <ele>15</ele>
        <time>2011-01-09T08:40:59Z</time>
      </trkpt>
      <trkpt lat="47.23151" lon="-1.59808">
        <ele>15</ele>
        <time>2011-01-09T08:41:00Z</time>
      </trkpt>
      <trkpt lat="47.2315" lon="-1.59809">
        <ele>15</ele>
        <time>2011-01-09T08:41:01Z</time>
      </trkpt>
      <trkpt lat="47.2315" lon="-1.59811">
        <ele>15</ele>
        <time>2011-01-09T08:41:02Z</time>
      </trkpt>
      <trkpt lat="47.2315" lon="-1.59812">
        <ele>15</ele>
        <time>2011-01-09T08:41:03Z</time>
      </trkpt>
      <trkpt lat="47.23151" lon="-1.59812">
        <ele>15</ele>
        <time>2011-01-09T08:41:04Z</time>
      </trkpt>
      <trkpt lat="47.23151" lon="-1.59813">
        <ele>15</ele>
        <time>2011-01-09T08:41:05Z</time>
      </trkpt>
      <trkpt lat="47.23152" lon="-1.59813">
        <ele>15</ele>
        <time>2011-01-09T08:41:06Z</time>
      </trkpt>
      <trkpt lat="47.23153" lon="-1.59813">
        <ele>15</ele>
        <time>2011-01-09T08:41:07Z</time>
      </trkpt>
      <trkpt lat="47.23153" lon="-1.59813">
        <ele>15</ele>
        <time>2011-01-09T08:41:08Z</time>
      </trkpt>
      <trkpt lat="47.23154" lon="-1.59813">
        <ele>15</ele>
        <time>2011-01-09T08:41:09Z</time>
      </trkpt>
      <trkpt lat="47.23155" lon="-1.59813">
        <ele>15</ele>
        <time>2011-01-09T08:41:10Z</time>
      </trkpt>
      <trkpt lat="47.23155" lon="-1.59813">
        <ele>15</ele>
        <time>2011-01-09T08:41:11Z</time>
      </trkpt>
      <trkpt lat="47.23155" lon="-1.59813">
        <ele>15</ele>
        <time>2011-01-09T08:41:12Z</time>
      </trkpt>
      <trkpt lat="47.23156" lon="-1.59813">
        <ele>15</ele>
        <time>2011-01-09T08:41:13Z</time>
      </trkpt>
      <trkpt lat="47.23156" lon="-1.59813">
        <ele>15</ele>
        <time>2011-01-09T08:41:14Z</time>
      </trkpt>
      <trkpt lat="47.23156" lon="-1.59813">
        <ele>15</ele>
        <time>2011-01-09T08:41:15Z</time>
      </trkpt>
      <trkpt lat="47.23154" lon="-1.59815">
        <ele>15</ele>
        <time>2011-01-09T08:41:16Z</time>
      </trkpt>
      <trkpt lat="47.23154" lon="-1.59816">
        <ele>15</ele>
        <time>2011-01-09T08:41:17Z</time>
      </trkpt>
      <trkpt lat="47.23156" lon="-1.59817">
        <ele>15</ele>
        <time>2011-01-09T08:41:18Z</time>
      </trkpt>
      <trkpt lat="47.23156" lon="-1.59818">
        <ele>15</ele>
        <time>2011-01-09T08:41:19Z</time>
      </trkpt>
      <trkpt lat="47.23157" lon="-1.59817">
        <ele>15</ele>
        <time>2011-01-09T08:41:20Z</time>
      </trkpt>
      <trkpt lat="47.2316" lon="-1.59818">
        <ele>15</ele>
        <time>2011-01-09T08:41:27Z</time>
      </trkpt>
      <trkpt lat="47.2316" lon="-1.59819">
        <ele>15</ele>
        <time>2011-01-09T08:41:28Z</time>
      </trkpt>
      <trkpt lat="47.23159" lon="-1.59819">
        <ele>15</ele>
        <time>2011-01-09T08:41:29Z</time>
      </trkpt>
      <trkpt lat="47.23159" lon="-1.5982">
        <ele>15</ele>
        <time>2011-01-09T08:41:30Z</time>
      </trkpt>
      <trkpt lat="47.23159" lon="-1.5982">
        <ele>15</ele>
        <time>2011-01-09T08:41:31Z</time>
      </trkpt>
      <trkpt lat="47.23159" lon="-1.5982">
        <ele>15</ele>
        <time>2011-01-09T08:41:32Z</time>
      </trkpt>
      <trkpt lat="47.23159" lon="-1.5982">
        <ele>15</ele>
        <time>2011-01-09T08:41:33Z</time>
      </trkpt>
      <trkpt lat="47.23159" lon="-1.59819">
        <ele>15</ele>
        <time>2011-01-09T08:41:34Z</time>
      </trkpt>
      <trkpt lat="47.23159" lon="-1.59819">
        <ele>15</ele>
        <time>2011-01-09T08:41:35Z</time>
      </trkpt>
      <trkpt lat="47.23159" lon="-1.59818">
        <ele>15</ele>
        <time>2011-01-09T08:41:36Z</time>
      </trkpt>
      <trkpt lat="47.2316" lon="-1.59818">
        <ele>15</ele>
        <time>2011-01-09T08:41:38Z</time>
      </trkpt>
      <trkpt lat="47.23161" lon="-1.59817">
        <ele>15</ele>
        <time>2011-01-09T08:41:39Z</time>
      </trkpt>
      <trkpt lat="47.23161" lon="-1.59817">
        <ele>15</ele>
        <time>2011-01-09T08:41:40Z</time>
      </trkpt>
      <trkpt lat="47.23161" lon="-1.59817">
        <ele>15</ele>
        <time>2011-01-09T08:41:41Z</time>
      </trkpt>
      <trkpt lat="47.23162" lon="-1.59817">
        <ele>15</ele>
        <time>2011-01-09T08:41:42Z</time>
      </trkpt>
      <trkpt lat="47.23162" lon="-1.59816">
        <ele>15</ele>
        <time>2011-01-09T08:41:43Z</time>
      </trkpt>
      <trkpt lat="47.23162" lon="-1.59815">
        <ele>15</ele>
        <time>2011-01-09T08:41:44Z</time>
      </trkpt>
      <trkpt lat="47.23164" lon="-1.59815">
        <ele>15</ele>
        <time>2011-01-09T08:41:45Z</time>
      </trkpt>
      <trkpt lat="47.23165" lon="-1.59814">
        <ele>15</ele>
        <time>2011-01-09T08:41:46Z</time>
      </trkpt>
      <trkpt lat="47.23165" lon="-1.59814">
        <ele>15</ele>
        <time>2011-01-09T08:41:47Z</time>
      </trkpt>
      <trkpt lat="47.23167" lon="-1.59812">
        <ele>17</ele>
        <time>2011-01-09T08:41:48Z</time>
      </trkpt>
      <trkpt lat="47.23167" lon="-1.59811">
        <ele>17</ele>
        <time>2011-01-09T08:41:49Z</time>
      </trkpt>
      <trkpt lat="47.23167" lon="-1.5981">
        <ele>17</ele>
        <time>2011-01-09T08:41:50Z</time>
      </trkpt>
      <trkpt lat="47.23167" lon="-1.59808">
        <ele>17</ele>
        <time>2011-01-09T08:41:51Z</time>
      </trkpt>
      <trkpt lat="47.23166" lon="-1.59808">
        <ele>15</ele>
        <time>2011-01-09T08:41:52Z</time>
      </trkpt>
      <trkpt lat="47.23166" lon="-1.59806">
        <ele>15</ele>
        <time>2011-01-09T08:42:00Z</time>
      </trkpt>
      <trkpt lat="47.23165" lon="-1.59807">
        <ele>15</ele>
        <time>2011-01-09T08:42:01Z</time>
      </trkpt>
      <trkpt lat="47.23164" lon="-1.59809">
        <ele>15</ele>
        <time>2011-01-09T08:42:02Z</time>
      </trkpt>
      <trkpt lat="47.23165" lon="-1.59809">
        <ele>15</ele>
        <time>2011-01-09T08:42:03Z</time>
      </trkpt>
      <trkpt lat="47.23167" lon="-1.59808">
        <ele>15</ele>
        <time>2011-01-09T08:42:04Z</time>
      </trkpt>
      <trkpt lat="47.23168" lon="-1.59808">
        <ele>17</ele>
        <time>2011-01-09T08:42:05Z</time>
      </trkpt>
      <trkpt lat="47.23169" lon="-1.59809">
        <ele>17</ele>
        <time>2011-01-09T08:42:06Z</time>
      </trkpt>
      <trkpt lat="47.23169" lon="-1.59811">
        <ele>17</ele>
        <time>2011-01-09T08:42:08Z</time>
      </trkpt>
      <trkpt lat="47.23168" lon="-1.59811">
        <ele>17</ele>
        <time>2011-01-09T08:42:09Z</time>
      </trkpt>
      <trkpt lat="47.23168" lon="-1.59811">
        <ele>17</ele>
        <time>2011-01-09T08:42:10Z</time>
      </trkpt>
      <trkpt lat="47.23167" lon="-1.59812">
        <ele>17</ele>
        <time>2011-01-09T08:42:11Z</time>
      </trkpt>
      <trkpt lat="47.23166" lon="-1.59812">
        <ele>15</ele>
        <time>2011-01-09T08:42:12Z</time>
      </trkpt>
      <trkpt lat="47.23165" lon="-1.59813">
        <ele>15</ele>
        <time>2011-01-09T08:42:13Z</time>
      </trkpt>
      <trkpt lat="47.23165" lon="-1.59814">
        <ele>15</ele>
        <time>2011-01-09T08:42:14Z</time>
      </trkpt>
      <trkpt lat="47.23166" lon="-1.59814">
        <ele>15</ele>
        <time>2011-01-09T08:42:15Z</time>
      </trkpt>
      <trkpt lat="47.23165" lon="-1.59815">
        <ele>15</ele>
        <time>2011-01-09T08:42:16Z</time>
      </trkpt>
      <trkpt lat="47.23164" lon="-1.59815">
        <ele>15</ele>
        <time>2011-01-09T08:42:17Z</time>
      </trkpt>
      <trkpt lat="47.23163" lon="-1.59816">
        <ele>15</ele>
        <time>2011-01-09T08:42:18Z</time>
      </trkpt>
      <trkpt lat="47.23163" lon="-1.59816">
        <ele>15</ele>
        <time>2011-01-09T08:42:19Z</time>
      </trkpt>
      <trkpt lat="47.23163" lon="-1.59817">
        <ele>15</ele>
        <time>2011-01-09T08:42:20Z</time>
      </trkpt>
      <trkpt lat="47.23162" lon="-1.59818">
        <ele>15</ele>
        <time>2011-01-09T08:42:21Z</time>
      </trkpt>
      <trkpt lat="47.23162" lon="-1.59819">
        <ele>15</ele>
        <time>2011-01-09T08:42:22Z</time>
      </trkpt>
      <trkpt lat="47.2316" lon="-1.59817">
        <ele>15</ele>
        <time>2011-01-09T08:42:25Z</time>
      </trkpt>
      <trkpt lat="47.2316" lon="-1.59817">
        <ele>15</ele>
        <time>2011-01-09T08:42:26Z</time>
      </trkpt>
      <trkpt lat="47.2316" lon="-1.59816">
        <ele>15</ele>
        <time>2011-01-09T08:42:27Z</time>
      </trkpt>
      <trkpt lat="47.2316" lon="-1.59815">
        <ele>15</ele>
        <time>2011-01-09T08:42:28Z</time>
      </trkpt>
      <trkpt lat="47.23161" lon="-1.59814">
        <ele>15</ele>
        <time>2011-01-09T08:42:29Z</time>
      </trkpt>
      <trkpt lat="47.2316" lon="-1.59813">
        <ele>15</ele>
        <time>2011-01-09T08:42:30Z</time>
      </trkpt>
      <trkpt lat="47.2316" lon="-1.59812">
        <ele>15</ele>
        <time>2011-01-09T08:42:31Z</time>
      </trkpt>
      <trkpt lat="47.2316" lon="-1.59812">
        <ele>15</ele>
        <time>2011-01-09T08:42:32Z</time>
      </trkpt>
      <trkpt lat="47.23161" lon="-1.59811">
        <ele>15</ele>
        <time>2011-01-09T08:42:33Z</time>
      </trkpt>
      <trkpt lat="47.23161" lon="-1.59811">
        <ele>15</ele>
        <time>2011-01-09T08:42:34Z</time>
      </trkpt>
      <trkpt lat="47.23161" lon="-1.59811">
        <ele>15</ele>
        <time>2011-01-09T08:42:35Z</time>
      </trkpt>
      <trkpt lat="47.2316" lon="-1.5981">
        <ele>15</ele>
        <time>2011-01-09T08:42:36Z</time>
      </trkpt>
      <trkpt lat="47.23158" lon="-1.5981">
        <ele>15</ele>
        <time>2011-01-09T08:42:37Z</time>
      </trkpt>
      <trkpt lat="47.23155" lon="-1.59811">
        <ele>15</ele>
        <time>2011-01-09T08:42:42Z</time>
      </trkpt>
      <trkpt lat="47.23154" lon="-1.59812">
        <ele>15</ele>
        <time>2011-01-09T08:42:43Z</time>
      </trkpt>
      <trkpt lat="47.23155" lon="-1.59813">
        <ele>15</ele>
        <time>2011-01-09T08:42:44Z</time>
      </trkpt>
      <trkpt lat="47.23155" lon="-1.59813">
        <ele>15</ele>
        <time>2011-01-09T08:42:45Z</time>
      </trkpt>
      <trkpt lat="47.23156" lon="-1.59812">
        <ele>15</ele>
        <time>2011-01-09T08:42:46Z</time>
      </trkpt>
      <trkpt lat="47.23155" lon="-1.59813">
        <ele>15</ele>
        <time>2011-01-09T08:42:47Z</time>
      </trkpt>
      <trkpt lat="47.23156" lon="-1.59815">
        <ele>15</ele>
        <time>2011-01-09T08:42:50Z</time>
      </trkpt>
      <trkpt lat="47.23158" lon="-1.59813">
        <ele>15</ele>
        <time>2011-01-09T08:42:51Z</time>
      </trkpt>
      <trkpt lat="47.23159" lon="-1.59812">
        <ele>15</ele>
        <time>2011-01-09T08:42:52Z</time>
      </trkpt>
      <trkpt lat="47.23159" lon="-1.59811">
        <ele>15</ele>
        <time>2011-01-09T08:42:53Z</time>
      </trkpt>
      <trkpt lat="47.2316" lon="-1.59809">
        <ele>15</ele>
        <time>2011-01-09T08:42:54Z</time>
      </trkpt>
      <trkpt lat="47.23161" lon="-1.59809">
        <ele>15</ele>
        <time>2011-01-09T08:42:55Z</time>
      </trkpt>
      <trkpt lat="47.23161" lon="-1.59808">
        <ele>15</ele>
        <time>2011-01-09T08:42:56Z</time>
      </trkpt>
      <trkpt lat="47.23161" lon="-1.59808">
        <ele>15</ele>
        <time>2011-01-09T08:42:57Z</time>
      </trkpt>
      <trkpt lat="47.23162" lon="-1.59809">
        <ele>15</ele>
        <time>2011-01-09T08:42:58Z</time>
      </trkpt>
      <trkpt lat="47.23162" lon="-1.59809">
        <ele>15</ele>
        <time>2011-01-09T08:42:59Z</time>
      </trkpt>
      <trkpt lat="47.23162" lon="-1.5981">
        <ele>15</ele>
        <time>2011-01-09T08:43:00Z</time>
      </trkpt>
      <trkpt lat="47.23162" lon="-1.59811">
        <ele>15</ele>
        <time>2011-01-09T08:43:01Z</time>
      </trkpt>
      <trkpt lat="47.23163" lon="-1.59811">
        <ele>15</ele>
        <time>2011-01-09T08:43:02Z</time>
      </trkpt>
      <trkpt lat="47.23163" lon="-1.59812">
        <ele>15</ele>
        <time>2011-01-09T08:43:03Z</time>
      </trkpt>
      <trkpt lat="47.2316" lon="-1.5981">
        <ele>15</ele>
        <time>2011-01-09T08:43:18Z</time>
      </trkpt>
      <trkpt lat="47.23155" lon="-1.59811">
        <ele>15</ele>
        <time>2011-01-09T08:43:28Z</time>
      </trkpt>
      <trkpt lat="47.23154" lon="-1.59811">
        <ele>15</ele>
        <time>2011-01-09T08:43:29Z</time>
      </trkpt>
      <trkpt lat="47.23153" lon="-1.59813">
        <ele>15</ele>
        <time>2011-01-09T08:43:30Z</time>
      </trkpt>
      <trkpt lat="47.23153" lon="-1.59814">
        <ele>15</ele>
        <time>2011-01-09T08:43:31Z</time>
      </trkpt>
      <trkpt lat="47.23154" lon="-1.59814">
        <ele>15</ele>
        <time>2011-01-09T08:43:32Z</time>
      </trkpt>
      <trkpt lat="47.23155" lon="-1.59814">
        <ele>15</ele>
        <time>2011-01-09T08:43:33Z</time>
      </trkpt>
      <trkpt lat="47.23156" lon="-1.59813">
        <ele>15</ele>
        <time>2011-01-09T08:43:34Z</time>
      </trkpt>
      <trkpt lat="47.23157" lon="-1.59812">
        <ele>15</ele>
        <time>2011-01-09T08:43:35Z</time>
      </trkpt>
      <trkpt lat="47.23158" lon="-1.59812">
        <ele>15</ele>
        <time>2011-01-09T08:43:36Z</time>
      </trkpt>
      <trkpt lat="47.23158" lon="-1.59811">
        <ele>15</ele>
        <time>2011-01-09T08:43:37Z</time>
      </trkpt>
      <trkpt lat="47.23159" lon="-1.59811">
        <ele>15</ele>
        <time>2011-01-09T08:43:38Z</time>
      </trkpt>
      <trkpt lat="47.23159" lon="-1.59811">
        <ele>15</ele>
        <time>2011-01-09T08:43:39Z</time>
      </trkpt>
      <trkpt lat="47.23159" lon="-1.5981">
        <ele>15</ele>
        <time>2011-01-09T08:43:40Z</time>
      </trkpt>
      <trkpt lat="47.23159" lon="-1.59809">
        <ele>15</ele>
        <time>2011-01-09T08:43:41Z</time>
      </trkpt>
      <trkpt lat="47.23159" lon="-1.59808">
        <ele>15</ele>
        <time>2011-01-09T08:43:42Z</time>
      </trkpt>
      <trkpt lat="47.23159" lon="-1.59808">
        <ele>15</ele>
        <time>2011-01-09T08:43:43Z</time>
      </trkpt>
      <trkpt lat="47.23159" lon="-1.59808">
        <ele>15</ele>
        <time>2011-01-09T08:43:44Z</time>
      </trkpt>
      <trkpt lat="47.23159" lon="-1.59808">
        <ele>15</ele>
        <time>2011-01-09T08:43:45Z</time>
      </trkpt>
      <trkpt lat="47.23158" lon="-1.59808">
        <ele>15</ele>
        <time>2011-01-09T08:43:46Z</time>
      </trkpt>
      <trkpt lat="47.23158" lon="-1.59808">
        <ele>15</ele>
        <time>2011-01-09T08:43:47Z</time>
      </trkpt>
      <trkpt lat="47.23158" lon="-1.59808">
        <ele>15</ele>
        <time>2011-01-09T08:43:48Z</time>
      </trkpt>
      <trkpt lat="47.23156" lon="-1.59808">
        <ele>15</ele>
        <time>2011-01-09T08:43:49Z</time>
      </trkpt>
      <trkpt lat="47.23156" lon="-1.59808">
        <ele>15</ele>
        <time>2011-01-09T08:43:50Z</time>
      </trkpt>
      <trkpt lat="47.23156" lon="-1.59808">
        <ele>15</ele>
        <time>2011-01-09T08:43:51Z</time>
      </trkpt>
      <trkpt lat="47.23157" lon="-1.59808">
        <ele>15</ele>
        <time>2011-01-09T08:43:52Z</time>
      </trkpt>
      <trkpt lat="47.23157" lon="-1.59807">
        <ele>15</ele>
        <time>2011-01-09T08:43:53Z</time>
      </trkpt>
      <trkpt lat="47.23157" lon="-1.59807">
        <ele>15</ele>
        <time>2011-01-09T08:43:54Z</time>
      </trkpt>
      <trkpt lat="47.23157" lon="-1.59806">
        <ele>15</ele>
        <time>2011-01-09T08:43:55Z</time>
      </trkpt>
      <trkpt lat="47.23156" lon="-1.59806">
        <ele>15</ele>
        <time>2011-01-09T08:43:56Z</time>
      </trkpt>
      <trkpt lat="47.23156" lon="-1.59805">
        <ele>15</ele>
        <time>2011-01-09T08:43:57Z</time>
      </trkpt>
      <trkpt lat="47.23156" lon="-1.59804">
        <ele>15</ele>
        <time>2011-01-09T08:43:58Z</time>
      </trkpt>
      <trkpt lat="47.23156" lon="-1.59803">
        <ele>15</ele>
        <time>2011-01-09T08:43:59Z</time>
      </trkpt>
      <trkpt lat="47.23156" lon="-1.59803">
        <ele>15</ele>
        <time>2011-01-09T08:44:00Z</time>
      </trkpt>
      <trkpt lat="47.23156" lon="-1.59803">
        <ele>15</ele>
        <time>2011-01-09T08:44:01Z</time>
      </trkpt>
      <trkpt lat="47.23156" lon="-1.59804">
        <ele>15</ele>
        <time>2011-01-09T08:44:02Z</time>
      </trkpt>
      <trkpt lat="47.23156" lon="-1.59804">
        <ele>15</ele>
        <time>2011-01-09T08:44:03Z</time>
      </trkpt>
      <trkpt lat="47.23156" lon="-1.59805">
        <ele>15</ele>
        <time>2011-01-09T08:44:04Z</time>
      </trkpt>
      <trkpt lat="47.23157" lon="-1.59805">
        <ele>15</ele>
        <time>2011-01-09T08:44:05Z</time>
      </trkpt>
      <trkpt lat="47.23158" lon="-1.59805">
        <ele>15</ele>
        <time>2011-01-09T08:44:06Z</time>
      </trkpt>
      <trkpt lat="47.23158" lon="-1.59806">
        <ele>15</ele>
        <time>2011-01-09T08:44:07Z</time>
      </trkpt>
      <trkpt lat="47.23158" lon="-1.59806">
        <ele>15</ele>
        <time>2011-01-09T08:44:08Z</time>
      </trkpt>
      <trkpt lat="47.23158" lon="-1.59807">
        <ele>15</ele>
        <time>2011-01-09T08:44:09Z</time>
      </trkpt>
      <trkpt lat="47.23158" lon="-1.59808">
        <ele>15</ele>
        <time>2011-01-09T08:44:10Z</time>
      </trkpt>
      <trkpt lat="47.23158" lon="-1.59809">
        <ele>15</ele>
        <time>2011-01-09T08:44:11Z</time>
      </trkpt>
      <trkpt lat="47.23158" lon="-1.59809">
        <ele>15</ele>
        <time>2011-01-09T08:44:12Z</time>
      </trkpt>
      <trkpt lat="47.23158" lon="-1.59809">
        <ele>15</ele>
        <time>2011-01-09T08:44:13Z</time>
      </trkpt>
      <trkpt lat="47.23159" lon="-1.5981">
        <ele>15</ele>
        <time>2011-01-09T08:44:14Z</time>
      </trkpt>
      <trkpt lat="47.23158" lon="-1.5981">
        <ele>15</ele>
        <time>2011-01-09T08:44:15Z</time>
      </trkpt>
      <trkpt lat="47.23158" lon="-1.59812">
        <ele>15</ele>
        <time>2011-01-09T08:44:16Z</time>
      </trkpt>
      <trkpt lat="47.23157" lon="-1.59814">
        <ele>15</ele>
        <time>2011-01-09T08:44:17Z</time>
      </trkpt>
      <trkpt lat="47.23157" lon="-1.59816">
        <ele>15</ele>
        <time>2011-01-09T08:44:18Z</time>
      </trkpt>
      <trkpt lat="47.23158" lon="-1.59818">
        <ele>15</ele>
        <time>2011-01-09T08:44:19Z</time>
      </trkpt>
      <trkpt lat="47.23158" lon="-1.59821">
        <ele>15</ele>
        <time>2011-01-09T08:44:20Z</time>
      </trkpt>
      <trkpt lat="47.23158" lon="-1.59823">
        <ele>15</ele>
        <time>2011-01-09T08:44:21Z</time>
      </trkpt>
      <trkpt lat="47.23158" lon="-1.59824">
        <ele>15</ele>
        <time>2011-01-09T08:44:22Z</time>
      </trkpt>
      <trkpt lat="47.23158" lon="-1.59824">
        <ele>15</ele>
        <time>2011-01-09T08:44:23Z</time>
      </trkpt>
      <trkpt lat="47.23159" lon="-1.59824">
        <ele>15</ele>
        <time>2011-01-09T08:44:24Z</time>
      </trkpt>
      <trkpt lat="47.23159" lon="-1.59825">
        <ele>15</ele>
        <time>2011-01-09T08:44:25Z</time>
      </trkpt>
      <trkpt lat="47.23159" lon="-1.59826">
        <ele>15</ele>
        <time>2011-01-09T08:44:26Z</time>
      </trkpt>
      <trkpt lat="47.23158" lon="-1.59823">
        <ele>15</ele>
        <time>2011-01-09T08:44:27Z</time>
      </trkpt>
      <trkpt lat="47.23156" lon="-1.59816">
        <ele>15</ele>
        <time>2011-01-09T08:44:28Z</time>
      </trkpt>
      <trkpt lat="47.23156" lon="-1.59813">
        <ele>15</ele>
        <time>2011-01-09T08:44:29Z</time>
      </trkpt>
      <trkpt lat="47.23156" lon="-1.5981">
        <ele>15</ele>
        <time>2011-01-09T08:44:30Z</time>
      </trkpt>
      <trkpt lat="47.23156" lon="-1.59809">
        <ele>15</ele>
        <time>2011-01-09T08:44:31Z</time>
      </trkpt>
      <trkpt lat="47.23156" lon="-1.59809">
        <ele>15</ele>
        <time>2011-01-09T08:44:32Z</time>
      </trkpt>
      <trkpt lat="47.23157" lon="-1.59809">
        <ele>15</ele>
        <time>2011-01-09T08:44:33Z</time>
      </trkpt>
      <trkpt lat="47.23158" lon="-1.59808">
        <ele>15</ele>
        <time>2011-01-09T08:44:34Z</time>
      </trkpt>
      <trkpt lat="47.23159" lon="-1.59808">
        <ele>15</ele>
        <time>2011-01-09T08:44:35Z</time>
      </trkpt>
      <trkpt lat="47.23159" lon="-1.59808">
        <ele>15</ele>
        <time>2011-01-09T08:44:36Z</time>
      </trkpt>
      <trkpt lat="47.23159" lon="-1.59807">
        <ele>15</ele>
        <time>2011-01-09T08:44:37Z</time>
      </trkpt>
      <trkpt lat="47.2316" lon="-1.59807">
        <ele>15</ele>
        <time>2011-01-09T08:44:38Z</time>
      </trkpt>
      <trkpt lat="47.2316" lon="-1.59805">
        <ele>15</ele>
        <time>2011-01-09T08:44:39Z</time>
      </trkpt>
      <trkpt lat="47.23159" lon="-1.59806">
        <ele>15</ele>
        <time>2011-01-09T08:44:40Z</time>
      </trkpt>
      <trkpt lat="47.23159" lon="-1.59803">
        <ele>15</ele>
        <time>2011-01-09T08:44:41Z</time>
      </trkpt>
      <trkpt lat="47.23158" lon="-1.59806">
        <ele>15</ele>
        <time>2011-01-09T08:45:00Z</time>
      </trkpt>
      <trkpt lat="47.23158" lon="-1.59808">
        <ele>15</ele>
        <time>2011-01-09T08:45:01Z</time>
      </trkpt>
      <trkpt lat="47.23158" lon="-1.59808">
        <ele>15</ele>
        <time>2011-01-09T08:45:02Z</time>
      </trkpt>
      <trkpt lat="47.23157" lon="-1.59808">
        <ele>15</ele>
        <time>2011-01-09T08:45:03Z</time>
      </trkpt>
      <trkpt lat="47.23157" lon="-1.59808">
        <ele>15</ele>
        <time>2011-01-09T08:45:04Z</time>
      </trkpt>
      <trkpt lat="47.23157" lon="-1.59809">
        <ele>15</ele>
        <time>2011-01-09T08:45:05Z</time>
      </trkpt>
      <trkpt lat="47.23157" lon="-1.5981">
        <ele>15</ele>
        <time>2011-01-09T08:45:06Z</time>
      </trkpt>
      <trkpt lat="47.23156" lon="-1.5981">
        <ele>15</ele>
        <time>2011-01-09T08:45:07Z</time>
      </trkpt>
      <trkpt lat="47.23156" lon="-1.5981">
        <ele>15</ele>
        <time>2011-01-09T08:45:08Z</time>
      </trkpt>
      <trkpt lat="47.23156" lon="-1.59811">
        <ele>15</ele>
        <time>2011-01-09T08:45:09Z</time>
      </trkpt>
      <trkpt lat="47.23157" lon="-1.59811">
        <ele>15</ele>
        <time>2011-01-09T08:45:10Z</time>
      </trkpt>
      <trkpt lat="47.23157" lon="-1.59812">
        <ele>15</ele>
        <time>2011-01-09T08:45:11Z</time>
      </trkpt>
      <trkpt lat="47.23157" lon="-1.59809">
        <ele>15</ele>
        <time>2011-01-09T08:45:29Z</time>
      </trkpt>
      <trkpt lat="47.23156" lon="-1.59807">
        <ele>15</ele>
        <time>2011-01-09T08:45:30Z</time>
      </trkpt>
      <trkpt lat="47.23156" lon="-1.59807">
        <ele>15</ele>
        <time>2011-01-09T08:45:31Z</time>
      </trkpt>
      <trkpt lat="47.23156" lon="-1.59805">
        <ele>15</ele>
        <time>2011-01-09T08:45:32Z</time>
      </trkpt>
      <trkpt lat="47.23156" lon="-1.59804">
        <ele>15</ele>
        <time>2011-01-09T08:45:33Z</time>
      </trkpt>
      <trkpt lat="47.23156" lon="-1.59804">
        <ele>15</ele>
        <time>2011-01-09T08:45:34Z</time>
      </trkpt>
      <trkpt lat="47.23156" lon="-1.59804">
        <ele>15</ele>
        <time>2011-01-09T08:45:35Z</time>
      </trkpt>
      <trkpt lat="47.23156" lon="-1.59804">
        <ele>15</ele>
        <time>2011-01-09T08:45:36Z</time>
      </trkpt>
      <trkpt lat="47.23156" lon="-1.59804">
        <ele>15</ele>
        <time>2011-01-09T08:45:37Z</time>
      </trkpt>
      <trkpt lat="47.23155" lon="-1.59804">
        <ele>15</ele>
        <time>2011-01-09T08:45:38Z</time>
      </trkpt>
      <trkpt lat="47.23155" lon="-1.59805">
        <ele>15</ele>
        <time>2011-01-09T08:45:39Z</time>
      </trkpt>
      <trkpt lat="47.23155" lon="-1.59805">
        <ele>15</ele>
        <time>2011-01-09T08:45:40Z</time>
      </trkpt>
      <trkpt lat="47.23156" lon="-1.59806">
        <ele>15</ele>
        <time>2011-01-09T08:45:41Z</time>
      </trkpt>
      <trkpt lat="47.23156" lon="-1.59806">
        <ele>15</ele>
        <time>2011-01-09T08:45:42Z</time>
      </trkpt>
      <trkpt lat="47.23155" lon="-1.59806">
        <ele>15</ele>
        <time>2011-01-09T08:45:43Z</time>
      </trkpt>
      <trkpt lat="47.23155" lon="-1.59807">
        <ele>15</ele>
        <time>2011-01-09T08:45:44Z</time>
      </trkpt>
      <trkpt lat="47.23154" lon="-1.59807">
        <ele>15</ele>
        <time>2011-01-09T08:45:45Z</time>
      </trkpt>
      <trkpt lat="47.23154" lon="-1.59808">
        <ele>15</ele>
        <time>2011-01-09T08:45:46Z</time>
      </trkpt>
      <trkpt lat="47.23155" lon="-1.5981">
        <ele>15</ele>
        <time>2011-01-09T08:45:47Z</time>
      </trkpt>
      <trkpt lat="47.23156" lon="-1.59811">
        <ele>15</ele>
        <time>2011-01-09T08:45:48Z</time>
      </trkpt>
      <trkpt lat="47.23156" lon="-1.59812">
        <ele>15</ele>
        <time>2011-01-09T08:45:49Z</time>
      </trkpt>
      <trkpt lat="47.23156" lon="-1.59811">
        <ele>15</ele>
        <time>2011-01-09T08:45:50Z</time>
      </trkpt>
      <trkpt lat="47.23156" lon="-1.59811">
        <ele>15</ele>
        <time>2011-01-09T08:45:51Z</time>
      </trkpt>
      <trkpt lat="47.23156" lon="-1.5981">
        <ele>15</ele>
        <time>2011-01-09T08:45:52Z</time>
      </trkpt>
      <trkpt lat="47.23157" lon="-1.59809">
        <ele>15</ele>
        <time>2011-01-09T08:45:53Z</time>
      </trkpt>
      <trkpt lat="47.23157" lon="-1.59809">
        <ele>15</ele>
        <time>2011-01-09T08:45:54Z</time>
      </trkpt>
      <trkpt lat="47.23158" lon="-1.59808">
        <ele>15</ele>
        <time>2011-01-09T08:45:55Z</time>
      </trkpt>
      <trkpt lat="47.23158" lon="-1.59807">
        <ele>15</ele>
        <time>2011-01-09T08:45:56Z</time>
      </trkpt>
      <trkpt lat="47.23158" lon="-1.59807">
        <ele>15</ele>
        <time>2011-01-09T08:45:57Z</time>
      </trkpt>
      <trkpt lat="47.23158" lon="-1.59807">
        <ele>15</ele>
        <time>2011-01-09T08:45:58Z</time>
      </trkpt>
      <trkpt lat="47.23158" lon="-1.59807">
        <ele>15</ele>
        <time>2011-01-09T08:45:59Z</time>
      </trkpt>
      <trkpt lat="47.23158" lon="-1.59807">
        <ele>15</ele>
        <time>2011-01-09T08:46:00Z</time>
      </trkpt>
      <trkpt lat="47.23157" lon="-1.59807">
        <ele>15</ele>
        <time>2011-01-09T08:46:01Z</time>
      </trkpt>
      <trkpt lat="47.23157" lon="-1.59807">
        <ele>15</ele>
        <time>2011-01-09T08:46:02Z</time>
      </trkpt>
      <trkpt lat="47.23157" lon="-1.59807">
        <ele>15</ele>
        <time>2011-01-09T08:46:03Z</time>
      </trkpt>
      <trkpt lat="47.23158" lon="-1.59807">
        <ele>15</ele>
        <time>2011-01-09T08:46:04Z</time>
      </trkpt>
      <trkpt lat="47.23158" lon="-1.59806">
        <ele>15</ele>
        <time>2011-01-09T08:46:05Z</time>
      </trkpt>
      <trkpt lat="47.23158" lon="-1.59806">
        <ele>15</ele>
        <time>2011-01-09T08:46:06Z</time>
      </trkpt>
      <trkpt lat="47.23158" lon="-1.59806">
        <ele>15</ele>
        <time>2011-01-09T08:46:07Z</time>
      </trkpt>
      <trkpt lat="47.23158" lon="-1.59807">
        <ele>15</ele>
        <time>2011-01-09T08:46:08Z</time>
      </trkpt>
      <trkpt lat="47.23159" lon="-1.59808">
        <ele>15</ele>
        <time>2011-01-09T08:46:09Z</time>
      </trkpt>
      <trkpt lat="47.23159" lon="-1.59809">
        <ele>15</ele>
        <time>2011-01-09T08:46:10Z</time>
      </trkpt>
      <trkpt lat="47.23159" lon="-1.5981">
        <ele>15</ele>
        <time>2011-01-09T08:46:11Z</time>
      </trkpt>
      <trkpt lat="47.2316" lon="-1.5981">
        <ele>15</ele>
        <time>2011-01-09T08:46:12Z</time>
      </trkpt>
      <trkpt lat="47.2316" lon="-1.59811">
        <ele>15</ele>
        <time>2011-01-09T08:46:13Z</time>
      </trkpt>
      <trkpt lat="47.2316" lon="-1.59811">
        <ele>15</ele>
        <time>2011-01-09T08:46:14Z</time>
      </trkpt>
      <trkpt lat="47.23161" lon="-1.59811">
        <ele>15</ele>
        <time>2011-01-09T08:46:15Z</time>
      </trkpt>
      <trkpt lat="47.2316" lon="-1.59807">
        <ele>15</ele>
        <time>2011-01-09T08:46:24Z</time>
      </trkpt>
      <trkpt lat="47.23158" lon="-1.59807">
        <ele>15</ele>
        <time>2011-01-09T08:46:25Z</time>
      </trkpt>
      <trkpt lat="47.23158" lon="-1.59807">
        <ele>15</ele>
        <time>2011-01-09T08:46:26Z</time>
      </trkpt>
      <trkpt lat="47.23159" lon="-1.59807">
        <ele>15</ele>
        <time>2011-01-09T08:46:27Z</time>
      </trkpt>
      <trkpt lat="47.23159" lon="-1.59807">
        <ele>15</ele>
        <time>2011-01-09T08:46:28Z</time>
      </trkpt>
      <trkpt lat="47.23159" lon="-1.59807">
        <ele>15</ele>
        <time>2011-01-09T08:46:29Z</time>
      </trkpt>
      <trkpt lat="47.23158" lon="-1.59807">
        <ele>15</ele>
        <time>2011-01-09T08:46:30Z</time>
      </trkpt>
      <trkpt lat="47.23159" lon="-1.59806">
        <ele>15</ele>
        <time>2011-01-09T08:46:31Z</time>
      </trkpt>
      <trkpt lat="47.23159" lon="-1.59806">
        <ele>15</ele>
        <time>2011-01-09T08:46:32Z</time>
      </trkpt>
      <trkpt lat="47.23159" lon="-1.59806">
        <ele>15</ele>
        <time>2011-01-09T08:46:33Z</time>
      </trkpt>
      <trkpt lat="47.23158" lon="-1.59806">
        <ele>15</ele>
        <time>2011-01-09T08:46:34Z</time>
      </trkpt>
      <trkpt lat="47.23154" lon="-1.59809">
        <ele>15</ele>
        <time>2011-01-09T08:46:42Z</time>
      </trkpt>
      <trkpt lat="47.23153" lon="-1.5981">
        <ele>15</ele>
        <time>2011-01-09T08:46:43Z</time>
      </trkpt>
      <trkpt lat="47.23152" lon="-1.5981">
        <ele>15</ele>
        <time>2011-01-09T08:46:44Z</time>
      </trkpt>
      <trkpt lat="47.23152" lon="-1.5981">
        <ele>15</ele>
        <time>2011-01-09T08:46:45Z</time>
      </trkpt>
      <trkpt lat="47.23151" lon="-1.5981">
        <ele>15</ele>
        <time>2011-01-09T08:46:46Z</time>
      </trkpt>
      <trkpt lat="47.23151" lon="-1.5981">
        <ele>15</ele>
        <time>2011-01-09T08:46:47Z</time>
      </trkpt>
      <trkpt lat="47.23151" lon="-1.59809">
        <ele>15</ele>
        <time>2011-01-09T08:46:48Z</time>
      </trkpt>
      <trkpt lat="47.23151" lon="-1.59809">
        <ele>15</ele>
        <time>2011-01-09T08:46:49Z</time>
      </trkpt>
      <trkpt lat="47.23151" lon="-1.59809">
        <ele>15</ele>
        <time>2011-01-09T08:46:50Z</time>
      </trkpt>
      <trkpt lat="47.23152" lon="-1.59809">
        <ele>15</ele>
        <time>2011-01-09T08:46:51Z</time>
      </trkpt>
      <trkpt lat="47.23151" lon="-1.59808">
        <ele>15</ele>
        <time>2011-01-09T08:46:52Z</time>
      </trkpt>
      <trkpt lat="47.23151" lon="-1.59807">
        <ele>15</ele>
        <time>2011-01-09T08:46:53Z</time>
      </trkpt>
      <trkpt lat="47.23151" lon="-1.59806">
        <ele>15</ele>
        <time>2011-01-09T08:46:54Z</time>
      </trkpt>
      <trkpt lat="47.23151" lon="-1.59806">
        <ele>15</ele>
        <time>2011-01-09T08:46:55Z</time>
      </trkpt>
      <trkpt lat="47.23151" lon="-1.59806">
        <ele>15</ele>
        <time>2011-01-09T08:46:56Z</time>
      </trkpt>
      <trkpt lat="47.23151" lon="-1.59805">
        <ele>15</ele>
        <time>2011-01-09T08:46:57Z</time>
      </trkpt>
      <trkpt lat="47.23151" lon="-1.59805">
        <ele>15</ele>
        <time>2011-01-09T08:46:58Z</time>
      </trkpt>
      <trkpt lat="47.23151" lon="-1.59806">
        <ele>15</ele>
        <time>2011-01-09T08:46:59Z</time>
      </trkpt>
      <trkpt lat="47.23151" lon="-1.59806">
        <ele>15</ele>
        <time>2011-01-09T08:47:00Z</time>
      </trkpt>
      <trkpt lat="47.23151" lon="-1.59806">
        <ele>15</ele>
        <time>2011-01-09T08:47:01Z</time>
      </trkpt>
      <trkpt lat="47.23152" lon="-1.59806">
        <ele>15</ele>
        <time>2011-01-09T08:47:02Z</time>
      </trkpt>
      <trkpt lat="47.23152" lon="-1.59806">
        <ele>15</ele>
        <time>2011-01-09T08:47:03Z</time>
      </trkpt>
      <trkpt lat="47.23152" lon="-1.59806">
        <ele>15</ele>
        <time>2011-01-09T08:47:04Z</time>
      </trkpt>
      <trkpt lat="47.23152" lon="-1.59806">
        <ele>15</ele>
        <time>2011-01-09T08:47:05Z</time>
      </trkpt>
      <trkpt lat="47.23152" lon="-1.59807">
        <ele>15</ele>
        <time>2011-01-09T08:47:06Z</time>
      </trkpt>
      <trkpt lat="47.23152" lon="-1.59807">
        <ele>15</ele>
        <time>2011-01-09T08:47:07Z</time>
      </trkpt>
      <trkpt lat="47.23153" lon="-1.59807">
        <ele>15</ele>
        <time>2011-01-09T08:47:08Z</time>
      </trkpt>
      <trkpt lat="47.23153" lon="-1.59807">
        <ele>15</ele>
        <time>2011-01-09T08:47:09Z</time>
      </trkpt>
      <trkpt lat="47.23153" lon="-1.59806">
        <ele>15</ele>
        <time>2011-01-09T08:47:10Z</time>
      </trkpt>
      <trkpt lat="47.23153" lon="-1.59807">
        <ele>15</ele>
        <time>2011-01-09T08:47:11Z</time>
      </trkpt>
      <trkpt lat="47.23153" lon="-1.59807">
        <ele>15</ele>
        <time>2011-01-09T08:47:12Z</time>
      </trkpt>
      <trkpt lat="47.23153" lon="-1.59806">
        <ele>15</ele>
        <time>2011-01-09T08:47:13Z</time>
      </trkpt>
      <trkpt lat="47.23153" lon="-1.59806">
        <ele>15</ele>
        <time>2011-01-09T08:47:14Z</time>
      </trkpt>
      <trkpt lat="47.23153" lon="-1.59806">
        <ele>15</ele>
        <time>2011-01-09T08:47:15Z</time>
      </trkpt>
      <trkpt lat="47.23153" lon="-1.59806">
        <ele>15</ele>
        <time>2011-01-09T08:47:16Z</time>
      </trkpt>
      <trkpt lat="47.23153" lon="-1.59806">
        <ele>15</ele>
        <time>2011-01-09T08:47:17Z</time>
      </trkpt>
      <trkpt lat="47.23153" lon="-1.59806">
        <ele>15</ele>
        <time>2011-01-09T08:47:18Z</time>
      </trkpt>
      <trkpt lat="47.23153" lon="-1.59806">
        <ele>15</ele>
        <time>2011-01-09T08:47:19Z</time>
      </trkpt>
      <trkpt lat="47.23154" lon="-1.59806">
        <ele>15</ele>
        <time>2011-01-09T08:47:20Z</time>
      </trkpt>
      <trkpt lat="47.23154" lon="-1.59806">
        <ele>15</ele>
        <time>2011-01-09T08:47:21Z</time>
      </trkpt>
      <trkpt lat="47.23156" lon="-1.59806">
        <ele>15</ele>
        <time>2011-01-09T08:47:22Z</time>
      </trkpt>
      <trkpt lat="47.23157" lon="-1.59806">
        <ele>15</ele>
        <time>2011-01-09T08:47:23Z</time>
      </trkpt>
      <trkpt lat="47.23159" lon="-1.59806">
        <ele>15</ele>
        <time>2011-01-09T08:47:24Z</time>
      </trkpt>
      <trkpt lat="47.2316" lon="-1.59806">
        <ele>15</ele>
        <time>2011-01-09T08:47:25Z</time>
      </trkpt>
      <trkpt lat="47.23161" lon="-1.59808">
        <ele>15</ele>
        <time>2011-01-09T08:47:26Z</time>
      </trkpt>
      <trkpt lat="47.23161" lon="-1.5981">
        <ele>15</ele>
        <time>2011-01-09T08:47:27Z</time>
      </trkpt>
      <trkpt lat="47.23162" lon="-1.59811">
        <ele>15</ele>
        <time>2011-01-09T08:47:28Z</time>
      </trkpt>
      <trkpt lat="47.23163" lon="-1.59812">
        <ele>15</ele>
        <time>2011-01-09T08:47:29Z</time>
      </trkpt>
      <trkpt lat="47.23163" lon="-1.59813">
        <ele>15</ele>
        <time>2011-01-09T08:47:30Z</time>
      </trkpt>
      <trkpt lat="47.23162" lon="-1.59814">
        <ele>15</ele>
        <time>2011-01-09T08:47:31Z</time>
      </trkpt>
      <trkpt lat="47.23162" lon="-1.59814">
        <ele>15</ele>
        <time>2011-01-09T08:47:32Z</time>
      </trkpt>
      <trkpt lat="47.23162" lon="-1.59813">
        <ele>15</ele>
        <time>2011-01-09T08:47:33Z</time>
      </trkpt>
      <trkpt lat="47.23161" lon="-1.59813">
        <ele>15</ele>
        <time>2011-01-09T08:47:34Z</time>
      </trkpt>
      <trkpt lat="47.23162" lon="-1.59813">
        <ele>15</ele>
        <time>2011-01-09T08:47:35Z</time>
      </trkpt>
      <trkpt lat="47.23162" lon="-1.59813">
        <ele>15</ele>
        <time>2011-01-09T08:47:36Z</time>
      </trkpt>
      <trkpt lat="47.23162" lon="-1.59813">
        <ele>15</ele>
        <time>2011-01-09T08:47:37Z</time>
      </trkpt>
      <trkpt lat="47.23162" lon="-1.59812">
        <ele>15</ele>
        <time>2011-01-09T08:47:38Z</time>
      </trkpt>
      <trkpt lat="47.23162" lon="-1.59812">
        <ele>15</ele>
        <time>2011-01-09T08:47:39Z</time>
      </trkpt>
      <trkpt lat="47.23161" lon="-1.59811">
        <ele>15</ele>
        <time>2011-01-09T08:47:40Z</time>
      </trkpt>
      <trkpt lat="47.23161" lon="-1.5981">
        <ele>15</ele>
        <time>2011-01-09T08:47:41Z</time>
      </trkpt>
      <trkpt lat="47.23161" lon="-1.59809">
        <ele>15</ele>
        <time>2011-01-09T08:47:42Z</time>
      </trkpt>
      <trkpt lat="47.2316" lon="-1.59808">
        <ele>15</ele>
        <time>2011-01-09T08:47:43Z</time>
      </trkpt>
      <trkpt lat="47.23159" lon="-1.59806">
        <ele>15</ele>
        <time>2011-01-09T08:47:44Z</time>
      </trkpt>
      <trkpt lat="47.23159" lon="-1.59806">
        <ele>15</ele>
        <time>2011-01-09T08:47:45Z</time>
      </trkpt>
      <trkpt lat="47.23159" lon="-1.59805">
        <ele>15</ele>
        <time>2011-01-09T08:47:46Z</time>
      </trkpt>
      <trkpt lat="47.23158" lon="-1.59805">
        <ele>15</ele>
        <time>2011-01-09T08:47:47Z</time>
      </trkpt>
      <trkpt lat="47.23158" lon="-1.59805">
        <ele>15</ele>
        <time>2011-01-09T08:47:48Z</time>
      </trkpt>
      <trkpt lat="47.23158" lon="-1.59806">
        <ele>15</ele>
        <time>2011-01-09T08:47:49Z</time>
      </trkpt>
      <trkpt lat="47.23158" lon="-1.59806">
        <ele>15</ele>
        <time>2011-01-09T08:47:50Z</time>
      </trkpt>
      <trkpt lat="47.23158" lon="-1.59806">
        <ele>15</ele>
        <time>2011-01-09T08:47:51Z</time>
      </trkpt>
      <trkpt lat="47.23158" lon="-1.59807">
        <ele>15</ele>
        <time>2011-01-09T08:47:52Z</time>
      </trkpt>
      <trkpt lat="47.23158" lon="-1.59807">
        <ele>15</ele>
        <time>2011-01-09T08:47:53Z</time>
      </trkpt>
      <trkpt lat="47.23158" lon="-1.59807">
        <ele>15</ele>
        <time>2011-01-09T08:47:54Z</time>
      </trkpt>
      <trkpt lat="47.23158" lon="-1.59808">
        <ele>15</ele>
        <time>2011-01-09T08:47:55Z</time>
      </trkpt>
      <trkpt lat="47.23158" lon="-1.59808">
        <ele>15</ele>
        <time>2011-01-09T08:47:56Z</time>
      </trkpt>
      <trkpt lat="47.23158" lon="-1.59808">
        <ele>15</ele>
        <time>2011-01-09T08:47:57Z</time>
      </trkpt>
      <trkpt lat="47.23158" lon="-1.59809">
        <ele>15</ele>
        <time>2011-01-09T08:47:58Z</time>
      </trkpt>
      <trkpt lat="47.23159" lon="-1.59809">
        <ele>15</ele>
        <time>2011-01-09T08:47:59Z</time>
      </trkpt>
      <trkpt lat="47.23159" lon="-1.5981">
        <ele>15</ele>
        <time>2011-01-09T08:48:00Z</time>
      </trkpt>
      <trkpt lat="47.23159" lon="-1.5981">
        <ele>15</ele>
        <time>2011-01-09T08:48:01Z</time>
      </trkpt>
      <trkpt lat="47.23159" lon="-1.5981">
        <ele>15</ele>
        <time>2011-01-09T08:48:02Z</time>
      </trkpt>
      <trkpt lat="47.23159" lon="-1.59811">
        <ele>15</ele>
        <time>2011-01-09T08:48:03Z</time>
      </trkpt>
      <trkpt lat="47.23159" lon="-1.59811">
        <ele>15</ele>
        <time>2011-01-09T08:48:04Z</time>
      </trkpt>
      <trkpt lat="47.23159" lon="-1.59812">
        <ele>15</ele>
        <time>2011-01-09T08:48:05Z</time>
      </trkpt>
      <trkpt lat="47.23159" lon="-1.59812">
        <ele>15</ele>
        <time>2011-01-09T08:48:06Z</time>
      </trkpt>
      <trkpt lat="47.23159" lon="-1.59812">
        <ele>15</ele>
        <time>2011-01-09T08:48:07Z</time>
      </trkpt>
      <trkpt lat="47.23159" lon="-1.59811">
        <ele>15</ele>
        <time>2011-01-09T08:48:08Z</time>
      </trkpt>
      <trkpt lat="47.23161" lon="-1.59806">
        <ele>15</ele>
        <time>2011-01-09T08:48:20Z</time>
      </trkpt>
      <trkpt lat="47.23162" lon="-1.59805">
        <ele>15</ele>
        <time>2011-01-09T08:48:21Z</time>
      </trkpt>
      <trkpt lat="47.23162" lon="-1.59803">
        <ele>15</ele>
        <time>2011-01-09T08:48:22Z</time>
      </trkpt>
      <trkpt lat="47.23161" lon="-1.59804">
        <ele>15</ele>
        <time>2011-01-09T08:48:23Z</time>
      </trkpt>
      <trkpt lat="47.23162" lon="-1.59805">
        <ele>15</ele>
        <time>2011-01-09T08:48:24Z</time>
      </trkpt>
      <trkpt lat="47.23161" lon="-1.59807">
        <ele>15</ele>
        <time>2011-01-09T08:48:25Z</time>
      </trkpt>
      <trkpt lat="47.23156" lon="-1.59814">
        <ele>15</ele>
        <time>2011-01-09T08:48:51Z</time>
      </trkpt>
      <trkpt lat="47.23155" lon="-1.59812">
        <ele>15</ele>
        <time>2011-01-09T08:48:52Z</time>
      </trkpt>
      <trkpt lat="47.23154" lon="-1.59811">
        <ele>15</ele>
        <time>2011-01-09T08:48:53Z</time>
      </trkpt>
      <trkpt lat="47.23154" lon="-1.59812">
        <ele>15</ele>
        <time>2011-01-09T08:48:54Z</time>
      </trkpt>
      <trkpt lat="47.23153" lon="-1.59812">
        <ele>15</ele>
        <time>2011-01-09T08:48:55Z</time>
      </trkpt>
      <trkpt lat="47.23152" lon="-1.59812">
        <ele>15</ele>
        <time>2011-01-09T08:48:56Z</time>
      </trkpt>
      <trkpt lat="47.23151" lon="-1.59812">
        <ele>15</ele>
        <time>2011-01-09T08:48:57Z</time>
      </trkpt>
      <trkpt lat="47.2315" lon="-1.59811">
        <ele>15</ele>
        <time>2011-01-09T08:48:58Z</time>
      </trkpt>
      <trkpt lat="47.2315" lon="-1.59811">
        <ele>15</ele>
        <time>2011-01-09T08:48:59Z</time>
      </trkpt>
      <trkpt lat="47.23151" lon="-1.59812">
        <ele>15</ele>
        <time>2011-01-09T08:49:00Z</time>
      </trkpt>
      <trkpt lat="47.23151" lon="-1.59812">
        <ele>15</ele>
        <time>2011-01-09T08:49:01Z</time>
      </trkpt>
      <trkpt lat="47.2315" lon="-1.59813">
        <ele>15</ele>
        <time>2011-01-09T08:49:02Z</time>
      </trkpt>
      <trkpt lat="47.23155" lon="-1.59813">
        <ele>15</ele>
        <time>2011-01-09T08:49:30Z</time>
      </trkpt>
      <trkpt lat="47.23155" lon="-1.59811">
        <ele>15</ele>
        <time>2011-01-09T08:49:31Z</time>
      </trkpt>
      <trkpt lat="47.23155" lon="-1.5981">
        <ele>15</ele>
        <time>2011-01-09T08:49:32Z</time>
      </trkpt>
      <trkpt lat="47.23154" lon="-1.59809">
        <ele>15</ele>
        <time>2011-01-09T08:49:33Z</time>
      </trkpt>
      <trkpt lat="47.23154" lon="-1.59808">
        <ele>15</ele>
        <time>2011-01-09T08:49:34Z</time>
      </trkpt>
      <trkpt lat="47.23154" lon="-1.59807">
        <ele>15</ele>
        <time>2011-01-09T08:49:35Z</time>
      </trkpt>
      <trkpt lat="47.23154" lon="-1.59806">
        <ele>15</ele>
        <time>2011-01-09T08:49:36Z</time>
      </trkpt>
      <trkpt lat="47.23153" lon="-1.59805">
        <ele>15</ele>
        <time>2011-01-09T08:49:37Z</time>
      </trkpt>
      <trkpt lat="47.23153" lon="-1.59805">
        <ele>15</ele>
        <time>2011-01-09T08:49:38Z</time>
      </trkpt>
      <trkpt lat="47.23153" lon="-1.59804">
        <ele>15</ele>
        <time>2011-01-09T08:49:39Z</time>
      </trkpt>
      <trkpt lat="47.23153" lon="-1.59803">
        <ele>15</ele>
        <time>2011-01-09T08:49:40Z</time>
      </trkpt>
      <trkpt lat="47.23153" lon="-1.59803">
        <ele>15</ele>
        <time>2011-01-09T08:49:41Z</time>
      </trkpt>
      <trkpt lat="47.23153" lon="-1.59803">
        <ele>15</ele>
        <time>2011-01-09T08:49:42Z</time>
      </trkpt>
      <trkpt lat="47.23149" lon="-1.59815">
        <ele>15</ele>
        <time>2011-01-09T08:50:21Z</time>
      </trkpt>
      <trkpt lat="47.23149" lon="-1.59814">
        <ele>15</ele>
        <time>2011-01-09T08:50:22Z</time>
      </trkpt>
      <trkpt lat="47.23148" lon="-1.59814">
        <ele>15</ele>
        <time>2011-01-09T08:50:23Z</time>
      </trkpt>
      <trkpt lat="47.23149" lon="-1.59814">
        <ele>15</ele>
        <time>2011-01-09T08:50:24Z</time>
      </trkpt>
      <trkpt lat="47.2315" lon="-1.59813">
        <ele>15</ele>
        <time>2011-01-09T08:50:25Z</time>
      </trkpt>
      <trkpt lat="47.23149" lon="-1.59814">
        <ele>15</ele>
        <time>2011-01-09T08:50:26Z</time>
      </trkpt>
      <trkpt lat="47.23149" lon="-1.59814">
        <ele>15</ele>
        <time>2011-01-09T08:50:27Z</time>
      </trkpt>
      <trkpt lat="47.23149" lon="-1.59814">
        <ele>15</ele>
        <time>2011-01-09T08:50:28Z</time>
      </trkpt>
      <trkpt lat="47.23143" lon="-1.59822">
        <ele>15</ele>
        <time>2011-01-09T08:50:51Z</time>
      </trkpt>
      <trkpt lat="47.23143" lon="-1.59824">
        <ele>15</ele>
        <time>2011-01-09T08:50:52Z</time>
      </trkpt>
      <trkpt lat="47.23148" lon="-1.59814">
        <ele>15</ele>
        <time>2011-01-09T08:51:11Z</time>
      </trkpt>
      <trkpt lat="47.23148" lon="-1.59814">
        <ele>15</ele>
        <time>2011-01-09T08:51:12Z</time>
      </trkpt>
      <trkpt lat="47.23149" lon="-1.59814">
        <ele>15</ele>
        <time>2011-01-09T08:51:13Z</time>
      </trkpt>
      <trkpt lat="47.23149" lon="-1.59811">
        <ele>15</ele>
        <time>2011-01-09T08:51:14Z</time>
      </trkpt>
      <trkpt lat="47.23149" lon="-1.59811">
        <ele>15</ele>
        <time>2011-01-09T08:51:15Z</time>
      </trkpt>
      <trkpt lat="47.23151" lon="-1.59811">
        <ele>15</ele>
        <time>2011-01-09T08:51:16Z</time>
      </trkpt>
      <trkpt lat="47.23151" lon="-1.59811">
        <ele>15</ele>
        <time>2011-01-09T08:51:17Z</time>
      </trkpt>
      <trkpt lat="47.23151" lon="-1.5981">
        <ele>15</ele>
        <time>2011-01-09T08:51:18Z</time>
      </trkpt>
      <trkpt lat="47.23151" lon="-1.59809">
        <ele>15</ele>
        <time>2011-01-09T08:51:19Z</time>
      </trkpt>
      <trkpt lat="47.2315" lon="-1.5981">
        <ele>15</ele>
        <time>2011-01-09T08:51:20Z</time>
      </trkpt>
      <trkpt lat="47.2315" lon="-1.59808">
        <ele>15</ele>
        <time>2011-01-09T08:51:21Z</time>
      </trkpt>
      <trkpt lat="47.2315" lon="-1.59808">
        <ele>15</ele>
        <time>2011-01-09T08:51:22Z</time>
      </trkpt>
      <trkpt lat="47.2315" lon="-1.59808">
        <ele>15</ele>
        <time>2011-01-09T08:51:23Z</time>
      </trkpt>
      <trkpt lat="47.23151" lon="-1.5981">
        <ele>15</ele>
        <time>2011-01-09T08:51:24Z</time>
      </trkpt>
      <trkpt lat="47.23151" lon="-1.59812">
        <ele>15</ele>
        <time>2011-01-09T08:51:25Z</time>
      </trkpt>
      <trkpt lat="47.23152" lon="-1.59813">
        <ele>15</ele>
        <time>2011-01-09T08:51:26Z</time>
      </trkpt>
      <trkpt lat="47.23152" lon="-1.59814">
        <ele>15</ele>
        <time>2011-01-09T08:51:27Z</time>
      </trkpt>
      <trkpt lat="47.23153" lon="-1.59815">
        <ele>15</ele>
        <time>2011-01-09T08:51:28Z</time>
      </trkpt>
      <trkpt lat="47.23153" lon="-1.59816">
        <ele>15</ele>
        <time>2011-01-09T08:51:29Z</time>
      </trkpt>
      <trkpt lat="47.23154" lon="-1.59815">
        <ele>15</ele>
        <time>2011-01-09T08:51:30Z</time>
      </trkpt>
      <trkpt lat="47.23155" lon="-1.59815">
        <ele>15</ele>
        <time>2011-01-09T08:51:31Z</time>
      </trkpt>
      <trkpt lat="47.23155" lon="-1.59815">
        <ele>15</ele>
        <time>2011-01-09T08:51:32Z</time>
      </trkpt>
      <trkpt lat="47.23156" lon="-1.59815">
        <ele>15</ele>
        <time>2011-01-09T08:51:33Z</time>
      </trkpt>
      <trkpt lat="47.23156" lon="-1.59816">
        <ele>15</ele>
        <time>2011-01-09T08:51:34Z</time>
      </trkpt>
      <trkpt lat="47.23156" lon="-1.59816">
        <ele>15</ele>
        <time>2011-01-09T08:51:35Z</time>
      </trkpt>
      <trkpt lat="47.23155" lon="-1.59817">
        <ele>15</ele>
        <time>2011-01-09T08:51:36Z</time>
      </trkpt>
      <trkpt lat="47.23155" lon="-1.59819">
        <ele>15</ele>
        <time>2011-01-09T08:51:37Z</time>
      </trkpt>
      <trkpt lat="47.23154" lon="-1.59819">
        <ele>15</ele>
        <time>2011-01-09T08:51:38Z</time>
      </trkpt>
      <trkpt lat="47.23153" lon="-1.59821">
        <ele>15</ele>
        <time>2011-01-09T08:51:39Z</time>
      </trkpt>
      <trkpt lat="47.23153" lon="-1.59821">
        <ele>15</ele>
        <time>2011-01-09T08:51:40Z</time>
      </trkpt>
      <trkpt lat="47.23152" lon="-1.59822">
        <ele>15</ele>
        <time>2011-01-09T08:51:41Z</time>
      </trkpt>
      <trkpt lat="47.23151" lon="-1.59823">
        <ele>15</ele>
        <time>2011-01-09T08:51:42Z</time>
      </trkpt>
      <trkpt lat="47.2315" lon="-1.59824">
        <ele>15</ele>
        <time>2011-01-09T08:51:43Z</time>
      </trkpt>
      <trkpt lat="47.2315" lon="-1.59824">
        <ele>15</ele>
        <time>2011-01-09T08:51:44Z</time>
      </trkpt>
      <trkpt lat="47.23149" lon="-1.59824">
        <ele>15</ele>
        <time>2011-01-09T08:51:45Z</time>
      </trkpt>
      <trkpt lat="47.2315" lon="-1.59824">
        <ele>15</ele>
        <time>2011-01-09T08:51:46Z</time>
      </trkpt>
      <trkpt lat="47.2315" lon="-1.59824">
        <ele>15</ele>
        <time>2011-01-09T08:51:47Z</time>
      </trkpt>
      <trkpt lat="47.23152" lon="-1.59822">
        <ele>15</ele>
        <time>2011-01-09T08:51:48Z</time>
      </trkpt>
      <trkpt lat="47.23152" lon="-1.59822">
        <ele>15</ele>
        <time>2011-01-09T08:51:49Z</time>
      </trkpt>
      <trkpt lat="47.23152" lon="-1.59822">
        <ele>15</ele>
        <time>2011-01-09T08:51:50Z</time>
      </trkpt>
      <trkpt lat="47.23152" lon="-1.59822">
        <ele>15</ele>
        <time>2011-01-09T08:51:51Z</time>
      </trkpt>
      <trkpt lat="47.2315" lon="-1.59823">
        <ele>15</ele>
        <time>2011-01-09T08:51:52Z</time>
      </trkpt>
      <trkpt lat="47.2315" lon="-1.59824">
        <ele>15</ele>
        <time>2011-01-09T08:51:53Z</time>
      </trkpt>
      <trkpt lat="47.23149" lon="-1.59825">
        <ele>15</ele>
        <time>2011-01-09T08:51:54Z</time>
      </trkpt>
      <trkpt lat="47.23149" lon="-1.59826">
        <ele>15</ele>
        <time>2011-01-09T08:51:55Z</time>
      </trkpt>
      <trkpt lat="47.23149" lon="-1.59826">
        <ele>15</ele>
        <time>2011-01-09T08:51:56Z</time>
      </trkpt>
      <trkpt lat="47.2315" lon="-1.59826">
        <ele>15</ele>
        <time>2011-01-09T08:51:57Z</time>
      </trkpt>
      <trkpt lat="47.2315" lon="-1.59826">
        <ele>15</ele>
        <time>2011-01-09T08:51:58Z</time>
      </trkpt>
      <trkpt lat="47.2315" lon="-1.59825">
        <ele>15</ele>
        <time>2011-01-09T08:51:59Z</time>
      </trkpt>
      <trkpt lat="47.2315" lon="-1.59824">
        <ele>15</ele>
        <time>2011-01-09T08:52:00Z</time>
      </trkpt>
      <trkpt lat="47.2315" lon="-1.59825">
        <ele>15</ele>
        <time>2011-01-09T08:52:01Z</time>
      </trkpt>
      <trkpt lat="47.2315" lon="-1.59825">
        <ele>15</ele>
        <time>2011-01-09T08:52:02Z</time>
      </trkpt>
      <trkpt lat="47.2315" lon="-1.59823">
        <ele>15</ele>
        <time>2011-01-09T08:52:03Z</time>
      </trkpt>
      <trkpt lat="47.2315" lon="-1.59822">
        <ele>15</ele>
        <time>2011-01-09T08:52:04Z</time>
      </trkpt>
      <trkpt lat="47.2315" lon="-1.59821">
        <ele>15</ele>
        <time>2011-01-09T08:52:05Z</time>
      </trkpt>
      <trkpt lat="47.2315" lon="-1.59821">
        <ele>15</ele>
        <time>2011-01-09T08:52:06Z</time>
      </trkpt>
      <trkpt lat="47.23149" lon="-1.59821">
        <ele>15</ele>
        <time>2011-01-09T08:52:07Z</time>
      </trkpt>
      <trkpt lat="47.23149" lon="-1.5982">
        <ele>15</ele>
        <time>2011-01-09T08:52:08Z</time>
      </trkpt>
      <trkpt lat="47.23149" lon="-1.5982">
        <ele>15</ele>
        <time>2011-01-09T08:52:09Z</time>
      </trkpt>
      <trkpt lat="47.23151" lon="-1.59817">
        <ele>15</ele>
        <time>2011-01-09T08:52:16Z</time>
      </trkpt>
      <trkpt lat="47.23149" lon="-1.59815">
        <ele>15</ele>
        <time>2011-01-09T08:52:23Z</time>
      </trkpt>
      <trkpt lat="47.23149" lon="-1.59813">
        <ele>15</ele>
        <time>2011-01-09T08:52:24Z</time>
      </trkpt>
      <trkpt lat="47.2315" lon="-1.59813">
        <ele>15</ele>
        <time>2011-01-09T08:52:25Z</time>
      </trkpt>
      <trkpt lat="47.23151" lon="-1.59812">
        <ele>15</ele>
        <time>2011-01-09T08:52:26Z</time>
      </trkpt>
      <trkpt lat="47.2315" lon="-1.59811">
        <ele>15</ele>
        <time>2011-01-09T08:52:27Z</time>
      </trkpt>
      <trkpt lat="47.2315" lon="-1.59811">
        <ele>15</ele>
        <time>2011-01-09T08:52:28Z</time>
      </trkpt>
      <trkpt lat="47.23151" lon="-1.59812">
        <ele>15</ele>
        <time>2011-01-09T08:52:29Z</time>
      </trkpt>
      <trkpt lat="47.2315" lon="-1.59812">
        <ele>15</ele>
        <time>2011-01-09T08:52:30Z</time>
      </trkpt>
      <trkpt lat="47.2315" lon="-1.59811">
        <ele>15</ele>
        <time>2011-01-09T08:52:31Z</time>
      </trkpt>
      <trkpt lat="47.2315" lon="-1.5981">
        <ele>15</ele>
        <time>2011-01-09T08:52:32Z</time>
      </trkpt>
      <trkpt lat="47.2315" lon="-1.5981">
        <ele>15</ele>
        <time>2011-01-09T08:52:33Z</time>
      </trkpt>
      <trkpt lat="47.23151" lon="-1.59809">
        <ele>15</ele>
        <time>2011-01-09T08:52:40Z</time>
      </trkpt>
      <trkpt lat="47.23152" lon="-1.59812">
        <ele>15</ele>
        <time>2011-01-09T08:52:41Z</time>
      </trkpt>
      <trkpt lat="47.23152" lon="-1.59812">
        <ele>15</ele>
        <time>2011-01-09T08:52:42Z</time>
      </trkpt>
      <trkpt lat="47.23152" lon="-1.59812">
        <ele>15</ele>
        <time>2011-01-09T08:52:43Z</time>
      </trkpt>
      <trkpt lat="47.23153" lon="-1.59812">
        <ele>15</ele>
        <time>2011-01-09T08:52:44Z</time>
      </trkpt>
      <trkpt lat="47.23153" lon="-1.59813">
        <ele>15</ele>
        <time>2011-01-09T08:52:45Z</time>
      </trkpt>
      <trkpt lat="47.23154" lon="-1.59814">
        <ele>15</ele>
        <time>2011-01-09T08:52:46Z</time>
      </trkpt>
      <trkpt lat="47.23154" lon="-1.59814">
        <ele>15</ele>
        <time>2011-01-09T08:52:47Z</time>
      </trkpt>
      <trkpt lat="47.23154" lon="-1.59814">
        <ele>15</ele>
        <time>2011-01-09T08:52:48Z</time>
      </trkpt>
      <trkpt lat="47.23154" lon="-1.59814">
        <ele>15</ele>
        <time>2011-01-09T08:52:49Z</time>
      </trkpt>
      <trkpt lat="47.23153" lon="-1.59814">
        <ele>15</ele>
        <time>2011-01-09T08:52:50Z</time>
      </trkpt>
      <trkpt lat="47.23154" lon="-1.59814">
        <ele>15</ele>
        <time>2011-01-09T08:52:51Z</time>
      </trkpt>
      <trkpt lat="47.23154" lon="-1.59815">
        <ele>15</ele>
        <time>2011-01-09T08:52:52Z</time>
      </trkpt>
      <trkpt lat="47.23154" lon="-1.59815">
        <ele>15</ele>
        <time>2011-01-09T08:52:53Z</time>
      </trkpt>
      <trkpt lat="47.23154" lon="-1.59815">
        <ele>15</ele>
        <time>2011-01-09T08:52:54Z</time>
      </trkpt>
      <trkpt lat="47.23154" lon="-1.59815">
        <ele>15</ele>
        <time>2011-01-09T08:52:55Z</time>
      </trkpt>
      <trkpt lat="47.23154" lon="-1.59815">
        <ele>15</ele>
        <time>2011-01-09T08:52:56Z</time>
      </trkpt>
      <trkpt lat="47.23154" lon="-1.59815">
        <ele>15</ele>
        <time>2011-01-09T08:52:57Z</time>
      </trkpt>
      <trkpt lat="47.23154" lon="-1.59815">
        <ele>15</ele>
        <time>2011-01-09T08:52:58Z</time>
      </trkpt>
      <trkpt lat="47.23153" lon="-1.59814">
        <ele>15</ele>
        <time>2011-01-09T08:52:59Z</time>
      </trkpt>
      <trkpt lat="47.23153" lon="-1.59812">
        <ele>15</ele>
        <time>2011-01-09T08:53:00Z</time>
      </trkpt>
      <trkpt lat="47.23152" lon="-1.59811">
        <ele>15</ele>
        <time>2011-01-09T08:53:01Z</time>
      </trkpt>
      <trkpt lat="47.23152" lon="-1.59811">
        <ele>15</ele>
        <time>2011-01-09T08:53:02Z</time>
      </trkpt>
      <trkpt lat="47.23151" lon="-1.59811">
        <ele>15</ele>
        <time>2011-01-09T08:53:03Z</time>
      </trkpt>
      <trkpt lat="47.23151" lon="-1.59812">
        <ele>15</ele>
        <time>2011-01-09T08:53:04Z</time>
      </trkpt>
      <trkpt lat="47.23151" lon="-1.59813">
        <ele>15</ele>
        <time>2011-01-09T08:53:05Z</time>
      </trkpt>
      <trkpt lat="47.23151" lon="-1.59814">
        <ele>15</ele>
        <time>2011-01-09T08:53:06Z</time>
      </trkpt>
      <trkpt lat="47.23151" lon="-1.59814">
        <ele>15</ele>
        <time>2011-01-09T08:53:07Z</time>
      </trkpt>
      <trkpt lat="47.23151" lon="-1.59814">
        <ele>15</ele>
        <time>2011-01-09T08:53:08Z</time>
      </trkpt>
      <trkpt lat="47.23151" lon="-1.59814">
        <ele>15</ele>
        <time>2011-01-09T08:53:09Z</time>
      </trkpt>
      <trkpt lat="47.2315" lon="-1.59813">
        <ele>15</ele>
        <time>2011-01-09T08:53:10Z</time>
      </trkpt>
      <trkpt lat="47.2315" lon="-1.59812">
        <ele>15</ele>
        <time>2011-01-09T08:53:11Z</time>
      </trkpt>
      <trkpt lat="47.23153" lon="-1.5981">
        <ele>15</ele>
        <time>2011-01-09T08:54:40Z</time>
      </trkpt>
      <trkpt lat="47.23152" lon="-1.59811">
        <ele>15</ele>
        <time>2011-01-09T08:54:41Z</time>
      </trkpt>
      <trkpt lat="47.23151" lon="-1.59812">
        <ele>15</ele>
        <time>2011-01-09T08:54:42Z</time>
      </trkpt>
      <trkpt lat="47.2315" lon="-1.59811">
        <ele>15</ele>
        <time>2011-01-09T08:54:43Z</time>
      </trkpt>
      <trkpt lat="47.23149" lon="-1.59811">
        <ele>15</ele>
        <time>2011-01-09T08:54:44Z</time>
      </trkpt>
      <trkpt lat="47.23149" lon="-1.59811">
        <ele>15</ele>
        <time>2011-01-09T08:54:45Z</time>
      </trkpt>
      <trkpt lat="47.23149" lon="-1.59811">
        <ele>15</ele>
        <time>2011-01-09T08:54:46Z</time>
      </trkpt>
      <trkpt lat="47.23148" lon="-1.59812">
        <ele>15</ele>
        <time>2011-01-09T08:54:47Z</time>
      </trkpt>
      <trkpt lat="47.23148" lon="-1.59812">
        <ele>15</ele>
        <time>2011-01-09T08:54:48Z</time>
      </trkpt>
      <trkpt lat="47.23149" lon="-1.59814">
        <ele>15</ele>
        <time>2011-01-09T08:54:49Z</time>
      </trkpt>
      <trkpt lat="47.23149" lon="-1.59814">
        <ele>15</ele>
        <time>2011-01-09T08:54:50Z</time>
      </trkpt>
      <trkpt lat="47.2315" lon="-1.59814">
        <ele>15</ele>
        <time>2011-01-09T08:54:51Z</time>
      </trkpt>
      <trkpt lat="47.23148" lon="-1.59817">
        <ele>15</ele>
        <time>2011-01-09T08:54:53Z</time>
      </trkpt>
      <trkpt lat="47.23149" lon="-1.59815">
        <ele>15</ele>
        <time>2011-01-09T08:54:54Z</time>
      </trkpt>
      <trkpt lat="47.23149" lon="-1.59815">
        <ele>15</ele>
        <time>2011-01-09T08:54:55Z</time>
      </trkpt>
      <trkpt lat="47.23149" lon="-1.59814">
        <ele>15</ele>
        <time>2011-01-09T08:54:56Z</time>
      </trkpt>
      <trkpt lat="47.23149" lon="-1.59814">
        <ele>15</ele>
        <time>2011-01-09T08:54:57Z</time>
      </trkpt>
      <trkpt lat="47.23149" lon="-1.59813">
        <ele>15</ele>
        <time>2011-01-09T08:54:58Z</time>
      </trkpt>
      <trkpt lat="47.23149" lon="-1.59813">
        <ele>15</ele>
        <time>2011-01-09T08:54:59Z</time>
      </trkpt>
      <trkpt lat="47.23149" lon="-1.59813">
        <ele>15</ele>
        <time>2011-01-09T08:55:00Z</time>
      </trkpt>
      <trkpt lat="47.2315" lon="-1.59812">
        <ele>15</ele>
        <time>2011-01-09T08:55:01Z</time>
      </trkpt>
      <trkpt lat="47.2315" lon="-1.59813">
        <ele>15</ele>
        <time>2011-01-09T08:55:02Z</time>
      </trkpt>
      <trkpt lat="47.2315" lon="-1.59813">
        <ele>15</ele>
        <time>2011-01-09T08:55:03Z</time>
      </trkpt>
      <trkpt lat="47.2315" lon="-1.59813">
        <ele>15</ele>
        <time>2011-01-09T08:55:04Z</time>
      </trkpt>
      <trkpt lat="47.2315" lon="-1.59812">
        <ele>15</ele>
        <time>2011-01-09T08:55:05Z</time>
      </trkpt>
      <trkpt lat="47.23149" lon="-1.5981">
        <ele>15</ele>
        <time>2011-01-09T08:55:06Z</time>
      </trkpt>
      <trkpt lat="47.23149" lon="-1.59809">
        <ele>15</ele>
        <time>2011-01-09T08:55:07Z</time>
      </trkpt>
      <trkpt lat="47.23148" lon="-1.5981">
        <ele>15</ele>
        <time>2011-01-09T08:55:08Z</time>
      </trkpt>
      <trkpt lat="47.23149" lon="-1.59812">
        <ele>15</ele>
        <time>2011-01-09T08:55:09Z</time>
      </trkpt>
      <trkpt lat="47.23149" lon="-1.59813">
        <ele>15</ele>
        <time>2011-01-09T08:55:10Z</time>
      </trkpt>
      <trkpt lat="47.23149" lon="-1.59813">
        <ele>15</ele>
        <time>2011-01-09T08:55:11Z</time>
      </trkpt>
      <trkpt lat="47.23149" lon="-1.59813">
        <ele>15</ele>
        <time>2011-01-09T08:55:12Z</time>
      </trkpt>
      <trkpt lat="47.23149" lon="-1.59814">
        <ele>15</ele>
        <time>2011-01-09T08:55:13Z</time>
      </trkpt>
      <trkpt lat="47.23149" lon="-1.59815">
        <ele>15</ele>
        <time>2011-01-09T08:55:14Z</time>
      </trkpt>
      <trkpt lat="47.23149" lon="-1.59815">
        <ele>15</ele>
        <time>2011-01-09T08:55:15Z</time>
      </trkpt>
      <trkpt lat="47.23149" lon="-1.59815">
        <ele>15</ele>
        <time>2011-01-09T08:55:18Z</time>
      </trkpt>
      <trkpt lat="47.23149" lon="-1.59813">
        <ele>15</ele>
        <time>2011-01-09T08:55:19Z</time>
      </trkpt>
      <trkpt lat="47.2315" lon="-1.59812">
        <ele>15</ele>
        <time>2011-01-09T08:55:20Z</time>
      </trkpt>
      <trkpt lat="47.23151" lon="-1.59812">
        <ele>15</ele>
        <time>2011-01-09T08:55:21Z</time>
      </trkpt>
      <trkpt lat="47.2315" lon="-1.59814">
        <ele>15</ele>
        <time>2011-01-09T08:55:22Z</time>
      </trkpt>
      <trkpt lat="47.2315" lon="-1.59815">
        <ele>15</ele>
        <time>2011-01-09T08:55:23Z</time>
      </trkpt>
      <trkpt lat="47.23149" lon="-1.59816">
        <ele>15</ele>
        <time>2011-01-09T08:55:24Z</time>
      </trkpt>
      <trkpt lat="47.23149" lon="-1.59816">
        <ele>15</ele>
        <time>2011-01-09T08:55:25Z</time>
      </trkpt>
      <trkpt lat="47.23149" lon="-1.59817">
        <ele>15</ele>
        <time>2011-01-09T08:55:26Z</time>
      </trkpt>
      <trkpt lat="47.23149" lon="-1.59817">
        <ele>15</ele>
        <time>2011-01-09T08:55:27Z</time>
      </trkpt>
      <trkpt lat="47.23149" lon="-1.59817">
        <ele>15</ele>
        <time>2011-01-09T08:55:28Z</time>
      </trkpt>
      <trkpt lat="47.23149" lon="-1.59815">
        <ele>15</ele>
        <time>2011-01-09T08:55:29Z</time>
      </trkpt>
      <trkpt lat="47.2315" lon="-1.59813">
        <ele>15</ele>
        <time>2011-01-09T08:55:30Z</time>
      </trkpt>
      <trkpt lat="47.23151" lon="-1.59813">
        <ele>15</ele>
        <time>2011-01-09T08:55:31Z</time>
      </trkpt>
      <trkpt lat="47.23151" lon="-1.59814">
        <ele>15</ele>
        <time>2011-01-09T08:55:32Z</time>
      </trkpt>
      <trkpt lat="47.2315" lon="-1.59815">
        <ele>15</ele>
        <time>2011-01-09T08:55:33Z</time>
      </trkpt>
      <trkpt lat="47.2315" lon="-1.59815">
        <ele>15</ele>
        <time>2011-01-09T08:55:34Z</time>
      </trkpt>
      <trkpt lat="47.2315" lon="-1.59815">
        <ele>15</ele>
        <time>2011-01-09T08:55:35Z</time>
      </trkpt>
      <trkpt lat="47.23151" lon="-1.59815">
        <ele>15</ele>
        <time>2011-01-09T08:55:36Z</time>
      </trkpt>
      <trkpt lat="47.23151" lon="-1.59815">
        <ele>15</ele>
        <time>2011-01-09T08:55:37Z</time>
      </trkpt>
      <trkpt lat="47.23151" lon="-1.59815">
        <ele>15</ele>
        <time>2011-01-09T08:55:38Z</time>
      </trkpt>
      <trkpt lat="47.23152" lon="-1.59816">
        <ele>15</ele>
        <time>2011-01-09T08:55:39Z</time>
      </trkpt>
      <trkpt lat="47.23152" lon="-1.59815">
        <ele>15</ele>
        <time>2011-01-09T08:55:40Z</time>
      </trkpt>
      <trkpt lat="47.23152" lon="-1.59816">
        <ele>15</ele>
        <time>2011-01-09T08:55:41Z</time>
      </trkpt>
      <trkpt lat="47.23152" lon="-1.59816">
        <ele>15</ele>
        <time>2011-01-09T08:55:42Z</time>
      </trkpt>
      <trkpt lat="47.23151" lon="-1.59816">
        <ele>15</ele>
        <time>2011-01-09T08:55:43Z</time>
      </trkpt>
      <trkpt lat="47.23151" lon="-1.59816">
        <ele>15</ele>
        <time>2011-01-09T08:55:44Z</time>
      </trkpt>
      <trkpt lat="47.23153" lon="-1.59817">
        <ele>15</ele>
        <time>2011-01-09T08:55:45Z</time>
      </trkpt>
      <trkpt lat="47.23154" lon="-1.59818">
        <ele>15</ele>
        <time>2011-01-09T08:55:46Z</time>
      </trkpt>
      <trkpt lat="47.23155" lon="-1.59818">
        <ele>15</ele>
        <time>2011-01-09T08:55:47Z</time>
      </trkpt>
      <trkpt lat="47.23155" lon="-1.59818">
        <ele>15</ele>
        <time>2011-01-09T08:55:48Z</time>
      </trkpt>
      <trkpt lat="47.23155" lon="-1.59818">
        <ele>15</ele>
        <time>2011-01-09T08:55:49Z</time>
      </trkpt>
      <trkpt lat="47.23155" lon="-1.59818">
        <ele>15</ele>
        <time>2011-01-09T08:55:50Z</time>
      </trkpt>
      <trkpt lat="47.23154" lon="-1.5982">
        <ele>15</ele>
        <time>2011-01-09T08:55:51Z</time>
      </trkpt>
      <trkpt lat="47.23153" lon="-1.59821">
        <ele>15</ele>
        <time>2011-01-09T08:55:53Z</time>
      </trkpt>
      <trkpt lat="47.23151" lon="-1.59821">
        <ele>15</ele>
        <time>2011-01-09T08:55:59Z</time>
      </trkpt>
      <trkpt lat="47.23151" lon="-1.5982">
        <ele>15</ele>
        <time>2011-01-09T08:56:00Z</time>
      </trkpt>
      <trkpt lat="47.23151" lon="-1.59818">
        <ele>15</ele>
        <time>2011-01-09T08:56:01Z</time>
      </trkpt>
      <trkpt lat="47.23151" lon="-1.59818">
        <ele>15</ele>
        <time>2011-01-09T08:56:02Z</time>
      </trkpt>
      <trkpt lat="47.23152" lon="-1.59818">
        <ele>15</ele>
        <time>2011-01-09T08:56:03Z</time>
      </trkpt>
      <trkpt lat="47.23152" lon="-1.59818">
        <ele>15</ele>
        <time>2011-01-09T08:56:04Z</time>
      </trkpt>
      <trkpt lat="47.23152" lon="-1.59819">
        <ele>15</ele>
        <time>2011-01-09T08:56:05Z</time>
      </trkpt>
      <trkpt lat="47.23152" lon="-1.59819">
        <ele>15</ele>
        <time>2011-01-09T08:56:06Z</time>
      </trkpt>
      <trkpt lat="47.23153" lon="-1.59819">
        <ele>15</ele>
        <time>2011-01-09T08:56:07Z</time>
      </trkpt>
      <trkpt lat="47.23153" lon="-1.59819">
        <ele>15</ele>
        <time>2011-01-09T08:56:08Z</time>
      </trkpt>
      <trkpt lat="47.23153" lon="-1.59819">
        <ele>15</ele>
        <time>2011-01-09T08:56:09Z</time>
      </trkpt>
      <trkpt lat="47.23153" lon="-1.59818">
        <ele>15</ele>
        <time>2011-01-09T08:56:10Z</time>
      </trkpt>
      <trkpt lat="47.23153" lon="-1.59818">
        <ele>15</ele>
        <time>2011-01-09T08:56:11Z</time>
      </trkpt>
      <trkpt lat="47.23153" lon="-1.59818">
        <ele>15</ele>
        <time>2011-01-09T08:56:12Z</time>
      </trkpt>
      <trkpt lat="47.23153" lon="-1.59818">
        <ele>15</ele>
        <time>2011-01-09T08:56:13Z</time>
      </trkpt>
      <trkpt lat="47.23153" lon="-1.59818">
        <ele>15</ele>
        <time>2011-01-09T08:56:14Z</time>
      </trkpt>
      <trkpt lat="47.23153" lon="-1.59817">
        <ele>15</ele>
        <time>2011-01-09T08:56:15Z</time>
      </trkpt>
      <trkpt lat="47.23153" lon="-1.59816">
        <ele>15</ele>
        <time>2011-01-09T08:56:16Z</time>
      </trkpt>
      <trkpt lat="47.23152" lon="-1.59813">
        <ele>15</ele>
        <time>2011-01-09T08:56:17Z</time>
      </trkpt>
      <trkpt lat="47.23152" lon="-1.59812">
        <ele>15</ele>
        <time>2011-01-09T08:56:18Z</time>
      </trkpt>
      <trkpt lat="47.23151" lon="-1.59811">
        <ele>15</ele>
        <time>2011-01-09T08:56:19Z</time>
      </trkpt>
      <trkpt lat="47.23151" lon="-1.59809">
        <ele>15</ele>
        <time>2011-01-09T08:56:20Z</time>
      </trkpt>
      <trkpt lat="47.23151" lon="-1.59808">
        <ele>15</ele>
        <time>2011-01-09T08:56:21Z</time>
      </trkpt>
      <trkpt lat="47.23151" lon="-1.59808">
        <ele>15</ele>
        <time>2011-01-09T08:56:22Z</time>
      </trkpt>
      <trkpt lat="47.23151" lon="-1.59808">
        <ele>15</ele>
        <time>2011-01-09T08:56:23Z</time>
      </trkpt>
      <trkpt lat="47.23151" lon="-1.59808">
        <ele>15</ele>
        <time>2011-01-09T08:56:24Z</time>
      </trkpt>
      <trkpt lat="47.23151" lon="-1.59808">
        <ele>15</ele>
        <time>2011-01-09T08:56:25Z</time>
      </trkpt>
      <trkpt lat="47.23151" lon="-1.59807">
        <ele>15</ele>
        <time>2011-01-09T08:56:26Z</time>
      </trkpt>
      <trkpt lat="47.23151" lon="-1.59807">
        <ele>15</ele>
        <time>2011-01-09T08:56:27Z</time>
      </trkpt>
      <trkpt lat="47.23151" lon="-1.59807">
        <ele>15</ele>
        <time>2011-01-09T08:56:28Z</time>
      </trkpt>
      <trkpt lat="47.23151" lon="-1.59807">
        <ele>15</ele>
        <time>2011-01-09T08:56:29Z</time>
      </trkpt>
      <trkpt lat="47.23151" lon="-1.59807">
        <ele>15</ele>
        <time>2011-01-09T08:56:30Z</time>
      </trkpt>
      <trkpt lat="47.23151" lon="-1.59807">
        <ele>15</ele>
        <time>2011-01-09T08:56:31Z</time>
      </trkpt>
      <trkpt lat="47.23152" lon="-1.59807">
        <ele>15</ele>
        <time>2011-01-09T08:56:32Z</time>
      </trkpt>
      <trkpt lat="47.23152" lon="-1.59808">
        <ele>15</ele>
        <time>2011-01-09T08:56:33Z</time>
      </trkpt>
      <trkpt lat="47.23152" lon="-1.59808">
        <ele>15</ele>
        <time>2011-01-09T08:56:34Z</time>
      </trkpt>
      <trkpt lat="47.23153" lon="-1.59808">
        <ele>15</ele>
        <time>2011-01-09T08:56:35Z</time>
      </trkpt>
      <trkpt lat="47.23153" lon="-1.59808">
        <ele>15</ele>
        <time>2011-01-09T08:56:36Z</time>
      </trkpt>
      <trkpt lat="47.23153" lon="-1.59808">
        <ele>15</ele>
        <time>2011-01-09T08:56:37Z</time>
      </trkpt>
      <trkpt lat="47.23152" lon="-1.59807">
        <ele>15</ele>
        <time>2011-01-09T08:56:38Z</time>
      </trkpt>
      <trkpt lat="47.23153" lon="-1.59807">
        <ele>15</ele>
        <time>2011-01-09T08:56:39Z</time>
      </trkpt>
      <trkpt lat="47.23153" lon="-1.59805">
        <ele>15</ele>
        <time>2011-01-09T08:56:40Z</time>
      </trkpt>
      <trkpt lat="47.23154" lon="-1.59804">
        <ele>15</ele>
        <time>2011-01-09T08:56:41Z</time>
      </trkpt>
      <trkpt lat="47.23154" lon="-1.59802">
        <ele>15</ele>
        <time>2011-01-09T08:56:42Z</time>
      </trkpt>
      <trkpt lat="47.23155" lon="-1.59802">
        <ele>15</ele>
        <time>2011-01-09T08:56:43Z</time>
      </trkpt>
      <trkpt lat="47.23155" lon="-1.59802">
        <ele>15</ele>
        <time>2011-01-09T08:56:44Z</time>
      </trkpt>
      <trkpt lat="47.23155" lon="-1.59802">
        <ele>15</ele>
        <time>2011-01-09T08:56:45Z</time>
      </trkpt>
      <trkpt lat="47.23155" lon="-1.59802">
        <ele>15</ele>
        <time>2011-01-09T08:56:46Z</time>
      </trkpt>
      <trkpt lat="47.23155" lon="-1.59803">
        <ele>15</ele>
        <time>2011-01-09T08:56:47Z</time>
      </trkpt>
      <trkpt lat="47.23155" lon="-1.59802">
        <ele>15</ele>
        <time>2011-01-09T08:56:48Z</time>
      </trkpt>
      <trkpt lat="47.23155" lon="-1.598">
        <ele>15</ele>
        <time>2011-01-09T08:56:49Z</time>
      </trkpt>
      <trkpt lat="47.23156" lon="-1.598">
        <ele>15</ele>
        <time>2011-01-09T08:56:50Z</time>
      </trkpt>
      <trkpt lat="47.23156" lon="-1.598">
        <ele>15</ele>
        <time>2011-01-09T08:56:51Z</time>
      </trkpt>
      <trkpt lat="47.23158" lon="-1.59799">
        <ele>15</ele>
        <time>2011-01-09T08:56:52Z</time>
      </trkpt>
      <trkpt lat="47.23159" lon="-1.59799">
        <ele>15</ele>
        <time>2011-01-09T08:56:53Z</time>
      </trkpt>
      <trkpt lat="47.2316" lon="-1.59798">
        <ele>15</ele>
        <time>2011-01-09T08:56:54Z</time>
      </trkpt>
      <trkpt lat="47.23161" lon="-1.59796">
        <ele>15</ele>
        <time>2011-01-09T08:56:55Z</time>
      </trkpt>
      <trkpt lat="47.23162" lon="-1.59796">
        <ele>15</ele>
        <time>2011-01-09T08:56:56Z</time>
      </trkpt>
      <trkpt lat="47.23163" lon="-1.59796">
        <ele>15</ele>
        <time>2011-01-09T08:56:57Z</time>
      </trkpt>
      <trkpt lat="47.23164" lon="-1.59796">
        <ele>15</ele>
        <time>2011-01-09T08:56:58Z</time>
      </trkpt>
      <trkpt lat="47.23165" lon="-1.59795">
        <ele>15</ele>
        <time>2011-01-09T08:56:59Z</time>
      </trkpt>
      <trkpt lat="47.23165" lon="-1.59794">
        <ele>15</ele>
        <time>2011-01-09T08:57:00Z</time>
      </trkpt>
      <trkpt lat="47.23165" lon="-1.59793">
        <ele>15</ele>
        <time>2011-01-09T08:57:01Z</time>
      </trkpt>
      <trkpt lat="47.23165" lon="-1.59793">
        <ele>15</ele>
        <time>2011-01-09T08:57:02Z</time>
      </trkpt>
      <trkpt lat="47.23165" lon="-1.59793">
        <ele>15</ele>
        <time>2011-01-09T08:57:03Z</time>
      </trkpt>
      <trkpt lat="47.23164" lon="-1.59792">
        <ele>15</ele>
        <time>2011-01-09T08:57:04Z</time>
      </trkpt>
      <trkpt lat="47.23164" lon="-1.5979">
        <ele>15</ele>
        <time>2011-01-09T08:57:05Z</time>
      </trkpt>
      <trkpt lat="47.23163" lon="-1.59791">
        <ele>15</ele>
        <time>2011-01-09T08:57:06Z</time>
      </trkpt>
      <trkpt lat="47.23162" lon="-1.59791">
        <ele>15</ele>
        <time>2011-01-09T08:57:07Z</time>
      </trkpt>
      <trkpt lat="47.23161" lon="-1.5979">
        <ele>15</ele>
        <time>2011-01-09T08:57:08Z</time>
      </trkpt>
      <trkpt lat="47.23161" lon="-1.59791">
        <ele>15</ele>
        <time>2011-01-09T08:57:09Z</time>
      </trkpt>
      <trkpt lat="47.23161" lon="-1.59792">
        <ele>15</ele>
        <time>2011-01-09T08:57:10Z</time>
      </trkpt>
      <trkpt lat="47.2316" lon="-1.59792">
        <ele>15</ele>
        <time>2011-01-09T08:57:11Z</time>
      </trkpt>
      <trkpt lat="47.23159" lon="-1.59791">
        <ele>15</ele>
        <time>2011-01-09T08:57:12Z</time>
      </trkpt>
      <trkpt lat="47.23158" lon="-1.5979">
        <ele>15</ele>
        <time>2011-01-09T08:57:13Z</time>
      </trkpt>
      <trkpt lat="47.23158" lon="-1.59791">
        <ele>15</ele>
        <time>2011-01-09T08:57:14Z</time>
      </trkpt>
      <trkpt lat="47.23158" lon="-1.59792">
        <ele>15</ele>
        <time>2011-01-09T08:57:15Z</time>
      </trkpt>
      <trkpt lat="47.23157" lon="-1.59792">
        <ele>15</ele>
        <time>2011-01-09T08:57:16Z</time>
      </trkpt>
      <trkpt lat="47.23157" lon="-1.59792">
        <ele>15</ele>
        <time>2011-01-09T08:57:17Z</time>
      </trkpt>
      <trkpt lat="47.23156" lon="-1.59791">
        <ele>15</ele>
        <time>2011-01-09T08:57:18Z</time>
      </trkpt>
      <trkpt lat="47.23156" lon="-1.59791">
        <ele>15</ele>
        <time>2011-01-09T08:57:19Z</time>
      </trkpt>
      <trkpt lat="47.23156" lon="-1.5979">
        <ele>15</ele>
        <time>2011-01-09T08:57:20Z</time>
      </trkpt>
      <trkpt lat="47.23156" lon="-1.59791">
        <ele>15</ele>
        <time>2011-01-09T08:57:21Z</time>
      </trkpt>
      <trkpt lat="47.23156" lon="-1.59792">
        <ele>15</ele>
        <time>2011-01-09T08:57:22Z</time>
      </trkpt>
      <trkpt lat="47.23156" lon="-1.59792">
        <ele>15</ele>
        <time>2011-01-09T08:57:23Z</time>
      </trkpt>
      <trkpt lat="47.23156" lon="-1.59793">
        <ele>15</ele>
        <time>2011-01-09T08:57:24Z</time>
      </trkpt>
      <trkpt lat="47.23156" lon="-1.59794">
        <ele>15</ele>
        <time>2011-01-09T08:57:25Z</time>
      </trkpt>
      <trkpt lat="47.23156" lon="-1.59793">
        <ele>15</ele>
        <time>2011-01-09T08:57:26Z</time>
      </trkpt>
      <trkpt lat="47.23156" lon="-1.59793">
        <ele>15</ele>
        <time>2011-01-09T08:57:27Z</time>
      </trkpt>
      <trkpt lat="47.23156" lon="-1.59794">
        <ele>15</ele>
        <time>2011-01-09T08:57:28Z</time>
      </trkpt>
      <trkpt lat="47.23156" lon="-1.59796">
        <ele>15</ele>
        <time>2011-01-09T08:57:29Z</time>
      </trkpt>
      <trkpt lat="47.23155" lon="-1.59797">
        <ele>15</ele>
        <time>2011-01-09T08:57:30Z</time>
      </trkpt>
      <trkpt lat="47.23154" lon="-1.59799">
        <ele>15</ele>
        <time>2011-01-09T08:57:31Z</time>
      </trkpt>
      <trkpt lat="47.23153" lon="-1.59801">
        <ele>15</ele>
        <time>2011-01-09T08:57:32Z</time>
      </trkpt>
      <trkpt lat="47.23153" lon="-1.59802">
        <ele>15</ele>
        <time>2011-01-09T08:57:33Z</time>
      </trkpt>
      <trkpt lat="47.23152" lon="-1.59803">
        <ele>15</ele>
        <time>2011-01-09T08:57:34Z</time>
      </trkpt>
      <trkpt lat="47.23152" lon="-1.59803">
        <ele>15</ele>
        <time>2011-01-09T08:57:35Z</time>
      </trkpt>
      <trkpt lat="47.23151" lon="-1.59804">
        <ele>15</ele>
        <time>2011-01-09T08:57:36Z</time>
      </trkpt>
      <trkpt lat="47.23151" lon="-1.59804">
        <ele>15</ele>
        <time>2011-01-09T08:57:37Z</time>
      </trkpt>
      <trkpt lat="47.23149" lon="-1.59804">
        <ele>15</ele>
        <time>2011-01-09T08:58:12Z</time>
      </trkpt>
      <trkpt lat="47.23149" lon="-1.59802">
        <ele>15</ele>
        <time>2011-01-09T08:58:13Z</time>
      </trkpt>
      <trkpt lat="47.23149" lon="-1.59803">
        <ele>15</ele>
        <time>2011-01-09T08:58:14Z</time>
      </trkpt>
      <trkpt lat="47.23149" lon="-1.59803">
        <ele>15</ele>
        <time>2011-01-09T08:58:15Z</time>
      </trkpt>
      <trkpt lat="47.23149" lon="-1.59803">
        <ele>15</ele>
        <time>2011-01-09T08:58:16Z</time>
      </trkpt>
      <trkpt lat="47.23149" lon="-1.59803">
        <ele>15</ele>
        <time>2011-01-09T08:58:17Z</time>
      </trkpt>
      <trkpt lat="47.2315" lon="-1.59804">
        <ele>15</ele>
        <time>2011-01-09T08:58:18Z</time>
      </trkpt>
      <trkpt lat="47.2315" lon="-1.59804">
        <ele>15</ele>
        <time>2011-01-09T08:58:19Z</time>
      </trkpt>
      <trkpt lat="47.2315" lon="-1.59804">
        <ele>15</ele>
        <time>2011-01-09T08:58:20Z</time>
      </trkpt>
      <trkpt lat="47.2315" lon="-1.59804">
        <ele>15</ele>
        <time>2011-01-09T08:58:21Z</time>
      </trkpt>
      <trkpt lat="47.2315" lon="-1.59805">
        <ele>15</ele>
        <time>2011-01-09T08:58:22Z</time>
      </trkpt>
      <trkpt lat="47.2315" lon="-1.59806">
        <ele>15</ele>
        <time>2011-01-09T08:58:23Z</time>
      </trkpt>
      <trkpt lat="47.2315" lon="-1.59806">
        <ele>15</ele>
        <time>2011-01-09T08:58:24Z</time>
      </trkpt>
      <trkpt lat="47.2315" lon="-1.59806">
        <ele>15</ele>
        <time>2011-01-09T08:58:25Z</time>
      </trkpt>
      <trkpt lat="47.2315" lon="-1.59807">
        <ele>15</ele>
        <time>2011-01-09T08:58:26Z</time>
      </trkpt>
      <trkpt lat="47.2315" lon="-1.59807">
        <ele>15</ele>
        <time>2011-01-09T08:58:27Z</time>
      </trkpt>
      <trkpt lat="47.2315" lon="-1.59807">
        <ele>15</ele>
        <time>2011-01-09T08:58:28Z</time>
      </trkpt>
      <trkpt lat="47.23153" lon="-1.59805">
        <ele>15</ele>
        <time>2011-01-09T08:58:45Z</time>
      </trkpt>
      <trkpt lat="47.23153" lon="-1.59806">
        <ele>15</ele>
        <time>2011-01-09T08:58:46Z</time>
      </trkpt>
      <trkpt lat="47.23153" lon="-1.59808">
        <ele>15</ele>
        <time>2011-01-09T08:58:47Z</time>
      </trkpt>
      <trkpt lat="47.23153" lon="-1.59809">
        <ele>15</ele>
        <time>2011-01-09T08:58:48Z</time>
      </trkpt>
      <trkpt lat="47.23152" lon="-1.59808">
        <ele>15</ele>
        <time>2011-01-09T08:58:49Z</time>
      </trkpt>
      <trkpt lat="47.23151" lon="-1.59808">
        <ele>15</ele>
        <time>2011-01-09T08:58:50Z</time>
      </trkpt>
      <trkpt lat="47.23151" lon="-1.59807">
        <ele>15</ele>
        <time>2011-01-09T08:58:51Z</time>
      </trkpt>
      <trkpt lat="47.2315" lon="-1.59807">
        <ele>15</ele>
        <time>2011-01-09T08:58:52Z</time>
      </trkpt>
      <trkpt lat="47.2315" lon="-1.59806">
        <ele>15</ele>
        <time>2011-01-09T08:58:53Z</time>
      </trkpt>
      <trkpt lat="47.23149" lon="-1.59806">
        <ele>15</ele>
        <time>2011-01-09T08:58:54Z</time>
      </trkpt>
      <trkpt lat="47.23149" lon="-1.59805">
        <ele>15</ele>
        <time>2011-01-09T08:58:55Z</time>
      </trkpt>
      <trkpt lat="47.23149" lon="-1.59806">
        <ele>15</ele>
        <time>2011-01-09T08:58:56Z</time>
      </trkpt>
      <trkpt lat="47.23149" lon="-1.59805">
        <ele>15</ele>
        <time>2011-01-09T08:58:57Z</time>
      </trkpt>
      <trkpt lat="47.23148" lon="-1.59805">
        <ele>15</ele>
        <time>2011-01-09T08:58:58Z</time>
      </trkpt>
      <trkpt lat="47.23148" lon="-1.59806">
        <ele>15</ele>
        <time>2011-01-09T08:58:59Z</time>
      </trkpt>
      <trkpt lat="47.23148" lon="-1.59806">
        <ele>15</ele>
        <time>2011-01-09T08:59:00Z</time>
      </trkpt>
      <trkpt lat="47.23147" lon="-1.59806">
        <ele>15</ele>
        <time>2011-01-09T08:59:01Z</time>
      </trkpt>
      <trkpt lat="47.23148" lon="-1.59806">
        <ele>15</ele>
        <time>2011-01-09T08:59:02Z</time>
      </trkpt>
      <trkpt lat="47.23147" lon="-1.59806">
        <ele>15</ele>
        <time>2011-01-09T08:59:03Z</time>
      </trkpt>
      <trkpt lat="47.23147" lon="-1.59806">
        <ele>15</ele>
        <time>2011-01-09T08:59:04Z</time>
      </trkpt>
      <trkpt lat="47.23148" lon="-1.59806">
        <ele>15</ele>
        <time>2011-01-09T08:59:05Z</time>
      </trkpt>
      <trkpt lat="47.23148" lon="-1.59806">
        <ele>15</ele>
        <time>2011-01-09T08:59:06Z</time>
      </trkpt>
      <trkpt lat="47.23148" lon="-1.59805">
        <ele>15</ele>
        <time>2011-01-09T08:59:07Z</time>
      </trkpt>
      <trkpt lat="47.23149" lon="-1.59805">
        <ele>15</ele>
        <time>2011-01-09T08:59:08Z</time>
      </trkpt>
      <trkpt lat="47.23149" lon="-1.59804">
        <ele>15</ele>
        <time>2011-01-09T08:59:09Z</time>
      </trkpt>
      <trkpt lat="47.23149" lon="-1.59804">
        <ele>15</ele>
        <time>2011-01-09T08:59:10Z</time>
      </trkpt>
      <trkpt lat="47.23149" lon="-1.59804">
        <ele>15</ele>
        <time>2011-01-09T08:59:11Z</time>
      </trkpt>
      <trkpt lat="47.23149" lon="-1.59804">
        <ele>15</ele>
        <time>2011-01-09T08:59:12Z</time>
      </trkpt>
      <trkpt lat="47.23148" lon="-1.59804">
        <ele>15</ele>
        <time>2011-01-09T08:59:13Z</time>
      </trkpt>
      <trkpt lat="47.23147" lon="-1.59804">
        <ele>15</ele>
        <time>2011-01-09T08:59:14Z</time>
      </trkpt>
      <trkpt lat="47.23147" lon="-1.59803">
        <ele>15</ele>
        <time>2011-01-09T08:59:15Z</time>
      </trkpt>
      <trkpt lat="47.23148" lon="-1.59804">
        <ele>15</ele>
        <time>2011-01-09T08:59:16Z</time>
      </trkpt>
      <trkpt lat="47.2315" lon="-1.59805">
        <ele>15</ele>
        <time>2011-01-09T08:59:17Z</time>
      </trkpt>
      <trkpt lat="47.23151" lon="-1.59806">
        <ele>15</ele>
        <time>2011-01-09T08:59:18Z</time>
      </trkpt>
      <trkpt lat="47.23152" lon="-1.59807">
        <ele>15</ele>
        <time>2011-01-09T08:59:19Z</time>
      </trkpt>
      <trkpt lat="47.23155" lon="-1.59796">
        <ele>15</ele>
        <time>2011-01-09T08:59:38Z</time>
      </trkpt>
      <trkpt lat="47.23154" lon="-1.59797">
        <ele>15</ele>
        <time>2011-01-09T08:59:39Z</time>
      </trkpt>
      <trkpt lat="47.23154" lon="-1.59797">
        <ele>15</ele>
        <time>2011-01-09T08:59:40Z</time>
      </trkpt>
      <trkpt lat="47.23154" lon="-1.598">
        <ele>15</ele>
        <time>2011-01-09T08:59:41Z</time>
      </trkpt>
      <trkpt lat="47.23153" lon="-1.598">
        <ele>15</ele>
        <time>2011-01-09T08:59:42Z</time>
      </trkpt>
      <trkpt lat="47.23153" lon="-1.598">
        <ele>15</ele>
        <time>2011-01-09T08:59:43Z</time>
      </trkpt>
      <trkpt lat="47.23153" lon="-1.59801">
        <ele>15</ele>
        <time>2011-01-09T08:59:44Z</time>
      </trkpt>
      <trkpt lat="47.23153" lon="-1.59801">
        <ele>15</ele>
        <time>2011-01-09T08:59:45Z</time>
      </trkpt>
      <trkpt lat="47.23153" lon="-1.59801">
        <ele>15</ele>
        <time>2011-01-09T08:59:46Z</time>
      </trkpt>
      <trkpt lat="47.23153" lon="-1.59802">
        <ele>15</ele>
        <time>2011-01-09T08:59:47Z</time>
      </trkpt>
      <trkpt lat="47.23152" lon="-1.59799">
        <ele>15</ele>
        <time>2011-01-09T08:59:48Z</time>
      </trkpt>
      <trkpt lat="47.23152" lon="-1.59798">
        <ele>15</ele>
        <time>2011-01-09T08:59:49Z</time>
      </trkpt>
      <trkpt lat="47.23153" lon="-1.59797">
        <ele>15</ele>
        <time>2011-01-09T08:59:50Z</time>
      </trkpt>
      <trkpt lat="47.23153" lon="-1.59798">
        <ele>15</ele>
        <time>2011-01-09T08:59:51Z</time>
      </trkpt>
      <trkpt lat="47.23153" lon="-1.598">
        <ele>15</ele>
        <time>2011-01-09T08:59:52Z</time>
      </trkpt>
      <trkpt lat="47.23153" lon="-1.59802">
        <ele>15</ele>
        <time>2011-01-09T08:59:53Z</time>
      </trkpt>
      <trkpt lat="47.23145" lon="-1.59789">
        <ele>15</ele>
        <time>2011-01-09T09:00:24Z</time>
      </trkpt>
      <trkpt lat="47.23144" lon="-1.59789">
        <ele>15</ele>
        <time>2011-01-09T09:00:25Z</time>
      </trkpt>
      <trkpt lat="47.23144" lon="-1.59789">
        <ele>15</ele>
        <time>2011-01-09T09:00:26Z</time>
      </trkpt>
      <trkpt lat="47.23144" lon="-1.59789">
        <ele>15</ele>
        <time>2011-01-09T09:00:27Z</time>
      </trkpt>
      <trkpt lat="47.23144" lon="-1.59789">
        <ele>15</ele>
        <time>2011-01-09T09:00:28Z</time>
      </trkpt>
      <trkpt lat="47.23144" lon="-1.59788">
        <ele>15</ele>
        <time>2011-01-09T09:00:29Z</time>
      </trkpt>
      <trkpt lat="47.23144" lon="-1.59786">
        <ele>15</ele>
        <time>2011-01-09T09:00:30Z</time>
      </trkpt>
      <trkpt lat="47.23144" lon="-1.59785">
        <ele>15</ele>
        <time>2011-01-09T09:00:31Z</time>
      </trkpt>
      <trkpt lat="47.23143" lon="-1.59782">
        <ele>15</ele>
        <time>2011-01-09T09:00:32Z</time>
      </trkpt>
      <trkpt lat="47.23143" lon="-1.59781">
        <ele>15</ele>
        <time>2011-01-09T09:00:33Z</time>
      </trkpt>
      <trkpt lat="47.23143" lon="-1.5978">
        <ele>15</ele>
        <time>2011-01-09T09:00:34Z</time>
      </trkpt>
      <trkpt lat="47.23143" lon="-1.59779">
        <ele>15</ele>
        <time>2011-01-09T09:00:35Z</time>
      </trkpt>
      <trkpt lat="47.23143" lon="-1.59779">
        <ele>15</ele>
        <time>2011-01-09T09:00:36Z</time>
      </trkpt>
      <trkpt lat="47.23142" lon="-1.59777">
        <ele>15</ele>
        <time>2011-01-09T09:00:37Z</time>
      </trkpt>
      <trkpt lat="47.23142" lon="-1.59776">
        <ele>15</ele>
        <time>2011-01-09T09:00:38Z</time>
      </trkpt>
      <trkpt lat="47.23142" lon="-1.59775">
        <ele>15</ele>
        <time>2011-01-09T09:00:39Z</time>
      </trkpt>
      <trkpt lat="47.23142" lon="-1.59773">
        <ele>15</ele>
        <time>2011-01-09T09:00:40Z</time>
      </trkpt>
      <trkpt lat="47.23142" lon="-1.59772">
        <ele>15</ele>
        <time>2011-01-09T09:00:41Z</time>
      </trkpt>
      <trkpt lat="47.23142" lon="-1.59771">
        <ele>15</ele>
        <time>2011-01-09T09:00:42Z</time>
      </trkpt>
      <trkpt lat="47.23095" lon="-1.59724">
        <ele>15</ele>
        <time>2011-01-09T09:01:48Z</time>
      </trkpt>
      <trkpt lat="47.23094" lon="-1.59723">
        <ele>15</ele>
        <time>2011-01-09T09:01:49Z</time>
      </trkpt>
      <trkpt lat="47.23092" lon="-1.59722">
        <ele>15</ele>
        <time>2011-01-09T09:01:50Z</time>
      </trkpt>
      <trkpt lat="47.23091" lon="-1.59721">
        <ele>15</ele>
        <time>2011-01-09T09:01:51Z</time>
      </trkpt>
      <trkpt lat="47.2309" lon="-1.59722">
        <ele>15</ele>
        <time>2011-01-09T09:01:52Z</time>
      </trkpt>
      <trkpt lat="47.23087" lon="-1.59723">
        <ele>15</ele>
        <time>2011-01-09T09:01:54Z</time>
      </trkpt>
      <trkpt lat="47.23086" lon="-1.59723">
        <ele>15</ele>
        <time>2011-01-09T09:01:55Z</time>
      </trkpt>
      <trkpt lat="47.23084" lon="-1.59725">
        <ele>15</ele>
        <time>2011-01-09T09:01:57Z</time>
      </trkpt>
      <trkpt lat="47.23083" lon="-1.59726">
        <ele>14</ele>
        <time>2011-01-09T09:01:58Z</time>
      </trkpt>
      <trkpt lat="47.23079" lon="-1.59729">
        <ele>14</ele>
        <time>2011-01-09T09:02:02Z</time>
      </trkpt>
      <trkpt lat="47.23079" lon="-1.5973">
        <ele>14</ele>
        <time>2011-01-09T09:02:03Z</time>
      </trkpt>
      <trkpt lat="47.23078" lon="-1.59731">
        <ele>14</ele>
        <time>2011-01-09T09:02:04Z</time>
      </trkpt>
      <trkpt lat="47.23068" lon="-1.59748">
        <ele>14</ele>
        <time>2011-01-09T09:02:22Z</time>
      </trkpt>
      <trkpt lat="47.23067" lon="-1.59749">
        <ele>14</ele>
        <time>2011-01-09T09:02:23Z</time>
      </trkpt>
      <trkpt lat="47.23063" lon="-1.59754">
        <ele>14</ele>
        <time>2011-01-09T09:02:27Z</time>
      </trkpt>
      <trkpt lat="47.23045" lon="-1.59779">
        <ele>14</ele>
        <time>2011-01-09T09:02:55Z</time>
      </trkpt>
      <trkpt lat="47.23044" lon="-1.5978">
        <ele>14</ele>
        <time>2011-01-09T09:02:56Z</time>
      </trkpt>
      <trkpt lat="47.23043" lon="-1.59781">
        <ele>14</ele>
        <time>2011-01-09T09:02:57Z</time>
      </trkpt>
      <trkpt lat="47.23042" lon="-1.59781">
        <ele>14</ele>
        <time>2011-01-09T09:02:58Z</time>
      </trkpt>
      <trkpt lat="47.23031" lon="-1.59781">
        <ele>14</ele>
        <time>2011-01-09T09:03:11Z</time>
      </trkpt>
      <trkpt lat="47.23024" lon="-1.59778">
        <ele>14</ele>
        <time>2011-01-09T09:03:18Z</time>
      </trkpt>
      <trkpt lat="47.23023" lon="-1.59778">
        <ele>14</ele>
        <time>2011-01-09T09:03:19Z</time>
      </trkpt>
      <trkpt lat="47.23003" lon="-1.59787">
        <ele>14</ele>
        <time>2011-01-09T09:03:39Z</time>
      </trkpt>
      <trkpt lat="47.22988" lon="-1.59795">
        <ele>15</ele>
        <time>2011-01-09T09:03:55Z</time>
      </trkpt>
      <trkpt lat="47.22987" lon="-1.59796">
        <ele>15</ele>
        <time>2011-01-09T09:03:56Z</time>
      </trkpt>
      <trkpt lat="47.22985" lon="-1.59796">
        <ele>15</ele>
        <time>2011-01-09T09:03:57Z</time>
      </trkpt>
      <trkpt lat="47.22984" lon="-1.59796">
        <ele>15</ele>
        <time>2011-01-09T09:03:58Z</time>
      </trkpt>
      <trkpt lat="47.22982" lon="-1.59796">
        <ele>15</ele>
        <time>2011-01-09T09:03:59Z</time>
      </trkpt>
      <trkpt lat="47.22981" lon="-1.59796">
        <ele>15</ele>
        <time>2011-01-09T09:04:00Z</time>
      </trkpt>
      <trkpt lat="47.2298" lon="-1.59796">
        <ele>15</ele>
        <time>2011-01-09T09:04:01Z</time>
      </trkpt>
      <trkpt lat="47.22978" lon="-1.59796">
        <ele>15</ele>
        <time>2011-01-09T09:04:02Z</time>
      </trkpt>
      <trkpt lat="47.22978" lon="-1.59796">
        <ele>15</ele>
        <time>2011-01-09T09:04:03Z</time>
      </trkpt>
      <trkpt lat="47.22977" lon="-1.59795">
        <ele>15</ele>
        <time>2011-01-09T09:04:04Z</time>
      </trkpt>
      <trkpt lat="47.22976" lon="-1.59795">
        <ele>15</ele>
        <time>2011-01-09T09:04:05Z</time>
      </trkpt>
      <trkpt lat="47.22975" lon="-1.59795">
        <ele>15</ele>
        <time>2011-01-09T09:04:06Z</time>
      </trkpt>
      <trkpt lat="47.22928" lon="-1.59755">
        <ele>15</ele>
        <time>2011-01-09T09:05:07Z</time>
      </trkpt>
      <trkpt lat="47.22927" lon="-1.59754">
        <ele>14</ele>
        <time>2011-01-09T09:05:08Z</time>
      </trkpt>
      <trkpt lat="47.22926" lon="-1.59753">
        <ele>14</ele>
        <time>2011-01-09T09:05:09Z</time>
      </trkpt>
      <trkpt lat="47.22925" lon="-1.59753">
        <ele>14</ele>
        <time>2011-01-09T09:05:10Z</time>
      </trkpt>
      <trkpt lat="47.22925" lon="-1.59753">
        <ele>14</ele>
        <time>2011-01-09T09:05:11Z</time>
      </trkpt>
      <trkpt lat="47.22923" lon="-1.59747">
        <ele>14</ele>
        <time>2011-01-09T09:05:15Z</time>
      </trkpt>
      <trkpt lat="47.22923" lon="-1.59745">
        <ele>14</ele>
        <time>2011-01-09T09:05:16Z</time>
      </trkpt>
      <trkpt lat="47.22923" lon="-1.59743">
        <ele>14</ele>
        <time>2011-01-09T09:05:17Z</time>
      </trkpt>
      <trkpt lat="47.22924" lon="-1.59742">
        <ele>14</ele>
        <time>2011-01-09T09:05:18Z</time>
      </trkpt>
      <trkpt lat="47.22924" lon="-1.59741">
        <ele>14</ele>
        <time>2011-01-09T09:05:19Z</time>
      </trkpt>
      <trkpt lat="47.22925" lon="-1.5974">
        <ele>14</ele>
        <time>2011-01-09T09:05:20Z</time>
      </trkpt>
      <trkpt lat="47.229" lon="-1.59689">
        <ele>14</ele>
        <time>2011-01-09T09:06:19Z</time>
      </trkpt>
      <trkpt lat="47.22899" lon="-1.59689">
        <ele>14</ele>
        <time>2011-01-09T09:06:20Z</time>
      </trkpt>
      <trkpt lat="47.22874" lon="-1.5966">
        <ele>15</ele>
        <time>2011-01-09T09:06:49Z</time>
      </trkpt>
      <trkpt lat="47.22854" lon="-1.59636">
        <ele>15</ele>
        <time>2011-01-09T09:07:12Z</time>
      </trkpt>
      <trkpt lat="47.22853" lon="-1.59635">
        <ele>15</ele>
        <time>2011-01-09T09:07:13Z</time>
      </trkpt>
      <trkpt lat="47.22842" lon="-1.59611">
        <ele>15</ele>
        <time>2011-01-09T09:07:34Z</time>
      </trkpt>
      <trkpt lat="47.22841" lon="-1.5961">
        <ele>15</ele>
        <time>2011-01-09T09:07:35Z</time>
      </trkpt>
      <trkpt lat="47.22836" lon="-1.59607">
        <ele>15</ele>
        <time>2011-01-09T09:07:41Z</time>
      </trkpt>
      <trkpt lat="47.228" lon="-1.59585">
        <ele>17</ele>
        <time>2011-01-09T09:08:14Z</time>
      </trkpt>
      <trkpt lat="47.22799" lon="-1.59586">
        <ele>17</ele>
        <time>2011-01-09T09:08:15Z</time>
      </trkpt>
      <trkpt lat="47.22798" lon="-1.59587">
        <ele>17</ele>
        <time>2011-01-09T09:08:16Z</time>
      </trkpt>
      <trkpt lat="47.22796" lon="-1.59587">
        <ele>17</ele>
        <time>2011-01-09T09:08:17Z</time>
      </trkpt>
      <trkpt lat="47.22796" lon="-1.59588">
        <ele>17</ele>
        <time>2011-01-09T09:08:18Z</time>
      </trkpt>
      <trkpt lat="47.22795" lon="-1.59589">
        <ele>17</ele>
        <time>2011-01-09T09:08:19Z</time>
      </trkpt>
      <trkpt lat="47.22793" lon="-1.5959">
        <ele>17</ele>
        <time>2011-01-09T09:08:20Z</time>
      </trkpt>
      <trkpt lat="47.22792" lon="-1.59592">
        <ele>17</ele>
        <time>2011-01-09T09:08:21Z</time>
      </trkpt>
      <trkpt lat="47.22791" lon="-1.59592">
        <ele>17</ele>
        <time>2011-01-09T09:08:22Z</time>
      </trkpt>
      <trkpt lat="47.2279" lon="-1.59591">
        <ele>17</ele>
        <time>2011-01-09T09:08:23Z</time>
      </trkpt>
      <trkpt lat="47.22789" lon="-1.59591">
        <ele>17</ele>
        <time>2011-01-09T09:08:24Z</time>
      </trkpt>
      <trkpt lat="47.22787" lon="-1.5959">
        <ele>17</ele>
        <time>2011-01-09T09:08:25Z</time>
      </trkpt>
      <trkpt lat="47.22786" lon="-1.5959">
        <ele>17</ele>
        <time>2011-01-09T09:08:26Z</time>
      </trkpt>
      <trkpt lat="47.22785" lon="-1.59591">
        <ele>17</ele>
        <time>2011-01-09T09:08:27Z</time>
      </trkpt>
      <trkpt lat="47.22782" lon="-1.59592">
        <ele>18</ele>
        <time>2011-01-09T09:08:30Z</time>
      </trkpt>
      <trkpt lat="47.2278" lon="-1.59593">
        <ele>18</ele>
        <time>2011-01-09T09:08:31Z</time>
      </trkpt>
      <trkpt lat="47.22778" lon="-1.59594">
        <ele>18</ele>
        <time>2011-01-09T09:08:33Z</time>
      </trkpt>
      <trkpt lat="47.22776" lon="-1.59595">
        <ele>18</ele>
        <time>2011-01-09T09:08:35Z</time>
      </trkpt>
      <trkpt lat="47.22774" lon="-1.59595">
        <ele>18</ele>
        <time>2011-01-09T09:08:36Z</time>
      </trkpt>
      <trkpt lat="47.22765" lon="-1.59596">
        <ele>18</ele>
        <time>2011-01-09T09:08:45Z</time>
      </trkpt>
      <trkpt lat="47.22757" lon="-1.59595">
        <ele>18</ele>
        <time>2011-01-09T09:08:54Z</time>
      </trkpt>
      <trkpt lat="47.22756" lon="-1.59596">
        <ele>18</ele>
        <time>2011-01-09T09:08:55Z</time>
      </trkpt>
      <trkpt lat="47.22755" lon="-1.59596">
        <ele>18</ele>
        <time>2011-01-09T09:08:56Z</time>
      </trkpt>
      <trkpt lat="47.22754" lon="-1.59597">
        <ele>18</ele>
        <time>2011-01-09T09:08:57Z</time>
      </trkpt>
      <trkpt lat="47.22753" lon="-1.59597">
        <ele>18</ele>
        <time>2011-01-09T09:08:58Z</time>
      </trkpt>
      <trkpt lat="47.22752" lon="-1.59598">
        <ele>18</ele>
        <time>2011-01-09T09:08:59Z</time>
      </trkpt>
      <trkpt lat="47.22734" lon="-1.59598">
        <ele>19</ele>
        <time>2011-01-09T09:09:16Z</time>
      </trkpt>
      <trkpt lat="47.22733" lon="-1.59598">
        <ele>19</ele>
        <time>2011-01-09T09:09:17Z</time>
      </trkpt>
      <trkpt lat="47.22731" lon="-1.59598">
        <ele>19</ele>
        <time>2011-01-09T09:09:19Z</time>
      </trkpt>
      <trkpt lat="47.22725" lon="-1.59595">
        <ele>19</ele>
        <time>2011-01-09T09:09:25Z</time>
      </trkpt>
      <trkpt lat="47.22724" lon="-1.59594">
        <ele>19</ele>
        <time>2011-01-09T09:09:26Z</time>
      </trkpt>
      <trkpt lat="47.22723" lon="-1.59594">
        <ele>19</ele>
        <time>2011-01-09T09:09:27Z</time>
      </trkpt>
      <trkpt lat="47.22722" lon="-1.59593">
        <ele>19</ele>
        <time>2011-01-09T09:09:28Z</time>
      </trkpt>
      <trkpt lat="47.22721" lon="-1.59592">
        <ele>19</ele>
        <time>2011-01-09T09:09:29Z</time>
      </trkpt>
      <trkpt lat="47.22719" lon="-1.59592">
        <ele>19</ele>
        <time>2011-01-09T09:09:30Z</time>
      </trkpt>
      <trkpt lat="47.22718" lon="-1.59592">
        <ele>19</ele>
        <time>2011-01-09T09:09:31Z</time>
      </trkpt>
      <trkpt lat="47.22717" lon="-1.59592">
        <ele>19</ele>
        <time>2011-01-09T09:09:32Z</time>
      </trkpt>
      <trkpt lat="47.22716" lon="-1.59593">
        <ele>19</ele>
        <time>2011-01-09T09:09:33Z</time>
      </trkpt>
      <trkpt lat="47.22715" lon="-1.59594">
        <ele>19</ele>
        <time>2011-01-09T09:09:34Z</time>
      </trkpt>
      <trkpt lat="47.22713" lon="-1.59595">
        <ele>19</ele>
        <time>2011-01-09T09:09:36Z</time>
      </trkpt>
      <trkpt lat="47.22712" lon="-1.59595">
        <ele>19</ele>
        <time>2011-01-09T09:09:37Z</time>
      </trkpt>
      <trkpt lat="47.22711" lon="-1.59596">
        <ele>19</ele>
        <time>2011-01-09T09:09:38Z</time>
      </trkpt>
      <trkpt lat="47.22703" lon="-1.59597">
        <ele>19</ele>
        <time>2011-01-09T09:09:45Z</time>
      </trkpt>
      <trkpt lat="47.22702" lon="-1.59597">
        <ele>19</ele>
        <time>2011-01-09T09:09:46Z</time>
      </trkpt>
      <trkpt lat="47.22701" lon="-1.59597">
        <ele>19</ele>
        <time>2011-01-09T09:09:47Z</time>
      </trkpt>
      <trkpt lat="47.22698" lon="-1.596">
        <ele>19</ele>
        <time>2011-01-09T09:09:55Z</time>
      </trkpt>
      <trkpt lat="47.22697" lon="-1.596">
        <ele>19</ele>
        <time>2011-01-09T09:09:56Z</time>
      </trkpt>
      <trkpt lat="47.22633" lon="-1.59524">
        <ele>17</ele>
        <time>2011-01-09T09:11:30Z</time>
      </trkpt>
      <trkpt lat="47.22633" lon="-1.59523">
        <ele>17</ele>
        <time>2011-01-09T09:11:31Z</time>
      </trkpt>
      <trkpt lat="47.22634" lon="-1.59522">
        <ele>17</ele>
        <time>2011-01-09T09:11:32Z</time>
      </trkpt>
      <trkpt lat="47.22634" lon="-1.5952">
        <ele>17</ele>
        <time>2011-01-09T09:11:33Z</time>
      </trkpt>
      <trkpt lat="47.22634" lon="-1.59492">
        <ele>15</ele>
        <time>2011-01-09T09:11:54Z</time>
      </trkpt>
      <trkpt lat="47.22635" lon="-1.59478">
        <ele>15</ele>
        <time>2011-01-09T09:12:03Z</time>
      </trkpt>
      <trkpt lat="47.22636" lon="-1.59472">
        <ele>15</ele>
        <time>2011-01-09T09:12:07Z</time>
      </trkpt>
      <trkpt lat="47.22636" lon="-1.59471">
        <ele>15</ele>
        <time>2011-01-09T09:12:08Z</time>
      </trkpt>
      <trkpt lat="47.22637" lon="-1.59469">
        <ele>15</ele>
        <time>2011-01-09T09:12:09Z</time>
      </trkpt>
      <trkpt lat="47.22639" lon="-1.59459">
        <ele>15</ele>
        <time>2011-01-09T09:12:16Z</time>
      </trkpt>
      <trkpt lat="47.22639" lon="-1.59458">
        <ele>15</ele>
        <time>2011-01-09T09:12:17Z</time>
      </trkpt>
      <trkpt lat="47.22639" lon="-1.59457">
        <ele>15</ele>
        <time>2011-01-09T09:12:18Z</time>
      </trkpt>
      <trkpt lat="47.2264" lon="-1.59455">
        <ele>15</ele>
        <time>2011-01-09T09:12:19Z</time>
      </trkpt>
      <trkpt lat="47.22639" lon="-1.59454">
        <ele>15</ele>
        <time>2011-01-09T09:12:20Z</time>
      </trkpt>
      <trkpt lat="47.2264" lon="-1.59453">
        <ele>15</ele>
        <time>2011-01-09T09:12:21Z</time>
      </trkpt>
      <trkpt lat="47.22641" lon="-1.59451">
        <ele>15</ele>
        <time>2011-01-09T09:12:22Z</time>
      </trkpt>
      <trkpt lat="47.22642" lon="-1.5945">
        <ele>15</ele>
        <time>2011-01-09T09:12:23Z</time>
      </trkpt>
      <trkpt lat="47.22645" lon="-1.59442">
        <ele>15</ele>
        <time>2011-01-09T09:12:29Z</time>
      </trkpt>
      <trkpt lat="47.22645" lon="-1.59441">
        <ele>15</ele>
        <time>2011-01-09T09:12:30Z</time>
      </trkpt>
      <trkpt lat="47.22646" lon="-1.5944">
        <ele>14</ele>
        <time>2011-01-09T09:12:31Z</time>
      </trkpt>
      <trkpt lat="47.22647" lon="-1.59439">
        <ele>14</ele>
        <time>2011-01-09T09:12:32Z</time>
      </trkpt>
      <trkpt lat="47.22647" lon="-1.59438">
        <ele>14</ele>
        <time>2011-01-09T09:12:33Z</time>
      </trkpt>
      <trkpt lat="47.22648" lon="-1.59436">
        <ele>14</ele>
        <time>2011-01-09T09:12:34Z</time>
      </trkpt>
      <trkpt lat="47.22649" lon="-1.59434">
        <ele>14</ele>
        <time>2011-01-09T09:12:35Z</time>
      </trkpt>
      <trkpt lat="47.2265" lon="-1.59432">
        <ele>14</ele>
        <time>2011-01-09T09:12:36Z</time>
      </trkpt>
      <trkpt lat="47.22651" lon="-1.59429">
        <ele>14</ele>
        <time>2011-01-09T09:12:38Z</time>
      </trkpt>
      <trkpt lat="47.22651" lon="-1.59428">
        <ele>14</ele>
        <time>2011-01-09T09:12:39Z</time>
      </trkpt>
      <trkpt lat="47.22651" lon="-1.59426">
        <ele>14</ele>
        <time>2011-01-09T09:12:40Z</time>
      </trkpt>
      <trkpt lat="47.22652" lon="-1.59425">
        <ele>14</ele>
        <time>2011-01-09T09:12:41Z</time>
      </trkpt>
      <trkpt lat="47.22653" lon="-1.59417">
        <ele>14</ele>
        <time>2011-01-09T09:12:46Z</time>
      </trkpt>
      <trkpt lat="47.22657" lon="-1.59401">
        <ele>14</ele>
        <time>2011-01-09T09:12:55Z</time>
      </trkpt>
      <trkpt lat="47.22657" lon="-1.594">
        <ele>14</ele>
        <time>2011-01-09T09:12:56Z</time>
      </trkpt>
      <trkpt lat="47.22659" lon="-1.59399">
        <ele>14</ele>
        <time>2011-01-09T09:12:57Z</time>
      </trkpt>
      <trkpt lat="47.22659" lon="-1.59398">
        <ele>14</ele>
        <time>2011-01-09T09:12:58Z</time>
      </trkpt>
      <trkpt lat="47.2266" lon="-1.59396">
        <ele>14</ele>
        <time>2011-01-09T09:12:59Z</time>
      </trkpt>
      <trkpt lat="47.22661" lon="-1.59396">
        <ele>14</ele>
        <time>2011-01-09T09:13:00Z</time>
      </trkpt>
      <trkpt lat="47.22662" lon="-1.59395">
        <ele>14</ele>
        <time>2011-01-09T09:13:01Z</time>
      </trkpt>
      <trkpt lat="47.22662" lon="-1.59394">
        <ele>14</ele>
        <time>2011-01-09T09:13:02Z</time>
      </trkpt>
      <trkpt lat="47.22665" lon="-1.59389">
        <ele>14</ele>
        <time>2011-01-09T09:13:06Z</time>
      </trkpt>
      <trkpt lat="47.22665" lon="-1.59387">
        <ele>14</ele>
        <time>2011-01-09T09:13:07Z</time>
      </trkpt>
      <trkpt lat="47.22669" lon="-1.59382">
        <ele>15</ele>
        <time>2011-01-09T09:13:11Z</time>
      </trkpt>
      <trkpt lat="47.22674" lon="-1.59376">
        <ele>15</ele>
        <time>2011-01-09T09:13:15Z</time>
      </trkpt>
      <trkpt lat="47.22675" lon="-1.59374">
        <ele>15</ele>
        <time>2011-01-09T09:13:16Z</time>
      </trkpt>
      <trkpt lat="47.22676" lon="-1.59372">
        <ele>15</ele>
        <time>2011-01-09T09:13:17Z</time>
      </trkpt>
      <trkpt lat="47.22676" lon="-1.59371">
        <ele>15</ele>
        <time>2011-01-09T09:13:18Z</time>
      </trkpt>
      <trkpt lat="47.22673" lon="-1.59367">
        <ele>15</ele>
        <time>2011-01-09T09:13:23Z</time>
      </trkpt>
      <trkpt lat="47.22673" lon="-1.59365">
        <ele>15</ele>
        <time>2011-01-09T09:13:24Z</time>
      </trkpt>
      <trkpt lat="47.22673" lon="-1.59364">
        <ele>15</ele>
        <time>2011-01-09T09:13:25Z</time>
      </trkpt>
      <trkpt lat="47.22673" lon="-1.59362">
        <ele>15</ele>
        <time>2011-01-09T09:13:26Z</time>
      </trkpt>
      <trkpt lat="47.22674" lon="-1.59361">
        <ele>15</ele>
        <time>2011-01-09T09:13:27Z</time>
      </trkpt>
      <trkpt lat="47.22674" lon="-1.5936">
        <ele>15</ele>
        <time>2011-01-09T09:13:28Z</time>
      </trkpt>
      <trkpt lat="47.22676" lon="-1.59355">
        <ele>15</ele>
        <time>2011-01-09T09:13:31Z</time>
      </trkpt>
      <trkpt lat="47.22677" lon="-1.59353">
        <ele>15</ele>
        <time>2011-01-09T09:13:32Z</time>
      </trkpt>
      <trkpt lat="47.22677" lon="-1.59352">
        <ele>15</ele>
        <time>2011-01-09T09:13:33Z</time>
      </trkpt>
      <trkpt lat="47.22681" lon="-1.59345">
        <ele>15</ele>
        <time>2011-01-09T09:13:37Z</time>
      </trkpt>
      <trkpt lat="47.22683" lon="-1.59342">
        <ele>15</ele>
        <time>2011-01-09T09:13:38Z</time>
      </trkpt>
      <trkpt lat="47.2268" lon="-1.59328">
        <ele>14</ele>
        <time>2011-01-09T09:13:46Z</time>
      </trkpt>
      <trkpt lat="47.2268" lon="-1.59326">
        <ele>14</ele>
        <time>2011-01-09T09:13:47Z</time>
      </trkpt>
      <trkpt lat="47.2268" lon="-1.59325">
        <ele>14</ele>
        <time>2011-01-09T09:13:48Z</time>
      </trkpt>
      <trkpt lat="47.22679" lon="-1.59324">
        <ele>14</ele>
        <time>2011-01-09T09:13:49Z</time>
      </trkpt>
      <trkpt lat="47.22679" lon="-1.59322">
        <ele>14</ele>
        <time>2011-01-09T09:13:50Z</time>
      </trkpt>
      <trkpt lat="47.2268" lon="-1.59321">
        <ele>14</ele>
        <time>2011-01-09T09:13:51Z</time>
      </trkpt>
      <trkpt lat="47.2268" lon="-1.59318">
        <ele>14</ele>
        <time>2011-01-09T09:13:52Z</time>
      </trkpt>
      <trkpt lat="47.22682" lon="-1.59304">
        <ele>14</ele>
        <time>2011-01-09T09:14:03Z</time>
      </trkpt>
      <trkpt lat="47.22686" lon="-1.59276">
        <ele>14</ele>
        <time>2011-01-09T09:14:25Z</time>
      </trkpt>
      <trkpt lat="47.22686" lon="-1.59275">
        <ele>14</ele>
        <time>2011-01-09T09:14:26Z</time>
      </trkpt>
      <trkpt lat="47.22686" lon="-1.59274">
        <ele>14</ele>
        <time>2011-01-09T09:14:27Z</time>
      </trkpt>
      <trkpt lat="47.22688" lon="-1.59258">
        <ele>14</ele>
        <time>2011-01-09T09:14:39Z</time>
      </trkpt>
      <trkpt lat="47.22687" lon="-1.59257">
        <ele>14</ele>
        <time>2011-01-09T09:14:40Z</time>
      </trkpt>
      <trkpt lat="47.22688" lon="-1.59247">
        <ele>13</ele>
        <time>2011-01-09T09:14:46Z</time>
      </trkpt>
      <trkpt lat="47.22689" lon="-1.59247">
        <ele>13</ele>
        <time>2011-01-09T09:14:47Z</time>
      </trkpt>
      <trkpt lat="47.22689" lon="-1.59245">
        <ele>13</ele>
        <time>2011-01-09T09:14:48Z</time>
      </trkpt>
      <trkpt lat="47.22689" lon="-1.59243">
        <ele>13</ele>
        <time>2011-01-09T09:14:49Z</time>
      </trkpt>
      <trkpt lat="47.2269" lon="-1.59242">
        <ele>13</ele>
        <time>2011-01-09T09:14:50Z</time>
      </trkpt>
      <trkpt lat="47.22696" lon="-1.59178">
        <ele>13</ele>
        <time>2011-01-09T09:15:24Z</time>
      </trkpt>
      <trkpt lat="47.22692" lon="-1.59159">
        <ele>13</ele>
        <time>2011-01-09T09:15:37Z</time>
      </trkpt>
      <trkpt lat="47.22691" lon="-1.59157">
        <ele>13</ele>
        <time>2011-01-09T09:15:38Z</time>
      </trkpt>
      <trkpt lat="47.22691" lon="-1.59155">
        <ele>13</ele>
        <time>2011-01-09T09:15:39Z</time>
      </trkpt>
      <trkpt lat="47.22689" lon="-1.59152">
        <ele>13</ele>
        <time>2011-01-09T09:15:40Z</time>
      </trkpt>
      <trkpt lat="47.22689" lon="-1.59151">
        <ele>13</ele>
        <time>2011-01-09T09:15:41Z</time>
      </trkpt>
      <trkpt lat="47.22689" lon="-1.5915">
        <ele>13</ele>
        <time>2011-01-09T09:15:42Z</time>
      </trkpt>
      <trkpt lat="47.22688" lon="-1.59148">
        <ele>13</ele>
        <time>2011-01-09T09:15:43Z</time>
      </trkpt>
      <trkpt lat="47.22688" lon="-1.59146">
        <ele>13</ele>
        <time>2011-01-09T09:15:44Z</time>
      </trkpt>
      <trkpt lat="47.22688" lon="-1.59145">
        <ele>13</ele>
        <time>2011-01-09T09:15:45Z</time>
      </trkpt>
      <trkpt lat="47.22688" lon="-1.59144">
        <ele>13</ele>
        <time>2011-01-09T09:15:46Z</time>
      </trkpt>
      <trkpt lat="47.22688" lon="-1.59143">
        <ele>13</ele>
        <time>2011-01-09T09:15:47Z</time>
      </trkpt>
      <trkpt lat="47.22687" lon="-1.59141">
        <ele>13</ele>
        <time>2011-01-09T09:15:48Z</time>
      </trkpt>
      <trkpt lat="47.22687" lon="-1.59139">
        <ele>13</ele>
        <time>2011-01-09T09:15:49Z</time>
      </trkpt>
      <trkpt lat="47.22681" lon="-1.59113">
        <ele>13</ele>
        <time>2011-01-09T09:16:03Z</time>
      </trkpt>
      <trkpt lat="47.22681" lon="-1.59111">
        <ele>13</ele>
        <time>2011-01-09T09:16:04Z</time>
      </trkpt>
      <trkpt lat="47.22681" lon="-1.5911">
        <ele>13</ele>
        <time>2011-01-09T09:16:05Z</time>
      </trkpt>
      <trkpt lat="47.22681" lon="-1.59108">
        <ele>13</ele>
        <time>2011-01-09T09:16:06Z</time>
      </trkpt>
      <trkpt lat="47.2268" lon="-1.59107">
        <ele>13</ele>
        <time>2011-01-09T09:16:07Z</time>
      </trkpt>
      <trkpt lat="47.2268" lon="-1.59105">
        <ele>13</ele>
        <time>2011-01-09T09:16:08Z</time>
      </trkpt>
      <trkpt lat="47.22677" lon="-1.59096">
        <ele>13</ele>
        <time>2011-01-09T09:16:15Z</time>
      </trkpt>
      <trkpt lat="47.22673" lon="-1.59086">
        <ele>13</ele>
        <time>2011-01-09T09:16:22Z</time>
      </trkpt>
      <trkpt lat="47.22671" lon="-1.59086">
        <ele>13</ele>
        <time>2011-01-09T09:16:23Z</time>
      </trkpt>
      <trkpt lat="47.22671" lon="-1.59085">
        <ele>13</ele>
        <time>2011-01-09T09:16:24Z</time>
      </trkpt>
      <trkpt lat="47.2267" lon="-1.59083">
        <ele>13</ele>
        <time>2011-01-09T09:16:25Z</time>
      </trkpt>
      <trkpt lat="47.22668" lon="-1.59082">
        <ele>13</ele>
        <time>2011-01-09T09:16:26Z</time>
      </trkpt>
      <trkpt lat="47.22667" lon="-1.59082">
        <ele>13</ele>
        <time>2011-01-09T09:16:27Z</time>
      </trkpt>
      <trkpt lat="47.22666" lon="-1.59081">
        <ele>13</ele>
        <time>2011-01-09T09:16:28Z</time>
      </trkpt>
      <trkpt lat="47.22665" lon="-1.5908">
        <ele>13</ele>
        <time>2011-01-09T09:16:29Z</time>
      </trkpt>
      <trkpt lat="47.22664" lon="-1.59078">
        <ele>13</ele>
        <time>2011-01-09T09:16:30Z</time>
      </trkpt>
      <trkpt lat="47.22663" lon="-1.59077">
        <ele>13</ele>
        <time>2011-01-09T09:16:31Z</time>
      </trkpt>
      <trkpt lat="47.22663" lon="-1.59076">
        <ele>13</ele>
        <time>2011-01-09T09:16:32Z</time>
      </trkpt>
      <trkpt lat="47.22663" lon="-1.59073">
        <ele>13</ele>
        <time>2011-01-09T09:16:33Z</time>
      </trkpt>
      <trkpt lat="47.22663" lon="-1.59071">
        <ele>13</ele>
        <time>2011-01-09T09:16:34Z</time>
      </trkpt>
      <trkpt lat="47.22663" lon="-1.59069">
        <ele>13</ele>
        <time>2011-01-09T09:16:35Z</time>
      </trkpt>
      <trkpt lat="47.22663" lon="-1.59066">
        <ele>14</ele>
        <time>2011-01-09T09:16:36Z</time>
      </trkpt>
      <trkpt lat="47.22662" lon="-1.59064">
        <ele>14</ele>
        <time>2011-01-09T09:16:37Z</time>
      </trkpt>
      <trkpt lat="47.22662" lon="-1.59062">
        <ele>14</ele>
        <time>2011-01-09T09:16:38Z</time>
      </trkpt>
      <trkpt lat="47.2266" lon="-1.59061">
        <ele>14</ele>
        <time>2011-01-09T09:16:39Z</time>
      </trkpt>
      <trkpt lat="47.22659" lon="-1.59059">
        <ele>14</ele>
        <time>2011-01-09T09:16:40Z</time>
      </trkpt>
      <trkpt lat="47.22658" lon="-1.59058">
        <ele>14</ele>
        <time>2011-01-09T09:16:41Z</time>
      </trkpt>
      <trkpt lat="47.22657" lon="-1.59056">
        <ele>14</ele>
        <time>2011-01-09T09:16:42Z</time>
      </trkpt>
      <trkpt lat="47.22657" lon="-1.59054">
        <ele>14</ele>
        <time>2011-01-09T09:16:43Z</time>
      </trkpt>
      <trkpt lat="47.22656" lon="-1.59052">
        <ele>14</ele>
        <time>2011-01-09T09:16:44Z</time>
      </trkpt>
      <trkpt lat="47.22656" lon="-1.59051">
        <ele>14</ele>
        <time>2011-01-09T09:16:45Z</time>
      </trkpt>
      <trkpt lat="47.22656" lon="-1.59049">
        <ele>14</ele>
        <time>2011-01-09T09:16:46Z</time>
      </trkpt>
      <trkpt lat="47.22655" lon="-1.59048">
        <ele>14</ele>
        <time>2011-01-09T09:16:47Z</time>
      </trkpt>
      <trkpt lat="47.22655" lon="-1.59046">
        <ele>14</ele>
        <time>2011-01-09T09:16:48Z</time>
      </trkpt>
      <trkpt lat="47.22654" lon="-1.59044">
        <ele>14</ele>
        <time>2011-01-09T09:16:49Z</time>
      </trkpt>
      <trkpt lat="47.22654" lon="-1.59044">
        <ele>14</ele>
        <time>2011-01-09T09:16:50Z</time>
      </trkpt>
      <trkpt lat="47.22653" lon="-1.59043">
        <ele>14</ele>
        <time>2011-01-09T09:16:51Z</time>
      </trkpt>
      <trkpt lat="47.22653" lon="-1.59043">
        <ele>14</ele>
        <time>2011-01-09T09:16:52Z</time>
      </trkpt>
      <trkpt lat="47.22652" lon="-1.59042">
        <ele>14</ele>
        <time>2011-01-09T09:16:53Z</time>
      </trkpt>
      <trkpt lat="47.22651" lon="-1.59041">
        <ele>14</ele>
        <time>2011-01-09T09:16:54Z</time>
      </trkpt>
      <trkpt lat="47.2265" lon="-1.59041">
        <ele>14</ele>
        <time>2011-01-09T09:16:55Z</time>
      </trkpt>
      <trkpt lat="47.2265" lon="-1.5904">
        <ele>14</ele>
        <time>2011-01-09T09:16:56Z</time>
      </trkpt>
      <trkpt lat="47.22648" lon="-1.59038">
        <ele>14</ele>
        <time>2011-01-09T09:16:57Z</time>
      </trkpt>
      <trkpt lat="47.22647" lon="-1.59037">
        <ele>14</ele>
        <time>2011-01-09T09:16:58Z</time>
      </trkpt>
      <trkpt lat="47.22645" lon="-1.59036">
        <ele>14</ele>
        <time>2011-01-09T09:16:59Z</time>
      </trkpt>
      <trkpt lat="47.22644" lon="-1.59034">
        <ele>14</ele>
        <time>2011-01-09T09:17:00Z</time>
      </trkpt>
      <trkpt lat="47.22642" lon="-1.59033">
        <ele>14</ele>
        <time>2011-01-09T09:17:01Z</time>
      </trkpt>
      <trkpt lat="47.2264" lon="-1.59033">
        <ele>14</ele>
        <time>2011-01-09T09:17:02Z</time>
      </trkpt>
      <trkpt lat="47.22638" lon="-1.59033">
        <ele>14</ele>
        <time>2011-01-09T09:17:03Z</time>
      </trkpt>
      <trkpt lat="47.22637" lon="-1.59033">
        <ele>14</ele>
        <time>2011-01-09T09:17:04Z</time>
      </trkpt>
      <trkpt lat="47.22636" lon="-1.59033">
        <ele>14</ele>
        <time>2011-01-09T09:17:05Z</time>
      </trkpt>
      <trkpt lat="47.22635" lon="-1.59032">
        <ele>14</ele>
        <time>2011-01-09T09:17:06Z</time>
      </trkpt>
      <trkpt lat="47.22634" lon="-1.5903">
        <ele>14</ele>
        <time>2011-01-09T09:17:07Z</time>
      </trkpt>
      <trkpt lat="47.22633" lon="-1.5903">
        <ele>14</ele>
        <time>2011-01-09T09:17:08Z</time>
      </trkpt>
      <trkpt lat="47.22632" lon="-1.5903">
        <ele>14</ele>
        <time>2011-01-09T09:17:09Z</time>
      </trkpt>
      <trkpt lat="47.22626" lon="-1.59024">
        <ele>14</ele>
        <time>2011-01-09T09:17:15Z</time>
      </trkpt>
      <trkpt lat="47.22624" lon="-1.59023">
        <ele>14</ele>
        <time>2011-01-09T09:17:16Z</time>
      </trkpt>
      <trkpt lat="47.22623" lon="-1.59022">
        <ele>14</ele>
        <time>2011-01-09T09:17:17Z</time>
      </trkpt>
      <trkpt lat="47.22622" lon="-1.59022">
        <ele>14</ele>
        <time>2011-01-09T09:17:18Z</time>
      </trkpt>
      <trkpt lat="47.22621" lon="-1.59021">
        <ele>14</ele>
        <time>2011-01-09T09:17:19Z</time>
      </trkpt>
      <trkpt lat="47.2262" lon="-1.5902">
        <ele>14</ele>
        <time>2011-01-09T09:17:20Z</time>
      </trkpt>
      <trkpt lat="47.22619" lon="-1.5902">
        <ele>14</ele>
        <time>2011-01-09T09:17:21Z</time>
      </trkpt>
      <trkpt lat="47.22618" lon="-1.59019">
        <ele>14</ele>
        <time>2011-01-09T09:17:22Z</time>
      </trkpt>
      <trkpt lat="47.22617" lon="-1.59019">
        <ele>14</ele>
        <time>2011-01-09T09:17:23Z</time>
      </trkpt>
      <trkpt lat="47.22616" lon="-1.59019">
        <ele>14</ele>
        <time>2011-01-09T09:17:24Z</time>
      </trkpt>
      <trkpt lat="47.22615" lon="-1.5902">
        <ele>14</ele>
        <time>2011-01-09T09:17:25Z</time>
      </trkpt>
      <trkpt lat="47.22613" lon="-1.59021">
        <ele>14</ele>
        <time>2011-01-09T09:17:26Z</time>
      </trkpt>
      <trkpt lat="47.22605" lon="-1.59023">
        <ele>14</ele>
        <time>2011-01-09T09:17:32Z</time>
      </trkpt>
      <trkpt lat="47.22601" lon="-1.59022">
        <ele>14</ele>
        <time>2011-01-09T09:17:35Z</time>
      </trkpt>
      <trkpt lat="47.22599" lon="-1.59022">
        <ele>14</ele>
        <time>2011-01-09T09:17:36Z</time>
      </trkpt>
      <trkpt lat="47.22598" lon="-1.59022">
        <ele>14</ele>
        <time>2011-01-09T09:17:37Z</time>
      </trkpt>
      <trkpt lat="47.22596" lon="-1.59022">
        <ele>14</ele>
        <time>2011-01-09T09:17:38Z</time>
      </trkpt>
      <trkpt lat="47.22595" lon="-1.59023">
        <ele>14</ele>
        <time>2011-01-09T09:17:39Z</time>
      </trkpt>
      <trkpt lat="47.22594" lon="-1.59025">
        <ele>14</ele>
        <time>2011-01-09T09:17:40Z</time>
      </trkpt>
      <trkpt lat="47.22594" lon="-1.59025">
        <ele>14</ele>
        <time>2011-01-09T09:17:41Z</time>
      </trkpt>
      <trkpt lat="47.22593" lon="-1.59026">
        <ele>14</ele>
        <time>2011-01-09T09:17:42Z</time>
      </trkpt>
      <trkpt lat="47.22592" lon="-1.59026">
        <ele>14</ele>
        <time>2011-01-09T09:17:43Z</time>
      </trkpt>
      <trkpt lat="47.22591" lon="-1.59026">
        <ele>14</ele>
        <time>2011-01-09T09:17:44Z</time>
      </trkpt>
      <trkpt lat="47.2259" lon="-1.59027">
        <ele>14</ele>
        <time>2011-01-09T09:17:45Z</time>
      </trkpt>
      <trkpt lat="47.2259" lon="-1.59026">
        <ele>14</ele>
        <time>2011-01-09T09:17:46Z</time>
      </trkpt>
      <trkpt lat="47.22589" lon="-1.59025">
        <ele>14</ele>
        <time>2011-01-09T09:17:47Z</time>
      </trkpt>
      <trkpt lat="47.22588" lon="-1.59025">
        <ele>14</ele>
        <time>2011-01-09T09:17:48Z</time>
      </trkpt>
      <trkpt lat="47.22587" lon="-1.59025">
        <ele>14</ele>
        <time>2011-01-09T09:17:49Z</time>
      </trkpt>
      <trkpt lat="47.22586" lon="-1.59024">
        <ele>14</ele>
        <time>2011-01-09T09:17:50Z</time>
      </trkpt>
      <trkpt lat="47.22584" lon="-1.59024">
        <ele>14</ele>
        <time>2011-01-09T09:17:51Z</time>
      </trkpt>
      <trkpt lat="47.22583" lon="-1.59023">
        <ele>14</ele>
        <time>2011-01-09T09:17:52Z</time>
      </trkpt>
      <trkpt lat="47.22583" lon="-1.59023">
        <ele>16</ele>
        <time>2011-01-09T09:17:53Z</time>
      </trkpt>
      <trkpt lat="47.22582" lon="-1.59023">
        <ele>16</ele>
        <time>2011-01-09T09:17:54Z</time>
      </trkpt>
      <trkpt lat="47.22581" lon="-1.59023">
        <ele>16</ele>
        <time>2011-01-09T09:17:55Z</time>
      </trkpt>
      <trkpt lat="47.2258" lon="-1.59022">
        <ele>16</ele>
        <time>2011-01-09T09:17:56Z</time>
      </trkpt>
      <trkpt lat="47.22578" lon="-1.59019">
        <ele>16</ele>
        <time>2011-01-09T09:17:57Z</time>
      </trkpt>
      <trkpt lat="47.22577" lon="-1.59016">
        <ele>16</ele>
        <time>2011-01-09T09:17:58Z</time>
      </trkpt>
      <trkpt lat="47.22575" lon="-1.59013">
        <ele>16</ele>
        <time>2011-01-09T09:17:59Z</time>
      </trkpt>
      <trkpt lat="47.22574" lon="-1.59011">
        <ele>16</ele>
        <time>2011-01-09T09:18:00Z</time>
      </trkpt>
      <trkpt lat="47.22572" lon="-1.59008">
        <ele>16</ele>
        <time>2011-01-09T09:18:01Z</time>
      </trkpt>
      <trkpt lat="47.22571" lon="-1.59007">
        <ele>16</ele>
        <time>2011-01-09T09:18:02Z</time>
      </trkpt>
      <trkpt lat="47.2257" lon="-1.59005">
        <ele>16</ele>
        <time>2011-01-09T09:18:03Z</time>
      </trkpt>
      <trkpt lat="47.22569" lon="-1.59003">
        <ele>16</ele>
        <time>2011-01-09T09:18:04Z</time>
      </trkpt>
      <trkpt lat="47.22568" lon="-1.59002">
        <ele>16</ele>
        <time>2011-01-09T09:18:05Z</time>
      </trkpt>
      <trkpt lat="47.22567" lon="-1.59">
        <ele>16</ele>
        <time>2011-01-09T09:18:06Z</time>
      </trkpt>
      <trkpt lat="47.22567" lon="-1.58998">
        <ele>16</ele>
        <time>2011-01-09T09:18:07Z</time>
      </trkpt>
      <trkpt lat="47.22566" lon="-1.58997">
        <ele>16</ele>
        <time>2011-01-09T09:18:08Z</time>
      </trkpt>
      <trkpt lat="47.22565" lon="-1.58996">
        <ele>16</ele>
        <time>2011-01-09T09:18:09Z</time>
      </trkpt>
      <trkpt lat="47.22565" lon="-1.58995">
        <ele>16</ele>
        <time>2011-01-09T09:18:10Z</time>
      </trkpt>
      <trkpt lat="47.22565" lon="-1.58995">
        <ele>16</ele>
        <time>2011-01-09T09:18:11Z</time>
      </trkpt>
      <trkpt lat="47.22565" lon="-1.58996">
        <ele>16</ele>
        <time>2011-01-09T09:18:12Z</time>
      </trkpt>
      <trkpt lat="47.22564" lon="-1.58996">
        <ele>16</ele>
        <time>2011-01-09T09:18:13Z</time>
      </trkpt>
      <trkpt lat="47.22563" lon="-1.58995">
        <ele>17</ele>
        <time>2011-01-09T09:18:14Z</time>
      </trkpt>
      <trkpt lat="47.22512" lon="-1.58832">
        <ele>19</ele>
        <time>2011-01-09T09:20:16Z</time>
      </trkpt>
      <trkpt lat="47.22512" lon="-1.5883">
        <ele>19</ele>
        <time>2011-01-09T09:20:17Z</time>
      </trkpt>
      <trkpt lat="47.22516" lon="-1.58819">
        <ele>18</ele>
        <time>2011-01-09T09:20:23Z</time>
      </trkpt>
      <trkpt lat="47.22516" lon="-1.58817">
        <ele>18</ele>
        <time>2011-01-09T09:20:24Z</time>
      </trkpt>
      <trkpt lat="47.22515" lon="-1.58816">
        <ele>18</ele>
        <time>2011-01-09T09:20:25Z</time>
      </trkpt>
      <trkpt lat="47.22515" lon="-1.58815">
        <ele>18</ele>
        <time>2011-01-09T09:20:26Z</time>
      </trkpt>
      <trkpt lat="47.22515" lon="-1.58813">
        <ele>18</ele>
        <time>2011-01-09T09:20:27Z</time>
      </trkpt>
      <trkpt lat="47.22515" lon="-1.58811">
        <ele>18</ele>
        <time>2011-01-09T09:20:28Z</time>
      </trkpt>
      <trkpt lat="47.22515" lon="-1.58809">
        <ele>18</ele>
        <time>2011-01-09T09:20:29Z</time>
      </trkpt>
      <trkpt lat="47.22516" lon="-1.58808">
        <ele>17</ele>
        <time>2011-01-09T09:20:30Z</time>
      </trkpt>
      <trkpt lat="47.22518" lon="-1.58806">
        <ele>17</ele>
        <time>2011-01-09T09:20:31Z</time>
      </trkpt>
      <trkpt lat="47.22518" lon="-1.58805">
        <ele>17</ele>
        <time>2011-01-09T09:20:32Z</time>
      </trkpt>
      <trkpt lat="47.22518" lon="-1.58803">
        <ele>17</ele>
        <time>2011-01-09T09:20:33Z</time>
      </trkpt>
      <trkpt lat="47.22518" lon="-1.58802">
        <ele>17</ele>
        <time>2011-01-09T09:20:34Z</time>
      </trkpt>
      <trkpt lat="47.22518" lon="-1.588">
        <ele>17</ele>
        <time>2011-01-09T09:20:35Z</time>
      </trkpt>
      <trkpt lat="47.22518" lon="-1.58798">
        <ele>17</ele>
        <time>2011-01-09T09:20:36Z</time>
      </trkpt>
      <trkpt lat="47.22518" lon="-1.58797">
        <ele>17</ele>
        <time>2011-01-09T09:20:37Z</time>
      </trkpt>
      <trkpt lat="47.22519" lon="-1.58797">
        <ele>17</ele>
        <time>2011-01-09T09:20:38Z</time>
      </trkpt>
      <trkpt lat="47.2252" lon="-1.58796">
        <ele>17</ele>
        <time>2011-01-09T09:20:39Z</time>
      </trkpt>
      <trkpt lat="47.2252" lon="-1.58795">
        <ele>17</ele>
        <time>2011-01-09T09:20:40Z</time>
      </trkpt>
      <trkpt lat="47.22522" lon="-1.58794">
        <ele>17</ele>
        <time>2011-01-09T09:20:41Z</time>
      </trkpt>
      <trkpt lat="47.22523" lon="-1.58792">
        <ele>17</ele>
        <time>2011-01-09T09:20:42Z</time>
      </trkpt>
      <trkpt lat="47.22524" lon="-1.58791">
        <ele>17</ele>
        <time>2011-01-09T09:20:43Z</time>
      </trkpt>
      <trkpt lat="47.22524" lon="-1.5879">
        <ele>17</ele>
        <time>2011-01-09T09:20:44Z</time>
      </trkpt>
      <trkpt lat="47.22526" lon="-1.58789">
        <ele>17</ele>
        <time>2011-01-09T09:20:45Z</time>
      </trkpt>
      <trkpt lat="47.22526" lon="-1.58788">
        <ele>17</ele>
        <time>2011-01-09T09:20:46Z</time>
      </trkpt>
      <trkpt lat="47.22525" lon="-1.58786">
        <ele>17</ele>
        <time>2011-01-09T09:20:47Z</time>
      </trkpt>
      <trkpt lat="47.22523" lon="-1.58784">
        <ele>17</ele>
        <time>2011-01-09T09:20:48Z</time>
      </trkpt>
      <trkpt lat="47.22523" lon="-1.58783">
        <ele>17</ele>
        <time>2011-01-09T09:20:49Z</time>
      </trkpt>
      <trkpt lat="47.22522" lon="-1.5878">
        <ele>17</ele>
        <time>2011-01-09T09:20:50Z</time>
      </trkpt>
      <trkpt lat="47.22521" lon="-1.58779">
        <ele>17</ele>
        <time>2011-01-09T09:20:51Z</time>
      </trkpt>
      <trkpt lat="47.22522" lon="-1.58777">
        <ele>17</ele>
        <time>2011-01-09T09:20:52Z</time>
      </trkpt>
      <trkpt lat="47.22522" lon="-1.58776">
        <ele>17</ele>
        <time>2011-01-09T09:20:53Z</time>
      </trkpt>
      <trkpt lat="47.22521" lon="-1.58773">
        <ele>16</ele>
        <time>2011-01-09T09:20:54Z</time>
      </trkpt>
      <trkpt lat="47.22521" lon="-1.58771">
        <ele>16</ele>
        <time>2011-01-09T09:20:55Z</time>
      </trkpt>
      <trkpt lat="47.22522" lon="-1.58769">
        <ele>16</ele>
        <time>2011-01-09T09:20:56Z</time>
      </trkpt>
      <trkpt lat="47.22522" lon="-1.58766">
        <ele>16</ele>
        <time>2011-01-09T09:20:57Z</time>
      </trkpt>
      <trkpt lat="47.22523" lon="-1.58765">
        <ele>16</ele>
        <time>2011-01-09T09:20:58Z</time>
      </trkpt>
      <trkpt lat="47.22529" lon="-1.58744">
        <ele>16</ele>
        <time>2011-01-09T09:21:11Z</time>
      </trkpt>
      <trkpt lat="47.22528" lon="-1.58741">
        <ele>16</ele>
        <time>2011-01-09T09:21:12Z</time>
      </trkpt>
      <trkpt lat="47.22527" lon="-1.58739">
        <ele>16</ele>
        <time>2011-01-09T09:21:13Z</time>
      </trkpt>
      <trkpt lat="47.22527" lon="-1.58737">
        <ele>17</ele>
        <time>2011-01-09T09:21:14Z</time>
      </trkpt>
      <trkpt lat="47.22526" lon="-1.58736">
        <ele>17</ele>
        <time>2011-01-09T09:21:17Z</time>
      </trkpt>
      <trkpt lat="47.22525" lon="-1.58733">
        <ele>17</ele>
        <time>2011-01-09T09:21:18Z</time>
      </trkpt>
      <trkpt lat="47.22509" lon="-1.58718">
        <ele>17</ele>
        <time>2011-01-09T09:21:37Z</time>
      </trkpt>
      <trkpt lat="47.22508" lon="-1.58718">
        <ele>17</ele>
        <time>2011-01-09T09:21:38Z</time>
      </trkpt>
      <trkpt lat="47.22507" lon="-1.58719">
        <ele>17</ele>
        <time>2011-01-09T09:21:39Z</time>
      </trkpt>
      <trkpt lat="47.22506" lon="-1.58719">
        <ele>17</ele>
        <time>2011-01-09T09:21:40Z</time>
      </trkpt>
      <trkpt lat="47.22505" lon="-1.58718">
        <ele>17</ele>
        <time>2011-01-09T09:21:41Z</time>
      </trkpt>
      <trkpt lat="47.22505" lon="-1.58719">
        <ele>17</ele>
        <time>2011-01-09T09:21:42Z</time>
      </trkpt>
      <trkpt lat="47.22504" lon="-1.58719">
        <ele>17</ele>
        <time>2011-01-09T09:21:43Z</time>
      </trkpt>
      <trkpt lat="47.22503" lon="-1.58719">
        <ele>17</ele>
        <time>2011-01-09T09:21:44Z</time>
      </trkpt>
      <trkpt lat="47.22502" lon="-1.58719">
        <ele>17</ele>
        <time>2011-01-09T09:21:45Z</time>
      </trkpt>
      <trkpt lat="47.22501" lon="-1.58719">
        <ele>17</ele>
        <time>2011-01-09T09:21:46Z</time>
      </trkpt>
      <trkpt lat="47.22501" lon="-1.58719">
        <ele>17</ele>
        <time>2011-01-09T09:21:47Z</time>
      </trkpt>
      <trkpt lat="47.225" lon="-1.5872">
        <ele>17</ele>
        <time>2011-01-09T09:21:48Z</time>
      </trkpt>
      <trkpt lat="47.22499" lon="-1.58719">
        <ele>17</ele>
        <time>2011-01-09T09:21:49Z</time>
      </trkpt>
      <trkpt lat="47.22498" lon="-1.58719">
        <ele>17</ele>
        <time>2011-01-09T09:21:50Z</time>
      </trkpt>
      <trkpt lat="47.22497" lon="-1.58719">
        <ele>17</ele>
        <time>2011-01-09T09:21:51Z</time>
      </trkpt>
      <trkpt lat="47.22495" lon="-1.5872">
        <ele>17</ele>
        <time>2011-01-09T09:21:52Z</time>
      </trkpt>
      <trkpt lat="47.22494" lon="-1.58721">
        <ele>17</ele>
        <time>2011-01-09T09:21:54Z</time>
      </trkpt>
      <trkpt lat="47.22491" lon="-1.58716">
        <ele>17</ele>
        <time>2011-01-09T09:21:55Z</time>
      </trkpt>
      <trkpt lat="47.22489" lon="-1.58714">
        <ele>17</ele>
        <time>2011-01-09T09:21:56Z</time>
      </trkpt>
      <trkpt lat="47.22487" lon="-1.58713">
        <ele>17</ele>
        <time>2011-01-09T09:21:57Z</time>
      </trkpt>
      <trkpt lat="47.22486" lon="-1.58712">
        <ele>17</ele>
        <time>2011-01-09T09:21:58Z</time>
      </trkpt>
      <trkpt lat="47.22484" lon="-1.5871">
        <ele>17</ele>
        <time>2011-01-09T09:21:59Z</time>
      </trkpt>
      <trkpt lat="47.22483" lon="-1.5871">
        <ele>17</ele>
        <time>2011-01-09T09:22:00Z</time>
      </trkpt>
      <trkpt lat="47.22482" lon="-1.5871">
        <ele>17</ele>
        <time>2011-01-09T09:22:01Z</time>
      </trkpt>
      <trkpt lat="47.22481" lon="-1.5871">
        <ele>17</ele>
        <time>2011-01-09T09:22:02Z</time>
      </trkpt>
      <trkpt lat="47.2248" lon="-1.5871">
        <ele>17</ele>
        <time>2011-01-09T09:22:03Z</time>
      </trkpt>
      <trkpt lat="47.22479" lon="-1.5871">
        <ele>17</ele>
        <time>2011-01-09T09:22:04Z</time>
      </trkpt>
      <trkpt lat="47.22478" lon="-1.5871">
        <ele>17</ele>
        <time>2011-01-09T09:22:05Z</time>
      </trkpt>
      <trkpt lat="47.22476" lon="-1.58707">
        <ele>17</ele>
        <time>2011-01-09T09:22:06Z</time>
      </trkpt>
      <trkpt lat="47.22475" lon="-1.58708">
        <ele>17</ele>
        <time>2011-01-09T09:22:07Z</time>
      </trkpt>
      <trkpt lat="47.22472" lon="-1.58708">
        <ele>17</ele>
        <time>2011-01-09T09:22:10Z</time>
      </trkpt>
      <trkpt lat="47.2247" lon="-1.58706">
        <ele>17</ele>
        <time>2011-01-09T09:22:11Z</time>
      </trkpt>
      <trkpt lat="47.22469" lon="-1.58707">
        <ele>17</ele>
        <time>2011-01-09T09:22:12Z</time>
      </trkpt>
      <trkpt lat="47.22462" lon="-1.58705">
        <ele>17</ele>
        <time>2011-01-09T09:22:18Z</time>
      </trkpt>
      <trkpt lat="47.2246" lon="-1.58706">
        <ele>17</ele>
        <time>2011-01-09T09:22:19Z</time>
      </trkpt>
      <trkpt lat="47.22459" lon="-1.58706">
        <ele>17</ele>
        <time>2011-01-09T09:22:20Z</time>
      </trkpt>
      <trkpt lat="47.22458" lon="-1.58706">
        <ele>17</ele>
        <time>2011-01-09T09:22:21Z</time>
      </trkpt>
      <trkpt lat="47.22455" lon="-1.58705">
        <ele>17</ele>
        <time>2011-01-09T09:22:23Z</time>
      </trkpt>
      <trkpt lat="47.22454" lon="-1.58705">
        <ele>17</ele>
        <time>2011-01-09T09:22:24Z</time>
      </trkpt>
      <trkpt lat="47.22451" lon="-1.58705">
        <ele>17</ele>
        <time>2011-01-09T09:22:27Z</time>
      </trkpt>
      <trkpt lat="47.2245" lon="-1.58705">
        <ele>17</ele>
        <time>2011-01-09T09:22:28Z</time>
      </trkpt>
      <trkpt lat="47.22449" lon="-1.58705">
        <ele>17</ele>
        <time>2011-01-09T09:22:29Z</time>
      </trkpt>
      <trkpt lat="47.22448" lon="-1.58705">
        <ele>17</ele>
        <time>2011-01-09T09:22:30Z</time>
      </trkpt>
      <trkpt lat="47.22447" lon="-1.58706">
        <ele>17</ele>
        <time>2011-01-09T09:22:31Z</time>
      </trkpt>
      <trkpt lat="47.22445" lon="-1.58705">
        <ele>17</ele>
        <time>2011-01-09T09:22:32Z</time>
      </trkpt>
      <trkpt lat="47.22444" lon="-1.58705">
        <ele>17</ele>
        <time>2011-01-09T09:22:33Z</time>
      </trkpt>
      <trkpt lat="47.22443" lon="-1.58704">
        <ele>17</ele>
        <time>2011-01-09T09:22:34Z</time>
      </trkpt>
      <trkpt lat="47.22442" lon="-1.58703">
        <ele>17</ele>
        <time>2011-01-09T09:22:35Z</time>
      </trkpt>
      <trkpt lat="47.22441" lon="-1.58703">
        <ele>17</ele>
        <time>2011-01-09T09:22:36Z</time>
      </trkpt>
      <trkpt lat="47.2244" lon="-1.58703">
        <ele>17</ele>
        <time>2011-01-09T09:22:37Z</time>
      </trkpt>
      <trkpt lat="47.22439" lon="-1.58703">
        <ele>17</ele>
        <time>2011-01-09T09:22:38Z</time>
      </trkpt>
      <trkpt lat="47.22438" lon="-1.587">
        <ele>17</ele>
        <time>2011-01-09T09:22:39Z</time>
      </trkpt>
      <trkpt lat="47.22436" lon="-1.58698">
        <ele>17</ele>
        <time>2011-01-09T09:22:40Z</time>
      </trkpt>
      <trkpt lat="47.22435" lon="-1.58698">
        <ele>17</ele>
        <time>2011-01-09T09:22:41Z</time>
      </trkpt>
      <trkpt lat="47.22434" lon="-1.58697">
        <ele>17</ele>
        <time>2011-01-09T09:22:42Z</time>
      </trkpt>
      <trkpt lat="47.22432" lon="-1.58693">
        <ele>17</ele>
        <time>2011-01-09T09:22:43Z</time>
      </trkpt>
      <trkpt lat="47.2243" lon="-1.58691">
        <ele>17</ele>
        <time>2011-01-09T09:22:44Z</time>
      </trkpt>
      <trkpt lat="47.22429" lon="-1.5869">
        <ele>17</ele>
        <time>2011-01-09T09:22:45Z</time>
      </trkpt>
      <trkpt lat="47.22428" lon="-1.58691">
        <ele>17</ele>
        <time>2011-01-09T09:22:46Z</time>
      </trkpt>
      <trkpt lat="47.22427" lon="-1.58691">
        <ele>17</ele>
        <time>2011-01-09T09:22:47Z</time>
      </trkpt>
      <trkpt lat="47.22426" lon="-1.58691">
        <ele>17</ele>
        <time>2011-01-09T09:22:48Z</time>
      </trkpt>
      <trkpt lat="47.22424" lon="-1.58689">
        <ele>17</ele>
        <time>2011-01-09T09:22:49Z</time>
      </trkpt>
      <trkpt lat="47.22424" lon="-1.58689">
        <ele>17</ele>
        <time>2011-01-09T09:22:50Z</time>
      </trkpt>
      <trkpt lat="47.2241" lon="-1.58702">
        <ele>19</ele>
        <time>2011-01-09T09:23:09Z</time>
      </trkpt>
      <trkpt lat="47.22409" lon="-1.58699">
        <ele>19</ele>
        <time>2011-01-09T09:23:10Z</time>
      </trkpt>
      <trkpt lat="47.22408" lon="-1.58696">
        <ele>19</ele>
        <time>2011-01-09T09:23:11Z</time>
      </trkpt>
      <trkpt lat="47.22407" lon="-1.58696">
        <ele>19</ele>
        <time>2011-01-09T09:23:12Z</time>
      </trkpt>
      <trkpt lat="47.22389" lon="-1.5867">
        <ele>18</ele>
        <time>2011-01-09T09:23:38Z</time>
      </trkpt>
      <trkpt lat="47.22389" lon="-1.58669">
        <ele>18</ele>
        <time>2011-01-09T09:23:39Z</time>
      </trkpt>
      <trkpt lat="47.22389" lon="-1.58668">
        <ele>18</ele>
        <time>2011-01-09T09:23:40Z</time>
      </trkpt>
      <trkpt lat="47.22389" lon="-1.58667">
        <ele>18</ele>
        <time>2011-01-09T09:23:41Z</time>
      </trkpt>
      <trkpt lat="47.22389" lon="-1.58666">
        <ele>16</ele>
        <time>2011-01-09T09:23:42Z</time>
      </trkpt>
      <trkpt lat="47.22388" lon="-1.58665">
        <ele>16</ele>
        <time>2011-01-09T09:23:43Z</time>
      </trkpt>
      <trkpt lat="47.22388" lon="-1.58664">
        <ele>16</ele>
        <time>2011-01-09T09:23:44Z</time>
      </trkpt>
      <trkpt lat="47.22388" lon="-1.58664">
        <ele>16</ele>
        <time>2011-01-09T09:23:45Z</time>
      </trkpt>
      <trkpt lat="47.22388" lon="-1.58663">
        <ele>16</ele>
        <time>2011-01-09T09:23:46Z</time>
      </trkpt>
      <trkpt lat="47.22388" lon="-1.58663">
        <ele>16</ele>
        <time>2011-01-09T09:23:47Z</time>
      </trkpt>
      <trkpt lat="47.22389" lon="-1.58664">
        <ele>16</ele>
        <time>2011-01-09T09:23:48Z</time>
      </trkpt>
      <trkpt lat="47.22389" lon="-1.58664">
        <ele>16</ele>
        <time>2011-01-09T09:23:49Z</time>
      </trkpt>
      <trkpt lat="47.22389" lon="-1.58664">
        <ele>16</ele>
        <time>2011-01-09T09:23:50Z</time>
      </trkpt>
      <trkpt lat="47.22388" lon="-1.58662">
        <ele>16</ele>
        <time>2011-01-09T09:23:51Z</time>
      </trkpt>
      <trkpt lat="47.22387" lon="-1.58662">
        <ele>16</ele>
        <time>2011-01-09T09:23:52Z</time>
      </trkpt>
      <trkpt lat="47.22387" lon="-1.58661">
        <ele>16</ele>
        <time>2011-01-09T09:23:53Z</time>
      </trkpt>
      <trkpt lat="47.22356" lon="-1.58622">
        <ele>16</ele>
        <time>2011-01-09T09:24:34Z</time>
      </trkpt>
      <trkpt lat="47.22355" lon="-1.5862">
        <ele>16</ele>
        <time>2011-01-09T09:24:35Z</time>
      </trkpt>
      <trkpt lat="47.22355" lon="-1.58619">
        <ele>16</ele>
        <time>2011-01-09T09:24:36Z</time>
      </trkpt>
      <trkpt lat="47.22344" lon="-1.58594">
        <ele>15</ele>
        <time>2011-01-09T09:25:00Z</time>
      </trkpt>
      <trkpt lat="47.22343" lon="-1.58593">
        <ele>15</ele>
        <time>2011-01-09T09:25:01Z</time>
      </trkpt>
      <trkpt lat="47.22347" lon="-1.58567">
        <ele>15</ele>
        <time>2011-01-09T09:25:20Z</time>
      </trkpt>
      <trkpt lat="47.22347" lon="-1.58569">
        <ele>15</ele>
        <time>2011-01-09T09:25:21Z</time>
      </trkpt>
      <trkpt lat="47.22347" lon="-1.5857">
        <ele>15</ele>
        <time>2011-01-09T09:25:22Z</time>
      </trkpt>
      <trkpt lat="47.22347" lon="-1.58571">
        <ele>15</ele>
        <time>2011-01-09T09:25:23Z</time>
      </trkpt>
      <trkpt lat="47.22348" lon="-1.58572">
        <ele>15</ele>
        <time>2011-01-09T09:25:24Z</time>
      </trkpt>
      <trkpt lat="47.22348" lon="-1.58573">
        <ele>15</ele>
        <time>2011-01-09T09:25:25Z</time>
      </trkpt>
      <trkpt lat="47.22349" lon="-1.58575">
        <ele>15</ele>
        <time>2011-01-09T09:25:26Z</time>
      </trkpt>
      <trkpt lat="47.22349" lon="-1.58577">
        <ele>15</ele>
        <time>2011-01-09T09:25:27Z</time>
      </trkpt>
      <trkpt lat="47.2235" lon="-1.58579">
        <ele>15</ele>
        <time>2011-01-09T09:25:28Z</time>
      </trkpt>
      <trkpt lat="47.2235" lon="-1.5858">
        <ele>15</ele>
        <time>2011-01-09T09:25:29Z</time>
      </trkpt>
      <trkpt lat="47.22349" lon="-1.58582">
        <ele>15</ele>
        <time>2011-01-09T09:25:30Z</time>
      </trkpt>
      <trkpt lat="47.22348" lon="-1.58581">
        <ele>15</ele>
        <time>2011-01-09T09:25:31Z</time>
      </trkpt>
      <trkpt lat="47.22346" lon="-1.58582">
        <ele>15</ele>
        <time>2011-01-09T09:25:32Z</time>
      </trkpt>
      <trkpt lat="47.22343" lon="-1.58581">
        <ele>15</ele>
        <time>2011-01-09T09:25:33Z</time>
      </trkpt>
      <trkpt lat="47.22341" lon="-1.58581">
        <ele>15</ele>
        <time>2011-01-09T09:25:34Z</time>
      </trkpt>
      <trkpt lat="47.2234" lon="-1.58581">
        <ele>15</ele>
        <time>2011-01-09T09:25:35Z</time>
      </trkpt>
      <trkpt lat="47.22339" lon="-1.58581">
        <ele>15</ele>
        <time>2011-01-09T09:25:36Z</time>
      </trkpt>
      <trkpt lat="47.22339" lon="-1.5858">
        <ele>15</ele>
        <time>2011-01-09T09:25:37Z</time>
      </trkpt>
      <trkpt lat="47.22337" lon="-1.58579">
        <ele>15</ele>
        <time>2011-01-09T09:25:38Z</time>
      </trkpt>
      <trkpt lat="47.22337" lon="-1.58577">
        <ele>15</ele>
        <time>2011-01-09T09:25:39Z</time>
      </trkpt>
      <trkpt lat="47.22336" lon="-1.58575">
        <ele>15</ele>
        <time>2011-01-09T09:25:40Z</time>
      </trkpt>
      <trkpt lat="47.22335" lon="-1.58573">
        <ele>15</ele>
        <time>2011-01-09T09:25:41Z</time>
      </trkpt>
      <trkpt lat="47.22333" lon="-1.5857">
        <ele>15</ele>
        <time>2011-01-09T09:25:42Z</time>
      </trkpt>
      <trkpt lat="47.22332" lon="-1.5857">
        <ele>15</ele>
        <time>2011-01-09T09:25:43Z</time>
      </trkpt>
      <trkpt lat="47.22331" lon="-1.58569">
        <ele>15</ele>
        <time>2011-01-09T09:25:44Z</time>
      </trkpt>
      <trkpt lat="47.22329" lon="-1.58567">
        <ele>15</ele>
        <time>2011-01-09T09:25:45Z</time>
      </trkpt>
      <trkpt lat="47.22328" lon="-1.58566">
        <ele>15</ele>
        <time>2011-01-09T09:25:46Z</time>
      </trkpt>
      <trkpt lat="47.22327" lon="-1.58564">
        <ele>15</ele>
        <time>2011-01-09T09:25:47Z</time>
      </trkpt>
      <trkpt lat="47.22326" lon="-1.58562">
        <ele>15</ele>
        <time>2011-01-09T09:25:48Z</time>
      </trkpt>
      <trkpt lat="47.22326" lon="-1.58561">
        <ele>15</ele>
        <time>2011-01-09T09:25:49Z</time>
      </trkpt>
      <trkpt lat="47.22324" lon="-1.58557">
        <ele>15</ele>
        <time>2011-01-09T09:25:51Z</time>
      </trkpt>
      <trkpt lat="47.22323" lon="-1.58554">
        <ele>15</ele>
        <time>2011-01-09T09:25:52Z</time>
      </trkpt>
      <trkpt lat="47.22323" lon="-1.58551">
        <ele>15</ele>
        <time>2011-01-09T09:25:53Z</time>
      </trkpt>
      <trkpt lat="47.22324" lon="-1.58549">
        <ele>16</ele>
        <time>2011-01-09T09:25:54Z</time>
      </trkpt>
      <trkpt lat="47.22323" lon="-1.58546">
        <ele>16</ele>
        <time>2011-01-09T09:25:55Z</time>
      </trkpt>
      <trkpt lat="47.22323" lon="-1.58544">
        <ele>16</ele>
        <time>2011-01-09T09:25:56Z</time>
      </trkpt>
      <trkpt lat="47.22322" lon="-1.5854">
        <ele>16</ele>
        <time>2011-01-09T09:25:57Z</time>
      </trkpt>
      <trkpt lat="47.22322" lon="-1.58538">
        <ele>16</ele>
        <time>2011-01-09T09:25:58Z</time>
      </trkpt>
      <trkpt lat="47.22322" lon="-1.58536">
        <ele>16</ele>
        <time>2011-01-09T09:25:59Z</time>
      </trkpt>
      <trkpt lat="47.22322" lon="-1.58534">
        <ele>15</ele>
        <time>2011-01-09T09:26:00Z</time>
      </trkpt>
      <trkpt lat="47.22322" lon="-1.58532">
        <ele>15</ele>
        <time>2011-01-09T09:26:01Z</time>
      </trkpt>
      <trkpt lat="47.22322" lon="-1.58529">
        <ele>15</ele>
        <time>2011-01-09T09:26:02Z</time>
      </trkpt>
      <trkpt lat="47.22322" lon="-1.58527">
        <ele>15</ele>
        <time>2011-01-09T09:26:03Z</time>
      </trkpt>
      <trkpt lat="47.22322" lon="-1.58525">
        <ele>15</ele>
        <time>2011-01-09T09:26:04Z</time>
      </trkpt>
      <trkpt lat="47.22322" lon="-1.58523">
        <ele>15</ele>
        <time>2011-01-09T09:26:05Z</time>
      </trkpt>
      <trkpt lat="47.22322" lon="-1.58522">
        <ele>15</ele>
        <time>2011-01-09T09:26:06Z</time>
      </trkpt>
      <trkpt lat="47.22322" lon="-1.58511">
        <ele>15</ele>
        <time>2011-01-09T09:26:12Z</time>
      </trkpt>
      <trkpt lat="47.22321" lon="-1.58508">
        <ele>15</ele>
        <time>2011-01-09T09:26:13Z</time>
      </trkpt>
      <trkpt lat="47.22321" lon="-1.58506">
        <ele>15</ele>
        <time>2011-01-09T09:26:14Z</time>
      </trkpt>
      <trkpt lat="47.2232" lon="-1.58504">
        <ele>15</ele>
        <time>2011-01-09T09:26:15Z</time>
      </trkpt>
      <trkpt lat="47.22322" lon="-1.58494">
        <ele>15</ele>
        <time>2011-01-09T09:26:26Z</time>
      </trkpt>
      <trkpt lat="47.22321" lon="-1.58491">
        <ele>15</ele>
        <time>2011-01-09T09:26:27Z</time>
      </trkpt>
      <trkpt lat="47.22321" lon="-1.58489">
        <ele>15</ele>
        <time>2011-01-09T09:26:28Z</time>
      </trkpt>
      <trkpt lat="47.22291" lon="-1.58464">
        <ele>15</ele>
        <time>2011-01-09T09:26:58Z</time>
      </trkpt>
      <trkpt lat="47.2229" lon="-1.58464">
        <ele>15</ele>
        <time>2011-01-09T09:26:59Z</time>
      </trkpt>
      <trkpt lat="47.22265" lon="-1.58423">
        <ele>15</ele>
        <time>2011-01-09T09:27:34Z</time>
      </trkpt>
      <trkpt lat="47.22265" lon="-1.58421">
        <ele>14</ele>
        <time>2011-01-09T09:27:35Z</time>
      </trkpt>
      <trkpt lat="47.22264" lon="-1.5841">
        <ele>14</ele>
        <time>2011-01-09T09:27:42Z</time>
      </trkpt>
      <trkpt lat="47.22262" lon="-1.58389">
        <ele>14</ele>
        <time>2011-01-09T09:27:59Z</time>
      </trkpt>
      <trkpt lat="47.2226" lon="-1.58385">
        <ele>14</ele>
        <time>2011-01-09T09:28:00Z</time>
      </trkpt>
      <trkpt lat="47.22262" lon="-1.58365">
        <ele>13</ele>
        <time>2011-01-09T09:28:15Z</time>
      </trkpt>
      <trkpt lat="47.22263" lon="-1.5836">
        <ele>13</ele>
        <time>2011-01-09T09:28:18Z</time>
      </trkpt>
      <trkpt lat="47.22263" lon="-1.5836">
        <ele>13</ele>
        <time>2011-01-09T09:28:19Z</time>
      </trkpt>
      <trkpt lat="47.22263" lon="-1.58358">
        <ele>13</ele>
        <time>2011-01-09T09:28:20Z</time>
      </trkpt>
      <trkpt lat="47.22266" lon="-1.58351">
        <ele>13</ele>
        <time>2011-01-09T09:28:26Z</time>
      </trkpt>
      <trkpt lat="47.22266" lon="-1.5835">
        <ele>13</ele>
        <time>2011-01-09T09:28:27Z</time>
      </trkpt>
      <trkpt lat="47.22267" lon="-1.58351">
        <ele>13</ele>
        <time>2011-01-09T09:28:28Z</time>
      </trkpt>
      <trkpt lat="47.22267" lon="-1.5835">
        <ele>13</ele>
        <time>2011-01-09T09:28:29Z</time>
      </trkpt>
      <trkpt lat="47.22269" lon="-1.58339">
        <ele>13</ele>
        <time>2011-01-09T09:28:34Z</time>
      </trkpt>
      <trkpt lat="47.2227" lon="-1.58337">
        <ele>13</ele>
        <time>2011-01-09T09:28:35Z</time>
      </trkpt>
      <trkpt lat="47.22271" lon="-1.58336">
        <ele>13</ele>
        <time>2011-01-09T09:28:36Z</time>
      </trkpt>
      <trkpt lat="47.22273" lon="-1.58331">
        <ele>13</ele>
        <time>2011-01-09T09:28:39Z</time>
      </trkpt>
      <trkpt lat="47.22274" lon="-1.58331">
        <ele>13</ele>
        <time>2011-01-09T09:28:40Z</time>
      </trkpt>
      <trkpt lat="47.22274" lon="-1.5833">
        <ele>13</ele>
        <time>2011-01-09T09:28:41Z</time>
      </trkpt>
      <trkpt lat="47.22275" lon="-1.58328">
        <ele>13</ele>
        <time>2011-01-09T09:28:42Z</time>
      </trkpt>
      <trkpt lat="47.22275" lon="-1.58327">
        <ele>13</ele>
        <time>2011-01-09T09:28:43Z</time>
      </trkpt>
      <trkpt lat="47.22276" lon="-1.58326">
        <ele>13</ele>
        <time>2011-01-09T09:28:44Z</time>
      </trkpt>
      <trkpt lat="47.22275" lon="-1.58319">
        <ele>13</ele>
        <time>2011-01-09T09:28:48Z</time>
      </trkpt>
      <trkpt lat="47.22276" lon="-1.58317">
        <ele>14</ele>
        <time>2011-01-09T09:28:49Z</time>
      </trkpt>
      <trkpt lat="47.22278" lon="-1.58316">
        <ele>14</ele>
        <time>2011-01-09T09:28:50Z</time>
      </trkpt>
      <trkpt lat="47.22281" lon="-1.58315">
        <ele>14</ele>
        <time>2011-01-09T09:28:51Z</time>
      </trkpt>
      <trkpt lat="47.22284" lon="-1.58314">
        <ele>14</ele>
        <time>2011-01-09T09:28:52Z</time>
      </trkpt>
      <trkpt lat="47.22285" lon="-1.58312">
        <ele>14</ele>
        <time>2011-01-09T09:28:53Z</time>
      </trkpt>
      <trkpt lat="47.22283" lon="-1.58304">
        <ele>14</ele>
        <time>2011-01-09T09:28:58Z</time>
      </trkpt>
      <trkpt lat="47.22282" lon="-1.58302">
        <ele>14</ele>
        <time>2011-01-09T09:28:59Z</time>
      </trkpt>
      <trkpt lat="47.22282" lon="-1.583">
        <ele>14</ele>
        <time>2011-01-09T09:29:00Z</time>
      </trkpt>
      <trkpt lat="47.22281" lon="-1.58298">
        <ele>14</ele>
        <time>2011-01-09T09:29:01Z</time>
      </trkpt>
      <trkpt lat="47.22282" lon="-1.58297">
        <ele>14</ele>
        <time>2011-01-09T09:29:02Z</time>
      </trkpt>
      <trkpt lat="47.22281" lon="-1.58295">
        <ele>14</ele>
        <time>2011-01-09T09:29:03Z</time>
      </trkpt>
      <trkpt lat="47.2228" lon="-1.58293">
        <ele>14</ele>
        <time>2011-01-09T09:29:04Z</time>
      </trkpt>
      <trkpt lat="47.2228" lon="-1.58291">
        <ele>14</ele>
        <time>2011-01-09T09:29:05Z</time>
      </trkpt>
      <trkpt lat="47.22281" lon="-1.5829">
        <ele>14</ele>
        <time>2011-01-09T09:29:06Z</time>
      </trkpt>
      <trkpt lat="47.2228" lon="-1.58279">
        <ele>14</ele>
        <time>2011-01-09T09:29:13Z</time>
      </trkpt>
      <trkpt lat="47.2228" lon="-1.58278">
        <ele>14</ele>
        <time>2011-01-09T09:29:14Z</time>
      </trkpt>
      <trkpt lat="47.2228" lon="-1.58276">
        <ele>14</ele>
        <time>2011-01-09T09:29:15Z</time>
      </trkpt>
      <trkpt lat="47.22286" lon="-1.58232">
        <ele>15</ele>
        <time>2011-01-09T09:29:58Z</time>
      </trkpt>
      <trkpt lat="47.22285" lon="-1.5823">
        <ele>15</ele>
        <time>2011-01-09T09:29:59Z</time>
      </trkpt>
      <trkpt lat="47.22283" lon="-1.58224">
        <ele>15</ele>
        <time>2011-01-09T09:30:02Z</time>
      </trkpt>
      <trkpt lat="47.22283" lon="-1.58222">
        <ele>15</ele>
        <time>2011-01-09T09:30:03Z</time>
      </trkpt>
      <trkpt lat="47.22281" lon="-1.58217">
        <ele>15</ele>
        <time>2011-01-09T09:30:06Z</time>
      </trkpt>
      <trkpt lat="47.22281" lon="-1.58215">
        <ele>15</ele>
        <time>2011-01-09T09:30:07Z</time>
      </trkpt>
      <trkpt lat="47.22281" lon="-1.58214">
        <ele>15</ele>
        <time>2011-01-09T09:30:08Z</time>
      </trkpt>
      <trkpt lat="47.2228" lon="-1.58213">
        <ele>15</ele>
        <time>2011-01-09T09:30:09Z</time>
      </trkpt>
      <trkpt lat="47.2228" lon="-1.58211">
        <ele>15</ele>
        <time>2011-01-09T09:30:10Z</time>
      </trkpt>
      <trkpt lat="47.22281" lon="-1.58209">
        <ele>15</ele>
        <time>2011-01-09T09:30:11Z</time>
      </trkpt>
      <trkpt lat="47.2228" lon="-1.58208">
        <ele>15</ele>
        <time>2011-01-09T09:30:12Z</time>
      </trkpt>
      <trkpt lat="47.22279" lon="-1.58207">
        <ele>15</ele>
        <time>2011-01-09T09:30:13Z</time>
      </trkpt>
      <trkpt lat="47.22278" lon="-1.58206">
        <ele>15</ele>
        <time>2011-01-09T09:30:14Z</time>
      </trkpt>
      <trkpt lat="47.22278" lon="-1.58204">
        <ele>15</ele>
        <time>2011-01-09T09:30:15Z</time>
      </trkpt>
      <trkpt lat="47.22277" lon="-1.582">
        <ele>15</ele>
        <time>2011-01-09T09:30:18Z</time>
      </trkpt>
      <trkpt lat="47.22277" lon="-1.58199">
        <ele>15</ele>
        <time>2011-01-09T09:30:19Z</time>
      </trkpt>
      <trkpt lat="47.22277" lon="-1.58197">
        <ele>15</ele>
        <time>2011-01-09T09:30:20Z</time>
      </trkpt>
      <trkpt lat="47.22277" lon="-1.58196">
        <ele>15</ele>
        <time>2011-01-09T09:30:21Z</time>
      </trkpt>
      <trkpt lat="47.22277" lon="-1.58194">
        <ele>15</ele>
        <time>2011-01-09T09:30:22Z</time>
      </trkpt>
      <trkpt lat="47.22277" lon="-1.58192">
        <ele>15</ele>
        <time>2011-01-09T09:30:23Z</time>
      </trkpt>
      <trkpt lat="47.22277" lon="-1.58191">
        <ele>15</ele>
        <time>2011-01-09T09:30:24Z</time>
      </trkpt>
      <trkpt lat="47.22277" lon="-1.58189">
        <ele>15</ele>
        <time>2011-01-09T09:30:25Z</time>
      </trkpt>
      <trkpt lat="47.22278" lon="-1.58185">
        <ele>15</ele>
        <time>2011-01-09T09:30:28Z</time>
      </trkpt>
      <trkpt lat="47.22279" lon="-1.58183">
        <ele>15</ele>
        <time>2011-01-09T09:30:29Z</time>
      </trkpt>
      <trkpt lat="47.22283" lon="-1.58177">
        <ele>15</ele>
        <time>2011-01-09T09:30:32Z</time>
      </trkpt>
      <trkpt lat="47.22285" lon="-1.58175">
        <ele>15</ele>
        <time>2011-01-09T09:30:33Z</time>
      </trkpt>
      <trkpt lat="47.22284" lon="-1.58174">
        <ele>15</ele>
        <time>2011-01-09T09:30:34Z</time>
      </trkpt>
      <trkpt lat="47.22284" lon="-1.58173">
        <ele>15</ele>
        <time>2011-01-09T09:30:35Z</time>
      </trkpt>
      <trkpt lat="47.22283" lon="-1.58172">
        <ele>15</ele>
        <time>2011-01-09T09:30:36Z</time>
      </trkpt>
      <trkpt lat="47.22283" lon="-1.58173">
        <ele>15</ele>
        <time>2011-01-09T09:30:37Z</time>
      </trkpt>
      <trkpt lat="47.22284" lon="-1.58172">
        <ele>15</ele>
        <time>2011-01-09T09:30:38Z</time>
      </trkpt>
      <trkpt lat="47.22284" lon="-1.58172">
        <ele>15</ele>
        <time>2011-01-09T09:30:39Z</time>
      </trkpt>
      <trkpt lat="47.22285" lon="-1.58171">
        <ele>15</ele>
        <time>2011-01-09T09:30:40Z</time>
      </trkpt>
      <trkpt lat="47.22286" lon="-1.5817">
        <ele>15</ele>
        <time>2011-01-09T09:30:41Z</time>
      </trkpt>
      <trkpt lat="47.22288" lon="-1.5817">
        <ele>15</ele>
        <time>2011-01-09T09:30:42Z</time>
      </trkpt>
      <trkpt lat="47.22288" lon="-1.58169">
        <ele>15</ele>
        <time>2011-01-09T09:30:43Z</time>
      </trkpt>
      <trkpt lat="47.22289" lon="-1.58168">
        <ele>15</ele>
        <time>2011-01-09T09:30:44Z</time>
      </trkpt>
      <trkpt lat="47.22274" lon="-1.58147">
        <ele>16</ele>
        <time>2011-01-09T09:31:09Z</time>
      </trkpt>
      <trkpt lat="47.22273" lon="-1.58146">
        <ele>16</ele>
        <time>2011-01-09T09:31:10Z</time>
      </trkpt>
      <trkpt lat="47.22273" lon="-1.58144">
        <ele>16</ele>
        <time>2011-01-09T09:31:11Z</time>
      </trkpt>
      <trkpt lat="47.22272" lon="-1.58138">
        <ele>16</ele>
        <time>2011-01-09T09:31:16Z</time>
      </trkpt>
      <trkpt lat="47.22269" lon="-1.58127">
        <ele>16</ele>
        <time>2011-01-09T09:31:23Z</time>
      </trkpt>
      <trkpt lat="47.22269" lon="-1.58125">
        <ele>16</ele>
        <time>2011-01-09T09:31:24Z</time>
      </trkpt>
      <trkpt lat="47.22271" lon="-1.58119">
        <ele>16</ele>
        <time>2011-01-09T09:31:29Z</time>
      </trkpt>
      <trkpt lat="47.22276" lon="-1.58108">
        <ele>16</ele>
        <time>2011-01-09T09:31:38Z</time>
      </trkpt>
      <trkpt lat="47.22277" lon="-1.58107">
        <ele>17</ele>
        <time>2011-01-09T09:31:39Z</time>
      </trkpt>
      <trkpt lat="47.22275" lon="-1.58047">
        <ele>19</ele>
        <time>2011-01-09T09:32:27Z</time>
      </trkpt>
      <trkpt lat="47.22276" lon="-1.58049">
        <ele>19</ele>
        <time>2011-01-09T09:32:28Z</time>
      </trkpt>
      <trkpt lat="47.22276" lon="-1.58051">
        <ele>19</ele>
        <time>2011-01-09T09:32:29Z</time>
      </trkpt>
      <trkpt lat="47.22278" lon="-1.58051">
        <ele>20</ele>
        <time>2011-01-09T09:32:30Z</time>
      </trkpt>
      <trkpt lat="47.22274" lon="-1.58063">
        <ele>19</ele>
        <time>2011-01-09T09:32:36Z</time>
      </trkpt>
      <trkpt lat="47.22273" lon="-1.58065">
        <ele>19</ele>
        <time>2011-01-09T09:32:37Z</time>
      </trkpt>
      <trkpt lat="47.22275" lon="-1.58066">
        <ele>19</ele>
        <time>2011-01-09T09:32:38Z</time>
      </trkpt>
      <trkpt lat="47.22276" lon="-1.58066">
        <ele>19</ele>
        <time>2011-01-09T09:32:39Z</time>
      </trkpt>
      <trkpt lat="47.22275" lon="-1.58069">
        <ele>19</ele>
        <time>2011-01-09T09:32:40Z</time>
      </trkpt>
      <trkpt lat="47.22273" lon="-1.58079">
        <ele>18</ele>
        <time>2011-01-09T09:32:44Z</time>
      </trkpt>
      <trkpt lat="47.22274" lon="-1.5808">
        <ele>18</ele>
        <time>2011-01-09T09:32:45Z</time>
      </trkpt>
      <trkpt lat="47.22295" lon="-1.58113">
        <ele>17</ele>
        <time>2011-01-09T09:33:21Z</time>
      </trkpt>
      <trkpt lat="47.22295" lon="-1.58115">
        <ele>17</ele>
        <time>2011-01-09T09:33:22Z</time>
      </trkpt>
      <trkpt lat="47.22296" lon="-1.58116">
        <ele>17</ele>
        <time>2011-01-09T09:33:23Z</time>
      </trkpt>
      <trkpt lat="47.22296" lon="-1.58118">
        <ele>17</ele>
        <time>2011-01-09T09:33:24Z</time>
      </trkpt>
      <trkpt lat="47.22296" lon="-1.58119">
        <ele>17</ele>
        <time>2011-01-09T09:33:25Z</time>
      </trkpt>
      <trkpt lat="47.22297" lon="-1.5812">
        <ele>17</ele>
        <time>2011-01-09T09:33:26Z</time>
      </trkpt>
      <trkpt lat="47.22297" lon="-1.58121">
        <ele>17</ele>
        <time>2011-01-09T09:33:27Z</time>
      </trkpt>
      <trkpt lat="47.22296" lon="-1.58134">
        <ele>17</ele>
        <time>2011-01-09T09:33:36Z</time>
      </trkpt>
      <trkpt lat="47.22296" lon="-1.58135">
        <ele>17</ele>
        <time>2011-01-09T09:33:37Z</time>
      </trkpt>
      <trkpt lat="47.22296" lon="-1.58136">
        <ele>17</ele>
        <time>2011-01-09T09:33:38Z</time>
      </trkpt>
      <trkpt lat="47.22296" lon="-1.58138">
        <ele>17</ele>
        <time>2011-01-09T09:33:39Z</time>
      </trkpt>
      <trkpt lat="47.22296" lon="-1.58139">
        <ele>17</ele>
        <time>2011-01-09T09:33:40Z</time>
      </trkpt>
      <trkpt lat="47.22297" lon="-1.58141">
        <ele>17</ele>
        <time>2011-01-09T09:33:41Z</time>
      </trkpt>
      <trkpt lat="47.22301" lon="-1.58156">
        <ele>17</ele>
        <time>2011-01-09T09:33:51Z</time>
      </trkpt>
      <trkpt lat="47.22304" lon="-1.58154">
        <ele>17</ele>
        <time>2011-01-09T09:33:52Z</time>
      </trkpt>
      <trkpt lat="47.22331" lon="-1.58148">
        <ele>18</ele>
        <time>2011-01-09T09:34:15Z</time>
      </trkpt>
      <trkpt lat="47.22333" lon="-1.58149">
        <ele>18</ele>
        <time>2011-01-09T09:34:16Z</time>
      </trkpt>
      <trkpt lat="47.22336" lon="-1.58149">
        <ele>20</ele>
        <time>2011-01-09T09:34:17Z</time>
      </trkpt>
      <trkpt lat="47.22339" lon="-1.58149">
        <ele>20</ele>
        <time>2011-01-09T09:34:18Z</time>
      </trkpt>
      <trkpt lat="47.22339" lon="-1.5815">
        <ele>20</ele>
        <time>2011-01-09T09:34:19Z</time>
      </trkpt>
      <trkpt lat="47.2234" lon="-1.5815">
        <ele>20</ele>
        <time>2011-01-09T09:34:20Z</time>
      </trkpt>
      <trkpt lat="47.2234" lon="-1.58151">
        <ele>20</ele>
        <time>2011-01-09T09:34:21Z</time>
      </trkpt>
      <trkpt lat="47.2234" lon="-1.58153">
        <ele>20</ele>
        <time>2011-01-09T09:34:22Z</time>
      </trkpt>
      <trkpt lat="47.2234" lon="-1.58154">
        <ele>20</ele>
        <time>2011-01-09T09:34:23Z</time>
      </trkpt>
      <trkpt lat="47.2234" lon="-1.58155">
        <ele>20</ele>
        <time>2011-01-09T09:34:24Z</time>
      </trkpt>
      <trkpt lat="47.22341" lon="-1.58156">
        <ele>20</ele>
        <time>2011-01-09T09:34:25Z</time>
      </trkpt>
      <trkpt lat="47.22341" lon="-1.58157">
        <ele>20</ele>
        <time>2011-01-09T09:34:26Z</time>
      </trkpt>
      <trkpt lat="47.22342" lon="-1.58158">
        <ele>20</ele>
        <time>2011-01-09T09:34:27Z</time>
      </trkpt>
      <trkpt lat="47.22344" lon="-1.58168">
        <ele>19</ele>
        <time>2011-01-09T09:34:34Z</time>
      </trkpt>
      <trkpt lat="47.22345" lon="-1.58169">
        <ele>19</ele>
        <time>2011-01-09T09:34:35Z</time>
      </trkpt>
      <trkpt lat="47.22348" lon="-1.58173">
        <ele>19</ele>
        <time>2011-01-09T09:34:38Z</time>
      </trkpt>
      <trkpt lat="47.22348" lon="-1.58174">
        <ele>19</ele>
        <time>2011-01-09T09:34:39Z</time>
      </trkpt>
      <trkpt lat="47.22348" lon="-1.58176">
        <ele>19</ele>
        <time>2011-01-09T09:34:40Z</time>
      </trkpt>
      <trkpt lat="47.22348" lon="-1.58177">
        <ele>19</ele>
        <time>2011-01-09T09:34:41Z</time>
      </trkpt>
      <trkpt lat="47.22349" lon="-1.58179">
        <ele>19</ele>
        <time>2011-01-09T09:34:42Z</time>
      </trkpt>
      <trkpt lat="47.2235" lon="-1.58181">
        <ele>20</ele>
        <time>2011-01-09T09:34:43Z</time>
      </trkpt>
      <trkpt lat="47.22351" lon="-1.58181">
        <ele>20</ele>
        <time>2011-01-09T09:34:44Z</time>
      </trkpt>
      <trkpt lat="47.22352" lon="-1.58182">
        <ele>20</ele>
        <time>2011-01-09T09:34:45Z</time>
      </trkpt>
      <trkpt lat="47.22354" lon="-1.58183">
        <ele>20</ele>
        <time>2011-01-09T09:34:47Z</time>
      </trkpt>
      <trkpt lat="47.22355" lon="-1.58184">
        <ele>20</ele>
        <time>2011-01-09T09:34:48Z</time>
      </trkpt>
      <trkpt lat="47.22356" lon="-1.58185">
        <ele>20</ele>
        <time>2011-01-09T09:34:49Z</time>
      </trkpt>
      <trkpt lat="47.22356" lon="-1.58186">
        <ele>20</ele>
        <time>2011-01-09T09:34:50Z</time>
      </trkpt>
      <trkpt lat="47.22357" lon="-1.58188">
        <ele>20</ele>
        <time>2011-01-09T09:34:51Z</time>
      </trkpt>
      <trkpt lat="47.22358" lon="-1.58189">
        <ele>20</ele>
        <time>2011-01-09T09:34:52Z</time>
      </trkpt>
      <trkpt lat="47.22358" lon="-1.58191">
        <ele>20</ele>
        <time>2011-01-09T09:34:53Z</time>
      </trkpt>
      <trkpt lat="47.22359" lon="-1.58192">
        <ele>20</ele>
        <time>2011-01-09T09:34:54Z</time>
      </trkpt>
      <trkpt lat="47.22363" lon="-1.58201">
        <ele>20</ele>
        <time>2011-01-09T09:35:01Z</time>
      </trkpt>
      <trkpt lat="47.22364" lon="-1.58202">
        <ele>20</ele>
        <time>2011-01-09T09:35:02Z</time>
      </trkpt>
      <trkpt lat="47.22364" lon="-1.58204">
        <ele>20</ele>
        <time>2011-01-09T09:35:03Z</time>
      </trkpt>
      <trkpt lat="47.22363" lon="-1.58206">
        <ele>20</ele>
        <time>2011-01-09T09:35:04Z</time>
      </trkpt>
      <trkpt lat="47.22364" lon="-1.58207">
        <ele>20</ele>
        <time>2011-01-09T09:35:05Z</time>
      </trkpt>
      <trkpt lat="47.22363" lon="-1.58209">
        <ele>20</ele>
        <time>2011-01-09T09:35:06Z</time>
      </trkpt>
      <trkpt lat="47.22364" lon="-1.5821">
        <ele>20</ele>
        <time>2011-01-09T09:35:07Z</time>
      </trkpt>
      <trkpt lat="47.22365" lon="-1.58211">
        <ele>20</ele>
        <time>2011-01-09T09:35:08Z</time>
      </trkpt>
      <trkpt lat="47.22364" lon="-1.58226">
        <ele>20</ele>
        <time>2011-01-09T09:35:13Z</time>
      </trkpt>
      <trkpt lat="47.22366" lon="-1.58225">
        <ele>20</ele>
        <time>2011-01-09T09:35:14Z</time>
      </trkpt>
      <trkpt lat="47.22367" lon="-1.58225">
        <ele>20</ele>
        <time>2011-01-09T09:35:15Z</time>
      </trkpt>
      <trkpt lat="47.22369" lon="-1.58224">
        <ele>20</ele>
        <time>2011-01-09T09:35:16Z</time>
      </trkpt>
      <trkpt lat="47.2237" lon="-1.58225">
        <ele>20</ele>
        <time>2011-01-09T09:35:17Z</time>
      </trkpt>
      <trkpt lat="47.22371" lon="-1.58227">
        <ele>20</ele>
        <time>2011-01-09T09:35:18Z</time>
      </trkpt>
      <trkpt lat="47.22371" lon="-1.58229">
        <ele>20</ele>
        <time>2011-01-09T09:35:19Z</time>
      </trkpt>
      <trkpt lat="47.22372" lon="-1.5823">
        <ele>20</ele>
        <time>2011-01-09T09:35:20Z</time>
      </trkpt>
      <trkpt lat="47.22373" lon="-1.5823">
        <ele>20</ele>
        <time>2011-01-09T09:35:21Z</time>
      </trkpt>
      <trkpt lat="47.22375" lon="-1.58231">
        <ele>20</ele>
        <time>2011-01-09T09:35:22Z</time>
      </trkpt>
      <trkpt lat="47.22377" lon="-1.5823">
        <ele>21</ele>
        <time>2011-01-09T09:35:23Z</time>
      </trkpt>
      <trkpt lat="47.22378" lon="-1.5823">
        <ele>21</ele>
        <time>2011-01-09T09:35:24Z</time>
      </trkpt>
      <trkpt lat="47.22379" lon="-1.5823">
        <ele>21</ele>
        <time>2011-01-09T09:35:25Z</time>
      </trkpt>
      <trkpt lat="47.2238" lon="-1.5823">
        <ele>21</ele>
        <time>2011-01-09T09:35:26Z</time>
      </trkpt>
      <trkpt lat="47.22385" lon="-1.58233">
        <ele>21</ele>
        <time>2011-01-09T09:35:29Z</time>
      </trkpt>
      <trkpt lat="47.22386" lon="-1.58234">
        <ele>21</ele>
        <time>2011-01-09T09:35:30Z</time>
      </trkpt>
      <trkpt lat="47.22391" lon="-1.58245">
        <ele>21</ele>
        <time>2011-01-09T09:35:39Z</time>
      </trkpt>
      <trkpt lat="47.22392" lon="-1.58246">
        <ele>21</ele>
        <time>2011-01-09T09:35:40Z</time>
      </trkpt>
      <trkpt lat="47.22393" lon="-1.58247">
        <ele>21</ele>
        <time>2011-01-09T09:35:41Z</time>
      </trkpt>
      <trkpt lat="47.22395" lon="-1.58248">
        <ele>21</ele>
        <time>2011-01-09T09:35:42Z</time>
      </trkpt>
      <trkpt lat="47.22396" lon="-1.58249">
        <ele>21</ele>
        <time>2011-01-09T09:35:43Z</time>
      </trkpt>
      <trkpt lat="47.22397" lon="-1.5825">
        <ele>21</ele>
        <time>2011-01-09T09:35:44Z</time>
      </trkpt>
      <trkpt lat="47.22398" lon="-1.58251">
        <ele>20</ele>
        <time>2011-01-09T09:35:45Z</time>
      </trkpt>
      <trkpt lat="47.22399" lon="-1.58252">
        <ele>20</ele>
        <time>2011-01-09T09:35:46Z</time>
      </trkpt>
      <trkpt lat="47.22399" lon="-1.58253">
        <ele>20</ele>
        <time>2011-01-09T09:35:47Z</time>
      </trkpt>
      <trkpt lat="47.224" lon="-1.58253">
        <ele>20</ele>
        <time>2011-01-09T09:35:48Z</time>
      </trkpt>
      <trkpt lat="47.224" lon="-1.58254">
        <ele>20</ele>
        <time>2011-01-09T09:35:49Z</time>
      </trkpt>
      <trkpt lat="47.22402" lon="-1.58256">
        <ele>20</ele>
        <time>2011-01-09T09:35:50Z</time>
      </trkpt>
      <trkpt lat="47.22403" lon="-1.58258">
        <ele>20</ele>
        <time>2011-01-09T09:35:51Z</time>
      </trkpt>
      <trkpt lat="47.22404" lon="-1.58259">
        <ele>20</ele>
        <time>2011-01-09T09:35:52Z</time>
      </trkpt>
      <trkpt lat="47.22404" lon="-1.58261">
        <ele>20</ele>
        <time>2011-01-09T09:35:53Z</time>
      </trkpt>
      <trkpt lat="47.22405" lon="-1.58262">
        <ele>20</ele>
        <time>2011-01-09T09:35:54Z</time>
      </trkpt>
      <trkpt lat="47.2241" lon="-1.58269">
        <ele>20</ele>
        <time>2011-01-09T09:36:01Z</time>
      </trkpt>
      <trkpt lat="47.2241" lon="-1.58271">
        <ele>20</ele>
        <time>2011-01-09T09:36:02Z</time>
      </trkpt>
      <trkpt lat="47.2241" lon="-1.58273">
        <ele>20</ele>
        <time>2011-01-09T09:36:03Z</time>
      </trkpt>
      <trkpt lat="47.2241" lon="-1.58274">
        <ele>20</ele>
        <time>2011-01-09T09:36:04Z</time>
      </trkpt>
      <trkpt lat="47.22409" lon="-1.58275">
        <ele>20</ele>
        <time>2011-01-09T09:36:05Z</time>
      </trkpt>
      <trkpt lat="47.22408" lon="-1.58276">
        <ele>20</ele>
        <time>2011-01-09T09:36:06Z</time>
      </trkpt>
      <trkpt lat="47.22408" lon="-1.58277">
        <ele>20</ele>
        <time>2011-01-09T09:36:07Z</time>
      </trkpt>
      <trkpt lat="47.2241" lon="-1.58277">
        <ele>20</ele>
        <time>2011-01-09T09:36:08Z</time>
      </trkpt>
      <trkpt lat="47.2241" lon="-1.58278">
        <ele>20</ele>
        <time>2011-01-09T09:36:09Z</time>
      </trkpt>
      <trkpt lat="47.2241" lon="-1.58279">
        <ele>20</ele>
        <time>2011-01-09T09:36:10Z</time>
      </trkpt>
      <trkpt lat="47.22411" lon="-1.58281">
        <ele>20</ele>
        <time>2011-01-09T09:36:11Z</time>
      </trkpt>
      <trkpt lat="47.22412" lon="-1.58283">
        <ele>20</ele>
        <time>2011-01-09T09:36:12Z</time>
      </trkpt>
      <trkpt lat="47.22412" lon="-1.58286">
        <ele>20</ele>
        <time>2011-01-09T09:36:13Z</time>
      </trkpt>
      <trkpt lat="47.22413" lon="-1.58287">
        <ele>20</ele>
        <time>2011-01-09T09:36:14Z</time>
      </trkpt>
      <trkpt lat="47.22413" lon="-1.58289">
        <ele>20</ele>
        <time>2011-01-09T09:36:15Z</time>
      </trkpt>
      <trkpt lat="47.22414" lon="-1.5829">
        <ele>20</ele>
        <time>2011-01-09T09:36:16Z</time>
      </trkpt>
      <trkpt lat="47.22418" lon="-1.583">
        <ele>22</ele>
        <time>2011-01-09T09:36:23Z</time>
      </trkpt>
      <trkpt lat="47.22418" lon="-1.58303">
        <ele>22</ele>
        <time>2011-01-09T09:36:25Z</time>
      </trkpt>
      <trkpt lat="47.22419" lon="-1.58305">
        <ele>22</ele>
        <time>2011-01-09T09:36:26Z</time>
      </trkpt>
      <trkpt lat="47.22418" lon="-1.58313">
        <ele>22</ele>
        <time>2011-01-09T09:36:29Z</time>
      </trkpt>
      <trkpt lat="47.22417" lon="-1.58316">
        <ele>22</ele>
        <time>2011-01-09T09:36:30Z</time>
      </trkpt>
      <trkpt lat="47.22416" lon="-1.58319">
        <ele>20</ele>
        <time>2011-01-09T09:36:31Z</time>
      </trkpt>
      <trkpt lat="47.22416" lon="-1.58321">
        <ele>20</ele>
        <time>2011-01-09T09:36:32Z</time>
      </trkpt>
      <trkpt lat="47.22417" lon="-1.58323">
        <ele>22</ele>
        <time>2011-01-09T09:36:33Z</time>
      </trkpt>
      <trkpt lat="47.22417" lon="-1.58324">
        <ele>22</ele>
        <time>2011-01-09T09:36:34Z</time>
      </trkpt>
      <trkpt lat="47.22421" lon="-1.58355">
        <ele>22</ele>
        <time>2011-01-09T09:36:58Z</time>
      </trkpt>
      <trkpt lat="47.22421" lon="-1.58357">
        <ele>22</ele>
        <time>2011-01-09T09:36:59Z</time>
      </trkpt>
      <trkpt lat="47.22421" lon="-1.58359">
        <ele>22</ele>
        <time>2011-01-09T09:37:00Z</time>
      </trkpt>
      <trkpt lat="47.2242" lon="-1.58361">
        <ele>22</ele>
        <time>2011-01-09T09:37:01Z</time>
      </trkpt>
      <trkpt lat="47.22421" lon="-1.58362">
        <ele>22</ele>
        <time>2011-01-09T09:37:02Z</time>
      </trkpt>
      <trkpt lat="47.2242" lon="-1.58364">
        <ele>22</ele>
        <time>2011-01-09T09:37:03Z</time>
      </trkpt>
      <trkpt lat="47.22414" lon="-1.58375">
        <ele>19</ele>
        <time>2011-01-09T09:37:19Z</time>
      </trkpt>
      <trkpt lat="47.22414" lon="-1.58376">
        <ele>19</ele>
        <time>2011-01-09T09:37:20Z</time>
      </trkpt>
      <trkpt lat="47.22414" lon="-1.58378">
        <ele>19</ele>
        <time>2011-01-09T09:37:21Z</time>
      </trkpt>
      <trkpt lat="47.22414" lon="-1.58379">
        <ele>19</ele>
        <time>2011-01-09T09:37:22Z</time>
      </trkpt>
      <trkpt lat="47.22414" lon="-1.58379">
        <ele>19</ele>
        <time>2011-01-09T09:37:23Z</time>
      </trkpt>
      <trkpt lat="47.22414" lon="-1.5838">
        <ele>19</ele>
        <time>2011-01-09T09:37:24Z</time>
      </trkpt>
      <trkpt lat="47.22414" lon="-1.5838">
        <ele>19</ele>
        <time>2011-01-09T09:37:25Z</time>
      </trkpt>
      <trkpt lat="47.22413" lon="-1.58381">
        <ele>18</ele>
        <time>2011-01-09T09:37:26Z</time>
      </trkpt>
      <trkpt lat="47.22412" lon="-1.58381">
        <ele>18</ele>
        <time>2011-01-09T09:37:27Z</time>
      </trkpt>
      <trkpt lat="47.22411" lon="-1.58382">
        <ele>18</ele>
        <time>2011-01-09T09:37:28Z</time>
      </trkpt>
      <trkpt lat="47.22411" lon="-1.58382">
        <ele>18</ele>
        <time>2011-01-09T09:37:29Z</time>
      </trkpt>
      <trkpt lat="47.22412" lon="-1.58382">
        <ele>18</ele>
        <time>2011-01-09T09:37:30Z</time>
      </trkpt>
      <trkpt lat="47.22412" lon="-1.58382">
        <ele>18</ele>
        <time>2011-01-09T09:37:31Z</time>
      </trkpt>
      <trkpt lat="47.22411" lon="-1.58381">
        <ele>18</ele>
        <time>2011-01-09T09:37:32Z</time>
      </trkpt>
      <trkpt lat="47.22396" lon="-1.58393">
        <ele>18</ele>
        <time>2011-01-09T09:38:09Z</time>
      </trkpt>
      <trkpt lat="47.22394" lon="-1.58394">
        <ele>18</ele>
        <time>2011-01-09T09:38:10Z</time>
      </trkpt>
      <trkpt lat="47.22394" lon="-1.58395">
        <ele>18</ele>
        <time>2011-01-09T09:38:11Z</time>
      </trkpt>
      <trkpt lat="47.22394" lon="-1.58396">
        <ele>18</ele>
        <time>2011-01-09T09:38:12Z</time>
      </trkpt>
      <trkpt lat="47.22394" lon="-1.58398">
        <ele>18</ele>
        <time>2011-01-09T09:38:13Z</time>
      </trkpt>
      <trkpt lat="47.22393" lon="-1.584">
        <ele>18</ele>
        <time>2011-01-09T09:38:14Z</time>
      </trkpt>
      <trkpt lat="47.22391" lon="-1.58402">
        <ele>18</ele>
        <time>2011-01-09T09:38:15Z</time>
      </trkpt>
      <trkpt lat="47.22389" lon="-1.58403">
        <ele>18</ele>
        <time>2011-01-09T09:38:16Z</time>
      </trkpt>
      <trkpt lat="47.22388" lon="-1.58404">
        <ele>18</ele>
        <time>2011-01-09T09:38:17Z</time>
      </trkpt>
      <trkpt lat="47.22386" lon="-1.58407">
        <ele>18</ele>
        <time>2011-01-09T09:38:20Z</time>
      </trkpt>
      <trkpt lat="47.22385" lon="-1.58407">
        <ele>18</ele>
        <time>2011-01-09T09:38:21Z</time>
      </trkpt>
      <trkpt lat="47.22385" lon="-1.58409">
        <ele>18</ele>
        <time>2011-01-09T09:38:22Z</time>
      </trkpt>
      <trkpt lat="47.22386" lon="-1.58409">
        <ele>18</ele>
        <time>2011-01-09T09:38:23Z</time>
      </trkpt>
      <trkpt lat="47.22387" lon="-1.58408">
        <ele>18</ele>
        <time>2011-01-09T09:38:24Z</time>
      </trkpt>
      <trkpt lat="47.22386" lon="-1.58408">
        <ele>18</ele>
        <time>2011-01-09T09:38:25Z</time>
      </trkpt>
      <trkpt lat="47.22386" lon="-1.58408">
        <ele>18</ele>
        <time>2011-01-09T09:38:26Z</time>
      </trkpt>
      <trkpt lat="47.22386" lon="-1.58409">
        <ele>18</ele>
        <time>2011-01-09T09:38:27Z</time>
      </trkpt>
      <trkpt lat="47.22388" lon="-1.58409">
        <ele>18</ele>
        <time>2011-01-09T09:38:28Z</time>
      </trkpt>
      <trkpt lat="47.22388" lon="-1.58409">
        <ele>18</ele>
        <time>2011-01-09T09:38:29Z</time>
      </trkpt>
      <trkpt lat="47.22388" lon="-1.5841">
        <ele>18</ele>
        <time>2011-01-09T09:38:30Z</time>
      </trkpt>
      <trkpt lat="47.22387" lon="-1.5841">
        <ele>18</ele>
        <time>2011-01-09T09:38:31Z</time>
      </trkpt>
      <trkpt lat="47.22387" lon="-1.5841">
        <ele>18</ele>
        <time>2011-01-09T09:38:32Z</time>
      </trkpt>
      <trkpt lat="47.22386" lon="-1.58409">
        <ele>18</ele>
        <time>2011-01-09T09:38:33Z</time>
      </trkpt>
      <trkpt lat="47.22385" lon="-1.5841">
        <ele>18</ele>
        <time>2011-01-09T09:38:34Z</time>
      </trkpt>
      <trkpt lat="47.22384" lon="-1.5841">
        <ele>18</ele>
        <time>2011-01-09T09:38:35Z</time>
      </trkpt>
      <trkpt lat="47.22383" lon="-1.58409">
        <ele>18</ele>
        <time>2011-01-09T09:38:36Z</time>
      </trkpt>
      <trkpt lat="47.22383" lon="-1.58408">
        <ele>18</ele>
        <time>2011-01-09T09:38:37Z</time>
      </trkpt>
      <trkpt lat="47.22382" lon="-1.58408">
        <ele>18</ele>
        <time>2011-01-09T09:38:38Z</time>
      </trkpt>
      <trkpt lat="47.2238" lon="-1.58406">
        <ele>18</ele>
        <time>2011-01-09T09:38:39Z</time>
      </trkpt>
      <trkpt lat="47.22378" lon="-1.58404">
        <ele>18</ele>
        <time>2011-01-09T09:38:40Z</time>
      </trkpt>
      <trkpt lat="47.22377" lon="-1.58405">
        <ele>18</ele>
        <time>2011-01-09T09:38:41Z</time>
      </trkpt>
      <trkpt lat="47.22376" lon="-1.58405">
        <ele>18</ele>
        <time>2011-01-09T09:38:42Z</time>
      </trkpt>
      <trkpt lat="47.22376" lon="-1.58405">
        <ele>18</ele>
        <time>2011-01-09T09:38:43Z</time>
      </trkpt>
      <trkpt lat="47.22375" lon="-1.58404">
        <ele>18</ele>
        <time>2011-01-09T09:38:44Z</time>
      </trkpt>
      <trkpt lat="47.22375" lon="-1.58404">
        <ele>18</ele>
        <time>2011-01-09T09:38:45Z</time>
      </trkpt>
      <trkpt lat="47.22375" lon="-1.58404">
        <ele>18</ele>
        <time>2011-01-09T09:38:46Z</time>
      </trkpt>
      <trkpt lat="47.22374" lon="-1.58405">
        <ele>17</ele>
        <time>2011-01-09T09:38:47Z</time>
      </trkpt>
      <trkpt lat="47.22374" lon="-1.58405">
        <ele>17</ele>
        <time>2011-01-09T09:38:48Z</time>
      </trkpt>
      <trkpt lat="47.22373" lon="-1.58406">
        <ele>17</ele>
        <time>2011-01-09T09:38:49Z</time>
      </trkpt>
      <trkpt lat="47.22373" lon="-1.58406">
        <ele>17</ele>
        <time>2011-01-09T09:38:50Z</time>
      </trkpt>
      <trkpt lat="47.22372" lon="-1.58407">
        <ele>17</ele>
        <time>2011-01-09T09:38:51Z</time>
      </trkpt>
      <trkpt lat="47.22371" lon="-1.58408">
        <ele>17</ele>
        <time>2011-01-09T09:38:52Z</time>
      </trkpt>
      <trkpt lat="47.22371" lon="-1.58409">
        <ele>17</ele>
        <time>2011-01-09T09:38:53Z</time>
      </trkpt>
      <trkpt lat="47.22375" lon="-1.58424">
        <ele>17</ele>
        <time>2011-01-09T09:39:19Z</time>
      </trkpt>
      <trkpt lat="47.22376" lon="-1.58426">
        <ele>17</ele>
        <time>2011-01-09T09:39:20Z</time>
      </trkpt>
      <trkpt lat="47.22376" lon="-1.58427">
        <ele>17</ele>
        <time>2011-01-09T09:39:21Z</time>
      </trkpt>
      <trkpt lat="47.22376" lon="-1.58429">
        <ele>17</ele>
        <time>2011-01-09T09:39:22Z</time>
      </trkpt>
      <trkpt lat="47.22375" lon="-1.58428">
        <ele>17</ele>
        <time>2011-01-09T09:39:23Z</time>
      </trkpt>
      <trkpt lat="47.22375" lon="-1.58429">
        <ele>17</ele>
        <time>2011-01-09T09:39:24Z</time>
      </trkpt>
      <trkpt lat="47.22376" lon="-1.58428">
        <ele>17</ele>
        <time>2011-01-09T09:39:25Z</time>
      </trkpt>
      <trkpt lat="47.22376" lon="-1.58428">
        <ele>17</ele>
        <time>2011-01-09T09:39:26Z</time>
      </trkpt>
      <trkpt lat="47.22376" lon="-1.58427">
        <ele>17</ele>
        <time>2011-01-09T09:39:27Z</time>
      </trkpt>
      <trkpt lat="47.22376" lon="-1.58426">
        <ele>17</ele>
        <time>2011-01-09T09:39:28Z</time>
      </trkpt>
      <trkpt lat="47.22376" lon="-1.58426">
        <ele>17</ele>
        <time>2011-01-09T09:39:29Z</time>
      </trkpt>
      <trkpt lat="47.22375" lon="-1.58426">
        <ele>17</ele>
        <time>2011-01-09T09:39:30Z</time>
      </trkpt>
      <trkpt lat="47.22375" lon="-1.58425">
        <ele>17</ele>
        <time>2011-01-09T09:39:31Z</time>
      </trkpt>
      <trkpt lat="47.22375" lon="-1.58424">
        <ele>17</ele>
        <time>2011-01-09T09:39:32Z</time>
      </trkpt>
      <trkpt lat="47.22374" lon="-1.58423">
        <ele>17</ele>
        <time>2011-01-09T09:39:33Z</time>
      </trkpt>
      <trkpt lat="47.22373" lon="-1.58421">
        <ele>17</ele>
        <time>2011-01-09T09:39:34Z</time>
      </trkpt>
      <trkpt lat="47.22373" lon="-1.5842">
        <ele>17</ele>
        <time>2011-01-09T09:39:35Z</time>
      </trkpt>
      <trkpt lat="47.22374" lon="-1.58419">
        <ele>17</ele>
        <time>2011-01-09T09:39:36Z</time>
      </trkpt>
      <trkpt lat="47.22373" lon="-1.58418">
        <ele>17</ele>
        <time>2011-01-09T09:39:37Z</time>
      </trkpt>
      <trkpt lat="47.22373" lon="-1.58417">
        <ele>17</ele>
        <time>2011-01-09T09:39:38Z</time>
      </trkpt>
      <trkpt lat="47.22371" lon="-1.58415">
        <ele>17</ele>
        <time>2011-01-09T09:39:39Z</time>
      </trkpt>
      <trkpt lat="47.22372" lon="-1.58417">
        <ele>17</ele>
        <time>2011-01-09T09:39:40Z</time>
      </trkpt>
      <trkpt lat="47.22372" lon="-1.58417">
        <ele>17</ele>
        <time>2011-01-09T09:39:41Z</time>
      </trkpt>
      <trkpt lat="47.22373" lon="-1.58419">
        <ele>17</ele>
        <time>2011-01-09T09:39:42Z</time>
      </trkpt>
      <trkpt lat="47.22373" lon="-1.58421">
        <ele>17</ele>
        <time>2011-01-09T09:39:43Z</time>
      </trkpt>
      <trkpt lat="47.22373" lon="-1.58423">
        <ele>17</ele>
        <time>2011-01-09T09:39:44Z</time>
      </trkpt>
      <trkpt lat="47.22372" lon="-1.58422">
        <ele>17</ele>
        <time>2011-01-09T09:39:45Z</time>
      </trkpt>
      <trkpt lat="47.22371" lon="-1.58422">
        <ele>17</ele>
        <time>2011-01-09T09:39:46Z</time>
      </trkpt>
      <trkpt lat="47.22371" lon="-1.58422">
        <ele>17</ele>
        <time>2011-01-09T09:39:47Z</time>
      </trkpt>
      <trkpt lat="47.22371" lon="-1.58423">
        <ele>17</ele>
        <time>2011-01-09T09:39:48Z</time>
      </trkpt>
      <trkpt lat="47.22371" lon="-1.58423">
        <ele>17</ele>
        <time>2011-01-09T09:39:49Z</time>
      </trkpt>
      <trkpt lat="47.22371" lon="-1.58423">
        <ele>17</ele>
        <time>2011-01-09T09:39:50Z</time>
      </trkpt>
      <trkpt lat="47.22371" lon="-1.58423">
        <ele>17</ele>
        <time>2011-01-09T09:39:51Z</time>
      </trkpt>
      <trkpt lat="47.2237" lon="-1.58423">
        <ele>17</ele>
        <time>2011-01-09T09:39:52Z</time>
      </trkpt>
      <trkpt lat="47.22369" lon="-1.58422">
        <ele>16</ele>
        <time>2011-01-09T09:39:53Z</time>
      </trkpt>
      <trkpt lat="47.22368" lon="-1.58423">
        <ele>16</ele>
        <time>2011-01-09T09:39:54Z</time>
      </trkpt>
      <trkpt lat="47.22365" lon="-1.5843">
        <ele>16</ele>
        <time>2011-01-09T09:40:13Z</time>
      </trkpt>
      <trkpt lat="47.22365" lon="-1.58432">
        <ele>16</ele>
        <time>2011-01-09T09:40:14Z</time>
      </trkpt>
      <trkpt lat="47.22365" lon="-1.58432">
        <ele>16</ele>
        <time>2011-01-09T09:40:15Z</time>
      </trkpt>
      <trkpt lat="47.22365" lon="-1.58432">
        <ele>16</ele>
        <time>2011-01-09T09:40:16Z</time>
      </trkpt>
      <trkpt lat="47.22366" lon="-1.58432">
        <ele>16</ele>
        <time>2011-01-09T09:40:17Z</time>
      </trkpt>
      <trkpt lat="47.22366" lon="-1.58433">
        <ele>16</ele>
        <time>2011-01-09T09:40:18Z</time>
      </trkpt>
      <trkpt lat="47.22366" lon="-1.58433">
        <ele>16</ele>
        <time>2011-01-09T09:40:19Z</time>
      </trkpt>
      <trkpt lat="47.22366" lon="-1.58434">
        <ele>16</ele>
        <time>2011-01-09T09:40:20Z</time>
      </trkpt>
      <trkpt lat="47.22365" lon="-1.58434">
        <ele>16</ele>
        <time>2011-01-09T09:40:21Z</time>
      </trkpt>
      <trkpt lat="47.22365" lon="-1.58433">
        <ele>16</ele>
        <time>2011-01-09T09:40:22Z</time>
      </trkpt>
      <trkpt lat="47.22365" lon="-1.58433">
        <ele>16</ele>
        <time>2011-01-09T09:40:23Z</time>
      </trkpt>
      <trkpt lat="47.22365" lon="-1.5843">
        <ele>16</ele>
        <time>2011-01-09T09:40:24Z</time>
      </trkpt>
      <trkpt lat="47.22366" lon="-1.58429">
        <ele>16</ele>
        <time>2011-01-09T09:40:25Z</time>
      </trkpt>
      <trkpt lat="47.22366" lon="-1.58428">
        <ele>16</ele>
        <time>2011-01-09T09:40:26Z</time>
      </trkpt>
      <trkpt lat="47.22366" lon="-1.58427">
        <ele>16</ele>
        <time>2011-01-09T09:40:27Z</time>
      </trkpt>
      <trkpt lat="47.22366" lon="-1.58426">
        <ele>16</ele>
        <time>2011-01-09T09:40:28Z</time>
      </trkpt>
      <trkpt lat="47.22366" lon="-1.58426">
        <ele>16</ele>
        <time>2011-01-09T09:40:29Z</time>
      </trkpt>
      <trkpt lat="47.22365" lon="-1.58428">
        <ele>16</ele>
        <time>2011-01-09T09:40:30Z</time>
      </trkpt>
      <trkpt lat="47.22366" lon="-1.58427">
        <ele>16</ele>
        <time>2011-01-09T09:40:31Z</time>
      </trkpt>
      <trkpt lat="47.22366" lon="-1.58426">
        <ele>16</ele>
        <time>2011-01-09T09:40:32Z</time>
      </trkpt>
      <trkpt lat="47.22366" lon="-1.58424">
        <ele>16</ele>
        <time>2011-01-09T09:40:33Z</time>
      </trkpt>
      <trkpt lat="47.22365" lon="-1.58425">
        <ele>16</ele>
        <time>2011-01-09T09:40:34Z</time>
      </trkpt>
      <trkpt lat="47.22365" lon="-1.58424">
        <ele>16</ele>
        <time>2011-01-09T09:40:35Z</time>
      </trkpt>
      <trkpt lat="47.22365" lon="-1.58424">
        <ele>16</ele>
        <time>2011-01-09T09:40:36Z</time>
      </trkpt>
      <trkpt lat="47.22365" lon="-1.58424">
        <ele>16</ele>
        <time>2011-01-09T09:40:37Z</time>
      </trkpt>
      <trkpt lat="47.22366" lon="-1.58427">
        <ele>16</ele>
        <time>2011-01-09T09:40:51Z</time>
      </trkpt>
      <trkpt lat="47.22365" lon="-1.58428">
        <ele>16</ele>
        <time>2011-01-09T09:40:52Z</time>
      </trkpt>
      <trkpt lat="47.22364" lon="-1.58429">
        <ele>16</ele>
        <time>2011-01-09T09:40:53Z</time>
      </trkpt>
      <trkpt lat="47.22364" lon="-1.58428">
        <ele>16</ele>
        <time>2011-01-09T09:40:54Z</time>
      </trkpt>
      <trkpt lat="47.22364" lon="-1.58428">
        <ele>16</ele>
        <time>2011-01-09T09:40:55Z</time>
      </trkpt>
      <trkpt lat="47.22364" lon="-1.58427">
        <ele>16</ele>
        <time>2011-01-09T09:40:56Z</time>
      </trkpt>
      <trkpt lat="47.22363" lon="-1.58428">
        <ele>16</ele>
        <time>2011-01-09T09:40:57Z</time>
      </trkpt>
      <trkpt lat="47.22363" lon="-1.58428">
        <ele>16</ele>
        <time>2011-01-09T09:40:58Z</time>
      </trkpt>
      <trkpt lat="47.22363" lon="-1.58428">
        <ele>16</ele>
        <time>2011-01-09T09:40:59Z</time>
      </trkpt>
      <trkpt lat="47.22363" lon="-1.58427">
        <ele>16</ele>
        <time>2011-01-09T09:41:00Z</time>
      </trkpt>
      <trkpt lat="47.22363" lon="-1.58427">
        <ele>16</ele>
        <time>2011-01-09T09:41:01Z</time>
      </trkpt>
      <trkpt lat="47.22362" lon="-1.58427">
        <ele>16</ele>
        <time>2011-01-09T09:41:02Z</time>
      </trkpt>
      <trkpt lat="47.22362" lon="-1.58427">
        <ele>16</ele>
        <time>2011-01-09T09:41:03Z</time>
      </trkpt>
      <trkpt lat="47.22362" lon="-1.58427">
        <ele>16</ele>
        <time>2011-01-09T09:41:04Z</time>
      </trkpt>
      <trkpt lat="47.22362" lon="-1.58427">
        <ele>16</ele>
        <time>2011-01-09T09:41:05Z</time>
      </trkpt>
      <trkpt lat="47.22362" lon="-1.58427">
        <ele>16</ele>
        <time>2011-01-09T09:41:06Z</time>
      </trkpt>
      <trkpt lat="47.22363" lon="-1.58427">
        <ele>16</ele>
        <time>2011-01-09T09:41:07Z</time>
      </trkpt>
      <trkpt lat="47.22363" lon="-1.58428">
        <ele>16</ele>
        <time>2011-01-09T09:41:08Z</time>
      </trkpt>
      <trkpt lat="47.22363" lon="-1.58429">
        <ele>16</ele>
        <time>2011-01-09T09:41:09Z</time>
      </trkpt>
      <trkpt lat="47.22363" lon="-1.58429">
        <ele>16</ele>
        <time>2011-01-09T09:41:10Z</time>
      </trkpt>
      <trkpt lat="47.22363" lon="-1.58429">
        <ele>16</ele>
        <time>2011-01-09T09:41:11Z</time>
      </trkpt>
      <trkpt lat="47.22363" lon="-1.58429">
        <ele>16</ele>
        <time>2011-01-09T09:41:12Z</time>
      </trkpt>
      <trkpt lat="47.22363" lon="-1.58429">
        <ele>16</ele>
        <time>2011-01-09T09:41:13Z</time>
      </trkpt>
      <trkpt lat="47.22363" lon="-1.58429">
        <ele>16</ele>
        <time>2011-01-09T09:41:14Z</time>
      </trkpt>
      <trkpt lat="47.22363" lon="-1.58429">
        <ele>16</ele>
        <time>2011-01-09T09:41:15Z</time>
      </trkpt>
      <trkpt lat="47.22363" lon="-1.58429">
        <ele>16</ele>
        <time>2011-01-09T09:41:16Z</time>
      </trkpt>
      <trkpt lat="47.22363" lon="-1.5843">
        <ele>16</ele>
        <time>2011-01-09T09:41:17Z</time>
      </trkpt>
      <trkpt lat="47.22364" lon="-1.5843">
        <ele>16</ele>
        <time>2011-01-09T09:41:18Z</time>
      </trkpt>
      <trkpt lat="47.22366" lon="-1.58431">
        <ele>16</ele>
        <time>2011-01-09T09:41:19Z</time>
      </trkpt>
      <trkpt lat="47.22366" lon="-1.58432">
        <ele>16</ele>
        <time>2011-01-09T09:41:20Z</time>
      </trkpt>
      <trkpt lat="47.22367" lon="-1.58432">
        <ele>16</ele>
        <time>2011-01-09T09:41:21Z</time>
      </trkpt>
      <trkpt lat="47.22368" lon="-1.58432">
        <ele>16</ele>
        <time>2011-01-09T09:41:22Z</time>
      </trkpt>
      <trkpt lat="47.22368" lon="-1.58432">
        <ele>16</ele>
        <time>2011-01-09T09:41:23Z</time>
      </trkpt>
      <trkpt lat="47.22368" lon="-1.58432">
        <ele>16</ele>
        <time>2011-01-09T09:41:24Z</time>
      </trkpt>
      <trkpt lat="47.22369" lon="-1.58433">
        <ele>16</ele>
        <time>2011-01-09T09:41:25Z</time>
      </trkpt>
      <trkpt lat="47.22369" lon="-1.58433">
        <ele>16</ele>
        <time>2011-01-09T09:41:26Z</time>
      </trkpt>
      <trkpt lat="47.22369" lon="-1.58434">
        <ele>16</ele>
        <time>2011-01-09T09:41:27Z</time>
      </trkpt>
      <trkpt lat="47.22369" lon="-1.58435">
        <ele>16</ele>
        <time>2011-01-09T09:41:28Z</time>
      </trkpt>
      <trkpt lat="47.22369" lon="-1.58436">
        <ele>16</ele>
        <time>2011-01-09T09:41:29Z</time>
      </trkpt>
      <trkpt lat="47.22369" lon="-1.58437">
        <ele>16</ele>
        <time>2011-01-09T09:41:30Z</time>
      </trkpt>
      <trkpt lat="47.22359" lon="-1.5846">
        <ele>16</ele>
        <time>2011-01-09T09:41:56Z</time>
      </trkpt>
      <trkpt lat="47.2236" lon="-1.58463">
        <ele>16</ele>
        <time>2011-01-09T09:41:57Z</time>
      </trkpt>
      <trkpt lat="47.22361" lon="-1.58465">
        <ele>16</ele>
        <time>2011-01-09T09:41:58Z</time>
      </trkpt>
      <trkpt lat="47.22362" lon="-1.58467">
        <ele>16</ele>
        <time>2011-01-09T09:41:59Z</time>
      </trkpt>
      <trkpt lat="47.22363" lon="-1.58468">
        <ele>16</ele>
        <time>2011-01-09T09:42:00Z</time>
      </trkpt>
      <trkpt lat="47.22369" lon="-1.58478">
        <ele>16</ele>
        <time>2011-01-09T09:42:09Z</time>
      </trkpt>
      <trkpt lat="47.2237" lon="-1.58479">
        <ele>16</ele>
        <time>2011-01-09T09:42:10Z</time>
      </trkpt>
      <trkpt lat="47.2237" lon="-1.58481">
        <ele>16</ele>
        <time>2011-01-09T09:42:11Z</time>
      </trkpt>
      <trkpt lat="47.22371" lon="-1.58483">
        <ele>16</ele>
        <time>2011-01-09T09:42:12Z</time>
      </trkpt>
      <trkpt lat="47.22371" lon="-1.58486">
        <ele>16</ele>
        <time>2011-01-09T09:42:13Z</time>
      </trkpt>
      <trkpt lat="47.22372" lon="-1.58488">
        <ele>16</ele>
        <time>2011-01-09T09:42:14Z</time>
      </trkpt>
      <trkpt lat="47.22373" lon="-1.58489">
        <ele>16</ele>
        <time>2011-01-09T09:42:15Z</time>
      </trkpt>
      <trkpt lat="47.22373" lon="-1.58491">
        <ele>16</ele>
        <time>2011-01-09T09:42:16Z</time>
      </trkpt>
      <trkpt lat="47.22373" lon="-1.58494">
        <ele>16</ele>
        <time>2011-01-09T09:42:17Z</time>
      </trkpt>
      <trkpt lat="47.22374" lon="-1.58496">
        <ele>16</ele>
        <time>2011-01-09T09:42:18Z</time>
      </trkpt>
      <trkpt lat="47.22374" lon="-1.58498">
        <ele>16</ele>
        <time>2011-01-09T09:42:19Z</time>
      </trkpt>
      <trkpt lat="47.22375" lon="-1.585">
        <ele>16</ele>
        <time>2011-01-09T09:42:20Z</time>
      </trkpt>
      <trkpt lat="47.22375" lon="-1.58502">
        <ele>15</ele>
        <time>2011-01-09T09:42:21Z</time>
      </trkpt>
      <trkpt lat="47.22376" lon="-1.58504">
        <ele>15</ele>
        <time>2011-01-09T09:42:22Z</time>
      </trkpt>
      <trkpt lat="47.22377" lon="-1.58504">
        <ele>15</ele>
        <time>2011-01-09T09:42:23Z</time>
      </trkpt>
      <trkpt lat="47.22379" lon="-1.58504">
        <ele>15</ele>
        <time>2011-01-09T09:42:24Z</time>
      </trkpt>
      <trkpt lat="47.2238" lon="-1.58505">
        <ele>15</ele>
        <time>2011-01-09T09:42:25Z</time>
      </trkpt>
      <trkpt lat="47.22381" lon="-1.58505">
        <ele>15</ele>
        <time>2011-01-09T09:42:26Z</time>
      </trkpt>
      <trkpt lat="47.22382" lon="-1.58506">
        <ele>15</ele>
        <time>2011-01-09T09:42:27Z</time>
      </trkpt>
      <trkpt lat="47.22383" lon="-1.58507">
        <ele>15</ele>
        <time>2011-01-09T09:42:28Z</time>
      </trkpt>
      <trkpt lat="47.22385" lon="-1.58509">
        <ele>16</ele>
        <time>2011-01-09T09:42:30Z</time>
      </trkpt>
      <trkpt lat="47.22394" lon="-1.58517">
        <ele>16</ele>
        <time>2011-01-09T09:42:38Z</time>
      </trkpt>
      <trkpt lat="47.22396" lon="-1.58518">
        <ele>16</ele>
        <time>2011-01-09T09:42:40Z</time>
      </trkpt>
      <trkpt lat="47.22399" lon="-1.5852">
        <ele>16</ele>
        <time>2011-01-09T09:42:42Z</time>
      </trkpt>
      <trkpt lat="47.224" lon="-1.58521">
        <ele>16</ele>
        <time>2011-01-09T09:42:43Z</time>
      </trkpt>
      <trkpt lat="47.22401" lon="-1.58521">
        <ele>16</ele>
        <time>2011-01-09T09:42:44Z</time>
      </trkpt>
      <trkpt lat="47.22411" lon="-1.58527">
        <ele>15</ele>
        <time>2011-01-09T09:42:51Z</time>
      </trkpt>
      <trkpt lat="47.22412" lon="-1.58527">
        <ele>15</ele>
        <time>2011-01-09T09:42:52Z</time>
      </trkpt>
      <trkpt lat="47.22422" lon="-1.58543">
        <ele>17</ele>
        <time>2011-01-09T09:43:03Z</time>
      </trkpt>
      <trkpt lat="47.22423" lon="-1.58545">
        <ele>17</ele>
        <time>2011-01-09T09:43:04Z</time>
      </trkpt>
      <trkpt lat="47.22424" lon="-1.58546">
        <ele>17</ele>
        <time>2011-01-09T09:43:05Z</time>
      </trkpt>
      <trkpt lat="47.22433" lon="-1.5855">
        <ele>17</ele>
        <time>2011-01-09T09:43:12Z</time>
      </trkpt>
      <trkpt lat="47.22435" lon="-1.58551">
        <ele>17</ele>
        <time>2011-01-09T09:43:13Z</time>
      </trkpt>
      <trkpt lat="47.22474" lon="-1.58583">
        <ele>19</ele>
        <time>2011-01-09T09:43:53Z</time>
      </trkpt>
      <trkpt lat="47.22475" lon="-1.58584">
        <ele>17</ele>
        <time>2011-01-09T09:43:54Z</time>
      </trkpt>
      <trkpt lat="47.22475" lon="-1.58585">
        <ele>17</ele>
        <time>2011-01-09T09:43:55Z</time>
      </trkpt>
      <trkpt lat="47.22475" lon="-1.58587">
        <ele>17</ele>
        <time>2011-01-09T09:43:56Z</time>
      </trkpt>
      <trkpt lat="47.22476" lon="-1.58588">
        <ele>17</ele>
        <time>2011-01-09T09:43:57Z</time>
      </trkpt>
      <trkpt lat="47.22476" lon="-1.5859">
        <ele>17</ele>
        <time>2011-01-09T09:43:58Z</time>
      </trkpt>
      <trkpt lat="47.22478" lon="-1.58591">
        <ele>17</ele>
        <time>2011-01-09T09:43:59Z</time>
      </trkpt>
      <trkpt lat="47.22479" lon="-1.58592">
        <ele>17</ele>
        <time>2011-01-09T09:44:00Z</time>
      </trkpt>
      <trkpt lat="47.22488" lon="-1.58598">
        <ele>18</ele>
        <time>2011-01-09T09:44:09Z</time>
      </trkpt>
      <trkpt lat="47.22489" lon="-1.58597">
        <ele>18</ele>
        <time>2011-01-09T09:44:10Z</time>
      </trkpt>
      <trkpt lat="47.2249" lon="-1.58597">
        <ele>18</ele>
        <time>2011-01-09T09:44:11Z</time>
      </trkpt>
      <trkpt lat="47.22491" lon="-1.58598">
        <ele>18</ele>
        <time>2011-01-09T09:44:12Z</time>
      </trkpt>
      <trkpt lat="47.22491" lon="-1.58599">
        <ele>18</ele>
        <time>2011-01-09T09:44:13Z</time>
      </trkpt>
      <trkpt lat="47.22491" lon="-1.58598">
        <ele>18</ele>
        <time>2011-01-09T09:44:14Z</time>
      </trkpt>
      <trkpt lat="47.22492" lon="-1.58598">
        <ele>18</ele>
        <time>2011-01-09T09:44:15Z</time>
      </trkpt>
      <trkpt lat="47.22493" lon="-1.58598">
        <ele>18</ele>
        <time>2011-01-09T09:44:16Z</time>
      </trkpt>
      <trkpt lat="47.22494" lon="-1.58599">
        <ele>18</ele>
        <time>2011-01-09T09:44:17Z</time>
      </trkpt>
      <trkpt lat="47.22495" lon="-1.58599">
        <ele>18</ele>
        <time>2011-01-09T09:44:18Z</time>
      </trkpt>
      <trkpt lat="47.22496" lon="-1.58599">
        <ele>18</ele>
        <time>2011-01-09T09:44:19Z</time>
      </trkpt>
      <trkpt lat="47.22498" lon="-1.58599">
        <ele>18</ele>
        <time>2011-01-09T09:44:21Z</time>
      </trkpt>
      <trkpt lat="47.225" lon="-1.58599">
        <ele>18</ele>
        <time>2011-01-09T09:44:22Z</time>
      </trkpt>
      <trkpt lat="47.22508" lon="-1.58602">
        <ele>20</ele>
        <time>2011-01-09T09:44:31Z</time>
      </trkpt>
      <trkpt lat="47.22509" lon="-1.58602">
        <ele>20</ele>
        <time>2011-01-09T09:44:32Z</time>
      </trkpt>
      <trkpt lat="47.22518" lon="-1.58607">
        <ele>20</ele>
        <time>2011-01-09T09:44:40Z</time>
      </trkpt>
      <trkpt lat="47.22519" lon="-1.58607">
        <ele>20</ele>
        <time>2011-01-09T09:44:41Z</time>
      </trkpt>
      <trkpt lat="47.22521" lon="-1.58608">
        <ele>21</ele>
        <time>2011-01-09T09:44:43Z</time>
      </trkpt>
      <trkpt lat="47.22522" lon="-1.5861">
        <ele>21</ele>
        <time>2011-01-09T09:44:44Z</time>
      </trkpt>
      <trkpt lat="47.22523" lon="-1.58611">
        <ele>20</ele>
        <time>2011-01-09T09:44:45Z</time>
      </trkpt>
      <trkpt lat="47.22523" lon="-1.58612">
        <ele>20</ele>
        <time>2011-01-09T09:44:46Z</time>
      </trkpt>
      <trkpt lat="47.22524" lon="-1.58612">
        <ele>21</ele>
        <time>2011-01-09T09:44:47Z</time>
      </trkpt>
      <trkpt lat="47.22525" lon="-1.58613">
        <ele>21</ele>
        <time>2011-01-09T09:44:48Z</time>
      </trkpt>
      <trkpt lat="47.22525" lon="-1.58614">
        <ele>21</ele>
        <time>2011-01-09T09:44:49Z</time>
      </trkpt>
      <trkpt lat="47.22526" lon="-1.58614">
        <ele>21</ele>
        <time>2011-01-09T09:44:50Z</time>
      </trkpt>
      <trkpt lat="47.22527" lon="-1.58615">
        <ele>21</ele>
        <time>2011-01-09T09:44:51Z</time>
      </trkpt>
      <trkpt lat="47.22529" lon="-1.58616">
        <ele>21</ele>
        <time>2011-01-09T09:44:53Z</time>
      </trkpt>
      <trkpt lat="47.22535" lon="-1.58618">
        <ele>21</ele>
        <time>2011-01-09T09:44:58Z</time>
      </trkpt>
      <trkpt lat="47.22537" lon="-1.5862">
        <ele>21</ele>
        <time>2011-01-09T09:44:59Z</time>
      </trkpt>
      <trkpt lat="47.22573" lon="-1.58764">
        <ele>16</ele>
        <time>2011-01-09T09:46:51Z</time>
      </trkpt>
      <trkpt lat="47.22571" lon="-1.58768">
        <ele>16</ele>
        <time>2011-01-09T09:46:52Z</time>
      </trkpt>
      <trkpt lat="47.2257" lon="-1.58769">
        <ele>16</ele>
        <time>2011-01-09T09:46:53Z</time>
      </trkpt>
      <trkpt lat="47.22571" lon="-1.58768">
        <ele>16</ele>
        <time>2011-01-09T09:46:54Z</time>
      </trkpt>
      <trkpt lat="47.22571" lon="-1.58768">
        <ele>16</ele>
        <time>2011-01-09T09:46:55Z</time>
      </trkpt>
      <trkpt lat="47.22567" lon="-1.58769">
        <ele>16</ele>
        <time>2011-01-09T09:47:01Z</time>
      </trkpt>
      <trkpt lat="47.22566" lon="-1.5877">
        <ele>16</ele>
        <time>2011-01-09T09:47:02Z</time>
      </trkpt>
      <trkpt lat="47.22565" lon="-1.5877">
        <ele>16</ele>
        <time>2011-01-09T09:47:03Z</time>
      </trkpt>
      <trkpt lat="47.22562" lon="-1.58771">
        <ele>16</ele>
        <time>2011-01-09T09:47:07Z</time>
      </trkpt>
      <trkpt lat="47.22561" lon="-1.58771">
        <ele>16</ele>
        <time>2011-01-09T09:47:08Z</time>
      </trkpt>
      <trkpt lat="47.22557" lon="-1.58775">
        <ele>16</ele>
        <time>2011-01-09T09:47:13Z</time>
      </trkpt>
      <trkpt lat="47.22557" lon="-1.58776">
        <ele>16</ele>
        <time>2011-01-09T09:47:14Z</time>
      </trkpt>
      <trkpt lat="47.22556" lon="-1.58776">
        <ele>16</ele>
        <time>2011-01-09T09:47:15Z</time>
      </trkpt>
      <trkpt lat="47.22555" lon="-1.58777">
        <ele>16</ele>
        <time>2011-01-09T09:47:16Z</time>
      </trkpt>
      <trkpt lat="47.22554" lon="-1.58778">
        <ele>16</ele>
        <time>2011-01-09T09:47:17Z</time>
      </trkpt>
      <trkpt lat="47.22553" lon="-1.58778">
        <ele>16</ele>
        <time>2011-01-09T09:47:18Z</time>
      </trkpt>
      <trkpt lat="47.22552" lon="-1.58779">
        <ele>16</ele>
        <time>2011-01-09T09:47:19Z</time>
      </trkpt>
      <trkpt lat="47.22551" lon="-1.58779">
        <ele>16</ele>
        <time>2011-01-09T09:47:20Z</time>
      </trkpt>
      <trkpt lat="47.2255" lon="-1.5878">
        <ele>16</ele>
        <time>2011-01-09T09:47:21Z</time>
      </trkpt>
      <trkpt lat="47.22547" lon="-1.58781">
        <ele>16</ele>
        <time>2011-01-09T09:47:25Z</time>
      </trkpt>
      <trkpt lat="47.22546" lon="-1.58781">
        <ele>16</ele>
        <time>2011-01-09T09:47:26Z</time>
      </trkpt>
      <trkpt lat="47.22545" lon="-1.58782">
        <ele>16</ele>
        <time>2011-01-09T09:47:27Z</time>
      </trkpt>
      <trkpt lat="47.22544" lon="-1.58782">
        <ele>16</ele>
        <time>2011-01-09T09:47:28Z</time>
      </trkpt>
      <trkpt lat="47.22536" lon="-1.58782">
        <ele>16</ele>
        <time>2011-01-09T09:47:38Z</time>
      </trkpt>
      <trkpt lat="47.2252" lon="-1.58789">
        <ele>17</ele>
        <time>2011-01-09T09:47:55Z</time>
      </trkpt>
      <trkpt lat="47.2252" lon="-1.5879">
        <ele>17</ele>
        <time>2011-01-09T09:47:56Z</time>
      </trkpt>
      <trkpt lat="47.2252" lon="-1.58792">
        <ele>17</ele>
        <time>2011-01-09T09:47:57Z</time>
      </trkpt>
      <trkpt lat="47.2252" lon="-1.58793">
        <ele>17</ele>
        <time>2011-01-09T09:47:58Z</time>
      </trkpt>
      <trkpt lat="47.2252" lon="-1.58794">
        <ele>17</ele>
        <time>2011-01-09T09:47:59Z</time>
      </trkpt>
      <trkpt lat="47.22517" lon="-1.58839">
        <ele>19</ele>
        <time>2011-01-09T09:48:28Z</time>
      </trkpt>
      <trkpt lat="47.22517" lon="-1.58842">
        <ele>19</ele>
        <time>2011-01-09T09:48:29Z</time>
      </trkpt>
      <trkpt lat="47.22533" lon="-1.58886">
        <ele>18</ele>
        <time>2011-01-09T09:49:00Z</time>
      </trkpt>
      <trkpt lat="47.22534" lon="-1.58891">
        <ele>18</ele>
        <time>2011-01-09T09:49:01Z</time>
      </trkpt>
      <trkpt lat="47.22533" lon="-1.58895">
        <ele>19</ele>
        <time>2011-01-09T09:49:02Z</time>
      </trkpt>
      <trkpt lat="47.22535" lon="-1.58896">
        <ele>18</ele>
        <time>2011-01-09T09:49:03Z</time>
      </trkpt>
      <trkpt lat="47.22537" lon="-1.58897">
        <ele>18</ele>
        <time>2011-01-09T09:49:05Z</time>
      </trkpt>
      <trkpt lat="47.2254" lon="-1.58899">
        <ele>18</ele>
        <time>2011-01-09T09:49:08Z</time>
      </trkpt>
      <trkpt lat="47.22541" lon="-1.589">
        <ele>18</ele>
        <time>2011-01-09T09:49:09Z</time>
      </trkpt>
      <trkpt lat="47.22542" lon="-1.58903">
        <ele>18</ele>
        <time>2011-01-09T09:49:11Z</time>
      </trkpt>
      <trkpt lat="47.22542" lon="-1.58904">
        <ele>18</ele>
        <time>2011-01-09T09:49:12Z</time>
      </trkpt>
      <trkpt lat="47.22548" lon="-1.58912">
        <ele>18</ele>
        <time>2011-01-09T09:49:21Z</time>
      </trkpt>
      <trkpt lat="47.22549" lon="-1.58914">
        <ele>18</ele>
        <time>2011-01-09T09:49:22Z</time>
      </trkpt>
      <trkpt lat="47.22549" lon="-1.58915">
        <ele>18</ele>
        <time>2011-01-09T09:49:23Z</time>
      </trkpt>
      <trkpt lat="47.2255" lon="-1.58917">
        <ele>18</ele>
        <time>2011-01-09T09:49:24Z</time>
      </trkpt>
      <trkpt lat="47.2255" lon="-1.58918">
        <ele>18</ele>
        <time>2011-01-09T09:49:25Z</time>
      </trkpt>
      <trkpt lat="47.2255" lon="-1.58919">
        <ele>18</ele>
        <time>2011-01-09T09:49:26Z</time>
      </trkpt>
      <trkpt lat="47.2255" lon="-1.58921">
        <ele>18</ele>
        <time>2011-01-09T09:49:27Z</time>
      </trkpt>
      <trkpt lat="47.2255" lon="-1.58922">
        <ele>18</ele>
        <time>2011-01-09T09:49:28Z</time>
      </trkpt>
      <trkpt lat="47.2255" lon="-1.58923">
        <ele>18</ele>
        <time>2011-01-09T09:49:29Z</time>
      </trkpt>
      <trkpt lat="47.2255" lon="-1.58925">
        <ele>18</ele>
        <time>2011-01-09T09:49:30Z</time>
      </trkpt>
      <trkpt lat="47.2255" lon="-1.58927">
        <ele>18</ele>
        <time>2011-01-09T09:49:31Z</time>
      </trkpt>
      <trkpt lat="47.22551" lon="-1.58928">
        <ele>18</ele>
        <time>2011-01-09T09:49:32Z</time>
      </trkpt>
      <trkpt lat="47.22554" lon="-1.58951">
        <ele>18</ele>
        <time>2011-01-09T09:49:44Z</time>
      </trkpt>
      <trkpt lat="47.22555" lon="-1.58954">
        <ele>18</ele>
        <time>2011-01-09T09:49:45Z</time>
      </trkpt>
      <trkpt lat="47.22554" lon="-1.58956">
        <ele>18</ele>
        <time>2011-01-09T09:49:46Z</time>
      </trkpt>
      <trkpt lat="47.22554" lon="-1.58956">
        <ele>18</ele>
        <time>2011-01-09T09:49:47Z</time>
      </trkpt>
      <trkpt lat="47.22554" lon="-1.58957">
        <ele>18</ele>
        <time>2011-01-09T09:49:48Z</time>
      </trkpt>
      <trkpt lat="47.22555" lon="-1.58957">
        <ele>18</ele>
        <time>2011-01-09T09:49:49Z</time>
      </trkpt>
      <trkpt lat="47.22555" lon="-1.58987">
        <ele>17</ele>
        <time>2011-01-09T09:50:04Z</time>
      </trkpt>
      <trkpt lat="47.22554" lon="-1.58991">
        <ele>17</ele>
        <time>2011-01-09T09:50:05Z</time>
      </trkpt>
      <trkpt lat="47.22555" lon="-1.58992">
        <ele>17</ele>
        <time>2011-01-09T09:50:06Z</time>
      </trkpt>
      <trkpt lat="47.22556" lon="-1.58993">
        <ele>17</ele>
        <time>2011-01-09T09:50:07Z</time>
      </trkpt>
      <trkpt lat="47.22572" lon="-1.59018">
        <ele>16</ele>
        <time>2011-01-09T09:50:34Z</time>
      </trkpt>
      <trkpt lat="47.22574" lon="-1.59019">
        <ele>16</ele>
        <time>2011-01-09T09:50:35Z</time>
      </trkpt>
      <trkpt lat="47.22589" lon="-1.59024">
        <ele>14</ele>
        <time>2011-01-09T09:50:47Z</time>
      </trkpt>
      <trkpt lat="47.22592" lon="-1.59025">
        <ele>14</ele>
        <time>2011-01-09T09:50:49Z</time>
      </trkpt>
      <trkpt lat="47.22594" lon="-1.59025">
        <ele>14</ele>
        <time>2011-01-09T09:50:51Z</time>
      </trkpt>
      <trkpt lat="47.22595" lon="-1.59026">
        <ele>14</ele>
        <time>2011-01-09T09:50:52Z</time>
      </trkpt>
      <trkpt lat="47.22596" lon="-1.59025">
        <ele>14</ele>
        <time>2011-01-09T09:50:53Z</time>
      </trkpt>
      <trkpt lat="47.22597" lon="-1.59024">
        <ele>14</ele>
        <time>2011-01-09T09:50:54Z</time>
      </trkpt>
      <trkpt lat="47.22598" lon="-1.59024">
        <ele>14</ele>
        <time>2011-01-09T09:50:55Z</time>
      </trkpt>
      <trkpt lat="47.22599" lon="-1.59025">
        <ele>14</ele>
        <time>2011-01-09T09:50:56Z</time>
      </trkpt>
      <trkpt lat="47.226" lon="-1.59025">
        <ele>14</ele>
        <time>2011-01-09T09:50:57Z</time>
      </trkpt>
      <trkpt lat="47.22622" lon="-1.59037">
        <ele>14</ele>
        <time>2011-01-09T09:51:17Z</time>
      </trkpt>
      <trkpt lat="47.22624" lon="-1.59037">
        <ele>14</ele>
        <time>2011-01-09T09:51:18Z</time>
      </trkpt>
      <trkpt lat="47.22669" lon="-1.59077">
        <ele>13</ele>
        <time>2011-01-09T09:52:05Z</time>
      </trkpt>
      <trkpt lat="47.22712" lon="-1.59105">
        <ele>13</ele>
        <time>2011-01-09T09:52:49Z</time>
      </trkpt>
      <trkpt lat="47.22713" lon="-1.59106">
        <ele>13</ele>
        <time>2011-01-09T09:52:50Z</time>
      </trkpt>
      <trkpt lat="47.22717" lon="-1.59109">
        <ele>13</ele>
        <time>2011-01-09T09:52:53Z</time>
      </trkpt>
      <trkpt lat="47.22724" lon="-1.59119">
        <ele>13</ele>
        <time>2011-01-09T09:53:01Z</time>
      </trkpt>
      <trkpt lat="47.22726" lon="-1.59121">
        <ele>13</ele>
        <time>2011-01-09T09:53:02Z</time>
      </trkpt>
      <trkpt lat="47.22727" lon="-1.59121">
        <ele>13</ele>
        <time>2011-01-09T09:53:03Z</time>
      </trkpt>
      <trkpt lat="47.2273" lon="-1.59122">
        <ele>13</ele>
        <time>2011-01-09T09:53:05Z</time>
      </trkpt>
      <trkpt lat="47.2275" lon="-1.59133">
        <ele>13</ele>
        <time>2011-01-09T09:53:24Z</time>
      </trkpt>
      <trkpt lat="47.22767" lon="-1.59149">
        <ele>14</ele>
        <time>2011-01-09T09:53:40Z</time>
      </trkpt>
      <trkpt lat="47.22769" lon="-1.59153">
        <ele>14</ele>
        <time>2011-01-09T09:53:43Z</time>
      </trkpt>
      <trkpt lat="47.22775" lon="-1.59181">
        <ele>15</ele>
        <time>2011-01-09T09:54:02Z</time>
      </trkpt>
      <trkpt lat="47.22775" lon="-1.59182">
        <ele>15</ele>
        <time>2011-01-09T09:54:03Z</time>
      </trkpt>
      <trkpt lat="47.22765" lon="-1.59208">
        <ele>15</ele>
        <time>2011-01-09T09:54:21Z</time>
      </trkpt>
      <trkpt lat="47.22752" lon="-1.59241">
        <ele>13</ele>
        <time>2011-01-09T09:54:43Z</time>
      </trkpt>
      <trkpt lat="47.22751" lon="-1.59243">
        <ele>13</ele>
        <time>2011-01-09T09:54:44Z</time>
      </trkpt>
      <trkpt lat="47.22746" lon="-1.59251">
        <ele>12</ele>
        <time>2011-01-09T09:54:50Z</time>
      </trkpt>
      <trkpt lat="47.22745" lon="-1.59253">
        <ele>13</ele>
        <time>2011-01-09T09:54:51Z</time>
      </trkpt>
      <trkpt lat="47.22743" lon="-1.59256">
        <ele>13</ele>
        <time>2011-01-09T09:54:53Z</time>
      </trkpt>
      <trkpt lat="47.22738" lon="-1.59263">
        <ele>13</ele>
        <time>2011-01-09T09:54:56Z</time>
      </trkpt>
      <trkpt lat="47.22737" lon="-1.59265">
        <ele>13</ele>
        <time>2011-01-09T09:54:58Z</time>
      </trkpt>
      <trkpt lat="47.22736" lon="-1.59267">
        <ele>14</ele>
        <time>2011-01-09T09:54:59Z</time>
      </trkpt>
      <trkpt lat="47.22734" lon="-1.5927">
        <ele>14</ele>
        <time>2011-01-09T09:55:01Z</time>
      </trkpt>
      <trkpt lat="47.22729" lon="-1.59278">
        <ele>14</ele>
        <time>2011-01-09T09:55:05Z</time>
      </trkpt>
      <trkpt lat="47.22729" lon="-1.59279">
        <ele>14</ele>
        <time>2011-01-09T09:55:06Z</time>
      </trkpt>
      <trkpt lat="47.22727" lon="-1.59284">
        <ele>14</ele>
        <time>2011-01-09T09:55:08Z</time>
      </trkpt>
      <trkpt lat="47.22723" lon="-1.59296">
        <ele>15</ele>
        <time>2011-01-09T09:55:13Z</time>
      </trkpt>
      <trkpt lat="47.22722" lon="-1.59297">
        <ele>15</ele>
        <time>2011-01-09T09:55:14Z</time>
      </trkpt>
      <trkpt lat="47.22721" lon="-1.59302">
        <ele>15</ele>
        <time>2011-01-09T09:55:16Z</time>
      </trkpt>
      <trkpt lat="47.22721" lon="-1.59304">
        <ele>15</ele>
        <time>2011-01-09T09:55:17Z</time>
      </trkpt>
      <trkpt lat="47.22714" lon="-1.59353">
        <ele>16</ele>
        <time>2011-01-09T09:55:52Z</time>
      </trkpt>
      <trkpt lat="47.22713" lon="-1.59355">
        <ele>16</ele>
        <time>2011-01-09T09:55:53Z</time>
      </trkpt>
      <trkpt lat="47.22711" lon="-1.59359">
        <ele>16</ele>
        <time>2011-01-09T09:55:57Z</time>
      </trkpt>
      <trkpt lat="47.2271" lon="-1.59361">
        <ele>16</ele>
        <time>2011-01-09T09:55:58Z</time>
      </trkpt>
      <trkpt lat="47.22708" lon="-1.59366">
        <ele>16</ele>
        <time>2011-01-09T09:56:00Z</time>
      </trkpt>
      <trkpt lat="47.22707" lon="-1.59369">
        <ele>16</ele>
        <time>2011-01-09T09:56:01Z</time>
      </trkpt>
      <trkpt lat="47.22705" lon="-1.59375">
        <ele>16</ele>
        <time>2011-01-09T09:56:08Z</time>
      </trkpt>
      <trkpt lat="47.22704" lon="-1.59377">
        <ele>16</ele>
        <time>2011-01-09T09:56:09Z</time>
      </trkpt>
      <trkpt lat="47.22704" lon="-1.59386">
        <ele>16</ele>
        <time>2011-01-09T09:56:18Z</time>
      </trkpt>
      <trkpt lat="47.22704" lon="-1.59386">
        <ele>16</ele>
        <time>2011-01-09T09:56:19Z</time>
      </trkpt>
      <trkpt lat="47.22703" lon="-1.59387">
        <ele>16</ele>
        <time>2011-01-09T09:56:20Z</time>
      </trkpt>
      <trkpt lat="47.22702" lon="-1.59388">
        <ele>16</ele>
        <time>2011-01-09T09:56:21Z</time>
      </trkpt>
      <trkpt lat="47.22702" lon="-1.5939">
        <ele>16</ele>
        <time>2011-01-09T09:56:22Z</time>
      </trkpt>
      <trkpt lat="47.22702" lon="-1.5939">
        <ele>16</ele>
        <time>2011-01-09T09:56:23Z</time>
      </trkpt>
      <trkpt lat="47.22701" lon="-1.59392">
        <ele>16</ele>
        <time>2011-01-09T09:56:24Z</time>
      </trkpt>
      <trkpt lat="47.22701" lon="-1.59394">
        <ele>16</ele>
        <time>2011-01-09T09:56:25Z</time>
      </trkpt>
      <trkpt lat="47.22701" lon="-1.59396">
        <ele>16</ele>
        <time>2011-01-09T09:56:26Z</time>
      </trkpt>
      <trkpt lat="47.22701" lon="-1.59397">
        <ele>16</ele>
        <time>2011-01-09T09:56:27Z</time>
      </trkpt>
      <trkpt lat="47.227" lon="-1.594">
        <ele>16</ele>
        <time>2011-01-09T09:56:28Z</time>
      </trkpt>
      <trkpt lat="47.227" lon="-1.59402">
        <ele>16</ele>
        <time>2011-01-09T09:56:29Z</time>
      </trkpt>
      <trkpt lat="47.227" lon="-1.59403">
        <ele>16</ele>
        <time>2011-01-09T09:56:30Z</time>
      </trkpt>
      <trkpt lat="47.22698" lon="-1.59404">
        <ele>16</ele>
        <time>2011-01-09T09:56:31Z</time>
      </trkpt>
      <trkpt lat="47.22696" lon="-1.59406">
        <ele>16</ele>
        <time>2011-01-09T09:56:32Z</time>
      </trkpt>
      <trkpt lat="47.22698" lon="-1.59408">
        <ele>16</ele>
        <time>2011-01-09T09:56:33Z</time>
      </trkpt>
      <trkpt lat="47.22699" lon="-1.59409">
        <ele>16</ele>
        <time>2011-01-09T09:56:34Z</time>
      </trkpt>
      <trkpt lat="47.22699" lon="-1.59411">
        <ele>16</ele>
        <time>2011-01-09T09:56:35Z</time>
      </trkpt>
      <trkpt lat="47.22699" lon="-1.59412">
        <ele>16</ele>
        <time>2011-01-09T09:56:36Z</time>
      </trkpt>
      <trkpt lat="47.22698" lon="-1.59414">
        <ele>16</ele>
        <time>2011-01-09T09:56:37Z</time>
      </trkpt>
      <trkpt lat="47.22698" lon="-1.59415">
        <ele>16</ele>
        <time>2011-01-09T09:56:38Z</time>
      </trkpt>
      <trkpt lat="47.22698" lon="-1.59416">
        <ele>16</ele>
        <time>2011-01-09T09:56:39Z</time>
      </trkpt>
      <trkpt lat="47.22697" lon="-1.59418">
        <ele>16</ele>
        <time>2011-01-09T09:56:40Z</time>
      </trkpt>
      <trkpt lat="47.22696" lon="-1.59419">
        <ele>16</ele>
        <time>2011-01-09T09:56:41Z</time>
      </trkpt>
      <trkpt lat="47.22695" lon="-1.59421">
        <ele>16</ele>
        <time>2011-01-09T09:56:42Z</time>
      </trkpt>
      <trkpt lat="47.22695" lon="-1.59423">
        <ele>16</ele>
        <time>2011-01-09T09:56:43Z</time>
      </trkpt>
      <trkpt lat="47.22693" lon="-1.59425">
        <ele>16</ele>
        <time>2011-01-09T09:56:44Z</time>
      </trkpt>
      <trkpt lat="47.22693" lon="-1.59426">
        <ele>16</ele>
        <time>2011-01-09T09:56:45Z</time>
      </trkpt>
      <trkpt lat="47.22692" lon="-1.59428">
        <ele>16</ele>
        <time>2011-01-09T09:56:46Z</time>
      </trkpt>
      <trkpt lat="47.22691" lon="-1.5943">
        <ele>16</ele>
        <time>2011-01-09T09:56:47Z</time>
      </trkpt>
      <trkpt lat="47.22691" lon="-1.59433">
        <ele>16</ele>
        <time>2011-01-09T09:56:48Z</time>
      </trkpt>
      <trkpt lat="47.22686" lon="-1.5948">
        <ele>16</ele>
        <time>2011-01-09T09:57:13Z</time>
      </trkpt>
      <trkpt lat="47.22686" lon="-1.59483">
        <ele>16</ele>
        <time>2011-01-09T09:57:14Z</time>
      </trkpt>
      <trkpt lat="47.22686" lon="-1.59486">
        <ele>16</ele>
        <time>2011-01-09T09:57:15Z</time>
      </trkpt>
      <trkpt lat="47.22685" lon="-1.59486">
        <ele>16</ele>
        <time>2011-01-09T09:57:16Z</time>
      </trkpt>
      <trkpt lat="47.22685" lon="-1.59488">
        <ele>16</ele>
        <time>2011-01-09T09:57:17Z</time>
      </trkpt>
      <trkpt lat="47.22683" lon="-1.5949">
        <ele>16</ele>
        <time>2011-01-09T09:57:18Z</time>
      </trkpt>
      <trkpt lat="47.22681" lon="-1.59491">
        <ele>16</ele>
        <time>2011-01-09T09:57:19Z</time>
      </trkpt>
      <trkpt lat="47.22681" lon="-1.59491">
        <ele>16</ele>
        <time>2011-01-09T09:57:20Z</time>
      </trkpt>
      <trkpt lat="47.2268" lon="-1.59493">
        <ele>16</ele>
        <time>2011-01-09T09:57:21Z</time>
      </trkpt>
      <trkpt lat="47.22681" lon="-1.59492">
        <ele>16</ele>
        <time>2011-01-09T09:57:22Z</time>
      </trkpt>
      <trkpt lat="47.22682" lon="-1.59492">
        <ele>16</ele>
        <time>2011-01-09T09:57:23Z</time>
      </trkpt>
      <trkpt lat="47.22683" lon="-1.59492">
        <ele>16</ele>
        <time>2011-01-09T09:57:24Z</time>
      </trkpt>
      <trkpt lat="47.22684" lon="-1.59492">
        <ele>16</ele>
        <time>2011-01-09T09:57:25Z</time>
      </trkpt>
      <trkpt lat="47.22685" lon="-1.59493">
        <ele>16</ele>
        <time>2011-01-09T09:57:26Z</time>
      </trkpt>
      <trkpt lat="47.22684" lon="-1.59495">
        <ele>16</ele>
        <time>2011-01-09T09:57:27Z</time>
      </trkpt>
      <trkpt lat="47.22693" lon="-1.5954">
        <ele>17</ele>
        <time>2011-01-09T09:57:58Z</time>
      </trkpt>
      <trkpt lat="47.22695" lon="-1.59541">
        <ele>17</ele>
        <time>2011-01-09T09:57:59Z</time>
      </trkpt>
      <trkpt lat="47.22707" lon="-1.59554">
        <ele>18</ele>
        <time>2011-01-09T09:58:12Z</time>
      </trkpt>
      <trkpt lat="47.22709" lon="-1.59555">
        <ele>18</ele>
        <time>2011-01-09T09:58:13Z</time>
      </trkpt>
      <trkpt lat="47.22713" lon="-1.59556">
        <ele>18</ele>
        <time>2011-01-09T09:58:15Z</time>
      </trkpt>
      <trkpt lat="47.22715" lon="-1.59557">
        <ele>18</ele>
        <time>2011-01-09T09:58:16Z</time>
      </trkpt>
      <trkpt lat="47.22717" lon="-1.59558">
        <ele>18</ele>
        <time>2011-01-09T09:58:17Z</time>
      </trkpt>
      <trkpt lat="47.22718" lon="-1.59558">
        <ele>18</ele>
        <time>2011-01-09T09:58:18Z</time>
      </trkpt>
      <trkpt lat="47.2272" lon="-1.59559">
        <ele>18</ele>
        <time>2011-01-09T09:58:19Z</time>
      </trkpt>
      <trkpt lat="47.22722" lon="-1.59559">
        <ele>18</ele>
        <time>2011-01-09T09:58:20Z</time>
      </trkpt>
      <trkpt lat="47.22736" lon="-1.59559">
        <ele>18</ele>
        <time>2011-01-09T09:58:30Z</time>
      </trkpt>
      <trkpt lat="47.22737" lon="-1.59558">
        <ele>18</ele>
        <time>2011-01-09T09:58:31Z</time>
      </trkpt>
      <trkpt lat="47.22784" lon="-1.59561">
        <ele>19</ele>
        <time>2011-01-09T09:59:14Z</time>
      </trkpt>
      <trkpt lat="47.22786" lon="-1.5956">
        <ele>19</ele>
        <time>2011-01-09T09:59:15Z</time>
      </trkpt>
      <trkpt lat="47.22788" lon="-1.5956">
        <ele>19</ele>
        <time>2011-01-09T09:59:16Z</time>
      </trkpt>
      <trkpt lat="47.22789" lon="-1.59559">
        <ele>19</ele>
        <time>2011-01-09T09:59:17Z</time>
      </trkpt>
      <trkpt lat="47.22798" lon="-1.59556">
        <ele>19</ele>
        <time>2011-01-09T09:59:25Z</time>
      </trkpt>
      <trkpt lat="47.228" lon="-1.59556">
        <ele>19</ele>
        <time>2011-01-09T09:59:26Z</time>
      </trkpt>
      <trkpt lat="47.22801" lon="-1.59556">
        <ele>19</ele>
        <time>2011-01-09T09:59:27Z</time>
      </trkpt>
      <trkpt lat="47.22804" lon="-1.59557">
        <ele>19</ele>
        <time>2011-01-09T09:59:29Z</time>
      </trkpt>
      <trkpt lat="47.22807" lon="-1.59556">
        <ele>19</ele>
        <time>2011-01-09T09:59:31Z</time>
      </trkpt>
      <trkpt lat="47.22815" lon="-1.59555">
        <ele>19</ele>
        <time>2011-01-09T09:59:37Z</time>
      </trkpt>
      <trkpt lat="47.22819" lon="-1.59555">
        <ele>19</ele>
        <time>2011-01-09T09:59:39Z</time>
      </trkpt>
      <trkpt lat="47.22827" lon="-1.59556">
        <ele>19</ele>
        <time>2011-01-09T09:59:46Z</time>
      </trkpt>
      <trkpt lat="47.22828" lon="-1.59556">
        <ele>19</ele>
        <time>2011-01-09T09:59:47Z</time>
      </trkpt>
      <trkpt lat="47.22829" lon="-1.59555">
        <ele>19</ele>
        <time>2011-01-09T09:59:48Z</time>
      </trkpt>
      <trkpt lat="47.2283" lon="-1.59555">
        <ele>19</ele>
        <time>2011-01-09T09:59:49Z</time>
      </trkpt>
      <trkpt lat="47.22852" lon="-1.59556">
        <ele>19</ele>
        <time>2011-01-09T10:00:12Z</time>
      </trkpt>
      <trkpt lat="47.22852" lon="-1.59556">
        <ele>19</ele>
        <time>2011-01-09T10:00:13Z</time>
      </trkpt>
      <trkpt lat="47.22852" lon="-1.5957">
        <ele>18</ele>
        <time>2011-01-09T10:00:27Z</time>
      </trkpt>
      <trkpt lat="47.22851" lon="-1.5957">
        <ele>18</ele>
        <time>2011-01-09T10:00:28Z</time>
      </trkpt>
      <trkpt lat="47.2285" lon="-1.59571">
        <ele>18</ele>
        <time>2011-01-09T10:00:29Z</time>
      </trkpt>
      <trkpt lat="47.22849" lon="-1.59572">
        <ele>18</ele>
        <time>2011-01-09T10:00:30Z</time>
      </trkpt>
      <trkpt lat="47.22845" lon="-1.59604">
        <ele>15</ele>
        <time>2011-01-09T10:00:55Z</time>
      </trkpt>
      <trkpt lat="47.22845" lon="-1.5961">
        <ele>15</ele>
        <time>2011-01-09T10:00:59Z</time>
      </trkpt>
      <trkpt lat="47.22846" lon="-1.59612">
        <ele>15</ele>
        <time>2011-01-09T10:01:00Z</time>
      </trkpt>
      <trkpt lat="47.22846" lon="-1.59613">
        <ele>15</ele>
        <time>2011-01-09T10:01:01Z</time>
      </trkpt>
      <trkpt lat="47.22846" lon="-1.59618">
        <ele>15</ele>
        <time>2011-01-09T10:01:03Z</time>
      </trkpt>
      <trkpt lat="47.22847" lon="-1.5962">
        <ele>15</ele>
        <time>2011-01-09T10:01:04Z</time>
      </trkpt>
      <trkpt lat="47.22848" lon="-1.59621">
        <ele>15</ele>
        <time>2011-01-09T10:01:05Z</time>
      </trkpt>
      <trkpt lat="47.22854" lon="-1.59632">
        <ele>15</ele>
        <time>2011-01-09T10:01:14Z</time>
      </trkpt>
      <trkpt lat="47.22855" lon="-1.59635">
        <ele>15</ele>
        <time>2011-01-09T10:01:15Z</time>
      </trkpt>
      <trkpt lat="47.22855" lon="-1.59637">
        <ele>15</ele>
        <time>2011-01-09T10:01:16Z</time>
      </trkpt>
      <trkpt lat="47.22856" lon="-1.59638">
        <ele>15</ele>
        <time>2011-01-09T10:01:17Z</time>
      </trkpt>
      <trkpt lat="47.22856" lon="-1.5964">
        <ele>15</ele>
        <time>2011-01-09T10:01:18Z</time>
      </trkpt>
      <trkpt lat="47.22857" lon="-1.59641">
        <ele>15</ele>
        <time>2011-01-09T10:01:19Z</time>
      </trkpt>
      <trkpt lat="47.22857" lon="-1.59643">
        <ele>15</ele>
        <time>2011-01-09T10:01:20Z</time>
      </trkpt>
      <trkpt lat="47.22858" lon="-1.59644">
        <ele>15</ele>
        <time>2011-01-09T10:01:21Z</time>
      </trkpt>
      <trkpt lat="47.22858" lon="-1.59645">
        <ele>15</ele>
        <time>2011-01-09T10:01:22Z</time>
      </trkpt>
      <trkpt lat="47.22859" lon="-1.59647">
        <ele>15</ele>
        <time>2011-01-09T10:01:23Z</time>
      </trkpt>
      <trkpt lat="47.2286" lon="-1.59648">
        <ele>15</ele>
        <time>2011-01-09T10:01:24Z</time>
      </trkpt>
      <trkpt lat="47.22867" lon="-1.59657">
        <ele>15</ele>
        <time>2011-01-09T10:01:32Z</time>
      </trkpt>
      <trkpt lat="47.22868" lon="-1.59658">
        <ele>15</ele>
        <time>2011-01-09T10:01:33Z</time>
      </trkpt>
      <trkpt lat="47.22872" lon="-1.59663">
        <ele>15</ele>
        <time>2011-01-09T10:01:37Z</time>
      </trkpt>
      <trkpt lat="47.22873" lon="-1.59664">
        <ele>15</ele>
        <time>2011-01-09T10:01:38Z</time>
      </trkpt>
      <trkpt lat="47.22878" lon="-1.59668">
        <ele>15</ele>
        <time>2011-01-09T10:01:43Z</time>
      </trkpt>
      <trkpt lat="47.22892" lon="-1.59686">
        <ele>15</ele>
        <time>2011-01-09T10:02:00Z</time>
      </trkpt>
      <trkpt lat="47.22893" lon="-1.59687">
        <ele>15</ele>
        <time>2011-01-09T10:02:01Z</time>
      </trkpt>
      <trkpt lat="47.22894" lon="-1.59688">
        <ele>15</ele>
        <time>2011-01-09T10:02:02Z</time>
      </trkpt>
      <trkpt lat="47.22895" lon="-1.59689">
        <ele>15</ele>
        <time>2011-01-09T10:02:03Z</time>
      </trkpt>
      <trkpt lat="47.22896" lon="-1.59689">
        <ele>15</ele>
        <time>2011-01-09T10:02:04Z</time>
      </trkpt>
      <trkpt lat="47.22925" lon="-1.59714">
        <ele>14</ele>
        <time>2011-01-09T10:02:37Z</time>
      </trkpt>
      <trkpt lat="47.22926" lon="-1.59715">
        <ele>14</ele>
        <time>2011-01-09T10:02:38Z</time>
      </trkpt>
      <trkpt lat="47.22923" lon="-1.59726">
        <ele>14</ele>
        <time>2011-01-09T10:02:49Z</time>
      </trkpt>
      <trkpt lat="47.22921" lon="-1.59726">
        <ele>14</ele>
        <time>2011-01-09T10:02:50Z</time>
      </trkpt>
      <trkpt lat="47.2292" lon="-1.59727">
        <ele>14</ele>
        <time>2011-01-09T10:02:51Z</time>
      </trkpt>
      <trkpt lat="47.22917" lon="-1.59735">
        <ele>14</ele>
        <time>2011-01-09T10:03:02Z</time>
      </trkpt>
      <trkpt lat="47.22916" lon="-1.59737">
        <ele>14</ele>
        <time>2011-01-09T10:03:03Z</time>
      </trkpt>
      <trkpt lat="47.22917" lon="-1.59737">
        <ele>14</ele>
        <time>2011-01-09T10:03:04Z</time>
      </trkpt>
      <trkpt lat="47.22917" lon="-1.59737">
        <ele>14</ele>
        <time>2011-01-09T10:03:05Z</time>
      </trkpt>
      <trkpt lat="47.22917" lon="-1.59736">
        <ele>14</ele>
        <time>2011-01-09T10:03:06Z</time>
      </trkpt>
      <trkpt lat="47.22917" lon="-1.59736">
        <ele>14</ele>
        <time>2011-01-09T10:03:07Z</time>
      </trkpt>
      <trkpt lat="47.22918" lon="-1.59737">
        <ele>14</ele>
        <time>2011-01-09T10:03:08Z</time>
      </trkpt>
      <trkpt lat="47.22918" lon="-1.59739">
        <ele>14</ele>
        <time>2011-01-09T10:03:09Z</time>
      </trkpt>
      <trkpt lat="47.22918" lon="-1.5974">
        <ele>14</ele>
        <time>2011-01-09T10:03:10Z</time>
      </trkpt>
      <trkpt lat="47.22919" lon="-1.59742">
        <ele>14</ele>
        <time>2011-01-09T10:03:11Z</time>
      </trkpt>
      <trkpt lat="47.22927" lon="-1.59754">
        <ele>14</ele>
        <time>2011-01-09T10:03:23Z</time>
      </trkpt>
      <trkpt lat="47.22929" lon="-1.59754">
        <ele>14</ele>
        <time>2011-01-09T10:03:24Z</time>
      </trkpt>
      <trkpt lat="47.22937" lon="-1.59754">
        <ele>15</ele>
        <time>2011-01-09T10:03:33Z</time>
      </trkpt>
      <trkpt lat="47.22938" lon="-1.59753">
        <ele>15</ele>
        <time>2011-01-09T10:03:34Z</time>
      </trkpt>
      <trkpt lat="47.22939" lon="-1.59752">
        <ele>15</ele>
        <time>2011-01-09T10:03:35Z</time>
      </trkpt>
      <trkpt lat="47.2294" lon="-1.59751">
        <ele>15</ele>
        <time>2011-01-09T10:03:36Z</time>
      </trkpt>
      <trkpt lat="47.22941" lon="-1.5975">
        <ele>14</ele>
        <time>2011-01-09T10:03:37Z</time>
      </trkpt>
      <trkpt lat="47.22942" lon="-1.59749">
        <ele>14</ele>
        <time>2011-01-09T10:03:38Z</time>
      </trkpt>
      <trkpt lat="47.22943" lon="-1.59748">
        <ele>14</ele>
        <time>2011-01-09T10:03:39Z</time>
      </trkpt>
      <trkpt lat="47.22943" lon="-1.59747">
        <ele>14</ele>
        <time>2011-01-09T10:03:40Z</time>
      </trkpt>
      <trkpt lat="47.22944" lon="-1.59745">
        <ele>14</ele>
        <time>2011-01-09T10:03:41Z</time>
      </trkpt>
      <trkpt lat="47.22945" lon="-1.59744">
        <ele>14</ele>
        <time>2011-01-09T10:03:42Z</time>
      </trkpt>
      <trkpt lat="47.22946" lon="-1.59743">
        <ele>14</ele>
        <time>2011-01-09T10:03:43Z</time>
      </trkpt>
      <trkpt lat="47.22947" lon="-1.59742">
        <ele>14</ele>
        <time>2011-01-09T10:03:44Z</time>
      </trkpt>
      <trkpt lat="47.22947" lon="-1.59741">
        <ele>14</ele>
        <time>2011-01-09T10:03:45Z</time>
      </trkpt>
      <trkpt lat="47.22963" lon="-1.59725">
        <ele>14</ele>
        <time>2011-01-09T10:04:04Z</time>
      </trkpt>
      <trkpt lat="47.22964" lon="-1.59724">
        <ele>14</ele>
        <time>2011-01-09T10:04:05Z</time>
      </trkpt>
      <trkpt lat="47.22965" lon="-1.59723">
        <ele>14</ele>
        <time>2011-01-09T10:04:06Z</time>
      </trkpt>
      <trkpt lat="47.22967" lon="-1.59722">
        <ele>14</ele>
        <time>2011-01-09T10:04:08Z</time>
      </trkpt>
      <trkpt lat="47.22969" lon="-1.59721">
        <ele>14</ele>
        <time>2011-01-09T10:04:09Z</time>
      </trkpt>
      <trkpt lat="47.22978" lon="-1.59718">
        <ele>14</ele>
        <time>2011-01-09T10:04:18Z</time>
      </trkpt>
      <trkpt lat="47.22992" lon="-1.59714">
        <ele>14</ele>
        <time>2011-01-09T10:04:30Z</time>
      </trkpt>
      <trkpt lat="47.22993" lon="-1.59714">
        <ele>14</ele>
        <time>2011-01-09T10:04:31Z</time>
      </trkpt>
      <trkpt lat="47.22999" lon="-1.59711">
        <ele>14</ele>
        <time>2011-01-09T10:04:37Z</time>
      </trkpt>
      <trkpt lat="47.23008" lon="-1.59707">
        <ele>15</ele>
        <time>2011-01-09T10:04:47Z</time>
      </trkpt>
      <trkpt lat="47.23009" lon="-1.59708">
        <ele>15</ele>
        <time>2011-01-09T10:04:48Z</time>
      </trkpt>
      <trkpt lat="47.23011" lon="-1.59708">
        <ele>15</ele>
        <time>2011-01-09T10:04:49Z</time>
      </trkpt>
      <trkpt lat="47.23015" lon="-1.59709">
        <ele>14</ele>
        <time>2011-01-09T10:04:53Z</time>
      </trkpt>
      <trkpt lat="47.23019" lon="-1.5971">
        <ele>14</ele>
        <time>2011-01-09T10:04:56Z</time>
      </trkpt>
      <trkpt lat="47.2302" lon="-1.5971">
        <ele>14</ele>
        <time>2011-01-09T10:04:57Z</time>
      </trkpt>
      <trkpt lat="47.23021" lon="-1.5971">
        <ele>14</ele>
        <time>2011-01-09T10:04:58Z</time>
      </trkpt>
      <trkpt lat="47.23023" lon="-1.5971">
        <ele>14</ele>
        <time>2011-01-09T10:04:59Z</time>
      </trkpt>
      <trkpt lat="47.23024" lon="-1.5971">
        <ele>14</ele>
        <time>2011-01-09T10:05:00Z</time>
      </trkpt>
      <trkpt lat="47.23028" lon="-1.59711">
        <ele>14</ele>
        <time>2011-01-09T10:05:03Z</time>
      </trkpt>
      <trkpt lat="47.23029" lon="-1.59711">
        <ele>14</ele>
        <time>2011-01-09T10:05:04Z</time>
      </trkpt>
      <trkpt lat="47.23034" lon="-1.5971">
        <ele>14</ele>
        <time>2011-01-09T10:05:11Z</time>
      </trkpt>
      <trkpt lat="47.23034" lon="-1.59709">
        <ele>14</ele>
        <time>2011-01-09T10:05:12Z</time>
      </trkpt>
      <trkpt lat="47.23052" lon="-1.59695">
        <ele>15</ele>
        <time>2011-01-09T10:05:31Z</time>
      </trkpt>
      <trkpt lat="47.23053" lon="-1.59694">
        <ele>15</ele>
        <time>2011-01-09T10:05:32Z</time>
      </trkpt>
      <trkpt lat="47.23054" lon="-1.59693">
        <ele>15</ele>
        <time>2011-01-09T10:05:33Z</time>
      </trkpt>
      <trkpt lat="47.23055" lon="-1.59691">
        <ele>15</ele>
        <time>2011-01-09T10:05:34Z</time>
      </trkpt>
      <trkpt lat="47.23058" lon="-1.59689">
        <ele>15</ele>
        <time>2011-01-09T10:05:36Z</time>
      </trkpt>
      <trkpt lat="47.23059" lon="-1.59688">
        <ele>15</ele>
        <time>2011-01-09T10:05:37Z</time>
      </trkpt>
      <trkpt lat="47.23062" lon="-1.59685">
        <ele>15</ele>
        <time>2011-01-09T10:05:40Z</time>
      </trkpt>
      <trkpt lat="47.23063" lon="-1.59684">
        <ele>15</ele>
        <time>2011-01-09T10:05:41Z</time>
      </trkpt>
      <trkpt lat="47.23063" lon="-1.59682">
        <ele>15</ele>
        <time>2011-01-09T10:05:42Z</time>
      </trkpt>
      <trkpt lat="47.23064" lon="-1.59681">
        <ele>15</ele>
        <time>2011-01-09T10:05:43Z</time>
      </trkpt>
      <trkpt lat="47.23065" lon="-1.5968">
        <ele>15</ele>
        <time>2011-01-09T10:05:44Z</time>
      </trkpt>
      <trkpt lat="47.23068" lon="-1.59676">
        <ele>15</ele>
        <time>2011-01-09T10:05:48Z</time>
      </trkpt>
      <trkpt lat="47.23069" lon="-1.59675">
        <ele>15</ele>
        <time>2011-01-09T10:05:49Z</time>
      </trkpt>
      <trkpt lat="47.2307" lon="-1.59674">
        <ele>15</ele>
        <time>2011-01-09T10:05:50Z</time>
      </trkpt>
      <trkpt lat="47.23071" lon="-1.59672">
        <ele>15</ele>
        <time>2011-01-09T10:05:51Z</time>
      </trkpt>
      <trkpt lat="47.23071" lon="-1.59672">
        <ele>15</ele>
        <time>2011-01-09T10:05:52Z</time>
      </trkpt>
      <trkpt lat="47.23072" lon="-1.59671">
        <ele>15</ele>
        <time>2011-01-09T10:05:53Z</time>
      </trkpt>
      <trkpt lat="47.23073" lon="-1.5967">
        <ele>15</ele>
        <time>2011-01-09T10:05:54Z</time>
      </trkpt>
      <trkpt lat="47.23099" lon="-1.59661">
        <ele>18</ele>
        <time>2011-01-09T10:06:20Z</time>
      </trkpt>
      <trkpt lat="47.23101" lon="-1.5966">
        <ele>18</ele>
        <time>2011-01-09T10:06:22Z</time>
      </trkpt>
      <trkpt lat="47.23103" lon="-1.5966">
        <ele>18</ele>
        <time>2011-01-09T10:06:23Z</time>
      </trkpt>
      <trkpt lat="47.23104" lon="-1.59659">
        <ele>18</ele>
        <time>2011-01-09T10:06:24Z</time>
      </trkpt>
      <trkpt lat="47.23105" lon="-1.59659">
        <ele>19</ele>
        <time>2011-01-09T10:06:25Z</time>
      </trkpt>
      <trkpt lat="47.23106" lon="-1.59659">
        <ele>19</ele>
        <time>2011-01-09T10:06:26Z</time>
      </trkpt>
      <trkpt lat="47.23107" lon="-1.59659">
        <ele>19</ele>
        <time>2011-01-09T10:06:27Z</time>
      </trkpt>
      <trkpt lat="47.23108" lon="-1.59659">
        <ele>19</ele>
        <time>2011-01-09T10:06:28Z</time>
      </trkpt>
      <trkpt lat="47.2311" lon="-1.5966">
        <ele>19</ele>
        <time>2011-01-09T10:06:29Z</time>
      </trkpt>
      <trkpt lat="47.23111" lon="-1.59659">
        <ele>19</ele>
        <time>2011-01-09T10:06:30Z</time>
      </trkpt>
      <trkpt lat="47.23118" lon="-1.59662">
        <ele>19</ele>
        <time>2011-01-09T10:06:36Z</time>
      </trkpt>
      <trkpt lat="47.23123" lon="-1.59665">
        <ele>19</ele>
        <time>2011-01-09T10:06:41Z</time>
      </trkpt>
      <trkpt lat="47.2313" lon="-1.59673">
        <ele>17</ele>
        <time>2011-01-09T10:06:49Z</time>
      </trkpt>
      <trkpt lat="47.23132" lon="-1.59674">
        <ele>17</ele>
        <time>2011-01-09T10:06:50Z</time>
      </trkpt>
      <trkpt lat="47.23137" lon="-1.59679">
        <ele>17</ele>
        <time>2011-01-09T10:06:55Z</time>
      </trkpt>
      <trkpt lat="47.23137" lon="-1.5968">
        <ele>17</ele>
        <time>2011-01-09T10:06:56Z</time>
      </trkpt>
      <trkpt lat="47.23148" lon="-1.59698">
        <ele>17</ele>
        <time>2011-01-09T10:07:11Z</time>
      </trkpt>
      <trkpt lat="47.23149" lon="-1.59701">
        <ele>17</ele>
        <time>2011-01-09T10:07:13Z</time>
      </trkpt>
      <trkpt lat="47.2315" lon="-1.59702">
        <ele>17</ele>
        <time>2011-01-09T10:07:14Z</time>
      </trkpt>
      <trkpt lat="47.23151" lon="-1.59706">
        <ele>17</ele>
        <time>2011-01-09T10:07:16Z</time>
      </trkpt>
      <trkpt lat="47.23151" lon="-1.59707">
        <ele>17</ele>
        <time>2011-01-09T10:07:17Z</time>
      </trkpt>
      <trkpt lat="47.23152" lon="-1.59709">
        <ele>17</ele>
        <time>2011-01-09T10:07:18Z</time>
      </trkpt>
      <trkpt lat="47.23153" lon="-1.5971">
        <ele>17</ele>
        <time>2011-01-09T10:07:19Z</time>
      </trkpt>
      <trkpt lat="47.23162" lon="-1.59724">
        <ele>17</ele>
        <time>2011-01-09T10:07:32Z</time>
      </trkpt>
      <trkpt lat="47.23163" lon="-1.59725">
        <ele>17</ele>
        <time>2011-01-09T10:07:33Z</time>
      </trkpt>
      <trkpt lat="47.23168" lon="-1.59734">
        <ele>19</ele>
        <time>2011-01-09T10:07:40Z</time>
      </trkpt>
      <trkpt lat="47.23171" lon="-1.59735">
        <ele>19</ele>
        <time>2011-01-09T10:07:42Z</time>
      </trkpt>
      <trkpt lat="47.23172" lon="-1.59736">
        <ele>19</ele>
        <time>2011-01-09T10:07:43Z</time>
      </trkpt>
      <trkpt lat="47.23172" lon="-1.59737">
        <ele>19</ele>
        <time>2011-01-09T10:07:44Z</time>
      </trkpt>
      <trkpt lat="47.23173" lon="-1.59739">
        <ele>19</ele>
        <time>2011-01-09T10:07:45Z</time>
      </trkpt>
      <trkpt lat="47.23173" lon="-1.5974">
        <ele>19</ele>
        <time>2011-01-09T10:07:46Z</time>
      </trkpt>
      <trkpt lat="47.23174" lon="-1.59741">
        <ele>19</ele>
        <time>2011-01-09T10:07:47Z</time>
      </trkpt>
      <trkpt lat="47.23176" lon="-1.59747">
        <ele>19</ele>
        <time>2011-01-09T10:07:51Z</time>
      </trkpt>
      <trkpt lat="47.23176" lon="-1.59748">
        <ele>19</ele>
        <time>2011-01-09T10:07:52Z</time>
      </trkpt>
      <trkpt lat="47.23177" lon="-1.5975">
        <ele>19</ele>
        <time>2011-01-09T10:07:53Z</time>
      </trkpt>
      <trkpt lat="47.23188" lon="-1.59778">
        <ele>19</ele>
        <time>2011-01-09T10:08:12Z</time>
      </trkpt>
      <trkpt lat="47.23188" lon="-1.59781">
        <ele>19</ele>
        <time>2011-01-09T10:08:13Z</time>
      </trkpt>
      <trkpt lat="47.23189" lon="-1.59783">
        <ele>19</ele>
        <time>2011-01-09T10:08:14Z</time>
      </trkpt>
      <trkpt lat="47.2319" lon="-1.59784">
        <ele>19</ele>
        <time>2011-01-09T10:08:15Z</time>
      </trkpt>
      <trkpt lat="47.23191" lon="-1.59785">
        <ele>19</ele>
        <time>2011-01-09T10:08:16Z</time>
      </trkpt>
      <trkpt lat="47.23192" lon="-1.59786">
        <ele>19</ele>
        <time>2011-01-09T10:08:17Z</time>
      </trkpt>
      <trkpt lat="47.23193" lon="-1.59788">
        <ele>19</ele>
        <time>2011-01-09T10:08:18Z</time>
      </trkpt>
      <trkpt lat="47.23194" lon="-1.59788">
        <ele>19</ele>
        <time>2011-01-09T10:08:19Z</time>
      </trkpt>
      <trkpt lat="47.23195" lon="-1.59789">
        <ele>19</ele>
        <time>2011-01-09T10:08:20Z</time>
      </trkpt>
      <trkpt lat="47.23197" lon="-1.5979">
        <ele>19</ele>
        <time>2011-01-09T10:08:21Z</time>
      </trkpt>
      <trkpt lat="47.23198" lon="-1.5979">
        <ele>19</ele>
        <time>2011-01-09T10:08:22Z</time>
      </trkpt>
      <trkpt lat="47.23199" lon="-1.5979">
        <ele>19</ele>
        <time>2011-01-09T10:08:23Z</time>
      </trkpt>
      <trkpt lat="47.232" lon="-1.5979">
        <ele>19</ele>
        <time>2011-01-09T10:08:24Z</time>
      </trkpt>
      <trkpt lat="47.23202" lon="-1.5979">
        <ele>19</ele>
        <time>2011-01-09T10:08:25Z</time>
      </trkpt>
      <trkpt lat="47.23204" lon="-1.59789">
        <ele>19</ele>
        <time>2011-01-09T10:08:26Z</time>
      </trkpt>
      <trkpt lat="47.23205" lon="-1.5979">
        <ele>19</ele>
        <time>2011-01-09T10:08:27Z</time>
      </trkpt>
      <trkpt lat="47.23221" lon="-1.5979">
        <ele>20</ele>
        <time>2011-01-09T10:08:42Z</time>
      </trkpt>
      <trkpt lat="47.23222" lon="-1.59792">
        <ele>20</ele>
        <time>2011-01-09T10:08:43Z</time>
      </trkpt>
      <trkpt lat="47.23223" lon="-1.59792">
        <ele>20</ele>
        <time>2011-01-09T10:08:44Z</time>
      </trkpt>
      <trkpt lat="47.23224" lon="-1.59792">
        <ele>20</ele>
        <time>2011-01-09T10:08:45Z</time>
      </trkpt>
      <trkpt lat="47.23225" lon="-1.59793">
        <ele>20</ele>
        <time>2011-01-09T10:08:46Z</time>
      </trkpt>
      <trkpt lat="47.23227" lon="-1.59794">
        <ele>20</ele>
        <time>2011-01-09T10:08:47Z</time>
      </trkpt>
      <trkpt lat="47.23227" lon="-1.59795">
        <ele>20</ele>
        <time>2011-01-09T10:08:48Z</time>
      </trkpt>
      <trkpt lat="47.23228" lon="-1.59796">
        <ele>20</ele>
        <time>2011-01-09T10:08:49Z</time>
      </trkpt>
      <trkpt lat="47.23229" lon="-1.59797">
        <ele>20</ele>
        <time>2011-01-09T10:08:50Z</time>
      </trkpt>
      <trkpt lat="47.2323" lon="-1.59799">
        <ele>20</ele>
        <time>2011-01-09T10:08:51Z</time>
      </trkpt>
      <trkpt lat="47.23231" lon="-1.59799">
        <ele>20</ele>
        <time>2011-01-09T10:08:52Z</time>
      </trkpt>
      <trkpt lat="47.23231" lon="-1.598">
        <ele>20</ele>
        <time>2011-01-09T10:08:53Z</time>
      </trkpt>
      <trkpt lat="47.23231" lon="-1.59802">
        <ele>20</ele>
        <time>2011-01-09T10:08:54Z</time>
      </trkpt>
      <trkpt lat="47.23232" lon="-1.59803">
        <ele>20</ele>
        <time>2011-01-09T10:08:55Z</time>
      </trkpt>
      <trkpt lat="47.23232" lon="-1.59804">
        <ele>20</ele>
        <time>2011-01-09T10:08:56Z</time>
      </trkpt>
      <trkpt lat="47.23231" lon="-1.59805">
        <ele>20</ele>
        <time>2011-01-09T10:08:57Z</time>
      </trkpt>
      <trkpt lat="47.23231" lon="-1.59807">
        <ele>20</ele>
        <time>2011-01-09T10:08:58Z</time>
      </trkpt>
      <trkpt lat="47.23232" lon="-1.59809">
        <ele>20</ele>
        <time>2011-01-09T10:08:59Z</time>
      </trkpt>
      <trkpt lat="47.23232" lon="-1.59809">
        <ele>20</ele>
        <time>2011-01-09T10:09:00Z</time>
      </trkpt>
      <trkpt lat="47.23233" lon="-1.5981">
        <ele>20</ele>
        <time>2011-01-09T10:09:01Z</time>
      </trkpt>
      <trkpt lat="47.23232" lon="-1.5981">
        <ele>20</ele>
        <time>2011-01-09T10:09:02Z</time>
      </trkpt>
      <trkpt lat="47.23232" lon="-1.59811">
        <ele>20</ele>
        <time>2011-01-09T10:09:03Z</time>
      </trkpt>
      <trkpt lat="47.23233" lon="-1.59812">
        <ele>20</ele>
        <time>2011-01-09T10:09:04Z</time>
      </trkpt>
      <trkpt lat="47.23235" lon="-1.59813">
        <ele>20</ele>
        <time>2011-01-09T10:09:05Z</time>
      </trkpt>
      <trkpt lat="47.23236" lon="-1.59814">
        <ele>20</ele>
        <time>2011-01-09T10:09:06Z</time>
      </trkpt>
      <trkpt lat="47.23237" lon="-1.59815">
        <ele>20</ele>
        <time>2011-01-09T10:09:07Z</time>
      </trkpt>
      <trkpt lat="47.2324" lon="-1.59819">
        <ele>20</ele>
        <time>2011-01-09T10:09:10Z</time>
      </trkpt>
      <trkpt lat="47.23246" lon="-1.59831">
        <ele>20</ele>
        <time>2011-01-09T10:09:18Z</time>
      </trkpt>
      <trkpt lat="47.23246" lon="-1.59832">
        <ele>20</ele>
        <time>2011-01-09T10:09:19Z</time>
      </trkpt>
      <trkpt lat="47.23248" lon="-1.59834">
        <ele>20</ele>
        <time>2011-01-09T10:09:20Z</time>
      </trkpt>
      <trkpt lat="47.23331" lon="-1.59913">
        <ele>20</ele>
        <time>2011-01-09T10:10:42Z</time>
      </trkpt>
      <trkpt lat="47.23332" lon="-1.59913">
        <ele>20</ele>
        <time>2011-01-09T10:10:43Z</time>
      </trkpt>
      <trkpt lat="47.2334" lon="-1.59965">
        <ele>23</ele>
        <time>2011-01-09T10:11:18Z</time>
      </trkpt>
      <trkpt lat="47.23341" lon="-1.59974">
        <ele>23</ele>
        <time>2011-01-09T10:11:22Z</time>
      </trkpt>
      <trkpt lat="47.23341" lon="-1.59976">
        <ele>23</ele>
        <time>2011-01-09T10:11:23Z</time>
      </trkpt>
      <trkpt lat="47.23341" lon="-1.59978">
        <ele>23</ele>
        <time>2011-01-09T10:11:24Z</time>
      </trkpt>
      <trkpt lat="47.23341" lon="-1.5998">
        <ele>22</ele>
        <time>2011-01-09T10:11:25Z</time>
      </trkpt>
      <trkpt lat="47.23342" lon="-1.59981">
        <ele>22</ele>
        <time>2011-01-09T10:11:26Z</time>
      </trkpt>
      <trkpt lat="47.23343" lon="-1.59982">
        <ele>22</ele>
        <time>2011-01-09T10:11:27Z</time>
      </trkpt>
      <trkpt lat="47.23344" lon="-1.59983">
        <ele>22</ele>
        <time>2011-01-09T10:11:28Z</time>
      </trkpt>
      <trkpt lat="47.23344" lon="-1.59984">
        <ele>22</ele>
        <time>2011-01-09T10:11:29Z</time>
      </trkpt>
      <trkpt lat="47.23345" lon="-1.59985">
        <ele>22</ele>
        <time>2011-01-09T10:11:30Z</time>
      </trkpt>
      <trkpt lat="47.23346" lon="-1.59987">
        <ele>22</ele>
        <time>2011-01-09T10:11:31Z</time>
      </trkpt>
      <trkpt lat="47.23346" lon="-1.59988">
        <ele>22</ele>
        <time>2011-01-09T10:11:32Z</time>
      </trkpt>
      <trkpt lat="47.23347" lon="-1.5999">
        <ele>22</ele>
        <time>2011-01-09T10:11:33Z</time>
      </trkpt>
      <trkpt lat="47.23348" lon="-1.59991">
        <ele>22</ele>
        <time>2011-01-09T10:11:34Z</time>
      </trkpt>
      <trkpt lat="47.23349" lon="-1.59993">
        <ele>22</ele>
        <time>2011-01-09T10:11:35Z</time>
      </trkpt>
      <trkpt lat="47.23349" lon="-1.59996">
        <ele>22</ele>
        <time>2011-01-09T10:11:37Z</time>
      </trkpt>
      <trkpt lat="47.2335" lon="-1.59998">
        <ele>22</ele>
        <time>2011-01-09T10:11:38Z</time>
      </trkpt>
      <trkpt lat="47.23349" lon="-1.6">
        <ele>21</ele>
        <time>2011-01-09T10:11:39Z</time>
      </trkpt>
      <trkpt lat="47.2335" lon="-1.60002">
        <ele>21</ele>
        <time>2011-01-09T10:11:40Z</time>
      </trkpt>
      <trkpt lat="47.2335" lon="-1.60004">
        <ele>21</ele>
        <time>2011-01-09T10:11:41Z</time>
      </trkpt>
      <trkpt lat="47.2335" lon="-1.60006">
        <ele>21</ele>
        <time>2011-01-09T10:11:42Z</time>
      </trkpt>
      <trkpt lat="47.2335" lon="-1.60007">
        <ele>21</ele>
        <time>2011-01-09T10:11:43Z</time>
      </trkpt>
      <trkpt lat="47.2335" lon="-1.60008">
        <ele>21</ele>
        <time>2011-01-09T10:11:44Z</time>
      </trkpt>
      <trkpt lat="47.2335" lon="-1.6001">
        <ele>21</ele>
        <time>2011-01-09T10:11:45Z</time>
      </trkpt>
      <trkpt lat="47.2335" lon="-1.60011">
        <ele>21</ele>
        <time>2011-01-09T10:11:46Z</time>
      </trkpt>
      <trkpt lat="47.2335" lon="-1.60013">
        <ele>21</ele>
        <time>2011-01-09T10:11:47Z</time>
      </trkpt>
      <trkpt lat="47.2335" lon="-1.60015">
        <ele>22</ele>
        <time>2011-01-09T10:11:48Z</time>
      </trkpt>
      <trkpt lat="47.2335" lon="-1.60017">
        <ele>22</ele>
        <time>2011-01-09T10:11:49Z</time>
      </trkpt>
      <trkpt lat="47.2335" lon="-1.60019">
        <ele>22</ele>
        <time>2011-01-09T10:11:50Z</time>
      </trkpt>
      <trkpt lat="47.23351" lon="-1.60021">
        <ele>22</ele>
        <time>2011-01-09T10:11:51Z</time>
      </trkpt>
      <trkpt lat="47.2335" lon="-1.60023">
        <ele>22</ele>
        <time>2011-01-09T10:11:52Z</time>
      </trkpt>
      <trkpt lat="47.23351" lon="-1.60024">
        <ele>22</ele>
        <time>2011-01-09T10:11:53Z</time>
      </trkpt>
      <trkpt lat="47.23351" lon="-1.60026">
        <ele>22</ele>
        <time>2011-01-09T10:11:54Z</time>
      </trkpt>
      <trkpt lat="47.23351" lon="-1.60027">
        <ele>22</ele>
        <time>2011-01-09T10:11:55Z</time>
      </trkpt>
      <trkpt lat="47.23353" lon="-1.60028">
        <ele>22</ele>
        <time>2011-01-09T10:11:56Z</time>
      </trkpt>
      <trkpt lat="47.23354" lon="-1.60029">
        <ele>22</ele>
        <time>2011-01-09T10:11:57Z</time>
      </trkpt>
      <trkpt lat="47.23355" lon="-1.6003">
        <ele>22</ele>
        <time>2011-01-09T10:11:58Z</time>
      </trkpt>
      <trkpt lat="47.23357" lon="-1.60032">
        <ele>23</ele>
        <time>2011-01-09T10:12:00Z</time>
      </trkpt>
      <trkpt lat="47.23365" lon="-1.60073">
        <ele>23</ele>
        <time>2011-01-09T10:12:25Z</time>
      </trkpt>
      <trkpt lat="47.23366" lon="-1.60074">
        <ele>23</ele>
        <time>2011-01-09T10:12:26Z</time>
      </trkpt>
      <trkpt lat="47.23368" lon="-1.60078">
        <ele>23</ele>
        <time>2011-01-09T10:12:28Z</time>
      </trkpt>
      <trkpt lat="47.23368" lon="-1.60081">
        <ele>23</ele>
        <time>2011-01-09T10:12:29Z</time>
      </trkpt>
      <trkpt lat="47.23369" lon="-1.60083">
        <ele>23</ele>
        <time>2011-01-09T10:12:30Z</time>
      </trkpt>
      <trkpt lat="47.23369" lon="-1.60086">
        <ele>22</ele>
        <time>2011-01-09T10:12:31Z</time>
      </trkpt>
      <trkpt lat="47.2337" lon="-1.60088">
        <ele>22</ele>
        <time>2011-01-09T10:12:32Z</time>
      </trkpt>
      <trkpt lat="47.23374" lon="-1.60097">
        <ele>22</ele>
        <time>2011-01-09T10:12:37Z</time>
      </trkpt>
      <trkpt lat="47.23375" lon="-1.60099">
        <ele>22</ele>
        <time>2011-01-09T10:12:38Z</time>
      </trkpt>
      <trkpt lat="47.23374" lon="-1.60101">
        <ele>22</ele>
        <time>2011-01-09T10:12:39Z</time>
      </trkpt>
      <trkpt lat="47.23375" lon="-1.60103">
        <ele>22</ele>
        <time>2011-01-09T10:12:40Z</time>
      </trkpt>
      <trkpt lat="47.23378" lon="-1.60108">
        <ele>22</ele>
        <time>2011-01-09T10:12:44Z</time>
      </trkpt>
      <trkpt lat="47.23379" lon="-1.60109">
        <ele>22</ele>
        <time>2011-01-09T10:12:45Z</time>
      </trkpt>
      <trkpt lat="47.23383" lon="-1.60116">
        <ele>22</ele>
        <time>2011-01-09T10:12:50Z</time>
      </trkpt>
      <trkpt lat="47.23384" lon="-1.60117">
        <ele>22</ele>
        <time>2011-01-09T10:12:51Z</time>
      </trkpt>
      <trkpt lat="47.23383" lon="-1.6012">
        <ele>22</ele>
        <time>2011-01-09T10:12:52Z</time>
      </trkpt>
      <trkpt lat="47.23383" lon="-1.60122">
        <ele>22</ele>
        <time>2011-01-09T10:12:53Z</time>
      </trkpt>
      <trkpt lat="47.23383" lon="-1.60125">
        <ele>22</ele>
        <time>2011-01-09T10:12:54Z</time>
      </trkpt>
      <trkpt lat="47.23382" lon="-1.60127">
        <ele>22</ele>
        <time>2011-01-09T10:12:55Z</time>
      </trkpt>
      <trkpt lat="47.23382" lon="-1.60129">
        <ele>22</ele>
        <time>2011-01-09T10:12:56Z</time>
      </trkpt>
      <trkpt lat="47.23383" lon="-1.60131">
        <ele>22</ele>
        <time>2011-01-09T10:12:57Z</time>
      </trkpt>
      <trkpt lat="47.23383" lon="-1.60133">
        <ele>22</ele>
        <time>2011-01-09T10:12:58Z</time>
      </trkpt>
      <trkpt lat="47.23385" lon="-1.60137">
        <ele>22</ele>
        <time>2011-01-09T10:13:00Z</time>
      </trkpt>
      <trkpt lat="47.23389" lon="-1.60167">
        <ele>21</ele>
        <time>2011-01-09T10:13:18Z</time>
      </trkpt>
      <trkpt lat="47.23389" lon="-1.60169">
        <ele>21</ele>
        <time>2011-01-09T10:13:19Z</time>
      </trkpt>
      <trkpt lat="47.2339" lon="-1.6017">
        <ele>21</ele>
        <time>2011-01-09T10:13:20Z</time>
      </trkpt>
      <trkpt lat="47.23392" lon="-1.60172">
        <ele>21</ele>
        <time>2011-01-09T10:13:21Z</time>
      </trkpt>
      <trkpt lat="47.23405" lon="-1.60201">
        <ele>21</ele>
        <time>2011-01-09T10:13:41Z</time>
      </trkpt>
      <trkpt lat="47.23406" lon="-1.60203">
        <ele>21</ele>
        <time>2011-01-09T10:13:42Z</time>
      </trkpt>
      <trkpt lat="47.23408" lon="-1.60203">
        <ele>21</ele>
        <time>2011-01-09T10:13:43Z</time>
      </trkpt>
      <trkpt lat="47.23412" lon="-1.60206">
        <ele>21</ele>
        <time>2011-01-09T10:13:45Z</time>
      </trkpt>
      <trkpt lat="47.23413" lon="-1.60207">
        <ele>21</ele>
        <time>2011-01-09T10:13:46Z</time>
      </trkpt>
      <trkpt lat="47.23414" lon="-1.60208">
        <ele>21</ele>
        <time>2011-01-09T10:13:47Z</time>
      </trkpt>
      <trkpt lat="47.23415" lon="-1.6021">
        <ele>21</ele>
        <time>2011-01-09T10:13:48Z</time>
      </trkpt>
      <trkpt lat="47.23415" lon="-1.60213">
        <ele>21</ele>
        <time>2011-01-09T10:13:49Z</time>
      </trkpt>
      <trkpt lat="47.23416" lon="-1.60214">
        <ele>21</ele>
        <time>2011-01-09T10:13:50Z</time>
      </trkpt>
      <trkpt lat="47.23417" lon="-1.60217">
        <ele>22</ele>
        <time>2011-01-09T10:13:51Z</time>
      </trkpt>
      <trkpt lat="47.23418" lon="-1.60218">
        <ele>22</ele>
        <time>2011-01-09T10:13:52Z</time>
      </trkpt>
      <trkpt lat="47.23432" lon="-1.60237">
        <ele>22</ele>
        <time>2011-01-09T10:14:09Z</time>
      </trkpt>
      <trkpt lat="47.23434" lon="-1.60238">
        <ele>22</ele>
        <time>2011-01-09T10:14:10Z</time>
      </trkpt>
      <trkpt lat="47.23452" lon="-1.60269">
        <ele>21</ele>
        <time>2011-01-09T10:14:30Z</time>
      </trkpt>
      <trkpt lat="47.23454" lon="-1.60269">
        <ele>21</ele>
        <time>2011-01-09T10:14:31Z</time>
      </trkpt>
      <trkpt lat="47.23455" lon="-1.60269">
        <ele>21</ele>
        <time>2011-01-09T10:14:32Z</time>
      </trkpt>
      <trkpt lat="47.23457" lon="-1.60268">
        <ele>21</ele>
        <time>2011-01-09T10:14:33Z</time>
      </trkpt>
      <trkpt lat="47.23458" lon="-1.60268">
        <ele>21</ele>
        <time>2011-01-09T10:14:34Z</time>
      </trkpt>
      <trkpt lat="47.2346" lon="-1.60268">
        <ele>22</ele>
        <time>2011-01-09T10:14:35Z</time>
      </trkpt>
      <trkpt lat="47.23461" lon="-1.60268">
        <ele>22</ele>
        <time>2011-01-09T10:14:36Z</time>
      </trkpt>
      <trkpt lat="47.23463" lon="-1.60268">
        <ele>22</ele>
        <time>2011-01-09T10:14:37Z</time>
      </trkpt>
      <trkpt lat="47.23464" lon="-1.60267">
        <ele>22</ele>
        <time>2011-01-09T10:14:38Z</time>
      </trkpt>
      <trkpt lat="47.23466" lon="-1.60268">
        <ele>22</ele>
        <time>2011-01-09T10:14:39Z</time>
      </trkpt>
      <trkpt lat="47.23468" lon="-1.60268">
        <ele>22</ele>
        <time>2011-01-09T10:14:40Z</time>
      </trkpt>
      <trkpt lat="47.2347" lon="-1.60268">
        <ele>22</ele>
        <time>2011-01-09T10:14:41Z</time>
      </trkpt>
      <trkpt lat="47.23471" lon="-1.60268">
        <ele>22</ele>
        <time>2011-01-09T10:14:42Z</time>
      </trkpt>
      <trkpt lat="47.23472" lon="-1.60268">
        <ele>22</ele>
        <time>2011-01-09T10:14:43Z</time>
      </trkpt>
      <trkpt lat="47.23479" lon="-1.60278">
        <ele>22</ele>
        <time>2011-01-09T10:14:53Z</time>
      </trkpt>
      <trkpt lat="47.2348" lon="-1.60278">
        <ele>22</ele>
        <time>2011-01-09T10:14:54Z</time>
      </trkpt>
      <trkpt lat="47.23482" lon="-1.60279">
        <ele>22</ele>
        <time>2011-01-09T10:14:55Z</time>
      </trkpt>
      <trkpt lat="47.23482" lon="-1.60282">
        <ele>22</ele>
        <time>2011-01-09T10:14:56Z</time>
      </trkpt>
      <trkpt lat="47.23483" lon="-1.60284">
        <ele>22</ele>
        <time>2011-01-09T10:14:58Z</time>
      </trkpt>
      <trkpt lat="47.23484" lon="-1.60286">
        <ele>22</ele>
        <time>2011-01-09T10:14:59Z</time>
      </trkpt>
      <trkpt lat="47.23485" lon="-1.60288">
        <ele>22</ele>
        <time>2011-01-09T10:15:00Z</time>
      </trkpt>
      <trkpt lat="47.23484" lon="-1.6029">
        <ele>22</ele>
        <time>2011-01-09T10:15:01Z</time>
      </trkpt>
      <trkpt lat="47.23485" lon="-1.60292">
        <ele>22</ele>
        <time>2011-01-09T10:15:02Z</time>
      </trkpt>
      <trkpt lat="47.23485" lon="-1.60294">
        <ele>22</ele>
        <time>2011-01-09T10:15:03Z</time>
      </trkpt>
      <trkpt lat="47.23486" lon="-1.60296">
        <ele>21</ele>
        <time>2011-01-09T10:15:04Z</time>
      </trkpt>
      <trkpt lat="47.23487" lon="-1.60297">
        <ele>21</ele>
        <time>2011-01-09T10:15:05Z</time>
      </trkpt>
      <trkpt lat="47.23514" lon="-1.60351">
        <ele>23</ele>
        <time>2011-01-09T10:15:53Z</time>
      </trkpt>
      <trkpt lat="47.23517" lon="-1.60376">
        <ele>23</ele>
        <time>2011-01-09T10:16:07Z</time>
      </trkpt>
      <trkpt lat="47.23518" lon="-1.60378">
        <ele>23</ele>
        <time>2011-01-09T10:16:08Z</time>
      </trkpt>
      <trkpt lat="47.23518" lon="-1.6038">
        <ele>23</ele>
        <time>2011-01-09T10:16:09Z</time>
      </trkpt>
      <trkpt lat="47.23519" lon="-1.60382">
        <ele>23</ele>
        <time>2011-01-09T10:16:10Z</time>
      </trkpt>
      <trkpt lat="47.23519" lon="-1.60384">
        <ele>23</ele>
        <time>2011-01-09T10:16:11Z</time>
      </trkpt>
      <trkpt lat="47.2352" lon="-1.60386">
        <ele>23</ele>
        <time>2011-01-09T10:16:12Z</time>
      </trkpt>
      <trkpt lat="47.2352" lon="-1.60389">
        <ele>23</ele>
        <time>2011-01-09T10:16:13Z</time>
      </trkpt>
      <trkpt lat="47.23519" lon="-1.60392">
        <ele>23</ele>
        <time>2011-01-09T10:16:14Z</time>
      </trkpt>
      <trkpt lat="47.2352" lon="-1.60397">
        <ele>23</ele>
        <time>2011-01-09T10:16:16Z</time>
      </trkpt>
      <trkpt lat="47.2352" lon="-1.60398">
        <ele>23</ele>
        <time>2011-01-09T10:16:17Z</time>
      </trkpt>
      <trkpt lat="47.2352" lon="-1.60401">
        <ele>23</ele>
        <time>2011-01-09T10:16:18Z</time>
      </trkpt>
      <trkpt lat="47.23521" lon="-1.60405">
        <ele>23</ele>
        <time>2011-01-09T10:16:22Z</time>
      </trkpt>
      <trkpt lat="47.23522" lon="-1.60406">
        <ele>23</ele>
        <time>2011-01-09T10:16:23Z</time>
      </trkpt>
      <trkpt lat="47.23525" lon="-1.60414">
        <ele>23</ele>
        <time>2011-01-09T10:16:31Z</time>
      </trkpt>
      <trkpt lat="47.23537" lon="-1.6043">
        <ele>22</ele>
        <time>2011-01-09T10:16:41Z</time>
      </trkpt>
      <trkpt lat="47.23537" lon="-1.60433">
        <ele>22</ele>
        <time>2011-01-09T10:16:42Z</time>
      </trkpt>
      <trkpt lat="47.23537" lon="-1.60435">
        <ele>22</ele>
        <time>2011-01-09T10:16:43Z</time>
      </trkpt>
      <trkpt lat="47.23538" lon="-1.6044">
        <ele>22</ele>
        <time>2011-01-09T10:16:46Z</time>
      </trkpt>
      <trkpt lat="47.23538" lon="-1.60441">
        <ele>22</ele>
        <time>2011-01-09T10:16:47Z</time>
      </trkpt>
      <trkpt lat="47.23539" lon="-1.60442">
        <ele>22</ele>
        <time>2011-01-09T10:16:48Z</time>
      </trkpt>
      <trkpt lat="47.23539" lon="-1.60443">
        <ele>22</ele>
        <time>2011-01-09T10:16:49Z</time>
      </trkpt>
      <trkpt lat="47.23539" lon="-1.6045">
        <ele>22</ele>
        <time>2011-01-09T10:16:53Z</time>
      </trkpt>
      <trkpt lat="47.23539" lon="-1.60451">
        <ele>22</ele>
        <time>2011-01-09T10:16:54Z</time>
      </trkpt>
      <trkpt lat="47.2354" lon="-1.60452">
        <ele>22</ele>
        <time>2011-01-09T10:16:55Z</time>
      </trkpt>
      <trkpt lat="47.23541" lon="-1.60454">
        <ele>22</ele>
        <time>2011-01-09T10:16:56Z</time>
      </trkpt>
      <trkpt lat="47.23542" lon="-1.60463">
        <ele>22</ele>
        <time>2011-01-09T10:17:02Z</time>
      </trkpt>
      <trkpt lat="47.23542" lon="-1.60464">
        <ele>22</ele>
        <time>2011-01-09T10:17:03Z</time>
      </trkpt>
      <trkpt lat="47.23543" lon="-1.60489">
        <ele>22</ele>
        <time>2011-01-09T10:17:15Z</time>
      </trkpt>
      <trkpt lat="47.23544" lon="-1.60489">
        <ele>22</ele>
        <time>2011-01-09T10:17:16Z</time>
      </trkpt>
      <trkpt lat="47.23548" lon="-1.6052">
        <ele>23</ele>
        <time>2011-01-09T10:17:36Z</time>
      </trkpt>
      <trkpt lat="47.23549" lon="-1.60521">
        <ele>23</ele>
        <time>2011-01-09T10:17:37Z</time>
      </trkpt>
      <trkpt lat="47.2355" lon="-1.60522">
        <ele>23</ele>
        <time>2011-01-09T10:17:38Z</time>
      </trkpt>
      <trkpt lat="47.23549" lon="-1.60525">
        <ele>23</ele>
        <time>2011-01-09T10:17:39Z</time>
      </trkpt>
      <trkpt lat="47.23549" lon="-1.60527">
        <ele>23</ele>
        <time>2011-01-09T10:17:40Z</time>
      </trkpt>
      <trkpt lat="47.23549" lon="-1.60529">
        <ele>23</ele>
        <time>2011-01-09T10:17:41Z</time>
      </trkpt>
      <trkpt lat="47.2355" lon="-1.6053">
        <ele>23</ele>
        <time>2011-01-09T10:17:42Z</time>
      </trkpt>
      <trkpt lat="47.23551" lon="-1.60532">
        <ele>23</ele>
        <time>2011-01-09T10:17:43Z</time>
      </trkpt>
      <trkpt lat="47.23552" lon="-1.60533">
        <ele>23</ele>
        <time>2011-01-09T10:17:44Z</time>
      </trkpt>
      <trkpt lat="47.23553" lon="-1.60535">
        <ele>23</ele>
        <time>2011-01-09T10:17:45Z</time>
      </trkpt>
      <trkpt lat="47.2356" lon="-1.60557">
        <ele>23</ele>
        <time>2011-01-09T10:18:00Z</time>
      </trkpt>
      <trkpt lat="47.23559" lon="-1.60561">
        <ele>23</ele>
        <time>2011-01-09T10:18:02Z</time>
      </trkpt>
      <trkpt lat="47.23558" lon="-1.60564">
        <ele>23</ele>
        <time>2011-01-09T10:18:03Z</time>
      </trkpt>
      <trkpt lat="47.23556" lon="-1.60567">
        <ele>23</ele>
        <time>2011-01-09T10:18:04Z</time>
      </trkpt>
      <trkpt lat="47.23555" lon="-1.60569">
        <ele>23</ele>
        <time>2011-01-09T10:18:05Z</time>
      </trkpt>
      <trkpt lat="47.23555" lon="-1.60571">
        <ele>23</ele>
        <time>2011-01-09T10:18:06Z</time>
      </trkpt>
      <trkpt lat="47.23553" lon="-1.60576">
        <ele>23</ele>
        <time>2011-01-09T10:18:08Z</time>
      </trkpt>
      <trkpt lat="47.23552" lon="-1.60579">
        <ele>23</ele>
        <time>2011-01-09T10:18:09Z</time>
      </trkpt>
      <trkpt lat="47.23552" lon="-1.60581">
        <ele>23</ele>
        <time>2011-01-09T10:18:10Z</time>
      </trkpt>
      <trkpt lat="47.2355" lon="-1.60584">
        <ele>24</ele>
        <time>2011-01-09T10:18:11Z</time>
      </trkpt>
      <trkpt lat="47.23551" lon="-1.60584">
        <ele>24</ele>
        <time>2011-01-09T10:18:12Z</time>
      </trkpt>
      <trkpt lat="47.23552" lon="-1.60586">
        <ele>24</ele>
        <time>2011-01-09T10:18:13Z</time>
      </trkpt>
      <trkpt lat="47.23553" lon="-1.60587">
        <ele>24</ele>
        <time>2011-01-09T10:18:14Z</time>
      </trkpt>
      <trkpt lat="47.2358" lon="-1.60621">
        <ele>24</ele>
        <time>2011-01-09T10:18:41Z</time>
      </trkpt>
      <trkpt lat="47.23582" lon="-1.60622">
        <ele>24</ele>
        <time>2011-01-09T10:18:42Z</time>
      </trkpt>
      <trkpt lat="47.23588" lon="-1.60627">
        <ele>25</ele>
        <time>2011-01-09T10:18:45Z</time>
      </trkpt>
      <trkpt lat="47.23589" lon="-1.6063">
        <ele>25</ele>
        <time>2011-01-09T10:18:47Z</time>
      </trkpt>
      <trkpt lat="47.23588" lon="-1.60632">
        <ele>25</ele>
        <time>2011-01-09T10:18:48Z</time>
      </trkpt>
      <trkpt lat="47.23588" lon="-1.60634">
        <ele>25</ele>
        <time>2011-01-09T10:18:49Z</time>
      </trkpt>
      <trkpt lat="47.23588" lon="-1.60636">
        <ele>25</ele>
        <time>2011-01-09T10:18:50Z</time>
      </trkpt>
      <trkpt lat="47.23588" lon="-1.60637">
        <ele>25</ele>
        <time>2011-01-09T10:18:51Z</time>
      </trkpt>
      <trkpt lat="47.23588" lon="-1.60638">
        <ele>25</ele>
        <time>2011-01-09T10:18:52Z</time>
      </trkpt>
      <trkpt lat="47.23609" lon="-1.60682">
        <ele>24</ele>
        <time>2011-01-09T10:19:24Z</time>
      </trkpt>
      <trkpt lat="47.23611" lon="-1.60682">
        <ele>24</ele>
        <time>2011-01-09T10:19:25Z</time>
      </trkpt>
      <trkpt lat="47.23612" lon="-1.60683">
        <ele>24</ele>
        <time>2011-01-09T10:19:26Z</time>
      </trkpt>
      <trkpt lat="47.2362" lon="-1.60686">
        <ele>24</ele>
        <time>2011-01-09T10:19:32Z</time>
      </trkpt>
      <trkpt lat="47.23621" lon="-1.60687">
        <ele>24</ele>
        <time>2011-01-09T10:19:33Z</time>
      </trkpt>
      <trkpt lat="47.23622" lon="-1.60689">
        <ele>24</ele>
        <time>2011-01-09T10:19:34Z</time>
      </trkpt>
      <trkpt lat="47.23623" lon="-1.6069">
        <ele>24</ele>
        <time>2011-01-09T10:19:35Z</time>
      </trkpt>
      <trkpt lat="47.23625" lon="-1.6069">
        <ele>24</ele>
        <time>2011-01-09T10:19:36Z</time>
      </trkpt>
      <trkpt lat="47.23626" lon="-1.6069">
        <ele>24</ele>
        <time>2011-01-09T10:19:37Z</time>
      </trkpt>
      <trkpt lat="47.23628" lon="-1.60691">
        <ele>24</ele>
        <time>2011-01-09T10:19:38Z</time>
      </trkpt>
      <trkpt lat="47.23629" lon="-1.60693">
        <ele>24</ele>
        <time>2011-01-09T10:19:39Z</time>
      </trkpt>
      <trkpt lat="47.23629" lon="-1.60694">
        <ele>24</ele>
        <time>2011-01-09T10:19:40Z</time>
      </trkpt>
      <trkpt lat="47.23631" lon="-1.60695">
        <ele>24</ele>
        <time>2011-01-09T10:19:41Z</time>
      </trkpt>
      <trkpt lat="47.23636" lon="-1.60695">
        <ele>24</ele>
        <time>2011-01-09T10:19:45Z</time>
      </trkpt>
      <trkpt lat="47.23637" lon="-1.60695">
        <ele>24</ele>
        <time>2011-01-09T10:19:46Z</time>
      </trkpt>
      <trkpt lat="47.23638" lon="-1.60696">
        <ele>24</ele>
        <time>2011-01-09T10:19:47Z</time>
      </trkpt>
      <trkpt lat="47.23638" lon="-1.60698">
        <ele>24</ele>
        <time>2011-01-09T10:19:48Z</time>
      </trkpt>
      <trkpt lat="47.23639" lon="-1.607">
        <ele>24</ele>
        <time>2011-01-09T10:19:49Z</time>
      </trkpt>
      <trkpt lat="47.2364" lon="-1.60702">
        <ele>24</ele>
        <time>2011-01-09T10:19:50Z</time>
      </trkpt>
      <trkpt lat="47.23641" lon="-1.60703">
        <ele>24</ele>
        <time>2011-01-09T10:19:51Z</time>
      </trkpt>
      <trkpt lat="47.23643" lon="-1.60704">
        <ele>24</ele>
        <time>2011-01-09T10:19:52Z</time>
      </trkpt>
      <trkpt lat="47.23644" lon="-1.60705">
        <ele>24</ele>
        <time>2011-01-09T10:19:53Z</time>
      </trkpt>
      <trkpt lat="47.23645" lon="-1.60706">
        <ele>24</ele>
        <time>2011-01-09T10:19:54Z</time>
      </trkpt>
      <trkpt lat="47.23646" lon="-1.60707">
        <ele>24</ele>
        <time>2011-01-09T10:19:55Z</time>
      </trkpt>
      <trkpt lat="47.23647" lon="-1.60708">
        <ele>24</ele>
        <time>2011-01-09T10:19:56Z</time>
      </trkpt>
      <trkpt lat="47.23648" lon="-1.60708">
        <ele>24</ele>
        <time>2011-01-09T10:19:57Z</time>
      </trkpt>
      <trkpt lat="47.23649" lon="-1.60709">
        <ele>24</ele>
        <time>2011-01-09T10:19:58Z</time>
      </trkpt>
      <trkpt lat="47.2365" lon="-1.60709">
        <ele>24</ele>
        <time>2011-01-09T10:19:59Z</time>
      </trkpt>
      <trkpt lat="47.23671" lon="-1.60739">
        <ele>24</ele>
        <time>2011-01-09T10:20:33Z</time>
      </trkpt>
      <trkpt lat="47.23672" lon="-1.60739">
        <ele>24</ele>
        <time>2011-01-09T10:20:34Z</time>
      </trkpt>
      <trkpt lat="47.23673" lon="-1.60741">
        <ele>24</ele>
        <time>2011-01-09T10:20:35Z</time>
      </trkpt>
      <trkpt lat="47.23673" lon="-1.60742">
        <ele>24</ele>
        <time>2011-01-09T10:20:36Z</time>
      </trkpt>
      <trkpt lat="47.23674" lon="-1.60744">
        <ele>24</ele>
        <time>2011-01-09T10:20:37Z</time>
      </trkpt>
      <trkpt lat="47.23675" lon="-1.60746">
        <ele>24</ele>
        <time>2011-01-09T10:20:38Z</time>
      </trkpt>
      <trkpt lat="47.23675" lon="-1.60747">
        <ele>24</ele>
        <time>2011-01-09T10:20:39Z</time>
      </trkpt>
      <trkpt lat="47.23676" lon="-1.60748">
        <ele>24</ele>
        <time>2011-01-09T10:20:40Z</time>
      </trkpt>
      <trkpt lat="47.23676" lon="-1.60749">
        <ele>24</ele>
        <time>2011-01-09T10:20:41Z</time>
      </trkpt>
      <trkpt lat="47.23677" lon="-1.60751">
        <ele>23</ele>
        <time>2011-01-09T10:20:42Z</time>
      </trkpt>
      <trkpt lat="47.23678" lon="-1.60752">
        <ele>23</ele>
        <time>2011-01-09T10:20:43Z</time>
      </trkpt>
      <trkpt lat="47.23678" lon="-1.60754">
        <ele>23</ele>
        <time>2011-01-09T10:20:44Z</time>
      </trkpt>
      <trkpt lat="47.23678" lon="-1.60757">
        <ele>24</ele>
        <time>2011-01-09T10:20:45Z</time>
      </trkpt>
      <trkpt lat="47.23678" lon="-1.6076">
        <ele>24</ele>
        <time>2011-01-09T10:20:46Z</time>
      </trkpt>
      <trkpt lat="47.23678" lon="-1.60762">
        <ele>24</ele>
        <time>2011-01-09T10:20:47Z</time>
      </trkpt>
      <trkpt lat="47.23677" lon="-1.60764">
        <ele>24</ele>
        <time>2011-01-09T10:20:48Z</time>
      </trkpt>
      <trkpt lat="47.23677" lon="-1.60764">
        <ele>24</ele>
        <time>2011-01-09T10:20:49Z</time>
      </trkpt>
      <trkpt lat="47.23677" lon="-1.60765">
        <ele>24</ele>
        <time>2011-01-09T10:20:50Z</time>
      </trkpt>
      <trkpt lat="47.23677" lon="-1.60767">
        <ele>24</ele>
        <time>2011-01-09T10:20:51Z</time>
      </trkpt>
      <trkpt lat="47.23677" lon="-1.60767">
        <ele>24</ele>
        <time>2011-01-09T10:20:52Z</time>
      </trkpt>
      <trkpt lat="47.23678" lon="-1.60768">
        <ele>24</ele>
        <time>2011-01-09T10:20:53Z</time>
      </trkpt>
      <trkpt lat="47.23681" lon="-1.60777">
        <ele>25</ele>
        <time>2011-01-09T10:20:59Z</time>
      </trkpt>
      <trkpt lat="47.23681" lon="-1.60778">
        <ele>25</ele>
        <time>2011-01-09T10:21:00Z</time>
      </trkpt>
      <trkpt lat="47.23668" lon="-1.60819">
        <ele>24</ele>
        <time>2011-01-09T10:21:34Z</time>
      </trkpt>
      <trkpt lat="47.23661" lon="-1.6085">
        <ele>25</ele>
        <time>2011-01-09T10:21:47Z</time>
      </trkpt>
      <trkpt lat="47.23661" lon="-1.60851">
        <ele>25</ele>
        <time>2011-01-09T10:21:48Z</time>
      </trkpt>
      <trkpt lat="47.23657" lon="-1.60877">
        <ele>26</ele>
        <time>2011-01-09T10:22:06Z</time>
      </trkpt>
      <trkpt lat="47.23656" lon="-1.60879">
        <ele>26</ele>
        <time>2011-01-09T10:22:07Z</time>
      </trkpt>
      <trkpt lat="47.23644" lon="-1.60889">
        <ele>26</ele>
        <time>2011-01-09T10:22:17Z</time>
      </trkpt>
      <trkpt lat="47.23644" lon="-1.6089">
        <ele>26</ele>
        <time>2011-01-09T10:22:18Z</time>
      </trkpt>
      <trkpt lat="47.23643" lon="-1.60891">
        <ele>26</ele>
        <time>2011-01-09T10:22:19Z</time>
      </trkpt>
      <trkpt lat="47.23642" lon="-1.60892">
        <ele>26</ele>
        <time>2011-01-09T10:22:20Z</time>
      </trkpt>
      <trkpt lat="47.23641" lon="-1.60893">
        <ele>26</ele>
        <time>2011-01-09T10:22:21Z</time>
      </trkpt>
      <trkpt lat="47.23641" lon="-1.60894">
        <ele>26</ele>
        <time>2011-01-09T10:22:22Z</time>
      </trkpt>
      <trkpt lat="47.2364" lon="-1.60896">
        <ele>26</ele>
        <time>2011-01-09T10:22:23Z</time>
      </trkpt>
      <trkpt lat="47.23639" lon="-1.60897">
        <ele>26</ele>
        <time>2011-01-09T10:22:24Z</time>
      </trkpt>
      <trkpt lat="47.23649" lon="-1.60934">
        <ele>27</ele>
        <time>2011-01-09T10:22:55Z</time>
      </trkpt>
      <trkpt lat="47.2365" lon="-1.60937">
        <ele>27</ele>
        <time>2011-01-09T10:22:56Z</time>
      </trkpt>
      <trkpt lat="47.23656" lon="-1.61181">
        <ele>26</ele>
        <time>2011-01-09T10:26:39Z</time>
      </trkpt>
      <trkpt lat="47.23656" lon="-1.6118">
        <ele>26</ele>
        <time>2011-01-09T10:26:40Z</time>
      </trkpt>
      <trkpt lat="47.2365" lon="-1.61166">
        <ele>26</ele>
        <time>2011-01-09T10:27:04Z</time>
      </trkpt>
      <trkpt lat="47.23648" lon="-1.61166">
        <ele>26</ele>
        <time>2011-01-09T10:27:05Z</time>
      </trkpt>
      <trkpt lat="47.23648" lon="-1.61167">
        <ele>26</ele>
        <time>2011-01-09T10:27:06Z</time>
      </trkpt>
      <trkpt lat="47.23647" lon="-1.61167">
        <ele>26</ele>
        <time>2011-01-09T10:27:07Z</time>
      </trkpt>
      <trkpt lat="47.23646" lon="-1.61168">
        <ele>26</ele>
        <time>2011-01-09T10:27:08Z</time>
      </trkpt>
      <trkpt lat="47.23645" lon="-1.61168">
        <ele>26</ele>
        <time>2011-01-09T10:27:09Z</time>
      </trkpt>
      <trkpt lat="47.23644" lon="-1.61168">
        <ele>26</ele>
        <time>2011-01-09T10:27:10Z</time>
      </trkpt>
      <trkpt lat="47.23672" lon="-1.61233">
        <ele>26</ele>
        <time>2011-01-09T10:28:12Z</time>
      </trkpt>
      <trkpt lat="47.23673" lon="-1.61233">
        <ele>26</ele>
        <time>2011-01-09T10:28:13Z</time>
      </trkpt>
      <trkpt lat="47.23673" lon="-1.61235">
        <ele>26</ele>
        <time>2011-01-09T10:28:14Z</time>
      </trkpt>
      <trkpt lat="47.23674" lon="-1.61235">
        <ele>26</ele>
        <time>2011-01-09T10:28:15Z</time>
      </trkpt>
      <trkpt lat="47.23675" lon="-1.61236">
        <ele>26</ele>
        <time>2011-01-09T10:28:16Z</time>
      </trkpt>
      <trkpt lat="47.23676" lon="-1.61237">
        <ele>26</ele>
        <time>2011-01-09T10:28:17Z</time>
      </trkpt>
      <trkpt lat="47.23677" lon="-1.61237">
        <ele>26</ele>
        <time>2011-01-09T10:28:18Z</time>
      </trkpt>
      <trkpt lat="47.23677" lon="-1.61238">
        <ele>26</ele>
        <time>2011-01-09T10:28:19Z</time>
      </trkpt>
      <trkpt lat="47.23678" lon="-1.61239">
        <ele>26</ele>
        <time>2011-01-09T10:28:20Z</time>
      </trkpt>
      <trkpt lat="47.23678" lon="-1.61241">
        <ele>26</ele>
        <time>2011-01-09T10:28:21Z</time>
      </trkpt>
      <trkpt lat="47.23677" lon="-1.61242">
        <ele>26</ele>
        <time>2011-01-09T10:28:22Z</time>
      </trkpt>
      <trkpt lat="47.23677" lon="-1.61244">
        <ele>26</ele>
        <time>2011-01-09T10:28:23Z</time>
      </trkpt>
      <trkpt lat="47.23677" lon="-1.61245">
        <ele>26</ele>
        <time>2011-01-09T10:28:24Z</time>
      </trkpt>
      <trkpt lat="47.23677" lon="-1.61247">
        <ele>26</ele>
        <time>2011-01-09T10:28:25Z</time>
      </trkpt>
      <trkpt lat="47.23678" lon="-1.6125">
        <ele>26</ele>
        <time>2011-01-09T10:28:28Z</time>
      </trkpt>
      <trkpt lat="47.23679" lon="-1.61251">
        <ele>26</ele>
        <time>2011-01-09T10:28:29Z</time>
      </trkpt>
      <trkpt lat="47.23679" lon="-1.61253">
        <ele>26</ele>
        <time>2011-01-09T10:28:30Z</time>
      </trkpt>
      <trkpt lat="47.23679" lon="-1.61255">
        <ele>26</ele>
        <time>2011-01-09T10:28:31Z</time>
      </trkpt>
      <trkpt lat="47.23678" lon="-1.61257">
        <ele>26</ele>
        <time>2011-01-09T10:28:32Z</time>
      </trkpt>
      <trkpt lat="47.23678" lon="-1.61259">
        <ele>26</ele>
        <time>2011-01-09T10:28:33Z</time>
      </trkpt>
      <trkpt lat="47.23677" lon="-1.6126">
        <ele>26</ele>
        <time>2011-01-09T10:28:34Z</time>
      </trkpt>
      <trkpt lat="47.23677" lon="-1.61262">
        <ele>26</ele>
        <time>2011-01-09T10:28:35Z</time>
      </trkpt>
      <trkpt lat="47.23677" lon="-1.61263">
        <ele>26</ele>
        <time>2011-01-09T10:28:36Z</time>
      </trkpt>
      <trkpt lat="47.23677" lon="-1.61265">
        <ele>26</ele>
        <time>2011-01-09T10:28:37Z</time>
      </trkpt>
      <trkpt lat="47.23678" lon="-1.61267">
        <ele>26</ele>
        <time>2011-01-09T10:28:38Z</time>
      </trkpt>
      <trkpt lat="47.23681" lon="-1.61286">
        <ele>26</ele>
        <time>2011-01-09T10:28:51Z</time>
      </trkpt>
      <trkpt lat="47.23681" lon="-1.61288">
        <ele>26</ele>
        <time>2011-01-09T10:28:52Z</time>
      </trkpt>
      <trkpt lat="47.23682" lon="-1.61289">
        <ele>26</ele>
        <time>2011-01-09T10:28:53Z</time>
      </trkpt>
      <trkpt lat="47.23683" lon="-1.6129">
        <ele>26</ele>
        <time>2011-01-09T10:28:54Z</time>
      </trkpt>
      <trkpt lat="47.23687" lon="-1.61294">
        <ele>26</ele>
        <time>2011-01-09T10:28:58Z</time>
      </trkpt>
      <trkpt lat="47.23688" lon="-1.61295">
        <ele>26</ele>
        <time>2011-01-09T10:28:59Z</time>
      </trkpt>
      <trkpt lat="47.23689" lon="-1.61295">
        <ele>26</ele>
        <time>2011-01-09T10:29:00Z</time>
      </trkpt>
      <trkpt lat="47.2369" lon="-1.61296">
        <ele>26</ele>
        <time>2011-01-09T10:29:01Z</time>
      </trkpt>
      <trkpt lat="47.23691" lon="-1.61297">
        <ele>26</ele>
        <time>2011-01-09T10:29:02Z</time>
      </trkpt>
      <trkpt lat="47.23692" lon="-1.61297">
        <ele>26</ele>
        <time>2011-01-09T10:29:03Z</time>
      </trkpt>
      <trkpt lat="47.23693" lon="-1.61298">
        <ele>26</ele>
        <time>2011-01-09T10:29:04Z</time>
      </trkpt>
      <trkpt lat="47.23693" lon="-1.61299">
        <ele>26</ele>
        <time>2011-01-09T10:29:05Z</time>
      </trkpt>
      <trkpt lat="47.23727" lon="-1.61306">
        <ele>25</ele>
        <time>2011-01-09T10:29:48Z</time>
      </trkpt>
      <trkpt lat="47.23729" lon="-1.61307">
        <ele>25</ele>
        <time>2011-01-09T10:29:49Z</time>
      </trkpt>
      <trkpt lat="47.2373" lon="-1.61307">
        <ele>25</ele>
        <time>2011-01-09T10:29:50Z</time>
      </trkpt>
      <trkpt lat="47.23731" lon="-1.61307">
        <ele>25</ele>
        <time>2011-01-09T10:29:51Z</time>
      </trkpt>
      <trkpt lat="47.23731" lon="-1.61307">
        <ele>25</ele>
        <time>2011-01-09T10:29:52Z</time>
      </trkpt>
      <trkpt lat="47.23745" lon="-1.61321">
        <ele>24</ele>
        <time>2011-01-09T10:30:08Z</time>
      </trkpt>
      <trkpt lat="47.23747" lon="-1.61323">
        <ele>24</ele>
        <time>2011-01-09T10:30:09Z</time>
      </trkpt>
      <trkpt lat="47.23747" lon="-1.61324">
        <ele>24</ele>
        <time>2011-01-09T10:30:10Z</time>
      </trkpt>
      <trkpt lat="47.23749" lon="-1.61325">
        <ele>24</ele>
        <time>2011-01-09T10:30:11Z</time>
      </trkpt>
      <trkpt lat="47.2378" lon="-1.61368">
        <ele>24</ele>
        <time>2011-01-09T10:31:00Z</time>
      </trkpt>
      <trkpt lat="47.23781" lon="-1.61368">
        <ele>24</ele>
        <time>2011-01-09T10:31:01Z</time>
      </trkpt>
      <trkpt lat="47.23782" lon="-1.61368">
        <ele>24</ele>
        <time>2011-01-09T10:31:02Z</time>
      </trkpt>
      <trkpt lat="47.23782" lon="-1.61367">
        <ele>24</ele>
        <time>2011-01-09T10:31:03Z</time>
      </trkpt>
      <trkpt lat="47.23782" lon="-1.61368">
        <ele>24</ele>
        <time>2011-01-09T10:31:04Z</time>
      </trkpt>
      <trkpt lat="47.23782" lon="-1.61368">
        <ele>24</ele>
        <time>2011-01-09T10:31:05Z</time>
      </trkpt>
      <trkpt lat="47.23783" lon="-1.61368">
        <ele>24</ele>
        <time>2011-01-09T10:31:06Z</time>
      </trkpt>
      <trkpt lat="47.23784" lon="-1.61369">
        <ele>24</ele>
        <time>2011-01-09T10:31:07Z</time>
      </trkpt>
      <trkpt lat="47.23784" lon="-1.61371">
        <ele>24</ele>
        <time>2011-01-09T10:31:08Z</time>
      </trkpt>
      <trkpt lat="47.23792" lon="-1.61383">
        <ele>24</ele>
        <time>2011-01-09T10:31:25Z</time>
      </trkpt>
      <trkpt lat="47.23792" lon="-1.61384">
        <ele>24</ele>
        <time>2011-01-09T10:31:26Z</time>
      </trkpt>
      <trkpt lat="47.23793" lon="-1.61386">
        <ele>24</ele>
        <time>2011-01-09T10:31:27Z</time>
      </trkpt>
      <trkpt lat="47.23794" lon="-1.61387">
        <ele>24</ele>
        <time>2011-01-09T10:31:28Z</time>
      </trkpt>
      <trkpt lat="47.23794" lon="-1.61389">
        <ele>24</ele>
        <time>2011-01-09T10:31:29Z</time>
      </trkpt>
      <trkpt lat="47.23794" lon="-1.61391">
        <ele>24</ele>
        <time>2011-01-09T10:31:30Z</time>
      </trkpt>
      <trkpt lat="47.23795" lon="-1.61392">
        <ele>24</ele>
        <time>2011-01-09T10:31:31Z</time>
      </trkpt>
      <trkpt lat="47.23795" lon="-1.61394">
        <ele>24</ele>
        <time>2011-01-09T10:31:32Z</time>
      </trkpt>
      <trkpt lat="47.23795" lon="-1.61396">
        <ele>24</ele>
        <time>2011-01-09T10:31:33Z</time>
      </trkpt>
      <trkpt lat="47.23796" lon="-1.61398">
        <ele>24</ele>
        <time>2011-01-09T10:31:34Z</time>
      </trkpt>
      <trkpt lat="47.23797" lon="-1.61399">
        <ele>24</ele>
        <time>2011-01-09T10:31:35Z</time>
      </trkpt>
      <trkpt lat="47.23797" lon="-1.614">
        <ele>24</ele>
        <time>2011-01-09T10:31:36Z</time>
      </trkpt>
      <trkpt lat="47.23797" lon="-1.614">
        <ele>24</ele>
        <time>2011-01-09T10:31:37Z</time>
      </trkpt>
      <trkpt lat="47.23798" lon="-1.61401">
        <ele>24</ele>
        <time>2011-01-09T10:31:38Z</time>
      </trkpt>
      <trkpt lat="47.23799" lon="-1.61402">
        <ele>24</ele>
        <time>2011-01-09T10:31:39Z</time>
      </trkpt>
      <trkpt lat="47.23799" lon="-1.61403">
        <ele>24</ele>
        <time>2011-01-09T10:31:40Z</time>
      </trkpt>
      <trkpt lat="47.238" lon="-1.61404">
        <ele>24</ele>
        <time>2011-01-09T10:31:41Z</time>
      </trkpt>
      <trkpt lat="47.238" lon="-1.61404">
        <ele>24</ele>
        <time>2011-01-09T10:31:42Z</time>
      </trkpt>
      <trkpt lat="47.238" lon="-1.61404">
        <ele>24</ele>
        <time>2011-01-09T10:31:43Z</time>
      </trkpt>
      <trkpt lat="47.23801" lon="-1.61404">
        <ele>24</ele>
        <time>2011-01-09T10:31:44Z</time>
      </trkpt>
      <trkpt lat="47.23801" lon="-1.61404">
        <ele>24</ele>
        <time>2011-01-09T10:31:45Z</time>
      </trkpt>
      <trkpt lat="47.23801" lon="-1.61404">
        <ele>24</ele>
        <time>2011-01-09T10:31:46Z</time>
      </trkpt>
      <trkpt lat="47.23802" lon="-1.61412">
        <ele>24</ele>
        <time>2011-01-09T10:31:51Z</time>
      </trkpt>
      <trkpt lat="47.23802" lon="-1.61413">
        <ele>24</ele>
        <time>2011-01-09T10:31:52Z</time>
      </trkpt>
      <trkpt lat="47.23804" lon="-1.61424">
        <ele>24</ele>
        <time>2011-01-09T10:32:19Z</time>
      </trkpt>
      <trkpt lat="47.23804" lon="-1.61424">
        <ele>24</ele>
        <time>2011-01-09T10:32:19Z</time>
      </trkpt>
    </trkseg>
  </trk>
</gpx>